<?xml version='1.0' encoding='UTF-8'?><gpx version="1.1" creator="JPX - https://github.com/jenetics/jpx" xmlns="http://www.topografix.com/GPX/1/1"><trk><trkseg><trkpt lat="43.42792508132405" lon="6.2222861410822885"><ele>201.0</ele><time>2026-03-29T07:17:48.999Z</time></trkpt><trkpt lat="43.42785445347646" lon="6.222303503678655"><ele>201.0</ele><time>2026-03-29T07:17:59.999Z</time></trkpt><trkpt lat="43.427801740300055" lon="6.222239949993387"><ele>201.0</ele><time>2026-03-29T07:18:06.999Z</time></trkpt><trkpt lat="43.42775295549005" lon="6.2221628249613925"><ele>201.0</ele><time>2026-03-29T07:18:13.999Z</time></trkpt><trkpt lat="43.427688546279775" lon="6.222181464069699"><ele>201.0</ele><time>2026-03-29T07:18:20.999Z</time></trkpt><trkpt lat="43.42762222094646" lon="6.22220227443944"><ele>201.0</ele><time>2026-03-29T07:18:26.999Z</time></trkpt><trkpt lat="43.427556988669735" lon="6.22220858482562"><ele>201.0</ele><time>2026-03-29T07:21:07.998Z</time></trkpt><trkpt lat="43.42762452787502" lon="6.222217420369065"><ele>201.0</ele><time>2026-03-29T07:26:07Z</time></trkpt><trkpt lat="43.427698176807326" lon="6.222144392531971"><ele>201.0</ele><time>2026-03-29T07:26:33.999Z</time></trkpt><trkpt lat="43.427782840074464" lon="6.222197361221256"><ele>201.0</ele><time>2026-03-29T07:26:36.999Z</time></trkpt><trkpt lat="43.42782543968631" lon="6.222324894752898"><ele>201.0</ele><time>2026-03-29T07:26:38.999Z</time></trkpt><trkpt lat="43.4278568923009" lon="6.222410240585108"><ele>201.0</ele><time>2026-03-29T07:26:40.999Z</time></trkpt><trkpt lat="43.42782225998281" lon="6.222487808509317"><ele>201.0</ele><time>2026-03-29T07:26:42.999Z</time></trkpt><trkpt lat="43.427728409732126" lon="6.222528158613267"><ele>200.28571428571428</ele><time>2026-03-29T07:26:44.999Z</time></trkpt><trkpt lat="43.42766569095515" lon="6.222559003827564"><ele>199.57142857142858</ele><time>2026-03-29T07:26:47.999Z</time></trkpt><trkpt lat="43.42760179387907" lon="6.2226147985472275"><ele>198.85714285714286</ele><time>2026-03-29T07:33:20.999Z</time></trkpt><trkpt lat="43.42759391847339" lon="6.222708481698612"><ele>198.14285714285714</ele><time>2026-03-29T07:33:30.999Z</time></trkpt><trkpt lat="43.427630488439405" lon="6.222807595231181"><ele>197.42857142857144</ele><time>2026-03-29T07:33:58.998Z</time></trkpt><trkpt lat="43.42766260287616" lon="6.222884633711312"><ele>196.71428571428572</ele><time>2026-03-29T07:34:22Z</time></trkpt><trkpt lat="43.42772845964835" lon="6.2228047747375665"><ele>196.0</ele><time>2026-03-29T07:35:25.999Z</time></trkpt><trkpt lat="43.42778746461537" lon="6.222757606620841"><ele>195.99999999999997</ele><time>2026-03-29T07:39:17.999Z</time></trkpt><trkpt lat="43.42784420282509" lon="6.222708928048207"><ele>196.0</ele><time>2026-03-29T07:42:13.998Z</time></trkpt><trkpt lat="43.42790728121252" lon="6.222654123908074"><ele>196.0</ele><time>2026-03-29T07:44:04.999Z</time></trkpt><trkpt lat="43.427971210936676" lon="6.222619296934584"><ele>196.0</ele><time>2026-03-29T07:44:05.999Z</time></trkpt><trkpt lat="43.42803585985654" lon="6.222571719364101"><ele>195.99999999999997</ele><time>2026-03-29T07:44:06.999Z</time></trkpt><trkpt lat="43.428136543554956" lon="6.222506514960956"><ele>196.0</ele><time>2026-03-29T07:44:08.999Z</time></trkpt><trkpt lat="43.428191473121466" lon="6.222342975345507"><ele>196.83333333333331</ele><time>2026-03-29T07:44:10.999Z</time></trkpt><trkpt lat="43.428173989076946" lon="6.222243347046982"><ele>197.66666666666666</ele><time>2026-03-29T07:44:11.999Z</time></trkpt><trkpt lat="43.428103645295884" lon="6.222157396111686"><ele>198.5</ele><time>2026-03-29T07:44:12.999Z</time></trkpt><trkpt lat="43.42808890357306" lon="6.222052400010113"><ele>199.33333333333331</ele><time>2026-03-29T07:44:13.999Z</time></trkpt><trkpt lat="43.4280561889978" lon="6.2219727476026705"><ele>200.16666666666666</ele><time>2026-03-29T07:44:14.999Z</time></trkpt><trkpt lat="43.428012588419755" lon="6.221874073495808"><ele>201.0</ele><time>2026-03-29T07:44:15.999Z</time></trkpt><trkpt lat="43.42796954657016" lon="6.22175808745979"><ele>201.0</ele><time>2026-03-29T07:44:16.999Z</time></trkpt><trkpt lat="43.42792500861106" lon="6.221656765410854"><ele>201.0</ele><time>2026-03-29T07:44:17.999Z</time></trkpt><trkpt lat="43.42788700328073" lon="6.221563176480534"><ele>201.0</ele><time>2026-03-29T07:44:18.999Z</time></trkpt><trkpt lat="43.42785577575539" lon="6.221473209965452"><ele>201.0</ele><time>2026-03-29T07:44:19.998Z</time></trkpt><trkpt lat="43.42781801783683" lon="6.221379869044681"><ele>201.0</ele><time>2026-03-29T07:44:20.998Z</time></trkpt><trkpt lat="43.427768526474736" lon="6.2212851772817865"><ele>201.0</ele><time>2026-03-29T07:44:21.998Z</time></trkpt><trkpt lat="43.42772124507012" lon="6.221201788001469"><ele>201.33333333333334</ele><time>2026-03-29T07:44:22.998Z</time></trkpt><trkpt lat="43.42766512449916" lon="6.221138521991368"><ele>201.66666666666669</ele><time>2026-03-29T07:44:23.998Z</time></trkpt><trkpt lat="43.427599628590066" lon="6.221104429323745"><ele>202.0</ele><time>2026-03-29T07:44:24.998Z</time></trkpt><trkpt lat="43.4275250359332" lon="6.221090629307876"><ele>202.33333333333334</ele><time>2026-03-29T07:44:25.998Z</time></trkpt><trkpt lat="43.42744740550423" lon="6.221083674631826"><ele>202.66666666666669</ele><time>2026-03-29T07:44:26.998Z</time></trkpt><trkpt lat="43.42736199895507" lon="6.221069447212256"><ele>203.0</ele><time>2026-03-29T07:44:27.998Z</time></trkpt><trkpt lat="43.42728406807399" lon="6.221060816464621"><ele>203.00000000000003</ele><time>2026-03-29T07:44:28.998Z</time></trkpt><trkpt lat="43.42720836464799" lon="6.22103556440368"><ele>203.0</ele><time>2026-03-29T07:44:29.998Z</time></trkpt><trkpt lat="43.42713068445902" lon="6.221013524520498"><ele>203.0</ele><time>2026-03-29T07:44:30.998Z</time></trkpt><trkpt lat="43.42704574369161" lon="6.221002662091544"><ele>203.0</ele><time>2026-03-29T07:44:32Z</time></trkpt><trkpt lat="43.4269551186821" lon="6.22101376117623"><ele>203.00000000000003</ele><time>2026-03-29T07:44:33Z</time></trkpt><trkpt lat="43.4268696131325" lon="6.221039427037373"><ele>203.0</ele><time>2026-03-29T07:44:34Z</time></trkpt><trkpt lat="43.42679030449303" lon="6.221068117620993"><ele>203.14285714285714</ele><time>2026-03-29T07:44:35Z</time></trkpt><trkpt lat="43.42671582332339" lon="6.221081369109955"><ele>203.28571428571428</ele><time>2026-03-29T07:44:36Z</time></trkpt><trkpt lat="43.42664197122837" lon="6.2211118584271"><ele>203.42857142857144</ele><time>2026-03-29T07:44:37Z</time></trkpt><trkpt lat="43.42656295034916" lon="6.221127675943934"><ele>203.57142857142856</ele><time>2026-03-29T07:44:38Z</time></trkpt><trkpt lat="43.42649586450971" lon="6.221143673383168"><ele>203.71428571428572</ele><time>2026-03-29T07:44:39Z</time></trkpt><trkpt lat="43.42644371771027" lon="6.221085178720128"><ele>203.85714285714286</ele><time>2026-03-29T07:44:40Z</time></trkpt><trkpt lat="43.426383286709516" lon="6.221053028902365"><ele>204.0</ele><time>2026-03-29T07:44:41Z</time></trkpt><trkpt lat="43.426311349669305" lon="6.221010942661267"><ele>204.66666666666666</ele><time>2026-03-29T07:44:42Z</time></trkpt><trkpt lat="43.42624991140129" lon="6.220971659614285"><ele>205.33333333333331</ele><time>2026-03-29T07:44:43Z</time></trkpt><trkpt lat="43.42618708619128" lon="6.220931656267624"><ele>206.0</ele><time>2026-03-29T07:44:44Z</time></trkpt><trkpt lat="43.42611436801304" lon="6.220884912369468"><ele>206.66666666666666</ele><time>2026-03-29T07:44:45Z</time></trkpt><trkpt lat="43.42604153012305" lon="6.220838091801229"><ele>207.33333333333331</ele><time>2026-03-29T07:44:46Z</time></trkpt><trkpt lat="43.42596736323001" lon="6.2208089003571425"><ele>208.0</ele><time>2026-03-29T07:44:47Z</time></trkpt><trkpt lat="43.42589475185413" lon="6.220780086401305"><ele>208.0</ele><time>2026-03-29T07:44:48Z</time></trkpt><trkpt lat="43.425831865501316" lon="6.220755131923702"><ele>208.0</ele><time>2026-03-29T07:44:49Z</time></trkpt><trkpt lat="43.425769613882665" lon="6.220786309998264"><ele>208.0</ele><time>2026-03-29T07:44:50Z</time></trkpt><trkpt lat="43.42570453707902" lon="6.220785802370982"><ele>208.0</ele><time>2026-03-29T07:44:51Z</time></trkpt><trkpt lat="43.42563821484805" lon="6.220795088508765"><ele>208.0</ele><time>2026-03-29T07:44:52Z</time></trkpt><trkpt lat="43.42556569891809" lon="6.220813473284676"><ele>208.0</ele><time>2026-03-29T07:44:53Z</time></trkpt><trkpt lat="43.4254831118313" lon="6.2208350780204436"><ele>208.0</ele><time>2026-03-29T07:44:54Z</time></trkpt><trkpt lat="43.425413564443524" lon="6.2208546794735025"><ele>207.66666666666666</ele><time>2026-03-29T07:44:55Z</time></trkpt><trkpt lat="43.42528045007144" lon="6.22085344464481"><ele>207.33333333333331</ele><time>2026-03-29T07:44:57Z</time></trkpt><trkpt lat="43.42521576387466" lon="6.220853740557341"><ele>207.0</ele><time>2026-03-29T07:44:58Z</time></trkpt><trkpt lat="43.42514258746149" lon="6.220850800429891"><ele>206.66666666666669</ele><time>2026-03-29T07:44:59Z</time></trkpt><trkpt lat="43.4250695494001" lon="6.220847865865331"><ele>206.33333333333334</ele><time>2026-03-29T07:45:00Z</time></trkpt><trkpt lat="43.42498897531809" lon="6.220848360876123"><ele>206.0</ele><time>2026-03-29T07:45:01Z</time></trkpt><trkpt lat="43.4249129512257" lon="6.220852373876836"><ele>206.00000000000003</ele><time>2026-03-29T07:45:02Z</time></trkpt><trkpt lat="43.42484071491998" lon="6.22085618693765"><ele>206.0</ele><time>2026-03-29T07:45:03Z</time></trkpt><trkpt lat="43.424770621714536" lon="6.220879793542973"><ele>206.0</ele><time>2026-03-29T07:45:04Z</time></trkpt><trkpt lat="43.42464396387011" lon="6.220868591406399"><ele>206.0</ele><time>2026-03-29T07:45:06Z</time></trkpt><trkpt lat="43.4245652797365" lon="6.2208776221980004"><ele>206.00000000000003</ele><time>2026-03-29T07:45:07Z</time></trkpt><trkpt lat="43.42449187160797" lon="6.220951327697332"><ele>206.0</ele><time>2026-03-29T07:45:08Z</time></trkpt><trkpt lat="43.42441175222644" lon="6.220993946303217"><ele>206.83333333333334</ele><time>2026-03-29T07:45:09Z</time></trkpt><trkpt lat="43.424344329909225" lon="6.221055949329915"><ele>207.66666666666669</ele><time>2026-03-29T07:45:10Z</time></trkpt><trkpt lat="43.424273510859955" lon="6.221115807298762"><ele>208.5</ele><time>2026-03-29T07:45:11Z</time></trkpt><trkpt lat="43.424205585877864" lon="6.221164927668841"><ele>209.33333333333331</ele><time>2026-03-29T07:45:12Z</time></trkpt><trkpt lat="43.42413288686909" lon="6.221194474515197"><ele>210.16666666666666</ele><time>2026-03-29T07:45:13Z</time></trkpt><trkpt lat="43.4240546702249" lon="6.22114458622941"><ele>211.0</ele><time>2026-03-29T07:45:14Z</time></trkpt><trkpt lat="43.42397981227821" lon="6.221134943995658"><ele>210.99999999999997</ele><time>2026-03-29T07:45:15Z</time></trkpt><trkpt lat="43.42389198594365" lon="6.221123631250134"><ele>211.0</ele><time>2026-03-29T07:45:16Z</time></trkpt><trkpt lat="43.42379834627398" lon="6.221113067969884"><ele>211.0</ele><time>2026-03-29T07:45:17Z</time></trkpt><trkpt lat="43.423710927913696" lon="6.221104737310288"><ele>211.0</ele><time>2026-03-29T07:45:18Z</time></trkpt><trkpt lat="43.423627582214394" lon="6.221096794756559"><ele>210.99999999999997</ele><time>2026-03-29T07:45:19Z</time></trkpt><trkpt lat="43.42353860585251" lon="6.221088315626055"><ele>211.0</ele><time>2026-03-29T07:45:20Z</time></trkpt><trkpt lat="43.42344786377746" lon="6.221079668224093"><ele>211.4</ele><time>2026-03-29T07:45:21Z</time></trkpt><trkpt lat="43.42336602251649" lon="6.221072487183456"><ele>211.8</ele><time>2026-03-29T07:45:22Z</time></trkpt><trkpt lat="43.42327597681749" lon="6.2210647178147305"><ele>212.20000000000002</ele><time>2026-03-29T07:45:23Z</time></trkpt><trkpt lat="43.42317943114339" lon="6.221056387598228"><ele>212.60000000000002</ele><time>2026-03-29T07:45:24Z</time></trkpt><trkpt lat="43.42308399627552" lon="6.221048496275088"><ele>213.0</ele><time>2026-03-29T07:45:25Z</time></trkpt><trkpt lat="43.42298871737988" lon="6.2210456857873035"><ele>212.2</ele><time>2026-03-29T07:45:26Z</time></trkpt><trkpt lat="43.42288338570298" lon="6.221042935309876"><ele>211.4</ele><time>2026-03-29T07:45:27Z</time></trkpt><trkpt lat="43.42276919607689" lon="6.221035225425167"><ele>210.6</ele><time>2026-03-29T07:45:28Z</time></trkpt><trkpt lat="43.4226504875367" lon="6.221027210491718"><ele>209.79999999999998</ele><time>2026-03-29T07:45:29Z</time></trkpt><trkpt lat="43.4225487995747" lon="6.221017068849784"><ele>209.0</ele><time>2026-03-29T07:45:30Z</time></trkpt><trkpt lat="43.42244322828336" lon="6.221002348805337"><ele>209.0</ele><time>2026-03-29T07:45:31Z</time></trkpt><trkpt lat="43.42233246865467" lon="6.22097106579464"><ele>209.0</ele><time>2026-03-29T07:45:32Z</time></trkpt><trkpt lat="43.42221715638396" lon="6.220920063377568"><ele>209.0</ele><time>2026-03-29T07:45:33Z</time></trkpt><trkpt lat="43.422106591291474" lon="6.220874265294209"><ele>209.0</ele><time>2026-03-29T07:45:34Z</time></trkpt><trkpt lat="43.42198943101366" lon="6.220834706121223"><ele>208.25</ele><time>2026-03-29T07:45:35Z</time></trkpt><trkpt lat="43.421867175225195" lon="6.220825358450424"><ele>207.5</ele><time>2026-03-29T07:45:35.999Z</time></trkpt><trkpt lat="43.42174859401586" lon="6.2208129891373565"><ele>206.75</ele><time>2026-03-29T07:45:36.999Z</time></trkpt><trkpt lat="43.42162682237307" lon="6.22081392087211"><ele>206.0</ele><time>2026-03-29T07:45:37.999Z</time></trkpt><trkpt lat="43.42150758102554" lon="6.220827274788149"><ele>206.0</ele><time>2026-03-29T07:45:38.999Z</time></trkpt><trkpt lat="43.4213890247078" lon="6.220823631672628"><ele>206.0</ele><time>2026-03-29T07:45:39.999Z</time></trkpt><trkpt lat="43.421285935792525" lon="6.220847731835296"><ele>206.0</ele><time>2026-03-29T07:45:40.999Z</time></trkpt><trkpt lat="43.42117233759975" lon="6.220842979409508"><ele>206.0</ele><time>2026-03-29T07:45:41.999Z</time></trkpt><trkpt lat="43.42104628672915" lon="6.220839966646684"><ele>205.0</ele><time>2026-03-29T07:45:42.999Z</time></trkpt><trkpt lat="43.42092347383218" lon="6.2208177871466095"><ele>204.0</ele><time>2026-03-29T07:45:43.999Z</time></trkpt><trkpt lat="43.42079272113106" lon="6.220792885896529"><ele>203.0</ele><time>2026-03-29T07:45:44.999Z</time></trkpt><trkpt lat="43.42066019814971" lon="6.220769242833577"><ele>202.0</ele><time>2026-03-29T07:45:45.999Z</time></trkpt><trkpt lat="43.4205241571019" lon="6.220774594504797"><ele>202.5</ele><time>2026-03-29T07:45:46.999Z</time></trkpt><trkpt lat="43.42039022536644" lon="6.220761128508995"><ele>203.0</ele><time>2026-03-29T07:45:47.999Z</time></trkpt><trkpt lat="43.420255313373616" lon="6.220745923991068"><ele>203.5</ele><time>2026-03-29T07:45:48.999Z</time></trkpt><trkpt lat="43.42012683150092" lon="6.220745924720593"><ele>204.0</ele><time>2026-03-29T07:45:49.999Z</time></trkpt><trkpt lat="43.419997005270474" lon="6.220747416171156"><ele>204.0</ele><time>2026-03-29T07:45:50.999Z</time></trkpt><trkpt lat="43.41987325626352" lon="6.2207430029187645"><ele>204.0</ele><time>2026-03-29T07:45:51.999Z</time></trkpt><trkpt lat="43.41974634898587" lon="6.220729512981225"><ele>204.0</ele><time>2026-03-29T07:45:52.999Z</time></trkpt><trkpt lat="43.41961544662742" lon="6.220716455545815"><ele>204.0</ele><time>2026-03-29T07:45:53.999Z</time></trkpt><trkpt lat="43.41948813135254" lon="6.220723310967964"><ele>204.75</ele><time>2026-03-29T07:45:54.999Z</time></trkpt><trkpt lat="43.419359897052644" lon="6.220739523634403"><ele>205.5</ele><time>2026-03-29T07:45:55.999Z</time></trkpt><trkpt lat="43.41923125532887" lon="6.220758083700921"><ele>206.25</ele><time>2026-03-29T07:45:56.999Z</time></trkpt><trkpt lat="43.419105312679285" lon="6.220788830101046"><ele>207.0</ele><time>2026-03-29T07:45:57.999Z</time></trkpt><trkpt lat="43.418977542774094" lon="6.220840965517965"><ele>207.0</ele><time>2026-03-29T07:45:58.999Z</time></trkpt><trkpt lat="43.41884984621801" lon="6.220898451119169"><ele>207.0</ele><time>2026-03-29T07:45:59.999Z</time></trkpt><trkpt lat="43.41872447287053" lon="6.220955623506484"><ele>207.0</ele><time>2026-03-29T07:46:00.999Z</time></trkpt><trkpt lat="43.41859469343481" lon="6.221018734467563"><ele>207.0</ele><time>2026-03-29T07:46:01.999Z</time></trkpt><trkpt lat="43.418471496308925" lon="6.221083399862758"><ele>209.75</ele><time>2026-03-29T07:46:02.999Z</time></trkpt><trkpt lat="43.41834706559762" lon="6.221149763196324"><ele>212.5</ele><time>2026-03-29T07:46:03.999Z</time></trkpt><trkpt lat="43.4182198837064" lon="6.221212648082507"><ele>215.25</ele><time>2026-03-29T07:46:04.999Z</time></trkpt><trkpt lat="43.418096454967035" lon="6.221272441529579"><ele>218.0</ele><time>2026-03-29T07:46:05.999Z</time></trkpt><trkpt lat="43.41796602208269" lon="6.221335529511274"><ele>214.75</ele><time>2026-03-29T07:46:06.999Z</time></trkpt><trkpt lat="43.41783972668778" lon="6.221400279549718"><ele>211.5</ele><time>2026-03-29T07:46:07.999Z</time></trkpt><trkpt lat="43.417713562235065" lon="6.221469678756507"><ele>208.25</ele><time>2026-03-29T07:46:08.999Z</time></trkpt><trkpt lat="43.417594132083686" lon="6.221532939726593"><ele>205.0</ele><time>2026-03-29T07:46:09.999Z</time></trkpt><trkpt lat="43.41747022878952" lon="6.221603417804604"><ele>205.0</ele><time>2026-03-29T07:46:10.999Z</time></trkpt><trkpt lat="43.41734651672372" lon="6.221687401180047"><ele>205.0</ele><time>2026-03-29T07:46:11.999Z</time></trkpt><trkpt lat="43.417225269583945" lon="6.221786229274832"><ele>205.0</ele><time>2026-03-29T07:46:12.999Z</time></trkpt><trkpt lat="43.41711590383128" lon="6.221907677335053"><ele>205.0</ele><time>2026-03-29T07:46:13.999Z</time></trkpt><trkpt lat="43.41700022884765" lon="6.222056505172264"><ele>204.5</ele><time>2026-03-29T07:46:14.999Z</time></trkpt><trkpt lat="43.41690577057763" lon="6.222201561619617"><ele>204.0</ele><time>2026-03-29T07:46:15.999Z</time></trkpt><trkpt lat="43.41678047932643" lon="6.222312444585521"><ele>203.5</ele><time>2026-03-29T07:46:16.999Z</time></trkpt><trkpt lat="43.41665890087406" lon="6.222445145205583"><ele>203.0</ele><time>2026-03-29T07:46:17.999Z</time></trkpt><trkpt lat="43.416548116595244" lon="6.222539933859315"><ele>203.0</ele><time>2026-03-29T07:46:18.999Z</time></trkpt><trkpt lat="43.41643053524893" lon="6.222564812395342"><ele>203.0</ele><time>2026-03-29T07:46:19.999Z</time></trkpt><trkpt lat="43.416312894459054" lon="6.222577509458625"><ele>203.0</ele><time>2026-03-29T07:46:20.999Z</time></trkpt><trkpt lat="43.41621324316551" lon="6.222552377681738"><ele>203.0</ele><time>2026-03-29T07:46:21.999Z</time></trkpt><trkpt lat="43.41610176516325" lon="6.222477417902317"><ele>202.75</ele><time>2026-03-29T07:46:22.999Z</time></trkpt><trkpt lat="43.41599230770342" lon="6.222379526948345"><ele>202.5</ele><time>2026-03-29T07:46:23.999Z</time></trkpt><trkpt lat="43.41587951759631" lon="6.222266179018987"><ele>202.25</ele><time>2026-03-29T07:46:24.999Z</time></trkpt><trkpt lat="43.41577506382269" lon="6.222163398927853"><ele>202.0</ele><time>2026-03-29T07:46:25.999Z</time></trkpt><trkpt lat="43.41567578664398" lon="6.222046267505132"><ele>203.5</ele><time>2026-03-29T07:46:26.999Z</time></trkpt><trkpt lat="43.41557131891593" lon="6.2219117172423015"><ele>205.0</ele><time>2026-03-29T07:46:27.999Z</time></trkpt><trkpt lat="43.41545434542229" lon="6.221807291931674"><ele>206.5</ele><time>2026-03-29T07:46:28.999Z</time></trkpt><trkpt lat="43.41534999206482" lon="6.221687063610153"><ele>208.0</ele><time>2026-03-29T07:46:29.999Z</time></trkpt><trkpt lat="43.415224704076145" lon="6.2215902110912085"><ele>208.0</ele><time>2026-03-29T07:46:30.999Z</time></trkpt><trkpt lat="43.41509119783571" lon="6.221514547657725"><ele>208.0</ele><time>2026-03-29T07:46:31.998Z</time></trkpt><trkpt lat="43.41495025769749" lon="6.221467956757499"><ele>208.0</ele><time>2026-03-29T07:46:32.998Z</time></trkpt><trkpt lat="43.414805871918226" lon="6.221450004380861"><ele>208.0</ele><time>2026-03-29T07:46:33.998Z</time></trkpt><trkpt lat="43.4146537743903" lon="6.221470871704469"><ele>209.66666666666666</ele><time>2026-03-29T07:46:34.998Z</time></trkpt><trkpt lat="43.41449445969761" lon="6.221535047705694"><ele>211.33333333333331</ele><time>2026-03-29T07:46:35.998Z</time></trkpt><trkpt lat="43.414332392071906" lon="6.221648411670023"><ele>213.0</ele><time>2026-03-29T07:46:37Z</time></trkpt><trkpt lat="43.41418612038125" lon="6.221809720433144"><ele>213.0</ele><time>2026-03-29T07:46:38Z</time></trkpt><trkpt lat="43.414077726069834" lon="6.221949867951663"><ele>213.0</ele><time>2026-03-29T07:46:39Z</time></trkpt><trkpt lat="43.41395325471341" lon="6.222031157393528"><ele>213.0</ele><time>2026-03-29T07:46:40Z</time></trkpt><trkpt lat="43.41382315149713" lon="6.222080217335149"><ele>213.0</ele><time>2026-03-29T07:46:41Z</time></trkpt><trkpt lat="43.413692761730985" lon="6.22211489367503"><ele>213.25</ele><time>2026-03-29T07:46:42Z</time></trkpt><trkpt lat="43.41356668864182" lon="6.222135235788958"><ele>213.5</ele><time>2026-03-29T07:46:43Z</time></trkpt><trkpt lat="43.41344945958511" lon="6.222110737239719"><ele>213.75</ele><time>2026-03-29T07:46:44Z</time></trkpt><trkpt lat="43.41333221650456" lon="6.222087188623492"><ele>214.0</ele><time>2026-03-29T07:46:45Z</time></trkpt><trkpt lat="43.41324763293515" lon="6.221961734994377"><ele>214.0</ele><time>2026-03-29T07:46:46Z</time></trkpt><trkpt lat="43.413150552830615" lon="6.221851780813594"><ele>214.0</ele><time>2026-03-29T07:46:47Z</time></trkpt><trkpt lat="43.41305840352895" lon="6.221724844632297"><ele>214.0</ele><time>2026-03-29T07:46:48Z</time></trkpt><trkpt lat="43.41296095665199" lon="6.221589823253506"><ele>214.0</ele><time>2026-03-29T07:46:49Z</time></trkpt><trkpt lat="43.412863439836926" lon="6.221453913249987"><ele>212.75</ele><time>2026-03-29T07:46:50Z</time></trkpt><trkpt lat="43.41276449160841" lon="6.221316008312231"><ele>211.5</ele><time>2026-03-29T07:46:51Z</time></trkpt><trkpt lat="43.412668114049566" lon="6.22117824444229"><ele>210.25</ele><time>2026-03-29T07:46:52Z</time></trkpt><trkpt lat="43.41257178020264" lon="6.221038254442039"><ele>209.0</ele><time>2026-03-29T07:46:53Z</time></trkpt><trkpt lat="43.412479600707066" lon="6.220904301449323"><ele>209.0</ele><time>2026-03-29T07:46:54Z</time></trkpt><trkpt lat="43.41238985907438" lon="6.2207768905771115"><ele>209.0</ele><time>2026-03-29T07:46:55Z</time></trkpt><trkpt lat="43.41229580179687" lon="6.220645120078337"><ele>209.0</ele><time>2026-03-29T07:46:56Z</time></trkpt><trkpt lat="43.41220207545979" lon="6.220554899939866"><ele>209.0</ele><time>2026-03-29T07:46:57Z</time></trkpt><trkpt lat="43.41214099789183" lon="6.2204631943760935"><ele>208.39999999999998</ele><time>2026-03-29T07:46:58Z</time></trkpt><trkpt lat="43.412086800554135" lon="6.220402680533595"><ele>207.8</ele><time>2026-03-29T07:46:59Z</time></trkpt><trkpt lat="43.41197179626016" lon="6.220205986616017"><ele>207.2</ele><time>2026-03-29T07:47:06Z</time></trkpt><trkpt lat="43.41192381454121" lon="6.220146574954204"><ele>206.60000000000002</ele><time>2026-03-29T07:47:07Z</time></trkpt><trkpt lat="43.411832566152576" lon="6.220034004850984"><ele>206.0</ele><time>2026-03-29T07:47:09Z</time></trkpt><trkpt lat="43.41175565887455" lon="6.219939127196075"><ele>206.0</ele><time>2026-03-29T07:47:11Z</time></trkpt><trkpt lat="43.41169553128257" lon="6.219864949919539"><ele>206.0</ele><time>2026-03-29T07:47:16Z</time></trkpt><trkpt lat="43.4115057386431" lon="6.22007902184799"><ele>206.0</ele><time>2026-03-29T07:47:19Z</time></trkpt><trkpt lat="43.41146624312536" lon="6.220155252255124"><ele>206.0</ele><time>2026-03-29T07:47:20Z</time></trkpt><trkpt lat="43.41141301292191" lon="6.220294095433443"><ele>203.33333333333334</ele><time>2026-03-29T07:47:21Z</time></trkpt><trkpt lat="43.411314092783805" lon="6.220451813270184"><ele>200.66666666666669</ele><time>2026-03-29T07:47:22Z</time></trkpt><trkpt lat="43.41121833139749" lon="6.220647358206944"><ele>198.0</ele><time>2026-03-29T07:47:23Z</time></trkpt><trkpt lat="43.41113624638115" lon="6.220828207786177"><ele>197.5</ele><time>2026-03-29T07:47:24Z</time></trkpt><trkpt lat="43.411104437714165" lon="6.221035434459567"><ele>197.0</ele><time>2026-03-29T07:47:25Z</time></trkpt><trkpt lat="43.41107572256528" lon="6.221235883093332"><ele>196.5</ele><time>2026-03-29T07:47:26Z</time></trkpt><trkpt lat="43.411030890276585" lon="6.221423206919109"><ele>196.0</ele><time>2026-03-29T07:47:27Z</time></trkpt><trkpt lat="43.410960247307116" lon="6.22156270576124"><ele>196.0</ele><time>2026-03-29T07:47:28Z</time></trkpt><trkpt lat="43.41090410784684" lon="6.221681553500917"><ele>196.0</ele><time>2026-03-29T07:47:29Z</time></trkpt><trkpt lat="43.410830948881376" lon="6.221724206679211"><ele>196.0</ele><time>2026-03-29T07:47:30Z</time></trkpt><trkpt lat="43.41076378916681" lon="6.221742423455516"><ele>196.0</ele><time>2026-03-29T07:47:31Z</time></trkpt><trkpt lat="43.41066015850987" lon="6.221782426138548"><ele>196.0</ele><time>2026-03-29T07:47:32Z</time></trkpt><trkpt lat="43.41053512256706" lon="6.221824468848074"><ele>195.66666666666666</ele><time>2026-03-29T07:47:33Z</time></trkpt><trkpt lat="43.41036969025562" lon="6.221878356860227"><ele>195.33333333333331</ele><time>2026-03-29T07:47:34Z</time></trkpt><trkpt lat="43.41018994332462" lon="6.221933468306966"><ele>195.0</ele><time>2026-03-29T07:47:35Z</time></trkpt><trkpt lat="43.40999516952476" lon="6.221992009764454"><ele>195.0</ele><time>2026-03-29T07:47:36Z</time></trkpt><trkpt lat="43.409824849838216" lon="6.222062930575551"><ele>195.0</ele><time>2026-03-29T07:47:37Z</time></trkpt><trkpt lat="43.40963068670566" lon="6.222155771860845"><ele>195.0</ele><time>2026-03-29T07:47:38Z</time></trkpt><trkpt lat="43.409448630996636" lon="6.222241573716884"><ele>195.66666666666669</ele><time>2026-03-29T07:47:39Z</time></trkpt><trkpt lat="43.4092933296274" lon="6.222288252541744"><ele>196.33333333333334</ele><time>2026-03-29T07:47:40Z</time></trkpt><trkpt lat="43.40914511805653" lon="6.222310696512945"><ele>197.0</ele><time>2026-03-29T07:47:41Z</time></trkpt><trkpt lat="43.409001245921765" lon="6.222326281389643"><ele>197.00000000000003</ele><time>2026-03-29T07:47:42Z</time></trkpt><trkpt lat="43.40887937923728" lon="6.222332459871442"><ele>197.0</ele><time>2026-03-29T07:47:43Z</time></trkpt><trkpt lat="43.40880292673432" lon="6.2223175045008245"><ele>197.0</ele><time>2026-03-29T07:47:43.999Z</time></trkpt><trkpt lat="43.408835552160895" lon="6.222234116388316"><ele>197.0</ele><time>2026-03-29T07:47:46.999Z</time></trkpt><trkpt lat="43.40884521025914" lon="6.222132540712347"><ele>197.00000000000003</ele><time>2026-03-29T07:47:49.999Z</time></trkpt><trkpt lat="43.40884889556735" lon="6.222042277358847"><ele>197.0</ele><time>2026-03-29T07:47:50.999Z</time></trkpt><trkpt lat="43.4088525718832" lon="6.221917908951554"><ele>197.16666666666669</ele><time>2026-03-29T07:47:51.999Z</time></trkpt><trkpt lat="43.408843759895674" lon="6.221798654769347"><ele>197.33333333333334</ele><time>2026-03-29T07:47:52.999Z</time></trkpt><trkpt lat="43.408826954935996" lon="6.221706504178592"><ele>197.5</ele><time>2026-03-29T07:47:53.999Z</time></trkpt><trkpt lat="43.408783569268756" lon="6.221617960130283"><ele>197.66666666666669</ele><time>2026-03-29T07:47:54.999Z</time></trkpt><trkpt lat="43.408694782323465" lon="6.221589085728751"><ele>197.83333333333334</ele><time>2026-03-29T07:47:55.999Z</time></trkpt><trkpt lat="43.40859773049512" lon="6.221642781906941"><ele>198.0</ele><time>2026-03-29T07:47:56.999Z</time></trkpt><trkpt lat="43.40851479542115" lon="6.221648462897268"><ele>198.2</ele><time>2026-03-29T07:47:57.999Z</time></trkpt><trkpt lat="43.40843297685349" lon="6.221627748664608"><ele>198.4</ele><time>2026-03-29T07:47:58.999Z</time></trkpt><trkpt lat="43.408337845763484" lon="6.2215916677190775"><ele>198.6</ele><time>2026-03-29T07:47:59.999Z</time></trkpt><trkpt lat="43.40821735117598" lon="6.221584148315986"><ele>198.79999999999998</ele><time>2026-03-29T07:48:00.999Z</time></trkpt><trkpt lat="43.408084638537936" lon="6.221585148110027"><ele>199.0</ele><time>2026-03-29T07:48:01.999Z</time></trkpt><trkpt lat="43.40801212155348" lon="6.221567700979701"><ele>199.0</ele><time>2026-03-29T07:48:02.999Z</time></trkpt><trkpt lat="43.40795364107783" lon="6.221532922458331"><ele>199.0</ele><time>2026-03-29T07:48:03.999Z</time></trkpt><trkpt lat="43.407865251854304" lon="6.221510631707704"><ele>199.0</ele><time>2026-03-29T07:48:05.999Z</time></trkpt><trkpt lat="43.40792702144522" lon="6.22138858890412"><ele>199.0</ele><time>2026-03-29T07:48:06.999Z</time></trkpt><trkpt lat="43.40790445759684" lon="6.221258005886115"><ele>199.0</ele><time>2026-03-29T07:48:07.999Z</time></trkpt><trkpt lat="43.40787073411107" lon="6.221118032515845"><ele>199.33333333333331</ele><time>2026-03-29T07:48:08.999Z</time></trkpt><trkpt lat="43.40781613011611" lon="6.220973278883332"><ele>199.66666666666666</ele><time>2026-03-29T07:48:09.999Z</time></trkpt><trkpt lat="43.40778360491215" lon="6.220893595845475"><ele>200.0</ele><time>2026-03-29T07:48:10.999Z</time></trkpt><trkpt lat="43.407756203345635" lon="6.220792758404633"><ele>200.33333333333331</ele><time>2026-03-29T07:48:11.999Z</time></trkpt><trkpt lat="43.407734504524576" lon="6.220696506742355"><ele>200.66666666666666</ele><time>2026-03-29T07:48:12.999Z</time></trkpt><trkpt lat="43.407714471525914" lon="6.220592035426838"><ele>201.0</ele><time>2026-03-29T07:48:13.999Z</time></trkpt><trkpt lat="43.407700773006134" lon="6.2204952270338305"><ele>201.4</ele><time>2026-03-29T07:48:14.999Z</time></trkpt><trkpt lat="43.40771226067042" lon="6.220334699627097"><ele>201.8</ele><time>2026-03-29T07:48:16.999Z</time></trkpt><trkpt lat="43.407734024727986" lon="6.220249107802949"><ele>202.20000000000002</ele><time>2026-03-29T07:48:17.999Z</time></trkpt><trkpt lat="43.40784761775887" lon="6.220109165778358"><ele>202.60000000000002</ele><time>2026-03-29T07:48:19.999Z</time></trkpt><trkpt lat="43.40790509827854" lon="6.220051424935113"><ele>203.0</ele><time>2026-03-29T07:48:20.999Z</time></trkpt><trkpt lat="43.40794607969128" lon="6.219968951464245"><ele>203.66666666666669</ele><time>2026-03-29T07:48:21.999Z</time></trkpt><trkpt lat="43.40800194644744" lon="6.219846014944957"><ele>204.33333333333334</ele><time>2026-03-29T07:48:22.999Z</time></trkpt><trkpt lat="43.40804057335748" lon="6.219724549709576"><ele>205.0</ele><time>2026-03-29T07:48:23.999Z</time></trkpt><trkpt lat="43.40808288037322" lon="6.219624160536499"><ele>205.66666666666669</ele><time>2026-03-29T07:48:24.999Z</time></trkpt><trkpt lat="43.40813430801599" lon="6.219565489736157"><ele>206.33333333333334</ele><time>2026-03-29T07:48:25.999Z</time></trkpt><trkpt lat="43.4081987127235" lon="6.21947715423838"><ele>207.0</ele><time>2026-03-29T07:48:26.999Z</time></trkpt><trkpt lat="43.40825802521754" lon="6.219366863595523"><ele>207.0</ele><time>2026-03-29T07:48:27.999Z</time></trkpt><trkpt lat="43.408302564489745" lon="6.219233681661868"><ele>207.0</ele><time>2026-03-29T07:48:28.999Z</time></trkpt><trkpt lat="43.40831833901752" lon="6.219078394176094"><ele>207.0</ele><time>2026-03-29T07:48:29.999Z</time></trkpt><trkpt lat="43.40834743694548" lon="6.218944532455838"><ele>207.0</ele><time>2026-03-29T07:48:30.999Z</time></trkpt><trkpt lat="43.40834742617134" lon="6.2187998931585495"><ele>207.0</ele><time>2026-03-29T07:48:31.999Z</time></trkpt><trkpt lat="43.40833670631834" lon="6.218658217542769"><ele>207.0</ele><time>2026-03-29T07:48:32.999Z</time></trkpt><trkpt lat="43.408322316497745" lon="6.2185272660660615"><ele>207.0</ele><time>2026-03-29T07:48:33.999Z</time></trkpt><trkpt lat="43.4083043639042" lon="6.218394700477503"><ele>207.0</ele><time>2026-03-29T07:48:34.999Z</time></trkpt><trkpt lat="43.408290667393615" lon="6.218271989558629"><ele>207.0</ele><time>2026-03-29T07:48:35.999Z</time></trkpt><trkpt lat="43.40830112654758" lon="6.218170623775724"><ele>207.0</ele><time>2026-03-29T07:48:36.999Z</time></trkpt><trkpt lat="43.40832775616154" lon="6.218043995576472"><ele>207.0</ele><time>2026-03-29T07:48:37.999Z</time></trkpt><trkpt lat="43.4083419585297" lon="6.217922984219987"><ele>207.0</ele><time>2026-03-29T07:48:38.999Z</time></trkpt><trkpt lat="43.408353597279316" lon="6.217796450144247"><ele>207.0</ele><time>2026-03-29T07:48:39.998Z</time></trkpt><trkpt lat="43.40836790371637" lon="6.217658605727462"><ele>207.0</ele><time>2026-03-29T07:48:40.998Z</time></trkpt><trkpt lat="43.40838261051585" lon="6.217539096947023"><ele>207.0</ele><time>2026-03-29T07:48:41.998Z</time></trkpt><trkpt lat="43.40839691594509" lon="6.21745044098636"><ele>207.0</ele><time>2026-03-29T07:48:43.001Z</time></trkpt><trkpt lat="43.40841465022798" lon="6.217364220717478"><ele>206.25</ele><time>2026-03-29T07:48:44.001Z</time></trkpt><trkpt lat="43.40844556549018" lon="6.217232566395417"><ele>205.5</ele><time>2026-03-29T07:48:46.001Z</time></trkpt><trkpt lat="43.40830244488507" lon="6.217095961785182"><ele>204.75</ele><time>2026-03-29T07:48:51.001Z</time></trkpt><trkpt lat="43.40821469889105" lon="6.217079448933"><ele>204.0</ele><time>2026-03-29T07:48:52.001Z</time></trkpt><trkpt lat="43.40812393059866" lon="6.217069843900408"><ele>204.0</ele><time>2026-03-29T07:48:53.001Z</time></trkpt><trkpt lat="43.40802949144338" lon="6.217048278914907"><ele>204.0</ele><time>2026-03-29T07:48:54.001Z</time></trkpt><trkpt lat="43.407922636524745" lon="6.2170217466853925"><ele>204.0</ele><time>2026-03-29T07:48:55.001Z</time></trkpt><trkpt lat="43.40780185880297" lon="6.216989319417545"><ele>204.0</ele><time>2026-03-29T07:48:56.001Z</time></trkpt><trkpt lat="43.40768591381225" lon="6.216968189480888"><ele>204.0</ele><time>2026-03-29T07:48:57.001Z</time></trkpt><trkpt lat="43.40756550978543" lon="6.216905610421041"><ele>203.75</ele><time>2026-03-29T07:48:58.001Z</time></trkpt><trkpt lat="43.4074422499223" lon="6.21684336243478"><ele>203.5</ele><time>2026-03-29T07:48:59.001Z</time></trkpt><trkpt lat="43.40730828751323" lon="6.216785393961215"><ele>203.25</ele><time>2026-03-29T07:49:00Z</time></trkpt><trkpt lat="43.407183288079885" lon="6.216692848360336"><ele>203.0</ele><time>2026-03-29T07:49:01Z</time></trkpt><trkpt lat="43.40704976866564" lon="6.216613088839729"><ele>203.0</ele><time>2026-03-29T07:49:02Z</time></trkpt><trkpt lat="43.40691481465857" lon="6.216535445952576"><ele>203.0</ele><time>2026-03-29T07:49:03Z</time></trkpt><trkpt lat="43.40677293308304" lon="6.216463642583573"><ele>203.0</ele><time>2026-03-29T07:49:04Z</time></trkpt><trkpt lat="43.40662330647618" lon="6.216420003231797"><ele>202.75</ele><time>2026-03-29T07:49:05Z</time></trkpt><trkpt lat="43.406472198469174" lon="6.216390618825256"><ele>202.5</ele><time>2026-03-29T07:49:06Z</time></trkpt><trkpt lat="43.40632125320829" lon="6.216360402182975"><ele>202.25</ele><time>2026-03-29T07:49:07Z</time></trkpt><trkpt lat="43.40617959563686" lon="6.216332189389719"><ele>202.0</ele><time>2026-03-29T07:49:08Z</time></trkpt><trkpt lat="43.406038528827374" lon="6.216301388106233"><ele>202.0</ele><time>2026-03-29T07:49:08.999Z</time></trkpt><trkpt lat="43.405902900245266" lon="6.216272511123248"><ele>202.0</ele><time>2026-03-29T07:49:09.999Z</time></trkpt><trkpt lat="43.40578108771578" lon="6.216246240340844"><ele>202.0</ele><time>2026-03-29T07:49:10.999Z</time></trkpt><trkpt lat="43.40566392004703" lon="6.21621964466288"><ele>202.0</ele><time>2026-03-29T07:49:11.999Z</time></trkpt><trkpt lat="43.40554231958762" lon="6.216197620428624"><ele>202.75</ele><time>2026-03-29T07:49:12.999Z</time></trkpt><trkpt lat="43.40541735869403" lon="6.216179374635433"><ele>203.5</ele><time>2026-03-29T07:49:13.999Z</time></trkpt><trkpt lat="43.40528619295968" lon="6.216141036092204"><ele>204.25</ele><time>2026-03-29T07:49:14.999Z</time></trkpt><trkpt lat="43.4051576864118" lon="6.216085908494206"><ele>205.0</ele><time>2026-03-29T07:49:15.999Z</time></trkpt><trkpt lat="43.405039030059356" lon="6.216027473914684"><ele>205.0</ele><time>2026-03-29T07:49:16.999Z</time></trkpt><trkpt lat="43.40492414716218" lon="6.215970590702496"><ele>205.0</ele><time>2026-03-29T07:49:17.999Z</time></trkpt><trkpt lat="43.40480546533793" lon="6.215909382132084"><ele>205.0</ele><time>2026-03-29T07:49:18.999Z</time></trkpt><trkpt lat="43.40467935342142" lon="6.2158523085772766"><ele>205.0</ele><time>2026-03-29T07:49:19.999Z</time></trkpt><trkpt lat="43.4045503303232" lon="6.215795819418146"><ele>205.75</ele><time>2026-03-29T07:49:20.999Z</time></trkpt><trkpt lat="43.404413633109925" lon="6.215731254475363"><ele>206.5</ele><time>2026-03-29T07:49:21.999Z</time></trkpt><trkpt lat="43.404271843694566" lon="6.215673137549914"><ele>207.25</ele><time>2026-03-29T07:49:22.999Z</time></trkpt><trkpt lat="43.40413009125296" lon="6.215611029115617"><ele>208.0</ele><time>2026-03-29T07:49:23.999Z</time></trkpt><trkpt lat="43.40399015572409" lon="6.215551240145584"><ele>209.0</ele><time>2026-03-29T07:49:24.999Z</time></trkpt><trkpt lat="43.403846775588164" lon="6.215490105373396"><ele>210.0</ele><time>2026-03-29T07:49:25.999Z</time></trkpt><trkpt lat="43.40369880985014" lon="6.215454163807247"><ele>211.0</ele><time>2026-03-29T07:49:26.999Z</time></trkpt><trkpt lat="43.40354989022997" lon="6.215433677051218"><ele>211.33333333333331</ele><time>2026-03-29T07:49:27.999Z</time></trkpt><trkpt lat="43.403395071548445" lon="6.215444219340761"><ele>211.66666666666669</ele><time>2026-03-29T07:49:28.999Z</time></trkpt><trkpt lat="43.4032535456051" lon="6.2154966900315936"><ele>212.0</ele><time>2026-03-29T07:49:29.999Z</time></trkpt><trkpt lat="43.40310989278015" lon="6.215564640571313"><ele>211.75</ele><time>2026-03-29T07:49:30.999Z</time></trkpt><trkpt lat="43.4029701760402" lon="6.2156410886833156"><ele>211.5</ele><time>2026-03-29T07:49:31.999Z</time></trkpt><trkpt lat="43.402844876660396" lon="6.215706358343431"><ele>211.25</ele><time>2026-03-29T07:49:32.999Z</time></trkpt><trkpt lat="43.4027226949365" lon="6.215763090694389"><ele>211.0</ele><time>2026-03-29T07:49:33.999Z</time></trkpt><trkpt lat="43.40261102072435" lon="6.215808765390418"><ele>210.0</ele><time>2026-03-29T07:49:34.999Z</time></trkpt><trkpt lat="43.40250787383995" lon="6.215837768119159"><ele>209.0</ele><time>2026-03-29T07:49:35.999Z</time></trkpt><trkpt lat="43.402404465137366" lon="6.21581017326937"><ele>208.0</ele><time>2026-03-29T07:49:36.999Z</time></trkpt><trkpt lat="43.40232282814536" lon="6.215761405464305"><ele>207.0</ele><time>2026-03-29T07:49:37.999Z</time></trkpt><trkpt lat="43.402233855258395" lon="6.215705060052868"><ele>206.0</ele><time>2026-03-29T07:49:38.999Z</time></trkpt><trkpt lat="43.4021537666665" lon="6.2156632919949795"><ele>206.0</ele><time>2026-03-29T07:49:39.999Z</time></trkpt><trkpt lat="43.40204651027278" lon="6.215605746889881"><ele>206.0</ele><time>2026-03-29T07:49:40.999Z</time></trkpt><trkpt lat="43.40194303057757" lon="6.215550199433942"><ele>206.0</ele><time>2026-03-29T07:49:41.999Z</time></trkpt><trkpt lat="43.40185480094611" lon="6.215502914831562"><ele>206.0</ele><time>2026-03-29T07:49:42.999Z</time></trkpt><trkpt lat="43.40176658869896" lon="6.215455639579084"><ele>206.0</ele><time>2026-03-29T07:49:44.999Z</time></trkpt><trkpt lat="43.401711150767945" lon="6.215665040842992"><ele>206.0</ele><time>2026-03-29T07:49:45.999Z</time></trkpt><trkpt lat="43.40165276015193" lon="6.215753309493595"><ele>206.0</ele><time>2026-03-29T07:49:46.999Z</time></trkpt><trkpt lat="43.40161414673503" lon="6.215868033316447"><ele>206.0</ele><time>2026-03-29T07:49:47.999Z</time></trkpt><trkpt lat="43.40156706278834" lon="6.2159882659371455"><ele>206.0</ele><time>2026-03-29T07:49:48.999Z</time></trkpt><trkpt lat="43.40151135123011" lon="6.216119164759715"><ele>206.0</ele><time>2026-03-29T07:49:49.999Z</time></trkpt><trkpt lat="43.40144690168995" lon="6.216258609308684"><ele>206.0</ele><time>2026-03-29T07:49:50.999Z</time></trkpt><trkpt lat="43.401373914038494" lon="6.216412668407307"><ele>206.0</ele><time>2026-03-29T07:49:51.999Z</time></trkpt><trkpt lat="43.40129678714481" lon="6.216561685589989"><ele>206.0</ele><time>2026-03-29T07:49:52.999Z</time></trkpt><trkpt lat="43.40121169066938" lon="6.216698271007287"><ele>206.0</ele><time>2026-03-29T07:49:53.999Z</time></trkpt><trkpt lat="43.4011053402827" lon="6.216787236207259"><ele>205.8</ele><time>2026-03-29T07:49:54.998Z</time></trkpt><trkpt lat="43.4009950498516" lon="6.21687790017079"><ele>205.60000000000002</ele><time>2026-03-29T07:49:55.998Z</time></trkpt><trkpt lat="43.40090521050884" lon="6.216975357234498"><ele>205.4</ele><time>2026-03-29T07:49:56.998Z</time></trkpt><trkpt lat="43.40084876658305" lon="6.217092784151345"><ele>205.2</ele><time>2026-03-29T07:49:57.998Z</time></trkpt><trkpt lat="43.40079746789107" lon="6.21718409083065"><ele>205.0</ele><time>2026-03-29T07:49:58.998Z</time></trkpt><trkpt lat="43.400807081092196" lon="6.2173066111854265"><ele>204.99999999999997</ele><time>2026-03-29T07:49:59.998Z</time></trkpt><trkpt lat="43.40079979206868" lon="6.2174289632636714"><ele>205.0</ele><time>2026-03-29T07:50:00.998Z</time></trkpt><trkpt lat="43.40080691784352" lon="6.217541526422065"><ele>205.0</ele><time>2026-03-29T07:50:01.998Z</time></trkpt><trkpt lat="43.400784850536105" lon="6.217634272866009"><ele>205.0</ele><time>2026-03-29T07:50:02.998Z</time></trkpt><trkpt lat="43.40072761927039" lon="6.217728136008909"><ele>204.99999999999997</ele><time>2026-03-29T07:50:03.998Z</time></trkpt><trkpt lat="43.4006288662635" lon="6.217738127172771"><ele>205.0</ele><time>2026-03-29T07:50:04.998Z</time></trkpt><trkpt lat="43.40053173406142" lon="6.217772552456402"><ele>205.25</ele><time>2026-03-29T07:50:05.998Z</time></trkpt><trkpt lat="43.40042224245361" lon="6.21781262640117"><ele>205.5</ele><time>2026-03-29T07:50:06.998Z</time></trkpt><trkpt lat="43.40030164539141" lon="6.217860637380297"><ele>205.75</ele><time>2026-03-29T07:50:07.998Z</time></trkpt><trkpt lat="43.400176046457375" lon="6.217912618313396"><ele>206.0</ele><time>2026-03-29T07:50:08.998Z</time></trkpt><trkpt lat="43.40004301152741" lon="6.217982807467968"><ele>206.0</ele><time>2026-03-29T07:50:09.998Z</time></trkpt><trkpt lat="43.399901847304" lon="6.218046499591247"><ele>206.0</ele><time>2026-03-29T07:50:10.998Z</time></trkpt><trkpt lat="43.39976141651782" lon="6.2180849396016535"><ele>206.0</ele><time>2026-03-29T07:50:11.998Z</time></trkpt><trkpt lat="43.399619674179085" lon="6.218144198359284"><ele>206.0</ele><time>2026-03-29T07:50:12.998Z</time></trkpt><trkpt lat="43.39948036741969" lon="6.218226001620152"><ele>207.0</ele><time>2026-03-29T07:50:13.998Z</time></trkpt><trkpt lat="43.399333879710206" lon="6.218289774401966"><ele>208.0</ele><time>2026-03-29T07:50:14.998Z</time></trkpt><trkpt lat="43.399207254461004" lon="6.218342208428397"><ele>209.0</ele><time>2026-03-29T07:50:15.998Z</time></trkpt><trkpt lat="43.39909803918129" lon="6.218386113068444"><ele>210.0</ele><time>2026-03-29T07:50:16.998Z</time></trkpt><trkpt lat="43.39899754542844" lon="6.218437982543618"><ele>210.0</ele><time>2026-03-29T07:50:17.998Z</time></trkpt><trkpt lat="43.39889821720188" lon="6.21852029060102"><ele>210.0</ele><time>2026-03-29T07:50:18.998Z</time></trkpt><trkpt lat="43.39881439163183" lon="6.218642946620315"><ele>210.0</ele><time>2026-03-29T07:50:19.998Z</time></trkpt><trkpt lat="43.398740624198524" lon="6.218784365548608"><ele>210.0</ele><time>2026-03-29T07:50:20.998Z</time></trkpt><trkpt lat="43.39868683456736" lon="6.218931020260189"><ele>210.4</ele><time>2026-03-29T07:50:21.998Z</time></trkpt><trkpt lat="43.39865712194978" lon="6.219058581643295"><ele>210.8</ele><time>2026-03-29T07:50:22.998Z</time></trkpt><trkpt lat="43.39861815868587" lon="6.219162414219223"><ele>211.2</ele><time>2026-03-29T07:50:23.998Z</time></trkpt><trkpt lat="43.39858528347135" lon="6.219253614903908"><ele>211.6</ele><time>2026-03-29T07:50:24.998Z</time></trkpt><trkpt lat="43.398565853806296" lon="6.219358208472667"><ele>212.0</ele><time>2026-03-29T07:50:26.998Z</time></trkpt><trkpt lat="43.39869638607743" lon="6.219393712912216"><ele>212.0</ele><time>2026-03-29T07:50:29.998Z</time></trkpt><trkpt lat="43.39876702591621" lon="6.219378236875684"><ele>212.0</ele><time>2026-03-29T07:50:30.998Z</time></trkpt><trkpt lat="43.39888978365289" lon="6.219365118232336"><ele>212.0</ele><time>2026-03-29T07:50:32.998Z</time></trkpt><trkpt lat="43.39896533806632" lon="6.2194020581945555"><ele>212.0</ele><time>2026-03-29T07:50:33.998Z</time></trkpt><trkpt lat="43.39904038811195" lon="6.219433398526877"><ele>212.0</ele><time>2026-03-29T07:50:34.998Z</time></trkpt><trkpt lat="43.39914412797214" lon="6.2194591685912615"><ele>213.00000000000003</ele><time>2026-03-29T07:50:36.998Z</time></trkpt><trkpt lat="43.39923612581574" lon="6.219525330270091"><ele>214.0</ele><time>2026-03-29T07:50:38.998Z</time></trkpt><trkpt lat="43.39930142371465" lon="6.219521216631661"><ele>215.0</ele><time>2026-03-29T07:50:39.998Z</time></trkpt><trkpt lat="43.39939538207883" lon="6.2196003033340554"><ele>216.0</ele><time>2026-03-29T07:50:41.998Z</time></trkpt><trkpt lat="43.399419272414946" lon="6.219698503202838"><ele>217.00000000000003</ele><time>2026-03-29T07:50:42.998Z</time></trkpt><trkpt lat="43.39947203044966" lon="6.219748336608027"><ele>218.0</ele><time>2026-03-29T07:50:43.998Z</time></trkpt><trkpt lat="43.399535509985384" lon="6.219810268997635"><ele>219.2</ele><time>2026-03-29T07:50:44.998Z</time></trkpt><trkpt lat="43.399604640239446" lon="6.219879269597616"><ele>220.4</ele><time>2026-03-29T07:50:45.998Z</time></trkpt><trkpt lat="43.39963688615772" lon="6.219962805566107"><ele>221.59999999999997</ele><time>2026-03-29T07:50:47.998Z</time></trkpt><trkpt lat="43.399730708638785" lon="6.220026464365678"><ele>222.79999999999998</ele><time>2026-03-29T07:50:50Z</time></trkpt><trkpt lat="43.39980714322583" lon="6.220093275587944"><ele>224.0</ele><time>2026-03-29T07:51:45.999Z</time></trkpt><trkpt lat="43.399885735215975" lon="6.220183586313427"><ele>224.33333333333334</ele><time>2026-03-29T07:51:47.999Z</time></trkpt><trkpt lat="43.39993907255559" lon="6.220273256112019"><ele>224.66666666666669</ele><time>2026-03-29T07:51:49.999Z</time></trkpt><trkpt lat="43.3999508875117" lon="6.220377506597248"><ele>225.0</ele><time>2026-03-29T07:51:50.999Z</time></trkpt><trkpt lat="43.3999510441849" lon="6.220478058136592"><ele>225.33333333333331</ele><time>2026-03-29T07:51:51.999Z</time></trkpt><trkpt lat="43.3999349303756" lon="6.220653096937109"><ele>225.66666666666666</ele><time>2026-03-29T07:51:53.999Z</time></trkpt><trkpt lat="43.39991750617704" lon="6.220768075586864"><ele>226.0</ele><time>2026-03-29T07:51:54.999Z</time></trkpt><trkpt lat="43.39988996168261" lon="6.220876232615389"><ele>225.99999999999997</ele><time>2026-03-29T07:51:55.999Z</time></trkpt><trkpt lat="43.39985433644356" lon="6.220973844758971"><ele>226.0</ele><time>2026-03-29T07:51:56.999Z</time></trkpt><trkpt lat="43.39981668696167" lon="6.221078482966006"><ele>226.0</ele><time>2026-03-29T07:51:57.999Z</time></trkpt><trkpt lat="43.39978446788108" lon="6.2211675400305575"><ele>226.0</ele><time>2026-03-29T07:51:58.999Z</time></trkpt><trkpt lat="43.3997464115835" lon="6.221247009362426"><ele>225.99999999999997</ele><time>2026-03-29T07:51:59.999Z</time></trkpt><trkpt lat="43.39969537286689" lon="6.221314617880701"><ele>226.0</ele><time>2026-03-29T07:52:00.999Z</time></trkpt><trkpt lat="43.39960828450313" lon="6.221466534030074"><ele>228.4</ele><time>2026-03-29T07:52:02.999Z</time></trkpt><trkpt lat="43.39956501775377" lon="6.221569583188274"><ele>230.8</ele><time>2026-03-29T07:52:03.999Z</time></trkpt><trkpt lat="43.39950301287099" lon="6.221672276775306"><ele>233.20000000000002</ele><time>2026-03-29T07:52:04.998Z</time></trkpt><trkpt lat="43.39946761460272" lon="6.221787564988673"><ele>235.60000000000002</ele><time>2026-03-29T07:52:05.998Z</time></trkpt><trkpt lat="43.399437613862126" lon="6.221879806600664"><ele>238.0</ele><time>2026-03-29T07:52:06.998Z</time></trkpt><trkpt lat="43.399385083518645" lon="6.222009181695949"><ele>238.0</ele><time>2026-03-29T07:52:08.998Z</time></trkpt><trkpt lat="43.39929433476533" lon="6.222098320193352"><ele>238.0</ele><time>2026-03-29T07:52:10.998Z</time></trkpt><trkpt lat="43.39921749864228" lon="6.222194438764631"><ele>238.0</ele><time>2026-03-29T07:52:12.998Z</time></trkpt><trkpt lat="43.39917746100708" lon="6.222286896896093"><ele>238.0</ele><time>2026-03-29T07:52:13.998Z</time></trkpt><trkpt lat="43.399129636951926" lon="6.222403609628403"><ele>238.0</ele><time>2026-03-29T07:52:14.998Z</time></trkpt><trkpt lat="43.39908533747678" lon="6.222504186047106"><ele>238.0</ele><time>2026-03-29T07:52:15.998Z</time></trkpt><trkpt lat="43.39904891844653" lon="6.222585180985542"><ele>238.0</ele><time>2026-03-29T07:52:16.998Z</time></trkpt><trkpt lat="43.3990231882852" lon="6.2226971249138305"><ele>238.0</ele><time>2026-03-29T07:52:18.998Z</time></trkpt><trkpt lat="43.399045011593316" lon="6.222874911836695"><ele>238.0</ele><time>2026-03-29T07:52:20.998Z</time></trkpt><trkpt lat="43.399014154360614" lon="6.223023859082491"><ele>238.0</ele><time>2026-03-29T07:52:22.998Z</time></trkpt><trkpt lat="43.39898779173056" lon="6.223114463256626"><ele>237.83333333333331</ele><time>2026-03-29T07:52:23.998Z</time></trkpt><trkpt lat="43.39899950735615" lon="6.223213611678588"><ele>237.66666666666666</ele><time>2026-03-29T07:52:24.998Z</time></trkpt><trkpt lat="43.398994322854904" lon="6.223346426737021"><ele>237.5</ele><time>2026-03-29T07:52:25.998Z</time></trkpt><trkpt lat="43.398962978333365" lon="6.223472659730021"><ele>237.33333333333331</ele><time>2026-03-29T07:52:26.998Z</time></trkpt><trkpt lat="43.39893608109831" lon="6.223559869517211"><ele>237.16666666666666</ele><time>2026-03-29T07:52:27.998Z</time></trkpt><trkpt lat="43.39892655731282" lon="6.223646397662725"><ele>237.0</ele><time>2026-03-29T07:52:28.998Z</time></trkpt><trkpt lat="43.39891370581695" lon="6.223761346181951"><ele>237.0</ele><time>2026-03-29T07:52:29.998Z</time></trkpt><trkpt lat="43.39890350705669" lon="6.223870291502337"><ele>237.0</ele><time>2026-03-29T07:52:30.998Z</time></trkpt><trkpt lat="43.39888171066198" lon="6.223965590525005"><ele>237.0</ele><time>2026-03-29T07:52:31.998Z</time></trkpt><trkpt lat="43.398841082015196" lon="6.224055577470167"><ele>237.0</ele><time>2026-03-29T07:52:32.998Z</time></trkpt><trkpt lat="43.39881354148968" lon="6.224140848863437"><ele>237.0</ele><time>2026-03-29T07:52:33.998Z</time></trkpt><trkpt lat="43.3988445099152" lon="6.224316941508323"><ele>237.0</ele><time>2026-03-29T07:52:35.998Z</time></trkpt><trkpt lat="43.398874892442976" lon="6.224434349472123"><ele>237.0</ele><time>2026-03-29T07:52:36.998Z</time></trkpt><trkpt lat="43.39891139136163" lon="6.224524528421244"><ele>237.0</ele><time>2026-03-29T07:52:37.998Z</time></trkpt><trkpt lat="43.3989594049974" lon="6.224589344043461"><ele>237.0</ele><time>2026-03-29T07:52:38.998Z</time></trkpt><trkpt lat="43.399006925671216" lon="6.224689743581876"><ele>237.0</ele><time>2026-03-29T07:52:40.998Z</time></trkpt><trkpt lat="43.39897198529451" lon="6.224773783444108"><ele>237.0</ele><time>2026-03-29T07:52:41.998Z</time></trkpt><trkpt lat="43.398908832340084" lon="6.224861688637023"><ele>237.0</ele><time>2026-03-29T07:52:42.998Z</time></trkpt><trkpt lat="43.398834815883255" lon="6.2249036868287595"><ele>238.16666666666666</ele><time>2026-03-29T07:52:43.998Z</time></trkpt><trkpt lat="43.39876831457623" lon="6.224916809037641"><ele>239.33333333333331</ele><time>2026-03-29T07:52:44.998Z</time></trkpt><trkpt lat="43.398699540478965" lon="6.22492370667332"><ele>240.5</ele><time>2026-03-29T07:52:45.998Z</time></trkpt><trkpt lat="43.39861214479897" lon="6.225009650003827"><ele>241.66666666666666</ele><time>2026-03-29T07:52:47.998Z</time></trkpt><trkpt lat="43.39855613410099" lon="6.225080713990689"><ele>242.83333333333331</ele><time>2026-03-29T07:52:48.998Z</time></trkpt><trkpt lat="43.398499694984494" lon="6.225152272873615"><ele>244.0</ele><time>2026-03-29T07:52:49.998Z</time></trkpt><trkpt lat="43.398440963868296" lon="6.225314436299639"><ele>243.99999999999997</ele><time>2026-03-29T07:52:51.998Z</time></trkpt><trkpt lat="43.39843803840102" lon="6.225444732983939"><ele>244.0</ele><time>2026-03-29T07:52:52.998Z</time></trkpt><trkpt lat="43.398451677191645" lon="6.225546044625004"><ele>244.0</ele><time>2026-03-29T07:52:53.998Z</time></trkpt><trkpt lat="43.39846587766755" lon="6.225633248073973"><ele>244.0</ele><time>2026-03-29T07:52:55Z</time></trkpt><trkpt lat="43.3984933649813" lon="6.225716947448899"><ele>243.99999999999997</ele><time>2026-03-29T07:52:56Z</time></trkpt><trkpt lat="43.39852866606233" lon="6.2258893041246655"><ele>244.0</ele><time>2026-03-29T07:52:58Z</time></trkpt><trkpt lat="43.39857962163389" lon="6.226022242798275"><ele>243.83333333333331</ele><time>2026-03-29T07:52:59Z</time></trkpt><trkpt lat="43.39862387091063" lon="6.226148835978471"><ele>243.66666666666666</ele><time>2026-03-29T07:53:00Z</time></trkpt><trkpt lat="43.39866557669814" lon="6.226241918196384"><ele>243.5</ele><time>2026-03-29T07:53:01Z</time></trkpt><trkpt lat="43.3987092006796" lon="6.226318471123344"><ele>243.33333333333331</ele><time>2026-03-29T07:53:02Z</time></trkpt><trkpt lat="43.39876598484143" lon="6.226378378127385"><ele>243.16666666666666</ele><time>2026-03-29T07:53:03Z</time></trkpt><trkpt lat="43.39884835294396" lon="6.226402756765792"><ele>243.0</ele><time>2026-03-29T07:53:04Z</time></trkpt><trkpt lat="43.39893809680284" lon="6.226389616744157"><ele>241.60000000000002</ele><time>2026-03-29T07:53:05Z</time></trkpt><trkpt lat="43.39904472048873" lon="6.226333053981557"><ele>240.20000000000002</ele><time>2026-03-29T07:53:06Z</time></trkpt><trkpt lat="43.39915815784063" lon="6.2262882766705205"><ele>238.8</ele><time>2026-03-29T07:53:07Z</time></trkpt><trkpt lat="43.39925788021653" lon="6.226260276090518"><ele>237.4</ele><time>2026-03-29T07:53:08Z</time></trkpt><trkpt lat="43.39934946980482" lon="6.226241756134053"><ele>236.0</ele><time>2026-03-29T07:53:09Z</time></trkpt><trkpt lat="43.39942772585883" lon="6.226249579178269"><ele>236.0</ele><time>2026-03-29T07:53:10Z</time></trkpt><trkpt lat="43.39951447795468" lon="6.22629454574031"><ele>236.00000000000003</ele><time>2026-03-29T07:53:11Z</time></trkpt><trkpt lat="43.399609265840716" lon="6.2263372063894"><ele>236.00000000000003</ele><time>2026-03-29T07:53:12Z</time></trkpt><trkpt lat="43.39968110401243" lon="6.2264014800598915"><ele>236.0</ele><time>2026-03-29T07:53:13Z</time></trkpt><trkpt lat="43.39973861696615" lon="6.226483621525951"><ele>236.0</ele><time>2026-03-29T07:53:14Z</time></trkpt><trkpt lat="43.39977063368991" lon="6.226604828078882"><ele>234.5</ele><time>2026-03-29T07:53:15Z</time></trkpt><trkpt lat="43.39980078146154" lon="6.226755524999605"><ele>233.0</ele><time>2026-03-29T07:53:16Z</time></trkpt><trkpt lat="43.399858503218475" lon="6.226911467079199"><ele>231.5</ele><time>2026-03-29T07:53:17Z</time></trkpt><trkpt lat="43.399919741381865" lon="6.227100315050058"><ele>230.0</ele><time>2026-03-29T07:53:18Z</time></trkpt><trkpt lat="43.40012555879548" lon="6.227200620615673"><ele>231.5</ele><time>2026-03-29T07:53:18.999Z</time></trkpt><trkpt lat="43.40016327472276" lon="6.227344972279745"><ele>233.0</ele><time>2026-03-29T07:53:19.999Z</time></trkpt><trkpt lat="43.40020307959896" lon="6.2274837717934615"><ele>234.5</ele><time>2026-03-29T07:53:20.999Z</time></trkpt><trkpt lat="43.400248116952184" lon="6.227633706002666"><ele>236.0</ele><time>2026-03-29T07:53:21.999Z</time></trkpt><trkpt lat="43.40030353546212" lon="6.22781003905631"><ele>236.0</ele><time>2026-03-29T07:53:22.999Z</time></trkpt><trkpt lat="43.400360717096085" lon="6.227977809901213"><ele>236.00000000000003</ele><time>2026-03-29T07:53:23.999Z</time></trkpt><trkpt lat="43.40041396974724" lon="6.228131818550293"><ele>236.00000000000003</ele><time>2026-03-29T07:53:24.999Z</time></trkpt><trkpt lat="43.40045596787832" lon="6.228252124824716"><ele>236.0</ele><time>2026-03-29T07:53:25.999Z</time></trkpt><trkpt lat="43.40049034915858" lon="6.228349781032561"><ele>236.0</ele><time>2026-03-29T07:53:26.999Z</time></trkpt><trkpt lat="43.400523679824666" lon="6.2284411369324415"><ele>235.71428571428572</ele><time>2026-03-29T07:53:27.999Z</time></trkpt><trkpt lat="43.40056625450177" lon="6.228556696765767"><ele>235.42857142857144</ele><time>2026-03-29T07:53:28.999Z</time></trkpt><trkpt lat="43.40058766439966" lon="6.228649468676308"><ele>235.14285714285717</ele><time>2026-03-29T07:53:29.999Z</time></trkpt><trkpt lat="43.40060433460283" lon="6.2287351158837385"><ele>234.85714285714286</ele><time>2026-03-29T07:53:30.999Z</time></trkpt><trkpt lat="43.400647672215925" lon="6.22880987358235"><ele>234.5714285714286</ele><time>2026-03-29T07:53:31.999Z</time></trkpt><trkpt lat="43.4006919700463" lon="6.228883646823188"><ele>234.2857142857143</ele><time>2026-03-29T07:53:32.999Z</time></trkpt><trkpt lat="43.40071750013947" lon="6.228989651386119"><ele>234.0</ele><time>2026-03-29T07:53:34.999Z</time></trkpt><trkpt lat="43.40012403976093" lon="6.229575331569396"><ele>235.33333333333334</ele><time>2026-03-29T07:53:36.999Z</time></trkpt><trkpt lat="43.40005324209532" lon="6.229656786519609"><ele>236.66666666666669</ele><time>2026-03-29T07:53:37.999Z</time></trkpt><trkpt lat="43.399979236715474" lon="6.229735788863292"><ele>238.0</ele><time>2026-03-29T07:53:38.999Z</time></trkpt><trkpt lat="43.39994727972958" lon="6.229870922436973"><ele>239.33333333333334</ele><time>2026-03-29T07:53:40.999Z</time></trkpt><trkpt lat="43.39998243931989" lon="6.2299475638097865"><ele>240.66666666666669</ele><time>2026-03-29T07:53:41.999Z</time></trkpt><trkpt lat="43.400047077126686" lon="6.230007644878709"><ele>242.0</ele><time>2026-03-29T07:53:42.999Z</time></trkpt><trkpt lat="43.40014268358176" lon="6.230073629823329"><ele>242.0</ele><time>2026-03-29T07:53:43.999Z</time></trkpt><trkpt lat="43.40022509548632" lon="6.230152167985567"><ele>242.0</ele><time>2026-03-29T07:53:44.999Z</time></trkpt><trkpt lat="43.40029929714116" lon="6.230249002746418"><ele>242.0</ele><time>2026-03-29T07:53:45.999Z</time></trkpt><trkpt lat="43.40037357065229" lon="6.2303194503490085"><ele>242.0</ele><time>2026-03-29T07:53:46.999Z</time></trkpt><trkpt lat="43.400464482033925" lon="6.230369281227644"><ele>242.0</ele><time>2026-03-29T07:53:47.999Z</time></trkpt><trkpt lat="43.40057802841587" lon="6.230414810980233"><ele>240.6</ele><time>2026-03-29T07:53:48.999Z</time></trkpt><trkpt lat="43.40068310550987" lon="6.230460878731007"><ele>239.2</ele><time>2026-03-29T07:53:49.999Z</time></trkpt><trkpt lat="43.40077521929388" lon="6.230505157656416"><ele>237.8</ele><time>2026-03-29T07:53:50.999Z</time></trkpt><trkpt lat="43.40085901908875" lon="6.2305569253066695"><ele>236.4</ele><time>2026-03-29T07:53:51.999Z</time></trkpt><trkpt lat="43.4009300429722" lon="6.230623677486648"><ele>235.0</ele><time>2026-03-29T07:53:52.999Z</time></trkpt><trkpt lat="43.400998713568896" lon="6.230671331907239"><ele>234.99999999999997</ele><time>2026-03-29T07:53:53.999Z</time></trkpt><trkpt lat="43.401066093662294" lon="6.230737073641319"><ele>235.0</ele><time>2026-03-29T07:53:54.999Z</time></trkpt><trkpt lat="43.401122433683774" lon="6.230813389204571"><ele>235.0</ele><time>2026-03-29T07:53:55.999Z</time></trkpt><trkpt lat="43.401146909317326" lon="6.230946445737645"><ele>235.0</ele><time>2026-03-29T07:53:57.999Z</time></trkpt><trkpt lat="43.40118702797324" lon="6.231066211950282"><ele>234.99999999999997</ele><time>2026-03-29T07:53:59.999Z</time></trkpt><trkpt lat="43.401141733130515" lon="6.231152924961338"><ele>235.0</ele><time>2026-03-29T07:54:01.999Z</time></trkpt><trkpt lat="43.4012209705398" lon="6.231195325120532"><ele>234.99999999999997</ele><time>2026-03-29T07:54:04.999Z</time></trkpt><trkpt lat="43.401298327003325" lon="6.23116883129519"><ele>235.0</ele><time>2026-03-29T07:54:06.999Z</time></trkpt><trkpt lat="43.401365923930676" lon="6.231245160804747"><ele>235.0</ele><time>2026-03-29T07:54:09.999Z</time></trkpt><trkpt lat="43.401432517934566" lon="6.2312755191551155"><ele>235.0</ele><time>2026-03-29T07:54:12.999Z</time></trkpt><trkpt lat="43.401514251202634" lon="6.231296802800704"><ele>234.99999999999997</ele><time>2026-03-29T07:54:22.998Z</time></trkpt><trkpt lat="43.401558775132465" lon="6.2313804802998725"><ele>235.0</ele><time>2026-03-29T07:54:24.998Z</time></trkpt><trkpt lat="43.40160927460538" lon="6.2314470251639245"><ele>235.75</ele><time>2026-03-29T07:54:25.998Z</time></trkpt><trkpt lat="43.401666843869315" lon="6.2315665030737915"><ele>236.5</ele><time>2026-03-29T07:54:26.998Z</time></trkpt><trkpt lat="43.401723781937186" lon="6.231701424725155"><ele>237.25</ele><time>2026-03-29T07:54:27.998Z</time></trkpt><trkpt lat="43.40177306919125" lon="6.231834781259344"><ele>238.0</ele><time>2026-03-29T07:54:28.998Z</time></trkpt><trkpt lat="43.40183752117434" lon="6.2319982585083125"><ele>238.0</ele><time>2026-03-29T07:54:29.998Z</time></trkpt><trkpt lat="43.40190900074017" lon="6.232174100518343"><ele>238.0</ele><time>2026-03-29T07:54:30.998Z</time></trkpt><trkpt lat="43.401979132089615" lon="6.2323499256510235"><ele>238.0</ele><time>2026-03-29T07:54:31.998Z</time></trkpt><trkpt lat="43.40204656323686" lon="6.2325269303078255"><ele>238.0</ele><time>2026-03-29T07:54:32.998Z</time></trkpt><trkpt lat="43.40207791935404" lon="6.2326567971634255"><ele>239.60000000000002</ele><time>2026-03-29T07:54:33.998Z</time></trkpt><trkpt lat="43.40209027662061" lon="6.2327888080443286"><ele>241.20000000000002</ele><time>2026-03-29T07:54:34.998Z</time></trkpt><trkpt lat="43.402079399888954" lon="6.232925181237319"><ele>242.8</ele><time>2026-03-29T07:54:35.998Z</time></trkpt><trkpt lat="43.4020368435092" lon="6.233050612956071"><ele>244.4</ele><time>2026-03-29T07:54:36.998Z</time></trkpt><trkpt lat="43.401950986410284" lon="6.233160287367802"><ele>246.0</ele><time>2026-03-29T07:54:37.998Z</time></trkpt><trkpt lat="43.401892812577344" lon="6.233287904657902"><ele>246.20000000000002</ele><time>2026-03-29T07:54:38.998Z</time></trkpt><trkpt lat="43.40185272106608" lon="6.233456113381495"><ele>246.40000000000003</ele><time>2026-03-29T07:54:39.998Z</time></trkpt><trkpt lat="43.40186786407736" lon="6.233564195330192"><ele>246.6</ele><time>2026-03-29T07:54:40.998Z</time></trkpt><trkpt lat="43.40186810585326" lon="6.233713864732078"><ele>246.8</ele><time>2026-03-29T07:54:41.998Z</time></trkpt><trkpt lat="43.401859072497196" lon="6.233854178988961"><ele>247.0</ele><time>2026-03-29T07:54:42.998Z</time></trkpt><trkpt lat="43.40182924605705" lon="6.2340195604149"><ele>245.39999999999998</ele><time>2026-03-29T07:54:44.998Z</time></trkpt><trkpt lat="43.401755289565806" lon="6.234077898086605"><ele>243.79999999999998</ele><time>2026-03-29T07:54:45.998Z</time></trkpt><trkpt lat="43.40168567026691" lon="6.234184260286328"><ele>242.2</ele><time>2026-03-29T07:54:46.998Z</time></trkpt><trkpt lat="43.4016299220781" lon="6.2343184153039655"><ele>240.6</ele><time>2026-03-29T07:54:47.998Z</time></trkpt><trkpt lat="43.40159496595086" lon="6.234440662928034"><ele>239.0</ele><time>2026-03-29T07:54:48.998Z</time></trkpt><trkpt lat="43.401601676529765" lon="6.234572173983502"><ele>239.0</ele><time>2026-03-29T07:54:49.998Z</time></trkpt><trkpt lat="43.4016537830263" lon="6.234701343865235"><ele>239.0</ele><time>2026-03-29T07:54:50.998Z</time></trkpt><trkpt lat="43.40169080781964" lon="6.234862276092933"><ele>239.0</ele><time>2026-03-29T07:54:51.998Z</time></trkpt><trkpt lat="43.401734357653396" lon="6.2350466777345765"><ele>239.0</ele><time>2026-03-29T07:54:52.998Z</time></trkpt><trkpt lat="43.40176822440391" lon="6.235207264250834"><ele>238.5</ele><time>2026-03-29T07:54:53.998Z</time></trkpt><trkpt lat="43.40183269136193" lon="6.23531339700622"><ele>238.0</ele><time>2026-03-29T07:54:54.998Z</time></trkpt><trkpt lat="43.40191577298165" lon="6.235397911435966"><ele>237.5</ele><time>2026-03-29T07:54:55.998Z</time></trkpt><trkpt lat="43.40201439207964" lon="6.235479109374627"><ele>237.0</ele><time>2026-03-29T07:54:56.998Z</time></trkpt><trkpt lat="43.40213793276558" lon="6.235564825447673"><ele>236.5</ele><time>2026-03-29T07:54:57.998Z</time></trkpt><trkpt lat="43.40226327151287" lon="6.235631419431826"><ele>236.0</ele><time>2026-03-29T07:54:58.998Z</time></trkpt><trkpt lat="43.40238114500705" lon="6.235697454157819"><ele>235.5</ele><time>2026-03-29T07:54:59.998Z</time></trkpt><trkpt lat="43.40250206585423" lon="6.235729498780223"><ele>235.0</ele><time>2026-03-29T07:55:01Z</time></trkpt><trkpt lat="43.40260394358077" lon="6.235761062363126"><ele>237.0</ele><time>2026-03-29T07:55:02Z</time></trkpt><trkpt lat="43.40270985739056" lon="6.235821650295974"><ele>239.0</ele><time>2026-03-29T07:55:03Z</time></trkpt><trkpt lat="43.40281979629108" lon="6.2358779969222535"><ele>241.0</ele><time>2026-03-29T07:55:04Z</time></trkpt><trkpt lat="43.402923902977605" lon="6.235953572191301"><ele>243.0</ele><time>2026-03-29T07:55:05Z</time></trkpt><trkpt lat="43.4030023998662" lon="6.236051092709751"><ele>243.0</ele><time>2026-03-29T07:55:06Z</time></trkpt><trkpt lat="43.40304218629725" lon="6.236179428793216"><ele>243.0</ele><time>2026-03-29T07:55:07Z</time></trkpt><trkpt lat="43.40306616749075" lon="6.2363067507807495"><ele>243.0</ele><time>2026-03-29T07:55:08Z</time></trkpt><trkpt lat="43.40307654296069" lon="6.236454440966492"><ele>243.0</ele><time>2026-03-29T07:55:09Z</time></trkpt><trkpt lat="43.40306634510513" lon="6.236611510516274"><ele>243.0</ele><time>2026-03-29T07:55:10Z</time></trkpt><trkpt lat="43.403031306160415" lon="6.236756826459729"><ele>247.5</ele><time>2026-03-29T07:55:11Z</time></trkpt><trkpt lat="43.402983376780064" lon="6.23689009047023"><ele>252.0</ele><time>2026-03-29T07:55:12Z</time></trkpt><trkpt lat="43.402916441805836" lon="6.23704465546818"><ele>256.5</ele><time>2026-03-29T07:55:13Z</time></trkpt><trkpt lat="43.40283352521656" lon="6.237213095863639"><ele>261.0</ele><time>2026-03-29T07:55:14Z</time></trkpt><trkpt lat="43.402763157175094" lon="6.237352087571054"><ele>261.0</ele><time>2026-03-29T07:55:15Z</time></trkpt><trkpt lat="43.40269895871462" lon="6.23747813472569"><ele>261.0</ele><time>2026-03-29T07:55:16Z</time></trkpt><trkpt lat="43.40263167311974" lon="6.237610243129685"><ele>261.0</ele><time>2026-03-29T07:55:17Z</time></trkpt><trkpt lat="43.402560185270936" lon="6.23775424933044"><ele>261.0</ele><time>2026-03-29T07:55:18Z</time></trkpt><trkpt lat="43.402508517823584" lon="6.2378854522522325"><ele>261.0</ele><time>2026-03-29T07:55:19Z</time></trkpt><trkpt lat="43.40248305675752" lon="6.2379940047488835"><ele>261.0</ele><time>2026-03-29T07:55:20Z</time></trkpt><trkpt lat="43.40246837045424" lon="6.238094875976928"><ele>261.0</ele><time>2026-03-29T07:55:21Z</time></trkpt><trkpt lat="43.40253255103957" lon="6.238196000289573"><ele>261.0</ele><time>2026-03-29T07:55:22Z</time></trkpt><trkpt lat="43.40259680030905" lon="6.238312568774553"><ele>261.0</ele><time>2026-03-29T07:55:23Z</time></trkpt><trkpt lat="43.40264850004692" lon="6.238451303909553"><ele>260.5</ele><time>2026-03-29T07:55:24Z</time></trkpt><trkpt lat="43.40268618441774" lon="6.238605363150817"><ele>260.0</ele><time>2026-03-29T07:55:25Z</time></trkpt><trkpt lat="43.40271649308489" lon="6.238757713984784"><ele>259.5</ele><time>2026-03-29T07:55:26Z</time></trkpt><trkpt lat="43.40269088469637" lon="6.238911390127333"><ele>259.0</ele><time>2026-03-29T07:55:27Z</time></trkpt><trkpt lat="43.40265948451157" lon="6.239060711470756"><ele>259.0</ele><time>2026-03-29T07:55:28Z</time></trkpt><trkpt lat="43.402623277431815" lon="6.239236890799579"><ele>259.0</ele><time>2026-03-29T07:55:28.999Z</time></trkpt><trkpt lat="43.402582704133046" lon="6.2394176976715805"><ele>259.0</ele><time>2026-03-29T07:55:29.999Z</time></trkpt><trkpt lat="43.4025441027612" lon="6.239585371615419"><ele>259.0</ele><time>2026-03-29T07:55:30.999Z</time></trkpt><trkpt lat="43.402502683262504" lon="6.239746014880742"><ele>258.0</ele><time>2026-03-29T07:55:31.999Z</time></trkpt><trkpt lat="43.40246945320532" lon="6.2399204524392875"><ele>257.0</ele><time>2026-03-29T07:55:32.999Z</time></trkpt><trkpt lat="43.40246738431607" lon="6.240093796264986"><ele>256.0</ele><time>2026-03-29T07:55:33.999Z</time></trkpt><trkpt lat="43.402479165518116" lon="6.240248783461316"><ele>255.0</ele><time>2026-03-29T07:55:34.999Z</time></trkpt><trkpt lat="43.40250036088583" lon="6.240360075131402"><ele>255.0</ele><time>2026-03-29T07:55:35.999Z</time></trkpt><trkpt lat="43.402541217499255" lon="6.240450679227124"><ele>255.0</ele><time>2026-03-29T07:55:36.999Z</time></trkpt><trkpt lat="43.402616520906435" lon="6.24052978249825"><ele>255.0</ele><time>2026-03-29T07:55:37.999Z</time></trkpt><trkpt lat="43.40272449865985" lon="6.240609883353169"><ele>255.0</ele><time>2026-03-29T07:55:38.999Z</time></trkpt><trkpt lat="43.402810395956585" lon="6.240721007926881"><ele>255.0</ele><time>2026-03-29T07:55:39.999Z</time></trkpt><trkpt lat="43.40287555700605" lon="6.240821738424448"><ele>255.2</ele><time>2026-03-29T07:55:40.999Z</time></trkpt><trkpt lat="43.40290443251458" lon="6.240941784492512"><ele>255.4</ele><time>2026-03-29T07:55:41.999Z</time></trkpt><trkpt lat="43.40294387210739" lon="6.241080971963961"><ele>255.60000000000002</ele><time>2026-03-29T07:55:42.999Z</time></trkpt><trkpt lat="43.40295698570474" lon="6.241221109588557"><ele>255.8</ele><time>2026-03-29T07:55:43.999Z</time></trkpt><trkpt lat="43.4029558521853" lon="6.241355065031643"><ele>256.0</ele><time>2026-03-29T07:55:44.999Z</time></trkpt><trkpt lat="43.40292349017098" lon="6.241482793947597"><ele>256.0</ele><time>2026-03-29T07:55:45.999Z</time></trkpt><trkpt lat="43.40288198389701" lon="6.241638805785308"><ele>256.0</ele><time>2026-03-29T07:55:46.999Z</time></trkpt><trkpt lat="43.402835312891035" lon="6.241811129497377"><ele>256.0</ele><time>2026-03-29T07:55:47.999Z</time></trkpt><trkpt lat="43.402781388932546" lon="6.2419904295374105"><ele>256.0</ele><time>2026-03-29T07:55:48.999Z</time></trkpt><trkpt lat="43.402723481018064" lon="6.242184242561606"><ele>257.25</ele><time>2026-03-29T07:55:49.999Z</time></trkpt><trkpt lat="43.40266867670925" lon="6.2423839218502195"><ele>258.5</ele><time>2026-03-29T07:55:50.999Z</time></trkpt><trkpt lat="43.40265019245715" lon="6.242563588764824"><ele>259.75</ele><time>2026-03-29T07:55:51.999Z</time></trkpt><trkpt lat="43.40262882689752" lon="6.242694840147639"><ele>261.0</ele><time>2026-03-29T07:55:52.999Z</time></trkpt><trkpt lat="43.40270362922768" lon="6.242850440511726"><ele>261.0</ele><time>2026-03-29T07:55:54.999Z</time></trkpt><trkpt lat="43.40277984653053" lon="6.242898339647992"><ele>261.0</ele><time>2026-03-29T07:55:55.999Z</time></trkpt><trkpt lat="43.402851510235365" lon="6.242994463056754"><ele>261.0</ele><time>2026-03-29T07:55:56.999Z</time></trkpt><trkpt lat="43.402923291742695" lon="6.243093426163908"><ele>261.0</ele><time>2026-03-29T07:55:57.999Z</time></trkpt><trkpt lat="43.40299149217025" lon="6.243169505697"><ele>261.0</ele><time>2026-03-29T07:55:58.999Z</time></trkpt><trkpt lat="43.40305081052477" lon="6.2432399600962345"><ele>260.6666666666667</ele><time>2026-03-29T07:55:59.999Z</time></trkpt><trkpt lat="43.40310729149156" lon="6.243306975484387"><ele>260.3333333333333</ele><time>2026-03-29T07:56:00.999Z</time></trkpt><trkpt lat="43.40315515542959" lon="6.2433738450800815"><ele>260.0</ele><time>2026-03-29T07:56:01.999Z</time></trkpt><trkpt lat="43.40319733921758" lon="6.24344825381858"><ele>259.66666666666663</ele><time>2026-03-29T07:56:02.999Z</time></trkpt><trkpt lat="43.40322589828844" lon="6.2435292872799035"><ele>259.3333333333333</ele><time>2026-03-29T07:56:03.999Z</time></trkpt><trkpt lat="43.40320651245506" lon="6.243614708562482"><ele>259.0</ele><time>2026-03-29T07:56:04.999Z</time></trkpt><trkpt lat="43.403183479967225" lon="6.2437679550348735"><ele>259.0</ele><time>2026-03-29T07:56:06.999Z</time></trkpt><trkpt lat="43.40316492610692" lon="6.243889721795752"><ele>259.0</ele><time>2026-03-29T07:56:08.999Z</time></trkpt><trkpt lat="43.40312267312767" lon="6.244024742444784"><ele>259.0</ele><time>2026-03-29T07:56:10.999Z</time></trkpt><trkpt lat="43.40309855635659" lon="6.244161979529447"><ele>259.0</ele><time>2026-03-29T07:56:11.999Z</time></trkpt><trkpt lat="43.403082391923895" lon="6.244320282657175"><ele>259.0</ele><time>2026-03-29T07:56:12.999Z</time></trkpt><trkpt lat="43.40307304627879" lon="6.24446425755399"><ele>259.4</ele><time>2026-03-29T07:56:13.999Z</time></trkpt><trkpt lat="43.403085215531114" lon="6.244579956670179"><ele>259.79999999999995</ele><time>2026-03-29T07:56:15.999Z</time></trkpt><trkpt lat="43.403071746698814" lon="6.244441180951362"><ele>260.20000000000005</ele><time>2026-03-29T07:56:20.999Z</time></trkpt><trkpt lat="43.40313745471452" lon="6.244383399019759"><ele>260.6</ele><time>2026-03-29T07:56:27.998Z</time></trkpt><trkpt lat="43.40324349100012" lon="6.2444649941532475"><ele>261.0</ele><time>2026-03-29T07:56:29.998Z</time></trkpt><trkpt lat="43.40333516668734" lon="6.244499704854204"><ele>261.0</ele><time>2026-03-29T07:56:30.998Z</time></trkpt><trkpt lat="43.40344237938005" lon="6.244540572249657"><ele>261.0</ele><time>2026-03-29T07:56:31.998Z</time></trkpt><trkpt lat="43.40355649764054" lon="6.244600091604589"><ele>261.0</ele><time>2026-03-29T07:56:32.998Z</time></trkpt><trkpt lat="43.40366436424116" lon="6.244649427302561"><ele>261.0</ele><time>2026-03-29T07:56:33.998Z</time></trkpt><trkpt lat="43.40377530022708" lon="6.2447198418558445"><ele>261.0</ele><time>2026-03-29T07:56:34.998Z</time></trkpt><trkpt lat="43.40391265325522" lon="6.244791036374851"><ele>261.0</ele><time>2026-03-29T07:56:35.998Z</time></trkpt><trkpt lat="43.404067643266586" lon="6.244871984294943"><ele>261.0</ele><time>2026-03-29T07:56:36.998Z</time></trkpt><trkpt lat="43.40421768916441" lon="6.244935050969555"><ele>262.0</ele><time>2026-03-29T07:56:37.998Z</time></trkpt><trkpt lat="43.40433323230399" lon="6.244987490056884"><ele>263.0</ele><time>2026-03-29T07:56:38.998Z</time></trkpt><trkpt lat="43.40444410047812" lon="6.245016724528048"><ele>264.0</ele><time>2026-03-29T07:56:39.998Z</time></trkpt><trkpt lat="43.404541224826716" lon="6.2450399516820365"><ele>265.0</ele><time>2026-03-29T07:56:40.998Z</time></trkpt><trkpt lat="43.40463345223341" lon="6.245066941388286"><ele>266.0</ele><time>2026-03-29T07:56:41.998Z</time></trkpt><trkpt lat="43.404712937965016" lon="6.245102814608085"><ele>266.2</ele><time>2026-03-29T07:56:42.998Z</time></trkpt><trkpt lat="43.40479481692771" lon="6.245133371455025"><ele>266.40000000000003</ele><time>2026-03-29T07:56:43.998Z</time></trkpt><trkpt lat="43.40487253170269" lon="6.245167252149187"><ele>266.6</ele><time>2026-03-29T07:56:44.998Z</time></trkpt><trkpt lat="43.405011841859306" lon="6.24519018692293"><ele>266.8</ele><time>2026-03-29T07:56:46.998Z</time></trkpt><trkpt lat="43.40507584508989" lon="6.24524639620758"><ele>267.0</ele><time>2026-03-29T07:56:47.998Z</time></trkpt><trkpt lat="43.405150692156624" lon="6.245332607108241"><ele>267.0</ele><time>2026-03-29T07:56:48.998Z</time></trkpt><trkpt lat="43.4052347971132" lon="6.245400356515589"><ele>267.0</ele><time>2026-03-29T07:56:49.998Z</time></trkpt><trkpt lat="43.40530205954068" lon="6.245464899095758"><ele>267.0</ele><time>2026-03-29T07:56:50.998Z</time></trkpt><trkpt lat="43.40538014279251" lon="6.245531208041061"><ele>267.0</ele><time>2026-03-29T07:56:51.998Z</time></trkpt><trkpt lat="43.40544890703103" lon="6.245585060141668"><ele>267.0</ele><time>2026-03-29T07:56:52.998Z</time></trkpt><trkpt lat="43.40551206792258" lon="6.245633612496367"><ele>267.0</ele><time>2026-03-29T07:56:53.998Z</time></trkpt><trkpt lat="43.405566559892975" lon="6.245700012630054"><ele>266.0</ele><time>2026-03-29T07:56:54.998Z</time></trkpt><trkpt lat="43.405623125591404" lon="6.245757577414035"><ele>265.0</ele><time>2026-03-29T07:56:55.998Z</time></trkpt><trkpt lat="43.4056868274012" lon="6.2458074973006354"><ele>264.0</ele><time>2026-03-29T07:56:56.998Z</time></trkpt><trkpt lat="43.405788695802535" lon="6.245885459519414"><ele>263.0</ele><time>2026-03-29T07:56:58.998Z</time></trkpt><trkpt lat="43.40586872071001" lon="6.2460133144404715"><ele>262.0</ele><time>2026-03-29T07:57:00.998Z</time></trkpt><trkpt lat="43.40592057879943" lon="6.246094192922745"><ele>262.0</ele><time>2026-03-29T07:57:02.998Z</time></trkpt><trkpt lat="43.40598882132084" lon="6.246155856527184"><ele>262.0</ele><time>2026-03-29T07:57:05.998Z</time></trkpt><trkpt lat="43.40610318281041" lon="6.246220124371524"><ele>262.0</ele><time>2026-03-29T07:57:08Z</time></trkpt><trkpt lat="43.40618017944412" lon="6.24627641239062"><ele>262.0</ele><time>2026-03-29T07:57:09Z</time></trkpt><trkpt lat="43.406253895185806" lon="6.2463327439440235"><ele>262.0</ele><time>2026-03-29T07:57:10Z</time></trkpt><trkpt lat="43.40636643589186" lon="6.246386765801568"><ele>262.0</ele><time>2026-03-29T07:57:12Z</time></trkpt><trkpt lat="43.406444286765264" lon="6.246440707940001"><ele>262.0</ele><time>2026-03-29T07:57:13Z</time></trkpt><trkpt lat="43.406538102269494" lon="6.246530985053981"><ele>262.0</ele><time>2026-03-29T07:57:14Z</time></trkpt><trkpt lat="43.40662344773014" lon="6.246598293277579"><ele>262.0</ele><time>2026-03-29T07:57:15Z</time></trkpt><trkpt lat="43.40670001854952" lon="6.2466577768174005"><ele>262.0</ele><time>2026-03-29T07:57:16Z</time></trkpt><trkpt lat="43.40679215028147" lon="6.246738627243349"><ele>262.0</ele><time>2026-03-29T07:57:17Z</time></trkpt><trkpt lat="43.40689424297228" lon="6.246832374474527"><ele>262.0</ele><time>2026-03-29T07:57:18Z</time></trkpt><trkpt lat="43.40698923207124" lon="6.246919576366751"><ele>262.0</ele><time>2026-03-29T07:57:19Z</time></trkpt><trkpt lat="43.40707959944735" lon="6.247006692816208"><ele>262.0</ele><time>2026-03-29T07:57:20Z</time></trkpt><trkpt lat="43.407167445615144" lon="6.247081310312129"><ele>262.0</ele><time>2026-03-29T07:57:21Z</time></trkpt><trkpt lat="43.407240852021125" lon="6.247141801756057"><ele>262.0</ele><time>2026-03-29T07:57:22Z</time></trkpt><trkpt lat="43.407274436174106" lon="6.247270390300894"><ele>262.0</ele><time>2026-03-29T07:57:24Z</time></trkpt><trkpt lat="43.40729885301809" lon="6.247368313069162"><ele>262.0</ele><time>2026-03-29T07:57:25Z</time></trkpt><trkpt lat="43.407343852040334" lon="6.247505738859803"><ele>262.0</ele><time>2026-03-29T07:57:26Z</time></trkpt><trkpt lat="43.407374735498514" lon="6.247640517019961"><ele>261.2</ele><time>2026-03-29T07:57:27Z</time></trkpt><trkpt lat="43.407404075058565" lon="6.247753438374456"><ele>260.4</ele><time>2026-03-29T07:57:28Z</time></trkpt><trkpt lat="43.40743753906408" lon="6.247873693711819"><ele>259.6</ele><time>2026-03-29T07:57:29Z</time></trkpt><trkpt lat="43.40747342983821" lon="6.247990545726271"><ele>258.8</ele><time>2026-03-29T07:57:30Z</time></trkpt><trkpt lat="43.40751216708493" lon="6.24811875505642"><ele>258.0</ele><time>2026-03-29T07:57:31Z</time></trkpt><trkpt lat="43.40754531341945" lon="6.248257204579165"><ele>256.6</ele><time>2026-03-29T07:57:32Z</time></trkpt><trkpt lat="43.40757387297599" lon="6.248388694022866"><ele>255.20000000000002</ele><time>2026-03-29T07:57:33Z</time></trkpt><trkpt lat="43.40760937365938" lon="6.2485250892998385"><ele>253.8</ele><time>2026-03-29T07:57:34Z</time></trkpt><trkpt lat="43.40764698775302" lon="6.2486710820730815"><ele>252.4</ele><time>2026-03-29T07:57:35Z</time></trkpt><trkpt lat="43.40767670377916" lon="6.248802779185739"><ele>251.0</ele><time>2026-03-29T07:57:35.999Z</time></trkpt><trkpt lat="43.40776988932655" lon="6.248929882994496"><ele>250.20000000000002</ele><time>2026-03-29T07:57:36.999Z</time></trkpt><trkpt lat="43.40783991315421" lon="6.249071802166669"><ele>249.40000000000003</ele><time>2026-03-29T07:57:37.999Z</time></trkpt><trkpt lat="43.40790139758309" lon="6.249196802312345"><ele>248.6</ele><time>2026-03-29T07:57:38.999Z</time></trkpt><trkpt lat="43.40796941604694" lon="6.2492943023960414"><ele>247.8</ele><time>2026-03-29T07:57:39.999Z</time></trkpt><trkpt lat="43.40806874770463" lon="6.249335166682103"><ele>247.0</ele><time>2026-03-29T07:57:40.999Z</time></trkpt><trkpt lat="43.40815929079052" lon="6.24935346894483"><ele>244.75</ele><time>2026-03-29T07:57:41.999Z</time></trkpt><trkpt lat="43.408270027664834" lon="6.249374407458512"><ele>242.5</ele><time>2026-03-29T07:57:42.999Z</time></trkpt><trkpt lat="43.40838952319472" lon="6.249382693765676"><ele>240.25</ele><time>2026-03-29T07:57:43.999Z</time></trkpt><trkpt lat="43.40851037658231" lon="6.249386855642916"><ele>238.0</ele><time>2026-03-29T07:57:44.999Z</time></trkpt><trkpt lat="43.408627856298985" lon="6.249400471417625"><ele>238.0</ele><time>2026-03-29T07:57:45.999Z</time></trkpt><trkpt lat="43.408756712756485" lon="6.249433314399128"><ele>238.0</ele><time>2026-03-29T07:57:46.999Z</time></trkpt><trkpt lat="43.408906136935705" lon="6.249486582149351"><ele>238.0</ele><time>2026-03-29T07:57:47.999Z</time></trkpt><trkpt lat="43.40906990632734" lon="6.249554352130671"><ele>234.75</ele><time>2026-03-29T07:57:48.999Z</time></trkpt><trkpt lat="43.40921721387655" lon="6.249615769589414"><ele>231.5</ele><time>2026-03-29T07:57:49.999Z</time></trkpt><trkpt lat="43.40934427037145" lon="6.249660062612336"><ele>228.25</ele><time>2026-03-29T07:57:50.999Z</time></trkpt><trkpt lat="43.409439816473906" lon="6.24966587901621"><ele>225.0</ele><time>2026-03-29T07:57:51.999Z</time></trkpt><trkpt lat="43.40950637011931" lon="6.249615288442395"><ele>225.0</ele><time>2026-03-29T07:57:52.999Z</time></trkpt><trkpt lat="43.40958320114857" lon="6.249582759991184"><ele>225.0</ele><time>2026-03-29T07:57:54.999Z</time></trkpt><trkpt lat="43.40956313785326" lon="6.249391543897954"><ele>225.0</ele><time>2026-03-29T07:57:55.999Z</time></trkpt><trkpt lat="43.409567959264216" lon="6.24923143567392"><ele>225.0</ele><time>2026-03-29T07:57:56.999Z</time></trkpt><trkpt lat="43.409588787111076" lon="6.249063319827143"><ele>225.5</ele><time>2026-03-29T07:57:57.999Z</time></trkpt><trkpt lat="43.40964767614362" lon="6.248912342877354"><ele>226.0</ele><time>2026-03-29T07:57:58.999Z</time></trkpt><trkpt lat="43.409712387728256" lon="6.248775376539675"><ele>226.5</ele><time>2026-03-29T07:57:59.999Z</time></trkpt><trkpt lat="43.40977291475043" lon="6.248604760027512"><ele>227.0</ele><time>2026-03-29T07:58:00.999Z</time></trkpt><trkpt lat="43.40984103691185" lon="6.248410865652104"><ele>227.0</ele><time>2026-03-29T07:58:01.999Z</time></trkpt><trkpt lat="43.409928580445225" lon="6.248207371637053"><ele>227.0</ele><time>2026-03-29T07:58:02.999Z</time></trkpt><trkpt lat="43.41000365353704" lon="6.247984755881745"><ele>227.0</ele><time>2026-03-29T07:58:03.999Z</time></trkpt><trkpt lat="43.41005236587502" lon="6.247785973483309"><ele>226.2</ele><time>2026-03-29T07:58:04.999Z</time></trkpt><trkpt lat="43.410095960074024" lon="6.24760873547837"><ele>225.39999999999998</ele><time>2026-03-29T07:58:05.999Z</time></trkpt><trkpt lat="43.410136594885856" lon="6.247450307821087"><ele>224.60000000000002</ele><time>2026-03-29T07:58:06.999Z</time></trkpt><trkpt lat="43.410178189721684" lon="6.247322144638512"><ele>223.8</ele><time>2026-03-29T07:58:07.999Z</time></trkpt><trkpt lat="43.41020803013918" lon="6.247238093998446"><ele>223.0</ele><time>2026-03-29T07:58:08.999Z</time></trkpt><trkpt lat="43.41026684605255" lon="6.247140099586144"><ele>223.0</ele><time>2026-03-29T07:58:12.999Z</time></trkpt><trkpt lat="43.41035115366897" lon="6.247010388278594"><ele>223.0</ele><time>2026-03-29T07:58:14.999Z</time></trkpt><trkpt lat="43.4103988203785" lon="6.2469421594709384"><ele>223.0</ele><time>2026-03-29T07:58:15.999Z</time></trkpt><trkpt lat="43.41046211175073" lon="6.246859607905251"><ele>223.0</ele><time>2026-03-29T07:58:17.999Z</time></trkpt><trkpt lat="43.410543953056276" lon="6.246769725544475"><ele>223.0</ele><time>2026-03-29T07:58:19.999Z</time></trkpt><trkpt lat="43.41060414026589" lon="6.2467141308685745"><ele>222.99999999999997</ele><time>2026-03-29T07:58:20.999Z</time></trkpt><trkpt lat="43.41066329840881" lon="6.246672429338116"><ele>223.0</ele><time>2026-03-29T07:58:21.999Z</time></trkpt><trkpt lat="43.410724222088426" lon="6.246644021976034"><ele>223.0</ele><time>2026-03-29T07:58:22.999Z</time></trkpt><trkpt lat="43.41080447709176" lon="6.246616984012894"><ele>223.0</ele><time>2026-03-29T07:58:23.999Z</time></trkpt><trkpt lat="43.4108909252195" lon="6.2465997976506005"><ele>222.99999999999997</ele><time>2026-03-29T07:58:25.999Z</time></trkpt><trkpt lat="43.410970041515064" lon="6.246595775351201"><ele>223.0</ele><time>2026-03-29T07:58:27.999Z</time></trkpt><trkpt lat="43.410971798197856" lon="6.24696157935304"><ele>222.99999999999997</ele><time>2026-03-29T07:58:29.998Z</time></trkpt><trkpt lat="43.410897412967465" lon="6.247041196859552"><ele>223.0</ele><time>2026-03-29T07:58:31.998Z</time></trkpt><trkpt lat="43.41087138654778" lon="6.247121879658748"><ele>223.0</ele><time>2026-03-29T07:58:33.998Z</time></trkpt><trkpt lat="43.41085537231386" lon="6.247251208029105"><ele>223.0</ele><time>2026-03-29T07:58:35.998Z</time></trkpt><trkpt lat="43.41083557533736" lon="6.247349204288885"><ele>222.99999999999997</ele><time>2026-03-29T07:58:37.998Z</time></trkpt><trkpt lat="43.41084837721544" lon="6.247482527137807"><ele>223.0</ele><time>2026-03-29T07:58:39.998Z</time></trkpt><trkpt lat="43.410818684775826" lon="6.247595419790067"><ele>224.8</ele><time>2026-03-29T07:58:41.998Z</time></trkpt><trkpt lat="43.41081910654203" lon="6.247745380187981"><ele>226.60000000000002</ele><time>2026-03-29T07:58:43.998Z</time></trkpt><trkpt lat="43.41078766563606" lon="6.247866528835091"><ele>228.39999999999998</ele><time>2026-03-29T07:58:45.998Z</time></trkpt><trkpt lat="43.410776936215875" lon="6.248024212402742"><ele>230.2</ele><time>2026-03-29T07:58:47.998Z</time></trkpt><trkpt lat="43.410785025482035" lon="6.248187418243741"><ele>232.0</ele><time>2026-03-29T07:58:49.998Z</time></trkpt><trkpt lat="43.41076539593535" lon="6.248362553760197"><ele>233.39999999999998</ele><time>2026-03-29T07:58:51.998Z</time></trkpt><trkpt lat="43.41075739497959" lon="6.248463168174927"><ele>234.79999999999998</ele><time>2026-03-29T07:58:52.998Z</time></trkpt><trkpt lat="43.410764429968125" lon="6.248550019685994"><ele>236.2</ele><time>2026-03-29T07:58:53.998Z</time></trkpt><trkpt lat="43.41078647015209" lon="6.248705901629142"><ele>237.6</ele><time>2026-03-29T07:58:55.998Z</time></trkpt><trkpt lat="43.41075609690517" lon="6.248792004075831"><ele>239.0</ele><time>2026-03-29T07:58:56.998Z</time></trkpt><trkpt lat="43.410756381800994" lon="6.248972247087234"><ele>240.00000000000003</ele><time>2026-03-29T07:58:58.998Z</time></trkpt><trkpt lat="43.410722648258634" lon="6.249076572646941"><ele>241.0</ele><time>2026-03-29T07:58:59.998Z</time></trkpt><trkpt lat="43.41068067821315" lon="6.249189697052909"><ele>242.00000000000003</ele><time>2026-03-29T07:59:00.998Z</time></trkpt><trkpt lat="43.410658607658114" lon="6.249283774811244"><ele>243.00000000000003</ele><time>2026-03-29T07:59:01.998Z</time></trkpt><trkpt lat="43.410645856415414" lon="6.249371280750058"><ele>244.0</ele><time>2026-03-29T07:59:02.998Z</time></trkpt><trkpt lat="43.4106210059005" lon="6.249454532514171"><ele>245.00000000000003</ele><time>2026-03-29T07:59:03.998Z</time></trkpt><trkpt lat="43.41058088927136" lon="6.24953529802305"><ele>246.00000000000003</ele><time>2026-03-29T07:59:04.998Z</time></trkpt><trkpt lat="43.4105274398146" lon="6.2496354090041715"><ele>246.0</ele><time>2026-03-29T07:59:06.998Z</time></trkpt><trkpt lat="43.41054535355694" lon="6.249733028162212"><ele>246.0</ele><time>2026-03-29T07:59:08.998Z</time></trkpt><trkpt lat="43.4105763732327" lon="6.24988189911903"><ele>246.0</ele><time>2026-03-29T07:59:10.998Z</time></trkpt><trkpt lat="43.41054848894767" lon="6.249997856745862"><ele>246.0</ele><time>2026-03-29T07:59:13Z</time></trkpt><trkpt lat="43.41050179503247" lon="6.250101256500902"><ele>246.0</ele><time>2026-03-29T07:59:14Z</time></trkpt><trkpt lat="43.41048786404392" lon="6.250211632097626"><ele>246.0</ele><time>2026-03-29T07:59:15Z</time></trkpt><trkpt lat="43.41048368700728" lon="6.250336286022307"><ele>246.0</ele><time>2026-03-29T07:59:16Z</time></trkpt><trkpt lat="43.41046229066296" lon="6.25046708681093"><ele>246.0</ele><time>2026-03-29T07:59:17Z</time></trkpt><trkpt lat="43.41043755845651" lon="6.250552703456018"><ele>246.0</ele><time>2026-03-29T07:59:18Z</time></trkpt><trkpt lat="43.410454741608525" lon="6.250720823481583"><ele>246.0</ele><time>2026-03-29T07:59:20Z</time></trkpt><trkpt lat="43.41047938615229" lon="6.250829781503569"><ele>246.0</ele><time>2026-03-29T07:59:21Z</time></trkpt><trkpt lat="43.41048291568833" lon="6.250936516986544"><ele>246.0</ele><time>2026-03-29T07:59:22Z</time></trkpt><trkpt lat="43.41048001223678" lon="6.251024921178551"><ele>246.16666666666666</ele><time>2026-03-29T07:59:23Z</time></trkpt><trkpt lat="43.41049520275638" lon="6.251144042389108"><ele>246.33333333333331</ele><time>2026-03-29T07:59:25Z</time></trkpt><trkpt lat="43.410515525042086" lon="6.2512664532492765"><ele>246.5</ele><time>2026-03-29T07:59:27Z</time></trkpt><trkpt lat="43.41051174759894" lon="6.251378533392224"><ele>246.66666666666666</ele><time>2026-03-29T07:59:29Z</time></trkpt><trkpt lat="43.410492965027146" lon="6.251472516449751"><ele>246.83333333333331</ele><time>2026-03-29T07:59:32Z</time></trkpt><trkpt lat="43.41048765769669" lon="6.2515953627933705"><ele>247.0</ele><time>2026-03-29T07:59:34Z</time></trkpt><trkpt lat="43.41047383502128" lon="6.251689811500661"><ele>246.99999999999997</ele><time>2026-03-29T07:59:35Z</time></trkpt><trkpt lat="43.41041981913398" lon="6.251786473457075"><ele>247.0</ele><time>2026-03-29T07:59:37Z</time></trkpt><trkpt lat="43.410371232852995" lon="6.2518601343974565"><ele>247.0</ele><time>2026-03-29T07:59:38Z</time></trkpt><trkpt lat="43.41030702784215" lon="6.251947271539495"><ele>247.0</ele><time>2026-03-29T07:59:40Z</time></trkpt><trkpt lat="43.41024215577748" lon="6.252020864385938"><ele>246.99999999999997</ele><time>2026-03-29T07:59:42Z</time></trkpt><trkpt lat="43.410249002330694" lon="6.252151473837512"><ele>247.0</ele><time>2026-03-29T07:59:44Z</time></trkpt><trkpt lat="43.41020770818786" lon="6.2522183616909155"><ele>245.25</ele><time>2026-03-29T07:59:45Z</time></trkpt><trkpt lat="43.41013860788825" lon="6.252339410241213"><ele>243.5</ele><time>2026-03-29T07:59:46.999Z</time></trkpt><trkpt lat="43.41009598394581" lon="6.2525010378965105"><ele>241.75</ele><time>2026-03-29T07:59:48.999Z</time></trkpt><trkpt lat="43.41006771040661" lon="6.252653318406938"><ele>240.0</ele><time>2026-03-29T07:59:50.999Z</time></trkpt><trkpt lat="43.40998744142672" lon="6.252783012979245"><ele>240.0</ele><time>2026-03-29T07:59:52.999Z</time></trkpt><trkpt lat="43.40998101079027" lon="6.2529175567733795"><ele>240.0</ele><time>2026-03-29T07:59:54.999Z</time></trkpt><trkpt lat="43.409999172483964" lon="6.253037801103649"><ele>240.0</ele><time>2026-03-29T07:59:55.999Z</time></trkpt><trkpt lat="43.4099965694646" lon="6.253124983409601"><ele>240.0</ele><time>2026-03-29T07:59:56.999Z</time></trkpt><trkpt lat="43.40995630149352" lon="6.2532529381118716"><ele>240.0</ele><time>2026-03-29T07:59:59.999Z</time></trkpt><trkpt lat="43.40995075920768" lon="6.253344195885066"><ele>240.0</ele><time>2026-03-29T08:00:00.999Z</time></trkpt><trkpt lat="43.40998060896032" lon="6.253429009760437"><ele>240.2</ele><time>2026-03-29T08:00:01.999Z</time></trkpt><trkpt lat="43.410041128525584" lon="6.253521276735964"><ele>240.4</ele><time>2026-03-29T08:00:02.999Z</time></trkpt><trkpt lat="43.41010754910879" lon="6.253607578725144"><ele>240.60000000000002</ele><time>2026-03-29T08:00:03.999Z</time></trkpt><trkpt lat="43.41019214044667" lon="6.253633992148745"><ele>240.8</ele><time>2026-03-29T08:00:04.999Z</time></trkpt><trkpt lat="43.410299806831425" lon="6.253634209322104"><ele>241.0</ele><time>2026-03-29T08:00:05.999Z</time></trkpt><trkpt lat="43.41041911072058" lon="6.253654977592211"><ele>240.5</ele><time>2026-03-29T08:00:06.999Z</time></trkpt><trkpt lat="43.41053563605102" lon="6.253729768616817"><ele>240.0</ele><time>2026-03-29T08:00:07.999Z</time></trkpt><trkpt lat="43.41064143986939" lon="6.253819256724442"><ele>239.5</ele><time>2026-03-29T08:00:08.999Z</time></trkpt><trkpt lat="43.41075694702691" lon="6.253924608309617"><ele>239.0</ele><time>2026-03-29T08:00:09.999Z</time></trkpt><trkpt lat="43.410859549488876" lon="6.2540246699288256"><ele>239.00000000000003</ele><time>2026-03-29T08:00:10.999Z</time></trkpt><trkpt lat="43.410935708586194" lon="6.25411939954827"><ele>239.0</ele><time>2026-03-29T08:00:11.999Z</time></trkpt><trkpt lat="43.41099621715827" lon="6.2542048256978395"><ele>239.0</ele><time>2026-03-29T08:00:12.999Z</time></trkpt><trkpt lat="43.41101743575645" lon="6.254297815938004"><ele>239.0</ele><time>2026-03-29T08:00:13.999Z</time></trkpt><trkpt lat="43.411025305653645" lon="6.2544082019171405"><ele>239.00000000000003</ele><time>2026-03-29T08:00:14.999Z</time></trkpt><trkpt lat="43.411048879159736" lon="6.2544959979917705"><ele>239.0</ele><time>2026-03-29T08:00:15.999Z</time></trkpt><trkpt lat="43.41110943066101" lon="6.254564852729169"><ele>239.00000000000003</ele><time>2026-03-29T08:00:16.999Z</time></trkpt><trkpt lat="43.411193370069505" lon="6.254630094998672"><ele>239.0</ele><time>2026-03-29T08:00:17.999Z</time></trkpt><trkpt lat="43.41129373894669" lon="6.254681445541306"><ele>239.0</ele><time>2026-03-29T08:00:18.999Z</time></trkpt><trkpt lat="43.41137430023297" lon="6.254725337429803"><ele>239.0</ele><time>2026-03-29T08:00:19.999Z</time></trkpt><trkpt lat="43.4114388233553" lon="6.2547447872522985"><ele>239.00000000000003</ele><time>2026-03-29T08:00:20.999Z</time></trkpt><trkpt lat="43.41150599751159" lon="6.25472328415693"><ele>239.0</ele><time>2026-03-29T08:00:21.999Z</time></trkpt><trkpt lat="43.411569207214264" lon="6.2546703144151135"><ele>238.79999999999998</ele><time>2026-03-29T08:00:22.999Z</time></trkpt><trkpt lat="43.41161980259966" lon="6.254596094571252"><ele>238.59999999999997</ele><time>2026-03-29T08:00:23.999Z</time></trkpt><trkpt lat="43.41165209516805" lon="6.25446687751285"><ele>238.4</ele><time>2026-03-29T08:00:24.999Z</time></trkpt><trkpt lat="43.41169897607673" lon="6.254323195131273"><ele>238.2</ele><time>2026-03-29T08:00:25.999Z</time></trkpt><trkpt lat="43.411755129737536" lon="6.254223190266896"><ele>238.0</ele><time>2026-03-29T08:00:26.999Z</time></trkpt><trkpt lat="43.411816018315655" lon="6.254139579783214"><ele>238.0</ele><time>2026-03-29T08:00:27.999Z</time></trkpt><trkpt lat="43.41189572267616" lon="6.25404702502537"><ele>238.0</ele><time>2026-03-29T08:00:28.999Z</time></trkpt><trkpt lat="43.411962817508865" lon="6.253954617223189"><ele>238.0</ele><time>2026-03-29T08:00:29.999Z</time></trkpt><trkpt lat="43.412032245047214" lon="6.253865183888017"><ele>238.0</ele><time>2026-03-29T08:00:30.999Z</time></trkpt><trkpt lat="43.41212114464098" lon="6.25376749578906"><ele>238.0</ele><time>2026-03-29T08:00:31.999Z</time></trkpt><trkpt lat="43.41219770776343" lon="6.253650219263763"><ele>237.60000000000002</ele><time>2026-03-29T08:00:32.999Z</time></trkpt><trkpt lat="43.412338661035584" lon="6.253624276047839"><ele>237.20000000000002</ele><time>2026-03-29T08:00:33.999Z</time></trkpt><trkpt lat="43.412412510569744" lon="6.2535894348385215"><ele>236.8</ele><time>2026-03-29T08:00:34.999Z</time></trkpt><trkpt lat="43.41249914692578" lon="6.253547980684818"><ele>236.4</ele><time>2026-03-29T08:00:35.999Z</time></trkpt><trkpt lat="43.41258782574969" lon="6.253544198836657"><ele>236.0</ele><time>2026-03-29T08:00:36.999Z</time></trkpt><trkpt lat="43.41269401616217" lon="6.2535787665469025"><ele>236.0</ele><time>2026-03-29T08:00:37.999Z</time></trkpt><trkpt lat="43.41281176772753" lon="6.25362073794102"><ele>236.0</ele><time>2026-03-29T08:00:38.999Z</time></trkpt><trkpt lat="43.412947882310355" lon="6.253623206505987"><ele>236.0</ele><time>2026-03-29T08:00:39.998Z</time></trkpt><trkpt lat="43.413124195453904" lon="6.253576334736278"><ele>236.0</ele><time>2026-03-29T08:00:40.998Z</time></trkpt><trkpt lat="43.41324980737137" lon="6.253556867465827"><ele>235.20000000000002</ele><time>2026-03-29T08:00:41.998Z</time></trkpt><trkpt lat="43.41331734837039" lon="6.2535227638015405"><ele>234.40000000000003</ele><time>2026-03-29T08:00:42.998Z</time></trkpt><trkpt lat="43.41339627809027" lon="6.253456509282429"><ele>233.6</ele><time>2026-03-29T08:00:43.998Z</time></trkpt><trkpt lat="43.41348465385034" lon="6.253343931523973"><ele>232.8</ele><time>2026-03-29T08:00:44.998Z</time></trkpt><trkpt lat="43.41358301127451" lon="6.253214009387052"><ele>232.0</ele><time>2026-03-29T08:00:45.998Z</time></trkpt><trkpt lat="43.41369786020485" lon="6.253078472719295"><ele>231.0</ele><time>2026-03-29T08:00:46.998Z</time></trkpt><trkpt lat="43.41381626664843" lon="6.252963539558763"><ele>230.0</ele><time>2026-03-29T08:00:47.998Z</time></trkpt><trkpt lat="43.41391179653815" lon="6.252862101877843"><ele>229.0</ele><time>2026-03-29T08:00:48.998Z</time></trkpt><trkpt lat="43.41399676293" lon="6.2527594985603585"><ele>228.0</ele><time>2026-03-29T08:00:49.998Z</time></trkpt><trkpt lat="43.41406267534227" lon="6.252621568960255"><ele>228.0</ele><time>2026-03-29T08:00:50.998Z</time></trkpt><trkpt lat="43.41411747862796" lon="6.252451512182601"><ele>228.0</ele><time>2026-03-29T08:00:51.998Z</time></trkpt><trkpt lat="43.414203579097396" lon="6.25230010688293"><ele>228.0</ele><time>2026-03-29T08:00:52.998Z</time></trkpt><trkpt lat="43.41430657996701" lon="6.252168176139281"><ele>228.0</ele><time>2026-03-29T08:00:53.998Z</time></trkpt><trkpt lat="43.41440103682193" lon="6.252046997037962"><ele>229.5</ele><time>2026-03-29T08:00:54.998Z</time></trkpt><trkpt lat="43.41446284738446" lon="6.25195517750456"><ele>231.0</ele><time>2026-03-29T08:00:55.998Z</time></trkpt><trkpt lat="43.41450371678141" lon="6.251835827801375"><ele>232.5</ele><time>2026-03-29T08:00:56.998Z</time></trkpt><trkpt lat="43.41471657916597" lon="6.251795606808665"><ele>234.0</ele><time>2026-03-29T08:00:57.998Z</time></trkpt><trkpt lat="43.414722801398995" lon="6.251578178154274"><ele>234.0</ele><time>2026-03-29T08:00:58.998Z</time></trkpt><trkpt lat="43.41472034296453" lon="6.251450848729294"><ele>234.0</ele><time>2026-03-29T08:00:59.998Z</time></trkpt><trkpt lat="43.41472451838334" lon="6.251357683958772"><ele>234.0</ele><time>2026-03-29T08:01:00.998Z</time></trkpt><trkpt lat="43.414845580183034" lon="6.251104688612749"><ele>234.0</ele><time>2026-03-29T08:01:06.998Z</time></trkpt><trkpt lat="43.41489945625336" lon="6.250978854274353"><ele>234.0</ele><time>2026-03-29T08:01:07.998Z</time></trkpt><trkpt lat="43.41494733442531" lon="6.250818793882424"><ele>234.0</ele><time>2026-03-29T08:01:08.998Z</time></trkpt><trkpt lat="43.41504752939366" lon="6.250695772523227"><ele>234.0</ele><time>2026-03-29T08:01:09.998Z</time></trkpt><trkpt lat="43.41516184316245" lon="6.250568570410647"><ele>234.0</ele><time>2026-03-29T08:01:10.998Z</time></trkpt><trkpt lat="43.41527567654405" lon="6.250422764536325"><ele>235.5</ele><time>2026-03-29T08:01:11.998Z</time></trkpt><trkpt lat="43.415399387828096" lon="6.250331696453721"><ele>237.0</ele><time>2026-03-29T08:01:12.998Z</time></trkpt><trkpt lat="43.41549996470432" lon="6.250226426493348"><ele>238.5</ele><time>2026-03-29T08:01:13.998Z</time></trkpt><trkpt lat="43.415616977433324" lon="6.250139997209953"><ele>240.0</ele><time>2026-03-29T08:01:14.998Z</time></trkpt><trkpt lat="43.415728625071395" lon="6.2500638971092775"><ele>240.0</ele><time>2026-03-29T08:01:15.998Z</time></trkpt><trkpt lat="43.41583575647737" lon="6.249994204866467"><ele>240.0</ele><time>2026-03-29T08:01:16.998Z</time></trkpt><trkpt lat="43.41594318611006" lon="6.24995196997531"><ele>240.0</ele><time>2026-03-29T08:01:17.998Z</time></trkpt><trkpt lat="43.41605526514436" lon="6.249904534305699"><ele>240.0</ele><time>2026-03-29T08:01:19Z</time></trkpt><trkpt lat="43.41613889036854" lon="6.249854465625444"><ele>240.0</ele><time>2026-03-29T08:01:20Z</time></trkpt><trkpt lat="43.41620290961122" lon="6.249817821444126"><ele>240.0</ele><time>2026-03-29T08:01:21Z</time></trkpt><trkpt lat="43.41623294822853" lon="6.249900942307745"><ele>240.0</ele><time>2026-03-29T08:01:25Z</time></trkpt><trkpt lat="43.41617868081642" lon="6.2499471783957485"><ele>240.0</ele><time>2026-03-29T08:01:26Z</time></trkpt><trkpt lat="43.41612536172759" lon="6.250019345411076"><ele>240.0</ele><time>2026-03-29T08:01:27Z</time></trkpt><trkpt lat="43.41605222722507" lon="6.250114490905572"><ele>240.0</ele><time>2026-03-29T08:01:28Z</time></trkpt><trkpt lat="43.415960346491204" lon="6.250210015084327"><ele>240.0</ele><time>2026-03-29T08:01:29Z</time></trkpt><trkpt lat="43.415856176876126" lon="6.250328772225"><ele>240.0</ele><time>2026-03-29T08:01:30Z</time></trkpt><trkpt lat="43.415732190995186" lon="6.2504746725278055"><ele>240.0</ele><time>2026-03-29T08:01:31Z</time></trkpt><trkpt lat="43.415613776708994" lon="6.250630730073458"><ele>240.0</ele><time>2026-03-29T08:01:32Z</time></trkpt><trkpt lat="43.415489733107826" lon="6.250808826368356"><ele>238.0</ele><time>2026-03-29T08:01:33Z</time></trkpt><trkpt lat="43.41536415646202" lon="6.2510208051063865"><ele>236.0</ele><time>2026-03-29T08:01:34Z</time></trkpt><trkpt lat="43.415243844514094" lon="6.251237406283424"><ele>234.0</ele><time>2026-03-29T08:01:35Z</time></trkpt><trkpt lat="43.41515361830398" lon="6.251445952809548"><ele>234.66666666666669</ele><time>2026-03-29T08:01:36Z</time></trkpt><trkpt lat="43.41510631564788" lon="6.2516554898510055"><ele>235.33333333333334</ele><time>2026-03-29T08:01:37Z</time></trkpt><trkpt lat="43.4151014552307" lon="6.251879412057088"><ele>236.0</ele><time>2026-03-29T08:01:38Z</time></trkpt><trkpt lat="43.41514809260691" lon="6.25211444090571"><ele>236.0</ele><time>2026-03-29T08:01:39Z</time></trkpt><trkpt lat="43.41518767320787" lon="6.252364950641544"><ele>236.0</ele><time>2026-03-29T08:01:40Z</time></trkpt><trkpt lat="43.41526387688961" lon="6.2526221677545"><ele>236.0</ele><time>2026-03-29T08:01:41Z</time></trkpt><trkpt lat="43.41532957061083" lon="6.252878007598689"><ele>239.66666666666669</ele><time>2026-03-29T08:01:42Z</time></trkpt><trkpt lat="43.4153966135247" lon="6.25313905515013"><ele>243.33333333333331</ele><time>2026-03-29T08:01:43Z</time></trkpt><trkpt lat="43.415453884203416" lon="6.253362512359059"><ele>247.0</ele><time>2026-03-29T08:01:44Z</time></trkpt><trkpt lat="43.415532263713025" lon="6.253553389575784"><ele>247.33333333333331</ele><time>2026-03-29T08:01:45Z</time></trkpt><trkpt lat="43.41563704409525" lon="6.253708949167934"><ele>247.66666666666669</ele><time>2026-03-29T08:01:46Z</time></trkpt><trkpt lat="43.415779120397616" lon="6.253842924845014"><ele>248.0</ele><time>2026-03-29T08:01:47Z</time></trkpt><trkpt lat="43.41593205105049" lon="6.253960245386186"><ele>248.0</ele><time>2026-03-29T08:01:48Z</time></trkpt><trkpt lat="43.41607363989348" lon="6.254075334015456"><ele>248.0</ele><time>2026-03-29T08:01:49Z</time></trkpt><trkpt lat="43.416193176474174" lon="6.254206047701951"><ele>248.0</ele><time>2026-03-29T08:01:50Z</time></trkpt><trkpt lat="43.41624511683582" lon="6.2543764024983055"><ele>248.0</ele><time>2026-03-29T08:01:51Z</time></trkpt><trkpt lat="43.416268213995494" lon="6.254558903431985"><ele>248.0</ele><time>2026-03-29T08:01:52Z</time></trkpt><trkpt lat="43.416324722332014" lon="6.254755055991165"><ele>248.0</ele><time>2026-03-29T08:01:53Z</time></trkpt><trkpt lat="43.4163902081695" lon="6.254955873577252"><ele>248.0</ele><time>2026-03-29T08:01:53.999Z</time></trkpt><trkpt lat="43.41649550557422" lon="6.255108167422299"><ele>245.0</ele><time>2026-03-29T08:01:54.999Z</time></trkpt><trkpt lat="43.416635185468934" lon="6.255225198165236"><ele>242.0</ele><time>2026-03-29T08:01:55.999Z</time></trkpt><trkpt lat="43.41680266383219" lon="6.255308170229847"><ele>239.0</ele><time>2026-03-29T08:01:56.999Z</time></trkpt><trkpt lat="43.416969606364304" lon="6.255401692760671"><ele>239.0</ele><time>2026-03-29T08:01:57.999Z</time></trkpt><trkpt lat="43.41714109017261" lon="6.255513122512974"><ele>239.0</ele><time>2026-03-29T08:01:58.999Z</time></trkpt><trkpt lat="43.417321133383396" lon="6.255619727699607"><ele>239.0</ele><time>2026-03-29T08:01:59.999Z</time></trkpt><trkpt lat="43.41748498676479" lon="6.255714225970299"><ele>237.66666666666669</ele><time>2026-03-29T08:02:00.999Z</time></trkpt><trkpt lat="43.41765562498417" lon="6.255811125452924"><ele>236.33333333333331</ele><time>2026-03-29T08:02:01.999Z</time></trkpt><trkpt lat="43.41781870897026" lon="6.255905692892469"><ele>235.0</ele><time>2026-03-29T08:02:02.999Z</time></trkpt><trkpt lat="43.41795928721501" lon="6.255990102692517"><ele>234.75</ele><time>2026-03-29T08:02:03.999Z</time></trkpt><trkpt lat="43.418085070375675" lon="6.256089797081245"><ele>234.5</ele><time>2026-03-29T08:02:04.999Z</time></trkpt><trkpt lat="43.41815414514625" lon="6.256251840360174"><ele>234.25</ele><time>2026-03-29T08:02:05.999Z</time></trkpt><trkpt lat="43.418183975378085" lon="6.2564187336750114"><ele>234.0</ele><time>2026-03-29T08:02:06.999Z</time></trkpt><trkpt lat="43.41816880880186" lon="6.256602265808615"><ele>234.0</ele><time>2026-03-29T08:02:07.999Z</time></trkpt><trkpt lat="43.41814650005454" lon="6.256816936863619"><ele>234.0</ele><time>2026-03-29T08:02:08.999Z</time></trkpt><trkpt lat="43.41811635630051" lon="6.257039896733144"><ele>234.0</ele><time>2026-03-29T08:02:09.999Z</time></trkpt><trkpt lat="43.418088744076165" lon="6.257274203575708"><ele>234.33333333333331</ele><time>2026-03-29T08:02:10.999Z</time></trkpt><trkpt lat="43.41805232770034" lon="6.257505464004587"><ele>234.66666666666666</ele><time>2026-03-29T08:02:11.999Z</time></trkpt><trkpt lat="43.41801461944824" lon="6.257740316166845"><ele>235.0</ele><time>2026-03-29T08:02:12.999Z</time></trkpt><trkpt lat="43.41798056886531" lon="6.257971371667804"><ele>232.33333333333331</ele><time>2026-03-29T08:02:13.999Z</time></trkpt><trkpt lat="43.41794654904068" lon="6.2581924727745415"><ele>229.66666666666669</ele><time>2026-03-29T08:02:14.999Z</time></trkpt><trkpt lat="43.41791220179787" lon="6.258425234675877"><ele>227.0</ele><time>2026-03-29T08:02:15.999Z</time></trkpt><trkpt lat="43.41788195386956" lon="6.258666912165012"><ele>227.0</ele><time>2026-03-29T08:02:16.999Z</time></trkpt><trkpt lat="43.41785332007744" lon="6.2589146605856145"><ele>227.0</ele><time>2026-03-29T08:02:17.999Z</time></trkpt><trkpt lat="43.41782027485175" lon="6.259149649175318"><ele>227.0</ele><time>2026-03-29T08:02:18.999Z</time></trkpt><trkpt lat="43.4177903539055" lon="6.259374314212757"><ele>228.0</ele><time>2026-03-29T08:02:19.999Z</time></trkpt><trkpt lat="43.41776166064193" lon="6.259575446419824"><ele>229.0</ele><time>2026-03-29T08:02:20.999Z</time></trkpt><trkpt lat="43.417731690854886" lon="6.259763523734213"><ele>230.0</ele><time>2026-03-29T08:02:21.999Z</time></trkpt><trkpt lat="43.41770703242903" lon="6.2599632450027185"><ele>231.0</ele><time>2026-03-29T08:02:22.999Z</time></trkpt><trkpt lat="43.41769091787307" lon="6.260163765196113"><ele>233.0</ele><time>2026-03-29T08:02:23.999Z</time></trkpt><trkpt lat="43.41768977364001" lon="6.260371003631757"><ele>235.0</ele><time>2026-03-29T08:02:24.999Z</time></trkpt><trkpt lat="43.41770109606597" lon="6.2605878826826205"><ele>237.0</ele><time>2026-03-29T08:02:25.999Z</time></trkpt><trkpt lat="43.41772100821963" lon="6.260800907899996"><ele>237.33333333333331</ele><time>2026-03-29T08:02:26.999Z</time></trkpt><trkpt lat="43.41773517917206" lon="6.261020125224439"><ele>237.66666666666666</ele><time>2026-03-29T08:02:27.999Z</time></trkpt><trkpt lat="43.417741070649754" lon="6.261238843072864"><ele>238.0</ele><time>2026-03-29T08:02:28.999Z</time></trkpt><trkpt lat="43.417747680801746" lon="6.2614616384466455"><ele>237.25</ele><time>2026-03-29T08:02:29.999Z</time></trkpt><trkpt lat="43.41775863351397" lon="6.261679985905651"><ele>236.5</ele><time>2026-03-29T08:02:30.999Z</time></trkpt><trkpt lat="43.4177664350105" lon="6.261880624999858"><ele>235.75</ele><time>2026-03-29T08:02:31.999Z</time></trkpt><trkpt lat="43.4177733883852" lon="6.262064590378795"><ele>235.0</ele><time>2026-03-29T08:02:32.999Z</time></trkpt><trkpt lat="43.41778495793334" lon="6.262246109059507"><ele>234.5</ele><time>2026-03-29T08:02:33.999Z</time></trkpt><trkpt lat="43.41779596829307" lon="6.262415544590257"><ele>234.0</ele><time>2026-03-29T08:02:34.999Z</time></trkpt><trkpt lat="43.4178131487242" lon="6.262585221432774"><ele>233.5</ele><time>2026-03-29T08:02:35.999Z</time></trkpt><trkpt lat="43.41785574878724" lon="6.2627652844757105"><ele>233.0</ele><time>2026-03-29T08:02:36.999Z</time></trkpt><trkpt lat="43.41792749738084" lon="6.262928699154759"><ele>234.0</ele><time>2026-03-29T08:02:37.999Z</time></trkpt><trkpt lat="43.418026232863305" lon="6.263068349688577"><ele>235.0</ele><time>2026-03-29T08:02:38.999Z</time></trkpt><trkpt lat="43.41814312110771" lon="6.2631926915939165"><ele>236.0</ele><time>2026-03-29T08:02:39.999Z</time></trkpt><trkpt lat="43.41827129426033" lon="6.263304308057738"><ele>237.0</ele><time>2026-03-29T08:02:40.999Z</time></trkpt><trkpt lat="43.41840436373896" lon="6.263418581485499"><ele>237.0</ele><time>2026-03-29T08:02:41.999Z</time></trkpt><trkpt lat="43.418534594609106" lon="6.2635295078767985"><ele>237.0</ele><time>2026-03-29T08:02:42.999Z</time></trkpt><trkpt lat="43.418660985181276" lon="6.263644080396301"><ele>237.0</ele><time>2026-03-29T08:02:43.999Z</time></trkpt><trkpt lat="43.41876531455373" lon="6.263758011302265"><ele>237.0</ele><time>2026-03-29T08:02:44.999Z</time></trkpt><trkpt lat="43.418853176144324" lon="6.263881078303303"><ele>239.25</ele><time>2026-03-29T08:02:45.999Z</time></trkpt><trkpt lat="43.41893036557266" lon="6.264028358172814"><ele>241.5</ele><time>2026-03-29T08:02:46.999Z</time></trkpt><trkpt lat="43.41899601697442" lon="6.2641955121493655"><ele>243.75</ele><time>2026-03-29T08:02:47.998Z</time></trkpt><trkpt lat="43.41906576985486" lon="6.264372638577905"><ele>246.0</ele><time>2026-03-29T08:02:48.998Z</time></trkpt><trkpt lat="43.41914102463312" lon="6.2645518779911695"><ele>246.0</ele><time>2026-03-29T08:02:49.998Z</time></trkpt><trkpt lat="43.41922601126206" lon="6.264752849621504"><ele>246.0</ele><time>2026-03-29T08:02:50.998Z</time></trkpt><trkpt lat="43.41930896295834" lon="6.264961793771681"><ele>246.0</ele><time>2026-03-29T08:02:51.998Z</time></trkpt><trkpt lat="43.41939821755383" lon="6.265187086257178"><ele>246.33333333333331</ele><time>2026-03-29T08:02:52.998Z</time></trkpt><trkpt lat="43.419488782200254" lon="6.265422333210509"><ele>246.66666666666666</ele><time>2026-03-29T08:02:53.998Z</time></trkpt><trkpt lat="43.419589681031745" lon="6.265676787832932"><ele>247.0</ele><time>2026-03-29T08:02:54.998Z</time></trkpt><trkpt lat="43.41969495584585" lon="6.265940722390436"><ele>247.33333333333331</ele><time>2026-03-29T08:02:55.998Z</time></trkpt><trkpt lat="43.41977265382754" lon="6.266167264491359"><ele>247.66666666666669</ele><time>2026-03-29T08:02:56.998Z</time></trkpt><trkpt lat="43.41980074134411" lon="6.266400232017299"><ele>248.0</ele><time>2026-03-29T08:02:57.998Z</time></trkpt><trkpt lat="43.41982262827504" lon="6.266637788290395"><ele>248.66666666666669</ele><time>2026-03-29T08:02:58.998Z</time></trkpt><trkpt lat="43.41982791488851" lon="6.26689063558101"><ele>249.33333333333331</ele><time>2026-03-29T08:02:59.998Z</time></trkpt><trkpt lat="43.41983114081946" lon="6.267147835032586"><ele>250.0</ele><time>2026-03-29T08:03:00.998Z</time></trkpt><trkpt lat="43.419849716885864" lon="6.267401368206288"><ele>251.66666666666666</ele><time>2026-03-29T08:03:01.998Z</time></trkpt><trkpt lat="43.419852745203045" lon="6.267675515112627"><ele>253.33333333333331</ele><time>2026-03-29T08:03:02.998Z</time></trkpt><trkpt lat="43.41985057073013" lon="6.267980897002537"><ele>255.0</ele><time>2026-03-29T08:03:03.998Z</time></trkpt><trkpt lat="43.41985548341357" lon="6.268313353312864"><ele>255.0</ele><time>2026-03-29T08:03:04.998Z</time></trkpt><trkpt lat="43.419860571926044" lon="6.26863001322675"><ele>255.0</ele><time>2026-03-29T08:03:05.998Z</time></trkpt><trkpt lat="43.41986563393042" lon="6.268911135702654"><ele>255.0</ele><time>2026-03-29T08:03:06.998Z</time></trkpt><trkpt lat="43.41987102853569" lon="6.269192951940809"><ele>255.33333333333331</ele><time>2026-03-29T08:03:07.998Z</time></trkpt><trkpt lat="43.41987870780422" lon="6.269468432162043"><ele>255.66666666666666</ele><time>2026-03-29T08:03:08.998Z</time></trkpt><trkpt lat="43.41988583575845" lon="6.269755045847423"><ele>256.0</ele><time>2026-03-29T08:03:09.998Z</time></trkpt><trkpt lat="43.41988285900503" lon="6.2700627614459234"><ele>256.0</ele><time>2026-03-29T08:03:10.998Z</time></trkpt><trkpt lat="43.41986650672461" lon="6.270324745850291"><ele>256.0</ele><time>2026-03-29T08:03:11.998Z</time></trkpt><trkpt lat="43.419806646865496" lon="6.270573122930054"><ele>256.0</ele><time>2026-03-29T08:03:12.998Z</time></trkpt><trkpt lat="43.41975903263537" lon="6.270807316383928"><ele>256.75</ele><time>2026-03-29T08:03:13.998Z</time></trkpt><trkpt lat="43.419693555019606" lon="6.270998017053576"><ele>257.5</ele><time>2026-03-29T08:03:14.998Z</time></trkpt><trkpt lat="43.41964868397714" lon="6.271188986038179"><ele>258.25</ele><time>2026-03-29T08:03:15.998Z</time></trkpt><trkpt lat="43.419637478423354" lon="6.271389454292866"><ele>259.0</ele><time>2026-03-29T08:03:16.998Z</time></trkpt><trkpt lat="43.419657129060056" lon="6.271584006474481"><ele>259.0</ele><time>2026-03-29T08:03:17.998Z</time></trkpt><trkpt lat="43.41970232054086" lon="6.2717835058636355"><ele>259.0</ele><time>2026-03-29T08:03:18.998Z</time></trkpt><trkpt lat="43.41980464706274" lon="6.271935528496116"><ele>259.0</ele><time>2026-03-29T08:03:19.998Z</time></trkpt><trkpt lat="43.41989830121192" lon="6.272099984705119"><ele>259.0</ele><time>2026-03-29T08:03:20.998Z</time></trkpt><trkpt lat="43.420004589992764" lon="6.2722395216779985"><ele>259.0</ele><time>2026-03-29T08:03:21.998Z</time></trkpt><trkpt lat="43.420101713018745" lon="6.272404952399896"><ele>259.0</ele><time>2026-03-29T08:03:22.998Z</time></trkpt><trkpt lat="43.420182912883824" lon="6.272575723346959"><ele>258.25</ele><time>2026-03-29T08:03:23.998Z</time></trkpt><trkpt lat="43.420230783192565" lon="6.272752367255375"><ele>257.5</ele><time>2026-03-29T08:03:25Z</time></trkpt><trkpt lat="43.420247393097036" lon="6.27294456379637"><ele>256.75</ele><time>2026-03-29T08:03:26Z</time></trkpt><trkpt lat="43.42021264708228" lon="6.27315091095639"><ele>256.0</ele><time>2026-03-29T08:03:27Z</time></trkpt><trkpt lat="43.420199641443354" lon="6.273373651419464"><ele>257.66666666666663</ele><time>2026-03-29T08:03:28Z</time></trkpt><trkpt lat="43.420160706071265" lon="6.273600028974766"><ele>259.3333333333333</ele><time>2026-03-29T08:03:29Z</time></trkpt><trkpt lat="43.42012473391834" lon="6.273831217342149"><ele>261.0</ele><time>2026-03-29T08:03:30Z</time></trkpt><trkpt lat="43.42008974419806" lon="6.274058129900333"><ele>261.0</ele><time>2026-03-29T08:03:31Z</time></trkpt><trkpt lat="43.4200602999816" lon="6.274262876726661"><ele>261.0</ele><time>2026-03-29T08:03:32Z</time></trkpt><trkpt lat="43.42003632349544" lon="6.274454158285392"><ele>261.0</ele><time>2026-03-29T08:03:33Z</time></trkpt><trkpt lat="43.42001068944554" lon="6.274639080563303"><ele>261.0</ele><time>2026-03-29T08:03:34Z</time></trkpt><trkpt lat="43.419984172852516" lon="6.274836286072723"><ele>259.5</ele><time>2026-03-29T08:03:35Z</time></trkpt><trkpt lat="43.41995135183928" lon="6.275034243313775"><ele>258.0</ele><time>2026-03-29T08:03:36Z</time></trkpt><trkpt lat="43.419924879629356" lon="6.27522659402584"><ele>256.5</ele><time>2026-03-29T08:03:37Z</time></trkpt><trkpt lat="43.41990516785687" lon="6.275396815054364"><ele>255.0</ele><time>2026-03-29T08:03:38Z</time></trkpt><trkpt lat="43.41987813729294" lon="6.27555882002605"><ele>253.8</ele><time>2026-03-29T08:03:39Z</time></trkpt><trkpt lat="43.41985900021989" lon="6.275694460347885"><ele>252.6</ele><time>2026-03-29T08:03:40Z</time></trkpt><trkpt lat="43.41983850168631" lon="6.275811445810903"><ele>251.39999999999998</ele><time>2026-03-29T08:03:41Z</time></trkpt><trkpt lat="43.41982561628739" lon="6.275907250499732"><ele>250.2</ele><time>2026-03-29T08:03:43Z</time></trkpt><trkpt lat="43.41996568652296" lon="6.275937484489265"><ele>249.0</ele><time>2026-03-29T08:03:44Z</time></trkpt><trkpt lat="43.42007858151816" lon="6.275927217263263"><ele>249.0</ele><time>2026-03-29T08:03:45Z</time></trkpt><trkpt lat="43.420209473377746" lon="6.275924641594748"><ele>249.0</ele><time>2026-03-29T08:03:46Z</time></trkpt><trkpt lat="43.42035245816571" lon="6.275936704295785"><ele>249.0</ele><time>2026-03-29T08:03:47Z</time></trkpt><trkpt lat="43.42050173326453" lon="6.275953289588484"><ele>249.0</ele><time>2026-03-29T08:03:48Z</time></trkpt><trkpt lat="43.42062921228941" lon="6.2759708438772845"><ele>249.39999999999998</ele><time>2026-03-29T08:03:49Z</time></trkpt><trkpt lat="43.420741296310084" lon="6.275986776083698"><ele>249.79999999999998</ele><time>2026-03-29T08:03:50Z</time></trkpt><trkpt lat="43.420828844988726" lon="6.276046869106099"><ele>250.20000000000002</ele><time>2026-03-29T08:03:51Z</time></trkpt><trkpt lat="43.420884612467304" lon="6.276150740731292"><ele>250.60000000000002</ele><time>2026-03-29T08:03:52Z</time></trkpt><trkpt lat="43.420946246327674" lon="6.276201048797221"><ele>251.0</ele><time>2026-03-29T08:03:53Z</time></trkpt><trkpt lat="43.42102516606642" lon="6.276195079195952"><ele>251.00000000000003</ele><time>2026-03-29T08:03:54Z</time></trkpt><trkpt lat="43.421111339022715" lon="6.276285401315439"><ele>251.0</ele><time>2026-03-29T08:03:56Z</time></trkpt><trkpt lat="43.421204135235556" lon="6.276317403602987"><ele>251.0</ele><time>2026-03-29T08:03:58Z</time></trkpt><trkpt lat="43.42126917295004" lon="6.276261169633461"><ele>251.0</ele><time>2026-03-29T08:03:59Z</time></trkpt><trkpt lat="43.42133123941718" lon="6.2762076514248495"><ele>251.00000000000003</ele><time>2026-03-29T08:03:59.999Z</time></trkpt><trkpt lat="43.42139169350219" lon="6.276131433044979"><ele>251.0</ele><time>2026-03-29T08:04:00.999Z</time></trkpt><trkpt lat="43.42146847487085" lon="6.276045781367734"><ele>251.60000000000002</ele><time>2026-03-29T08:04:01.999Z</time></trkpt><trkpt lat="43.42155524064338" lon="6.275967016370161"><ele>252.20000000000002</ele><time>2026-03-29T08:04:02.999Z</time></trkpt><trkpt lat="43.42164496931005" lon="6.275890535184465"><ele>252.79999999999998</ele><time>2026-03-29T08:04:03.999Z</time></trkpt><trkpt lat="43.421748921172785" lon="6.275815433495978"><ele>253.39999999999998</ele><time>2026-03-29T08:04:04.999Z</time></trkpt><trkpt lat="43.42186614396223" lon="6.275791044959718"><ele>254.0</ele><time>2026-03-29T08:04:05.999Z</time></trkpt><trkpt lat="43.421987617103646" lon="6.275744443696588"><ele>254.0</ele><time>2026-03-29T08:04:06.999Z</time></trkpt><trkpt lat="43.4221034977319" lon="6.275679141597228"><ele>254.0</ele><time>2026-03-29T08:04:07.999Z</time></trkpt><trkpt lat="43.422217573857026" lon="6.275598434780692"><ele>254.0</ele><time>2026-03-29T08:04:08.999Z</time></trkpt><trkpt lat="43.42234553317655" lon="6.275527923034811"><ele>254.0</ele><time>2026-03-29T08:04:09.999Z</time></trkpt><trkpt lat="43.42248432278925" lon="6.275451960910622"><ele>257.0</ele><time>2026-03-29T08:04:10.999Z</time></trkpt><trkpt lat="43.42262050578234" lon="6.275391042714399"><ele>260.0</ele><time>2026-03-29T08:04:11.999Z</time></trkpt><trkpt lat="43.422741904521025" lon="6.275318929560932"><ele>263.0</ele><time>2026-03-29T08:04:12.999Z</time></trkpt><trkpt lat="43.422868923384556" lon="6.275241547777901"><ele>266.0</ele><time>2026-03-29T08:04:13.999Z</time></trkpt><trkpt lat="43.422997159785936" lon="6.275164772098338"><ele>269.0</ele><time>2026-03-29T08:04:14.999Z</time></trkpt><trkpt lat="43.42311008470148" lon="6.275075796027272"><ele>272.0</ele><time>2026-03-29T08:04:15.999Z</time></trkpt><trkpt lat="43.423181398657086" lon="6.274942636580573"><ele>275.0</ele><time>2026-03-29T08:04:16.999Z</time></trkpt><trkpt lat="43.423237126764235" lon="6.274829649087451"><ele>278.0</ele><time>2026-03-29T08:04:17.999Z</time></trkpt><trkpt lat="43.42329444112199" lon="6.274759710190712"><ele>281.0</ele><time>2026-03-29T08:04:18.999Z</time></trkpt><trkpt lat="43.42336253626747" lon="6.274748474885956"><ele>281.0</ele><time>2026-03-29T08:04:20.999Z</time></trkpt><trkpt lat="43.423389852713456" lon="6.274849509981114"><ele>281.0</ele><time>2026-03-29T08:04:22.999Z</time></trkpt><trkpt lat="43.42340838895079" lon="6.274946617943942"><ele>281.0</ele><time>2026-03-29T08:04:23.999Z</time></trkpt><trkpt lat="43.42344431134932" lon="6.275069800838913"><ele>281.0</ele><time>2026-03-29T08:04:24.999Z</time></trkpt><trkpt lat="43.42350401044274" lon="6.275194024425064"><ele>281.0</ele><time>2026-03-29T08:04:25.999Z</time></trkpt><trkpt lat="43.423545440110026" lon="6.275341375650677"><ele>281.0</ele><time>2026-03-29T08:04:26.999Z</time></trkpt><trkpt lat="43.42362202402214" lon="6.275472787250568"><ele>281.0</ele><time>2026-03-29T08:04:27.999Z</time></trkpt><trkpt lat="43.42366928400445" lon="6.275594955345343"><ele>281.0</ele><time>2026-03-29T08:04:28.999Z</time></trkpt><trkpt lat="43.42372139184299" lon="6.275692375034712"><ele>281.0</ele><time>2026-03-29T08:04:29.999Z</time></trkpt><trkpt lat="43.42378487360033" lon="6.275766446926577"><ele>281.0</ele><time>2026-03-29T08:04:30.999Z</time></trkpt><trkpt lat="43.42387827707975" lon="6.275810202584667"><ele>283.75</ele><time>2026-03-29T08:04:31.999Z</time></trkpt><trkpt lat="43.423986958132865" lon="6.2758206065333555"><ele>286.5</ele><time>2026-03-29T08:04:32.999Z</time></trkpt><trkpt lat="43.424113080147755" lon="6.275808035763379"><ele>289.25</ele><time>2026-03-29T08:04:33.999Z</time></trkpt><trkpt lat="43.42424864910734" lon="6.275789344066108"><ele>292.0</ele><time>2026-03-29T08:04:34.999Z</time></trkpt><trkpt lat="43.42439791426001" lon="6.27578881701854"><ele>292.0</ele><time>2026-03-29T08:04:35.999Z</time></trkpt><trkpt lat="43.42456372988559" lon="6.275841238679787"><ele>292.0</ele><time>2026-03-29T08:04:36.999Z</time></trkpt><trkpt lat="43.42473752848088" lon="6.275851527568329"><ele>292.0</ele><time>2026-03-29T08:04:37.999Z</time></trkpt><trkpt lat="43.42490258823375" lon="6.275892385477899"><ele>294.3333333333333</ele><time>2026-03-29T08:04:38.999Z</time></trkpt><trkpt lat="43.42505406633179" lon="6.27590527538803"><ele>296.6666666666667</ele><time>2026-03-29T08:04:39.999Z</time></trkpt><trkpt lat="43.42521072680514" lon="6.275901548148853"><ele>299.0</ele><time>2026-03-29T08:04:40.999Z</time></trkpt><trkpt lat="43.42535711709717" lon="6.27590756073032"><ele>300.25</ele><time>2026-03-29T08:04:41.999Z</time></trkpt><trkpt lat="43.42548159502274" lon="6.2759057969760335"><ele>301.5</ele><time>2026-03-29T08:04:42.999Z</time></trkpt><trkpt lat="43.42560115961532" lon="6.275895925868798"><ele>302.75</ele><time>2026-03-29T08:04:43.999Z</time></trkpt><trkpt lat="43.42571987752421" lon="6.275879064885052"><ele>304.0</ele><time>2026-03-29T08:04:44.999Z</time></trkpt><trkpt lat="43.425830059316745" lon="6.275871692612909"><ele>304.0</ele><time>2026-03-29T08:04:45.999Z</time></trkpt><trkpt lat="43.42592971831396" lon="6.275871479395674"><ele>304.0</ele><time>2026-03-29T08:04:46.999Z</time></trkpt><trkpt lat="43.426015030840425" lon="6.275877294239203"><ele>304.0</ele><time>2026-03-29T08:04:47.999Z</time></trkpt><trkpt lat="43.42608745009474" lon="6.275870330713775"><ele>304.0</ele><time>2026-03-29T08:04:48.999Z</time></trkpt><trkpt lat="43.4262019559908" lon="6.275836912159777"><ele>304.0</ele><time>2026-03-29T08:04:50.999Z</time></trkpt><trkpt lat="43.42627148914244" lon="6.275894585816899"><ele>304.0</ele><time>2026-03-29T08:04:52.999Z</time></trkpt><trkpt lat="43.42634166175155" lon="6.2759027892628145"><ele>304.0</ele><time>2026-03-29T08:04:54.998Z</time></trkpt><trkpt lat="43.42639103790451" lon="6.276057339572206"><ele>304.0</ele><time>2026-03-29T08:04:56.998Z</time></trkpt><trkpt lat="43.42645581517226" lon="6.27607450501824"><ele>304.0</ele><time>2026-03-29T08:08:37.999Z</time></trkpt><trkpt lat="43.42652051472184" lon="6.276084482088276"><ele>304.0</ele><time>2026-03-29T08:08:38.999Z</time></trkpt><trkpt lat="43.426618607652145" lon="6.276100815479764"><ele>304.0</ele><time>2026-03-29T08:08:40.999Z</time></trkpt><trkpt lat="43.42671292187107" lon="6.276124010932214"><ele>304.0</ele><time>2026-03-29T08:08:41.999Z</time></trkpt><trkpt lat="43.426815259560335" lon="6.276122212237316"><ele>304.0</ele><time>2026-03-29T08:08:42.999Z</time></trkpt><trkpt lat="43.42689884406703" lon="6.2761018712868"><ele>304.0</ele><time>2026-03-29T08:08:43.999Z</time></trkpt><trkpt lat="43.426988014631064" lon="6.276113464628719"><ele>304.0</ele><time>2026-03-29T08:08:45.999Z</time></trkpt><trkpt lat="43.427045848383884" lon="6.276180088983879"><ele>304.0</ele><time>2026-03-29T08:08:46.999Z</time></trkpt><trkpt lat="43.42709989621038" lon="6.276287785001863"><ele>304.0</ele><time>2026-03-29T08:08:47.999Z</time></trkpt><trkpt lat="43.42715715438489" lon="6.276405453908979"><ele>303.4</ele><time>2026-03-29T08:08:48.999Z</time></trkpt><trkpt lat="43.427188247134374" lon="6.276556121741079"><ele>302.79999999999995</ele><time>2026-03-29T08:08:50.999Z</time></trkpt><trkpt lat="43.4271701276291" lon="6.276666115081941"><ele>302.20000000000005</ele><time>2026-03-29T08:08:51.999Z</time></trkpt><trkpt lat="43.427193437310244" lon="6.27675755697187"><ele>301.6</ele><time>2026-03-29T08:08:52.999Z</time></trkpt><trkpt lat="43.42723130900778" lon="6.276828505938915"><ele>301.0</ele><time>2026-03-29T08:08:53.999Z</time></trkpt><trkpt lat="43.42721864695171" lon="6.277025202617381"><ele>301.0</ele><time>2026-03-29T08:08:55.999Z</time></trkpt><trkpt lat="43.42718585044584" lon="6.277175055207054"><ele>301.0</ele><time>2026-03-29T08:08:56.999Z</time></trkpt><trkpt lat="43.42714591667434" lon="6.277301825752697"><ele>301.0</ele><time>2026-03-29T08:08:57.999Z</time></trkpt><trkpt lat="43.42709721792666" lon="6.277392023206833"><ele>301.0</ele><time>2026-03-29T08:08:58.999Z</time></trkpt><trkpt lat="43.42705670707112" lon="6.277467621839443"><ele>301.0</ele><time>2026-03-29T08:08:59.999Z</time></trkpt><trkpt lat="43.42712363444111" lon="6.277599289383194"><ele>300.42857142857144</ele><time>2026-03-29T08:09:01.999Z</time></trkpt><trkpt lat="43.42718212453404" lon="6.277670626084646"><ele>299.8571428571429</ele><time>2026-03-29T08:09:02.999Z</time></trkpt><trkpt lat="43.42721169838647" lon="6.2777497432239295"><ele>299.2857142857143</ele><time>2026-03-29T08:09:03.999Z</time></trkpt><trkpt lat="43.4272039719176" lon="6.277874015811731"><ele>298.7142857142857</ele><time>2026-03-29T08:09:04.999Z</time></trkpt><trkpt lat="43.4272048653589" lon="6.277977641234198"><ele>298.14285714285717</ele><time>2026-03-29T08:09:05.999Z</time></trkpt><trkpt lat="43.427242210774466" lon="6.278047956322472"><ele>297.57142857142856</ele><time>2026-03-29T08:09:06.999Z</time></trkpt><trkpt lat="43.42727667660505" lon="6.278135682801519"><ele>297.0</ele><time>2026-03-29T08:09:07.999Z</time></trkpt><trkpt lat="43.42735207444738" lon="6.2782341254154055"><ele>296.3333333333333</ele><time>2026-03-29T08:09:09.999Z</time></trkpt><trkpt lat="43.4273921254738" lon="6.278340155953112"><ele>295.6666666666667</ele><time>2026-03-29T08:09:11.998Z</time></trkpt><trkpt lat="43.42736386466627" lon="6.278440773961209"><ele>295.0</ele><time>2026-03-29T08:09:12.998Z</time></trkpt><trkpt lat="43.42730421045145" lon="6.278502066339856"><ele>294.33333333333337</ele><time>2026-03-29T08:09:13.998Z</time></trkpt><trkpt lat="43.42722692714179" lon="6.278560160838315"><ele>293.6666666666667</ele><time>2026-03-29T08:09:14.998Z</time></trkpt><trkpt lat="43.427170593226876" lon="6.278637052861876"><ele>293.0</ele><time>2026-03-29T08:09:15.998Z</time></trkpt><trkpt lat="43.42713140349354" lon="6.27872848020308"><ele>292.0</ele><time>2026-03-29T08:09:16.998Z</time></trkpt><trkpt lat="43.42710872138186" lon="6.278826848565736"><ele>291.0</ele><time>2026-03-29T08:09:17.998Z</time></trkpt><trkpt lat="43.42711888736266" lon="6.278971348333345"><ele>290.0</ele><time>2026-03-29T08:09:18.998Z</time></trkpt><trkpt lat="43.4271040777224" lon="6.279136809709892"><ele>289.0</ele><time>2026-03-29T08:09:19.998Z</time></trkpt><trkpt lat="43.42710513585373" lon="6.279247147391543"><ele>288.0</ele><time>2026-03-29T08:09:20.998Z</time></trkpt><trkpt lat="43.42710995113812" lon="6.279376360503617"><ele>287.1666666666667</ele><time>2026-03-29T08:09:21.998Z</time></trkpt><trkpt lat="43.42709770096329" lon="6.279479022607134"><ele>286.3333333333333</ele><time>2026-03-29T08:09:22.998Z</time></trkpt><trkpt lat="43.42710976263329" lon="6.279585881642154"><ele>285.5</ele><time>2026-03-29T08:09:23.998Z</time></trkpt><trkpt lat="43.42713445516096" lon="6.27971794268917"><ele>284.66666666666663</ele><time>2026-03-29T08:09:24.998Z</time></trkpt><trkpt lat="43.42717147476682" lon="6.279813443752366"><ele>283.8333333333333</ele><time>2026-03-29T08:09:25.998Z</time></trkpt><trkpt lat="43.42722720714245" lon="6.2799051326982775"><ele>283.0</ele><time>2026-03-29T08:09:27.998Z</time></trkpt><trkpt lat="43.427313459526516" lon="6.279871517126433"><ele>283.0</ele><time>2026-03-29T08:09:29.998Z</time></trkpt><trkpt lat="43.42738939425115" lon="6.27987077565288"><ele>283.0</ele><time>2026-03-29T08:09:30.998Z</time></trkpt><trkpt lat="43.42749940057016" lon="6.279913077697102"><ele>283.0</ele><time>2026-03-29T08:09:31.998Z</time></trkpt><trkpt lat="43.42763233954076" lon="6.279986496296326"><ele>283.0</ele><time>2026-03-29T08:09:32.998Z</time></trkpt><trkpt lat="43.4277350378328" lon="6.280039121293952"><ele>283.0</ele><time>2026-03-29T08:09:33.998Z</time></trkpt><trkpt lat="43.427801578632014" lon="6.28007251004268"><ele>283.0</ele><time>2026-03-29T08:09:34.998Z</time></trkpt><trkpt lat="43.42788075908969" lon="6.280029719729449"><ele>283.0</ele><time>2026-03-29T08:09:37.998Z</time></trkpt><trkpt lat="43.42794173513513" lon="6.279907750352073"><ele>283.0</ele><time>2026-03-29T08:09:39.998Z</time></trkpt><trkpt lat="43.42797861736676" lon="6.279794780157376"><ele>283.0</ele><time>2026-03-29T08:09:41Z</time></trkpt><trkpt lat="43.42800369776107" lon="6.279691272664214"><ele>283.0</ele><time>2026-03-29T08:09:42Z</time></trkpt><trkpt lat="43.428065202438674" lon="6.279634726396249"><ele>283.0</ele><time>2026-03-29T08:09:43Z</time></trkpt><trkpt lat="43.42812134175145" lon="6.279589698983112"><ele>285.16666666666663</ele><time>2026-03-29T08:09:44Z</time></trkpt><trkpt lat="43.428161548960624" lon="6.2795082053028946"><ele>287.3333333333333</ele><time>2026-03-29T08:09:45Z</time></trkpt><trkpt lat="43.428218050168134" lon="6.279468502437778"><ele>289.5</ele><time>2026-03-29T08:09:46Z</time></trkpt><trkpt lat="43.42829089941496" lon="6.279357194414348"><ele>291.6666666666667</ele><time>2026-03-29T08:09:48Z</time></trkpt><trkpt lat="43.42837067860229" lon="6.2792621857415245"><ele>293.83333333333337</ele><time>2026-03-29T08:09:50Z</time></trkpt><trkpt lat="43.428435645849774" lon="6.279244614143426"><ele>296.0</ele><time>2026-03-29T08:09:51Z</time></trkpt><trkpt lat="43.42852801004398" lon="6.279303734685304"><ele>296.0</ele><time>2026-03-29T08:09:53Z</time></trkpt><trkpt lat="43.4286606903316" lon="6.279294636251454"><ele>296.0</ele><time>2026-03-29T08:09:55Z</time></trkpt><trkpt lat="43.42872400643932" lon="6.279320555308524"><ele>296.0</ele><time>2026-03-29T08:09:56Z</time></trkpt><trkpt lat="43.42878109767123" lon="6.279364130552541"><ele>296.0</ele><time>2026-03-29T08:09:57Z</time></trkpt><trkpt lat="43.42889690246012" lon="6.279358592266482"><ele>296.0</ele><time>2026-03-29T08:09:59Z</time></trkpt><trkpt lat="43.42895738925887" lon="6.27932408573239"><ele>296.0</ele><time>2026-03-29T08:10:00Z</time></trkpt><trkpt lat="43.42907427846243" lon="6.279224168959495"><ele>298.1666666666667</ele><time>2026-03-29T08:10:02Z</time></trkpt><trkpt lat="43.42914982801592" lon="6.279206019843778"><ele>300.33333333333337</ele><time>2026-03-29T08:10:03Z</time></trkpt><trkpt lat="43.42923118804232" lon="6.279207070232698"><ele>302.5</ele><time>2026-03-29T08:10:04Z</time></trkpt><trkpt lat="43.4292859748661" lon="6.279155942688175"><ele>304.6666666666667</ele><time>2026-03-29T08:10:06Z</time></trkpt><trkpt lat="43.429365896377895" lon="6.279059521205569"><ele>306.8333333333333</ele><time>2026-03-29T08:10:08Z</time></trkpt><trkpt lat="43.42943619987738" lon="6.2790372494200195"><ele>309.0</ele><time>2026-03-29T08:10:09Z</time></trkpt><trkpt lat="43.4294976107832" lon="6.279017271308685"><ele>309.0</ele><time>2026-03-29T08:10:10Z</time></trkpt><trkpt lat="43.42957797841165" lon="6.278950512427375"><ele>309.0</ele><time>2026-03-29T08:10:12Z</time></trkpt><trkpt lat="43.42965130352622" lon="6.278893846449165"><ele>309.0</ele><time>2026-03-29T08:10:14Z</time></trkpt><trkpt lat="43.42971504246123" lon="6.278914897725626"><ele>309.0</ele><time>2026-03-29T08:10:16Z</time></trkpt><trkpt lat="43.429796166169155" lon="6.278927166346968"><ele>309.0</ele><time>2026-03-29T08:10:18Z</time></trkpt><trkpt lat="43.42987042767797" lon="6.278918065886104"><ele>309.0</ele><time>2026-03-29T08:10:21Z</time></trkpt><trkpt lat="43.4299579845839" lon="6.2789001342731146"><ele>310.0</ele><time>2026-03-29T08:10:24Z</time></trkpt><trkpt lat="43.43005847736449" lon="6.278865827903266"><ele>311.0</ele><time>2026-03-29T08:10:25.999Z</time></trkpt><trkpt lat="43.43013405531966" lon="6.278857051846102"><ele>312.0</ele><time>2026-03-29T08:10:27.999Z</time></trkpt><trkpt lat="43.43020113636151" lon="6.278843499099559"><ele>313.0</ele><time>2026-03-29T08:10:29.999Z</time></trkpt><trkpt lat="43.430282383777616" lon="6.278804636767317"><ele>314.0</ele><time>2026-03-29T08:10:31.999Z</time></trkpt><trkpt lat="43.43034784194855" lon="6.278847874188576"><ele>315.0</ele><time>2026-03-29T08:10:32.999Z</time></trkpt><trkpt lat="43.430401070251754" lon="6.278908178254634"><ele>315.0</ele><time>2026-03-29T08:10:33.999Z</time></trkpt><trkpt lat="43.43045016027592" lon="6.27899105235964"><ele>315.0</ele><time>2026-03-29T08:10:34.999Z</time></trkpt><trkpt lat="43.43049286435467" lon="6.279058429591868"><ele>315.0</ele><time>2026-03-29T08:10:35.999Z</time></trkpt><trkpt lat="43.43052950856889" lon="6.279160672134109"><ele>315.0</ele><time>2026-03-29T08:10:36.999Z</time></trkpt><trkpt lat="43.4305727211776" lon="6.279273823370607"><ele>315.0</ele><time>2026-03-29T08:10:37.999Z</time></trkpt><trkpt lat="43.43060843021665" lon="6.279356540001746"><ele>315.0</ele><time>2026-03-29T08:10:38.999Z</time></trkpt><trkpt lat="43.43064602697244" lon="6.279441062909213"><ele>315.8</ele><time>2026-03-29T08:10:39.999Z</time></trkpt><trkpt lat="43.430683233795" lon="6.279622513280284"><ele>316.6</ele><time>2026-03-29T08:10:41.999Z</time></trkpt><trkpt lat="43.43069791515367" lon="6.279731316859121"><ele>317.4</ele><time>2026-03-29T08:10:42.999Z</time></trkpt><trkpt lat="43.430702271453754" lon="6.279842058660078"><ele>318.2</ele><time>2026-03-29T08:10:43.999Z</time></trkpt><trkpt lat="43.43068399306829" lon="6.279978847298742"><ele>319.0</ele><time>2026-03-29T08:10:44.999Z</time></trkpt><trkpt lat="43.430666703565805" lon="6.280118511174909"><ele>319.0</ele><time>2026-03-29T08:10:45.999Z</time></trkpt><trkpt lat="43.43065718701266" lon="6.280240351522047"><ele>319.0</ele><time>2026-03-29T08:10:46.999Z</time></trkpt><trkpt lat="43.43066925424951" lon="6.280325706545589"><ele>319.0</ele><time>2026-03-29T08:10:47.999Z</time></trkpt><trkpt lat="43.43070699329619" lon="6.280398547226091"><ele>319.0</ele><time>2026-03-29T08:10:48.999Z</time></trkpt><trkpt lat="43.430747195572245" lon="6.2804686134108385"><ele>319.0</ele><time>2026-03-29T08:10:49.999Z</time></trkpt><trkpt lat="43.4307867828591" lon="6.280552863350937"><ele>319.0</ele><time>2026-03-29T08:10:50.999Z</time></trkpt><trkpt lat="43.43084296774713" lon="6.280643706027864"><ele>319.0</ele><time>2026-03-29T08:10:51.999Z</time></trkpt><trkpt lat="43.43088636476143" lon="6.280797945215995"><ele>319.16666666666663</ele><time>2026-03-29T08:10:53.999Z</time></trkpt><trkpt lat="43.43090407308527" lon="6.280924333430162"><ele>319.3333333333333</ele><time>2026-03-29T08:10:54.999Z</time></trkpt><trkpt lat="43.430945070889344" lon="6.281035048044643"><ele>319.5</ele><time>2026-03-29T08:10:55.999Z</time></trkpt><trkpt lat="43.43097807424111" lon="6.281143220762051"><ele>319.6666666666667</ele><time>2026-03-29T08:10:56.999Z</time></trkpt><trkpt lat="43.43099043140564" lon="6.281262517682348"><ele>319.83333333333337</ele><time>2026-03-29T08:10:57.999Z</time></trkpt><trkpt lat="43.431014733014216" lon="6.281348379208066"><ele>320.0</ele><time>2026-03-29T08:10:58.999Z</time></trkpt><trkpt lat="43.43106907811157" lon="6.281392835940327"><ele>320.0</ele><time>2026-03-29T08:10:59.999Z</time></trkpt><trkpt lat="43.43115838376821" lon="6.281399075975243"><ele>320.0</ele><time>2026-03-29T08:11:00.999Z</time></trkpt><trkpt lat="43.431229478010614" lon="6.281398678531869"><ele>320.0</ele><time>2026-03-29T08:11:01.999Z</time></trkpt><trkpt lat="43.4312910153211" lon="6.281511257270091"><ele>320.0</ele><time>2026-03-29T08:11:03.999Z</time></trkpt><trkpt lat="43.43128024670457" lon="6.281610828526994"><ele>320.0</ele><time>2026-03-29T08:11:04.999Z</time></trkpt><trkpt lat="43.43125019330707" lon="6.281727117489587"><ele>320.0</ele><time>2026-03-29T08:11:05.999Z</time></trkpt><trkpt lat="43.43123751831228" lon="6.281815524840316"><ele>320.83333333333337</ele><time>2026-03-29T08:11:06.999Z</time></trkpt><trkpt lat="43.431278641226044" lon="6.281921511470357"><ele>321.6666666666667</ele><time>2026-03-29T08:11:07.999Z</time></trkpt><trkpt lat="43.43129638217439" lon="6.282054715602504"><ele>322.5</ele><time>2026-03-29T08:11:09.999Z</time></trkpt><trkpt lat="43.43127325312806" lon="6.282147088684838"><ele>323.3333333333333</ele><time>2026-03-29T08:11:10.999Z</time></trkpt><trkpt lat="43.431239173492344" lon="6.282237500165691"><ele>324.16666666666663</ele><time>2026-03-29T08:11:11.999Z</time></trkpt><trkpt lat="43.43121599190296" lon="6.2823514197468455"><ele>325.0</ele><time>2026-03-29T08:11:12.999Z</time></trkpt><trkpt lat="43.43121504745951" lon="6.282447653995067"><ele>325.66666666666663</ele><time>2026-03-29T08:11:13.999Z</time></trkpt><trkpt lat="43.431241970539375" lon="6.282585542040655"><ele>326.3333333333333</ele><time>2026-03-29T08:11:14.999Z</time></trkpt><trkpt lat="43.431249937470724" lon="6.28271697248358"><ele>327.0</ele><time>2026-03-29T08:11:15.999Z</time></trkpt><trkpt lat="43.43125066563784" lon="6.282828739757191"><ele>327.6666666666667</ele><time>2026-03-29T08:11:16.999Z</time></trkpt><trkpt lat="43.43124393712724" lon="6.282920258054333"><ele>328.33333333333337</ele><time>2026-03-29T08:11:17.999Z</time></trkpt><trkpt lat="43.43122277196623" lon="6.283032559815775"><ele>329.0</ele><time>2026-03-29T08:11:18.999Z</time></trkpt><trkpt lat="43.43118023629969" lon="6.28315153133436"><ele>330.1666666666667</ele><time>2026-03-29T08:11:19.998Z</time></trkpt><trkpt lat="43.43113792242109" lon="6.283245651704599"><ele>331.33333333333337</ele><time>2026-03-29T08:11:20.998Z</time></trkpt><trkpt lat="43.43113096651467" lon="6.283336816669854"><ele>332.5</ele><time>2026-03-29T08:11:21.998Z</time></trkpt><trkpt lat="43.43115176276824" lon="6.283440864165135"><ele>333.6666666666667</ele><time>2026-03-29T08:11:22.998Z</time></trkpt><trkpt lat="43.431196351706355" lon="6.283564004544726"><ele>334.8333333333333</ele><time>2026-03-29T08:11:23.998Z</time></trkpt><trkpt lat="43.43123724148212" lon="6.283683594204396"><ele>336.0</ele><time>2026-03-29T08:11:24.998Z</time></trkpt><trkpt lat="43.43128792019318" lon="6.2837688153370195"><ele>336.1666666666667</ele><time>2026-03-29T08:11:25.998Z</time></trkpt><trkpt lat="43.431352778375135" lon="6.283881666049288"><ele>336.3333333333333</ele><time>2026-03-29T08:11:26.998Z</time></trkpt><trkpt lat="43.431406721972536" lon="6.28400033102566"><ele>336.5</ele><time>2026-03-29T08:11:27.998Z</time></trkpt><trkpt lat="43.431467260980966" lon="6.2840782581105294"><ele>336.66666666666663</ele><time>2026-03-29T08:11:28.998Z</time></trkpt><trkpt lat="43.43152962743236" lon="6.284147299580454"><ele>336.8333333333333</ele><time>2026-03-29T08:11:29.998Z</time></trkpt><trkpt lat="43.43157589981709" lon="6.284212097529725"><ele>337.0</ele><time>2026-03-29T08:11:30.998Z</time></trkpt><trkpt lat="43.431608901272504" lon="6.284293663503843"><ele>337.40000000000003</ele><time>2026-03-29T08:11:31.998Z</time></trkpt><trkpt lat="43.43165697402443" lon="6.2844446482088445"><ele>337.8</ele><time>2026-03-29T08:11:33.998Z</time></trkpt><trkpt lat="43.43164719952573" lon="6.284617777915166"><ele>338.2</ele><time>2026-03-29T08:11:35.998Z</time></trkpt><trkpt lat="43.43163156410184" lon="6.284713162215475"><ele>338.6</ele><time>2026-03-29T08:11:36.998Z</time></trkpt><trkpt lat="43.43162714339422" lon="6.284829558688321"><ele>339.0</ele><time>2026-03-29T08:11:37.998Z</time></trkpt><trkpt lat="43.43161950050507" lon="6.28494347018297"><ele>337.8333333333333</ele><time>2026-03-29T08:11:38.998Z</time></trkpt><trkpt lat="43.431612980556686" lon="6.285040183891343"><ele>336.6666666666667</ele><time>2026-03-29T08:11:39.998Z</time></trkpt><trkpt lat="43.43160701718258" lon="6.28512983661956"><ele>335.5</ele><time>2026-03-29T08:11:40.998Z</time></trkpt><trkpt lat="43.43158548326489" lon="6.285230457495795"><ele>334.33333333333337</ele><time>2026-03-29T08:11:41.998Z</time></trkpt><trkpt lat="43.43157056647854" lon="6.285358529350466"><ele>333.1666666666667</ele><time>2026-03-29T08:11:43.998Z</time></trkpt><trkpt lat="43.43165171739989" lon="6.285289108203517"><ele>332.0</ele><time>2026-03-29T08:11:47Z</time></trkpt><trkpt lat="43.43172834447748" lon="6.285228780788789"><ele>332.0</ele><time>2026-03-29T08:11:49Z</time></trkpt><trkpt lat="43.43180790151742" lon="6.285292964518184"><ele>332.0</ele><time>2026-03-29T08:11:51Z</time></trkpt><trkpt lat="43.43189203534244" lon="6.285318178110034"><ele>332.0</ele><time>2026-03-29T08:11:53Z</time></trkpt><trkpt lat="43.43196931194631" lon="6.285335980513408"><ele>332.0</ele><time>2026-03-29T08:11:55Z</time></trkpt><trkpt lat="43.43206184392181" lon="6.285302397735053"><ele>332.0</ele><time>2026-03-29T08:11:57Z</time></trkpt><trkpt lat="43.43217899864112" lon="6.285397279453832"><ele>329.0</ele><time>2026-03-29T08:11:59Z</time></trkpt><trkpt lat="43.432275503752564" lon="6.2854822317792545"><ele>326.0</ele><time>2026-03-29T08:12:01Z</time></trkpt><trkpt lat="43.432338310258665" lon="6.2855910284111385"><ele>323.0</ele><time>2026-03-29T08:12:03Z</time></trkpt><trkpt lat="43.4323911278423" lon="6.285691304203751"><ele>320.0</ele><time>2026-03-29T08:12:05Z</time></trkpt><trkpt lat="43.43244709672904" lon="6.285776757377446"><ele>317.0</ele><time>2026-03-29T08:12:07Z</time></trkpt><trkpt lat="43.432479082177515" lon="6.285977982586187"><ele>316.33333333333337</ele><time>2026-03-29T08:12:09Z</time></trkpt><trkpt lat="43.43249877505647" lon="6.28606964075543"><ele>315.6666666666667</ele><time>2026-03-29T08:12:10Z</time></trkpt><trkpt lat="43.432538928921176" lon="6.286171660319962"><ele>315.0</ele><time>2026-03-29T08:12:12Z</time></trkpt><trkpt lat="43.43261663465954" lon="6.2862183247414585"><ele>314.3333333333333</ele><time>2026-03-29T08:12:14Z</time></trkpt><trkpt lat="43.43268461657615" lon="6.286217479308882"><ele>313.66666666666663</ele><time>2026-03-29T08:12:16Z</time></trkpt><trkpt lat="43.432763270884045" lon="6.286193636281742"><ele>313.0</ele><time>2026-03-29T08:12:17Z</time></trkpt><trkpt lat="43.43280531275542" lon="6.286285728929915"><ele>313.0</ele><time>2026-03-29T08:12:20Z</time></trkpt><trkpt lat="43.43284279599895" lon="6.286383883742615"><ele>313.0</ele><time>2026-03-29T08:12:23Z</time></trkpt><trkpt lat="43.43282273072172" lon="6.286488070653784"><ele>313.0</ele><time>2026-03-29T08:12:26Z</time></trkpt><trkpt lat="43.43280590422459" lon="6.2865913186753115"><ele>313.0</ele><time>2026-03-29T08:12:29Z</time></trkpt><trkpt lat="43.432867695639324" lon="6.286613090981587"><ele>313.0</ele><time>2026-03-29T08:12:34Z</time></trkpt><trkpt lat="43.43294300353946" lon="6.286631126310087"><ele>313.0</ele><time>2026-03-29T08:12:36.999Z</time></trkpt><trkpt lat="43.432993584952605" lon="6.2865697841492505"><ele>313.0</ele><time>2026-03-29T08:12:38.999Z</time></trkpt><trkpt lat="43.43304345244388" lon="6.286454559078291"><ele>310.5</ele><time>2026-03-29T08:12:40.999Z</time></trkpt><trkpt lat="43.43306897981934" lon="6.286339107956731"><ele>308.0</ele><time>2026-03-29T08:12:42.999Z</time></trkpt><trkpt lat="43.4331122062169" lon="6.286233473902652"><ele>305.5</ele><time>2026-03-29T08:12:44.999Z</time></trkpt><trkpt lat="43.43316750329519" lon="6.286173559850442"><ele>303.0</ele><time>2026-03-29T08:12:47.999Z</time></trkpt><trkpt lat="43.433216654827355" lon="6.286082173874463"><ele>300.5</ele><time>2026-03-29T08:12:49.999Z</time></trkpt><trkpt lat="43.433239140495544" lon="6.285987395169177"><ele>298.0</ele><time>2026-03-29T08:12:50.999Z</time></trkpt><trkpt lat="43.43327250040307" lon="6.2858897034617"><ele>298.0</ele><time>2026-03-29T08:12:51.999Z</time></trkpt><trkpt lat="43.433332202426" lon="6.28579539358924"><ele>298.0</ele><time>2026-03-29T08:12:52.999Z</time></trkpt><trkpt lat="43.43338263960468" lon="6.285743354034903"><ele>298.0</ele><time>2026-03-29T08:12:53.999Z</time></trkpt><trkpt lat="43.4334642886824" lon="6.285633741690524"><ele>298.0</ele><time>2026-03-29T08:12:55.999Z</time></trkpt><trkpt lat="43.433504199024156" lon="6.285485911319707"><ele>298.0</ele><time>2026-03-29T08:12:57.999Z</time></trkpt><trkpt lat="43.43356965717937" lon="6.285380328129628"><ele>299.6</ele><time>2026-03-29T08:12:59.999Z</time></trkpt><trkpt lat="43.43363409366014" lon="6.285293621072314"><ele>301.20000000000005</ele><time>2026-03-29T08:13:01.999Z</time></trkpt><trkpt lat="43.43368523346883" lon="6.285242879830148"><ele>302.8</ele><time>2026-03-29T08:13:02.999Z</time></trkpt><trkpt lat="43.43377322727041" lon="6.28514140916515"><ele>304.40000000000003</ele><time>2026-03-29T08:13:04.999Z</time></trkpt><trkpt lat="43.43381588094205" lon="6.285076490002689"><ele>306.0</ele><time>2026-03-29T08:13:05.999Z</time></trkpt><trkpt lat="43.433900222854646" lon="6.284957275409999"><ele>306.0</ele><time>2026-03-29T08:13:07.999Z</time></trkpt><trkpt lat="43.43392535622716" lon="6.284829634122174"><ele>306.0</ele><time>2026-03-29T08:13:09.999Z</time></trkpt><trkpt lat="43.43395501887088" lon="6.284690431132196"><ele>306.0</ele><time>2026-03-29T08:13:11.999Z</time></trkpt><trkpt lat="43.43404370094756" lon="6.284597070612576"><ele>306.0</ele><time>2026-03-29T08:13:13.999Z</time></trkpt><trkpt lat="43.43410275579494" lon="6.284556977620239"><ele>306.0</ele><time>2026-03-29T08:13:14.999Z</time></trkpt><trkpt lat="43.43416780225406" lon="6.2845133764195555"><ele>306.40000000000003</ele><time>2026-03-29T08:13:15.999Z</time></trkpt><trkpt lat="43.43425110742465" lon="6.284451591070823"><ele>306.8</ele><time>2026-03-29T08:13:16.999Z</time></trkpt><trkpt lat="43.434313052582766" lon="6.284371548868683"><ele>307.20000000000005</ele><time>2026-03-29T08:13:17.999Z</time></trkpt><trkpt lat="43.43445097092114" lon="6.284349742292493"><ele>307.6</ele><time>2026-03-29T08:13:19.999Z</time></trkpt><trkpt lat="43.434551891611996" lon="6.284345649831087"><ele>308.0</ele><time>2026-03-29T08:13:20.999Z</time></trkpt><trkpt lat="43.434659938219156" lon="6.284325757282254"><ele>308.5</ele><time>2026-03-29T08:13:21.999Z</time></trkpt><trkpt lat="43.43475869920337" lon="6.284319126601189"><ele>309.0</ele><time>2026-03-29T08:13:22.999Z</time></trkpt><trkpt lat="43.43483911623978" lon="6.284317406527167"><ele>309.5</ele><time>2026-03-29T08:13:23.999Z</time></trkpt><trkpt lat="43.43491617052957" lon="6.28433814648322"><ele>310.0</ele><time>2026-03-29T08:13:24.999Z</time></trkpt><trkpt lat="43.434991169792" lon="6.28437505482217"><ele>310.5</ele><time>2026-03-29T08:13:25.999Z</time></trkpt><trkpt lat="43.43505464689634" lon="6.284390348121491"><ele>311.0</ele><time>2026-03-29T08:13:26.999Z</time></trkpt><trkpt lat="43.43515379259267" lon="6.284388206610128"><ele>311.0</ele><time>2026-03-29T08:13:28.998Z</time></trkpt><trkpt lat="43.43518350837603" lon="6.284250371469521"><ele>311.0</ele><time>2026-03-29T08:13:30.998Z</time></trkpt><trkpt lat="43.435253817818456" lon="6.284156525973404"><ele>311.0</ele><time>2026-03-29T08:13:33.998Z</time></trkpt><trkpt lat="43.43531888837808" lon="6.284120030586578"><ele>311.0</ele><time>2026-03-29T08:13:34.998Z</time></trkpt><trkpt lat="43.43537754919029" lon="6.284079897214158"><ele>311.0</ele><time>2026-03-29T08:13:35.998Z</time></trkpt><trkpt lat="43.43544070338842" lon="6.284073548072071"><ele>311.0</ele><time>2026-03-29T08:13:36.998Z</time></trkpt><trkpt lat="43.435539001521335" lon="6.28410993630969"><ele>312.0</ele><time>2026-03-29T08:13:38.998Z</time></trkpt><trkpt lat="43.43557456037849" lon="6.284186707907478"><ele>313.0</ele><time>2026-03-29T08:13:39.998Z</time></trkpt><trkpt lat="43.43560710889071" lon="6.2842651924087995"><ele>314.0</ele><time>2026-03-29T08:13:40.998Z</time></trkpt><trkpt lat="43.4356609106218" lon="6.284352118279613"><ele>315.0</ele><time>2026-03-29T08:13:41.998Z</time></trkpt><trkpt lat="43.4357317554005" lon="6.284461154271035"><ele>316.0</ele><time>2026-03-29T08:13:42.998Z</time></trkpt><trkpt lat="43.43578761736022" lon="6.284657153658985"><ele>316.0</ele><time>2026-03-29T08:13:43.998Z</time></trkpt><trkpt lat="43.43586390966482" lon="6.284706127284804"><ele>316.0</ele><time>2026-03-29T08:13:44.998Z</time></trkpt><trkpt lat="43.43591932727668" lon="6.2847756335676825"><ele>316.0</ele><time>2026-03-29T08:13:45.998Z</time></trkpt><trkpt lat="43.43596265504454" lon="6.2848448711143385"><ele>316.0</ele><time>2026-03-29T08:13:46.998Z</time></trkpt><trkpt lat="43.436015787040574" lon="6.284895754991795"><ele>316.0</ele><time>2026-03-29T08:13:47.998Z</time></trkpt><trkpt lat="43.436075599260775" lon="6.284991072976058"><ele>316.0</ele><time>2026-03-29T08:13:49.998Z</time></trkpt><trkpt lat="43.436156575074264" lon="6.285098053637214"><ele>316.2</ele><time>2026-03-29T08:13:53Z</time></trkpt><trkpt lat="43.43621432246858" lon="6.285190223379421"><ele>316.40000000000003</ele><time>2026-03-29T08:13:55Z</time></trkpt><trkpt lat="43.43629420954669" lon="6.2852854006910155"><ele>316.6</ele><time>2026-03-29T08:13:57Z</time></trkpt><trkpt lat="43.436356445409075" lon="6.285398848636752"><ele>316.8</ele><time>2026-03-29T08:13:59Z</time></trkpt><trkpt lat="43.43641305199753" lon="6.285513419349677"><ele>317.0</ele><time>2026-03-29T08:14:01Z</time></trkpt><trkpt lat="43.43647726587695" lon="6.285645256557598"><ele>318.8</ele><time>2026-03-29T08:14:03Z</time></trkpt><trkpt lat="43.436527042250106" lon="6.285762556764797"><ele>320.6</ele><time>2026-03-29T08:14:05Z</time></trkpt><trkpt lat="43.43660437985439" lon="6.285835317380952"><ele>322.40000000000003</ele><time>2026-03-29T08:14:07Z</time></trkpt><trkpt lat="43.43666995908737" lon="6.2859625602062765"><ele>324.2</ele><time>2026-03-29T08:14:09Z</time></trkpt><trkpt lat="43.43674249825863" lon="6.2860244626040584"><ele>326.0</ele><time>2026-03-29T08:14:11Z</time></trkpt><trkpt lat="43.4368168556554" lon="6.286141782173514"><ele>326.0</ele><time>2026-03-29T08:14:13Z</time></trkpt><trkpt lat="43.43689418700741" lon="6.286255808580343"><ele>326.0</ele><time>2026-03-29T08:14:15Z</time></trkpt><trkpt lat="43.436962425919816" lon="6.286322927347794"><ele>326.0</ele><time>2026-03-29T08:14:17Z</time></trkpt><trkpt lat="43.43700735468049" lon="6.2863977681906436"><ele>326.0</ele><time>2026-03-29T08:14:21Z</time></trkpt><trkpt lat="43.43708330082532" lon="6.286459116107475"><ele>326.0</ele><time>2026-03-29T08:14:25Z</time></trkpt><trkpt lat="43.43712772741386" lon="6.286541674990747"><ele>326.0</ele><time>2026-03-29T08:14:27Z</time></trkpt><trkpt lat="43.43711992010801" lon="6.286656349039572"><ele>327.4</ele><time>2026-03-29T08:14:29Z</time></trkpt><trkpt lat="43.437086292630816" lon="6.28676216635092"><ele>328.8</ele><time>2026-03-29T08:14:31Z</time></trkpt><trkpt lat="43.43704980950785" lon="6.286910572830234"><ele>330.2</ele><time>2026-03-29T08:14:33Z</time></trkpt><trkpt lat="43.43699069616638" lon="6.287024484310617"><ele>331.59999999999997</ele><time>2026-03-29T08:14:35Z</time></trkpt><trkpt lat="43.43693266415342" lon="6.287101438827403"><ele>333.0</ele><time>2026-03-29T08:14:37Z</time></trkpt><trkpt lat="43.436862399361964" lon="6.287173726511991"><ele>333.0</ele><time>2026-03-29T08:14:40Z</time></trkpt><trkpt lat="43.436814178846866" lon="6.287254749966027"><ele>333.0</ele><time>2026-03-29T08:14:43Z</time></trkpt><trkpt lat="43.43683004080756" lon="6.287360545833085"><ele>333.0</ele><time>2026-03-29T08:14:45.999Z</time></trkpt><trkpt lat="43.436883352300505" lon="6.2874235987412"><ele>333.0</ele><time>2026-03-29T08:14:48.999Z</time></trkpt><trkpt lat="43.436890073277674" lon="6.287573782402265"><ele>333.0</ele><time>2026-03-29T08:14:51.999Z</time></trkpt><trkpt lat="43.43688868202108" lon="6.287681157123613"><ele>333.0</ele><time>2026-03-29T08:14:53.999Z</time></trkpt><trkpt lat="43.436894434796606" lon="6.28780382641111"><ele>334.8333333333333</ele><time>2026-03-29T08:14:55.999Z</time></trkpt><trkpt lat="43.43691853856685" lon="6.287892574583585"><ele>336.6666666666667</ele><time>2026-03-29T08:14:57.999Z</time></trkpt><trkpt lat="43.43686165654017" lon="6.287985905510036"><ele>338.5</ele><time>2026-03-29T08:14:59.999Z</time></trkpt><trkpt lat="43.43684543327647" lon="6.28808905572534"><ele>340.33333333333337</ele><time>2026-03-29T08:15:20.999Z</time></trkpt><trkpt lat="43.43687248222861" lon="6.288186779433228"><ele>342.1666666666667</ele><time>2026-03-29T08:15:27.999Z</time></trkpt><trkpt lat="43.43695969533693" lon="6.288185370512401"><ele>344.0</ele><time>2026-03-29T08:15:30.999Z</time></trkpt><trkpt lat="43.437024117953136" lon="6.288173258510771"><ele>344.0</ele><time>2026-03-29T08:15:33.999Z</time></trkpt><trkpt lat="43.43707724478303" lon="6.288084429936132"><ele>344.0</ele><time>2026-03-29T08:15:36.999Z</time></trkpt><trkpt lat="43.43713345937644" lon="6.288032604901954"><ele>344.0</ele><time>2026-03-29T08:15:38.998Z</time></trkpt><trkpt lat="43.43719886514397" lon="6.2880307586524555"><ele>344.0</ele><time>2026-03-29T08:15:40.998Z</time></trkpt><trkpt lat="43.437266201384645" lon="6.2880628549628925"><ele>344.0</ele><time>2026-03-29T08:16:04Z</time></trkpt><trkpt lat="43.43732023469" lon="6.287984781390491"><ele>344.0</ele><time>2026-03-29T08:16:06Z</time></trkpt><trkpt lat="43.43737935606163" lon="6.287882902915131"><ele>346.83333333333337</ele><time>2026-03-29T08:16:08Z</time></trkpt><trkpt lat="43.43743895642345" lon="6.287790041253223"><ele>349.6666666666667</ele><time>2026-03-29T08:16:09Z</time></trkpt><trkpt lat="43.437506442562444" lon="6.28769799408594"><ele>352.5</ele><time>2026-03-29T08:16:10Z</time></trkpt><trkpt lat="43.43755470237137" lon="6.287620586930326"><ele>355.3333333333333</ele><time>2026-03-29T08:16:11Z</time></trkpt><trkpt lat="43.43759573871304" lon="6.2875531460183955"><ele>358.16666666666663</ele><time>2026-03-29T08:16:12Z</time></trkpt><trkpt lat="43.437681537193484" lon="6.287495361279636"><ele>361.0</ele><time>2026-03-29T08:16:14Z</time></trkpt><trkpt lat="43.437815522769824" lon="6.28744867930141"><ele>361.0</ele><time>2026-03-29T08:16:16Z</time></trkpt><trkpt lat="43.43789660534362" lon="6.287428426888474"><ele>361.0</ele><time>2026-03-29T08:16:17Z</time></trkpt><trkpt lat="43.437986363030234" lon="6.287394157609409"><ele>361.0</ele><time>2026-03-29T08:16:18Z</time></trkpt><trkpt lat="43.43804079704479" lon="6.287346499273919"><ele>361.0</ele><time>2026-03-29T08:16:19Z</time></trkpt><trkpt lat="43.43809198093716" lon="6.287293503977055"><ele>361.0</ele><time>2026-03-29T08:16:21Z</time></trkpt><trkpt lat="43.438190167298494" lon="6.287211263460973"><ele>361.0</ele><time>2026-03-29T08:16:23Z</time></trkpt><trkpt lat="43.43824962480313" lon="6.28716938280024"><ele>361.0</ele><time>2026-03-29T08:16:24Z</time></trkpt><trkpt lat="43.43835149325834" lon="6.287164143723332"><ele>361.0</ele><time>2026-03-29T08:16:26Z</time></trkpt><trkpt lat="43.43840654963857" lon="6.287107381828779"><ele>361.0</ele><time>2026-03-29T08:16:29Z</time></trkpt><trkpt lat="43.438415233960804" lon="6.287007653578977"><ele>361.0</ele><time>2026-03-29T08:16:31Z</time></trkpt><trkpt lat="43.43848496766136" lon="6.28693543306047"><ele>361.0</ele><time>2026-03-29T08:16:33Z</time></trkpt><trkpt lat="43.438512387882305" lon="6.286826793504725"><ele>361.0</ele><time>2026-03-29T08:16:35Z</time></trkpt><trkpt lat="43.438548484567654" lon="6.286723983590312"><ele>361.0</ele><time>2026-03-29T08:16:48Z</time></trkpt><trkpt lat="43.43860241835563" lon="6.286592082532525"><ele>361.0</ele><time>2026-03-29T08:16:50Z</time></trkpt><trkpt lat="43.438628007619215" lon="6.2864616231893296"><ele>361.0</ele><time>2026-03-29T08:16:51.999Z</time></trkpt><trkpt lat="43.438656866098746" lon="6.286308413502212"><ele>361.0</ele><time>2026-03-29T08:16:53.999Z</time></trkpt><trkpt lat="43.438657451708735" lon="6.286155918575644"><ele>361.0</ele><time>2026-03-29T08:16:55.999Z</time></trkpt><trkpt lat="43.438654786340265" lon="6.2860119977471465"><ele>358.6</ele><time>2026-03-29T08:16:57.999Z</time></trkpt><trkpt lat="43.4386798956285" lon="6.285882952490798"><ele>356.20000000000005</ele><time>2026-03-29T08:16:59.999Z</time></trkpt><trkpt lat="43.43873776442615" lon="6.285795356661291"><ele>353.79999999999995</ele><time>2026-03-29T08:17:01.999Z</time></trkpt><trkpt lat="43.43881956267158" lon="6.285731264203881"><ele>351.4</ele><time>2026-03-29T08:17:03.999Z</time></trkpt><trkpt lat="43.438884382527434" lon="6.285603993959246"><ele>349.0</ele><time>2026-03-29T08:17:05.999Z</time></trkpt><trkpt lat="43.43890779330331" lon="6.2854386365325645"><ele>347.5</ele><time>2026-03-29T08:17:07.999Z</time></trkpt><trkpt lat="43.43892321925157" lon="6.285329483842438"><ele>346.0</ele><time>2026-03-29T08:17:08.999Z</time></trkpt><trkpt lat="43.43894059632974" lon="6.285218360498281"><ele>344.5</ele><time>2026-03-29T08:17:09.999Z</time></trkpt><trkpt lat="43.43894929085391" lon="6.285126169610251"><ele>343.0</ele><time>2026-03-29T08:17:10.999Z</time></trkpt><trkpt lat="43.43895217126632" lon="6.285030112356441"><ele>341.5</ele><time>2026-03-29T08:17:11.999Z</time></trkpt><trkpt lat="43.43895050309591" lon="6.284932779630441"><ele>340.0</ele><time>2026-03-29T08:17:12.999Z</time></trkpt><trkpt lat="43.43899169994337" lon="6.284769967163895"><ele>340.0</ele><time>2026-03-29T08:17:14.999Z</time></trkpt><trkpt lat="43.4390191124278" lon="6.284660905563376"><ele>340.0</ele><time>2026-03-29T08:17:15.999Z</time></trkpt><trkpt lat="43.43903670596733" lon="6.284551798571891"><ele>340.0</ele><time>2026-03-29T08:17:16.999Z</time></trkpt><trkpt lat="43.43905015863204" lon="6.284465913027464"><ele>340.0</ele><time>2026-03-29T08:17:17.999Z</time></trkpt><trkpt lat="43.43910126162942" lon="6.284361199035387"><ele>340.0</ele><time>2026-03-29T08:17:18.999Z</time></trkpt><trkpt lat="43.439131532254734" lon="6.284214671742441"><ele>340.0</ele><time>2026-03-29T08:17:19.999Z</time></trkpt><trkpt lat="43.43915290092378" lon="6.284089044808534"><ele>340.0</ele><time>2026-03-29T08:17:20.999Z</time></trkpt><trkpt lat="43.43917437200698" lon="6.283972399217552"><ele>340.0</ele><time>2026-03-29T08:17:21.999Z</time></trkpt><trkpt lat="43.43919320370292" lon="6.283855300802663"><ele>340.0</ele><time>2026-03-29T08:17:22.999Z</time></trkpt><trkpt lat="43.43919890348799" lon="6.283736924839812"><ele>340.0</ele><time>2026-03-29T08:17:23.999Z</time></trkpt><trkpt lat="43.43919125054786" lon="6.283622472041053"><ele>340.0</ele><time>2026-03-29T08:17:24.999Z</time></trkpt><trkpt lat="43.43919032616025" lon="6.283513681041426"><ele>340.0</ele><time>2026-03-29T08:17:25.999Z</time></trkpt><trkpt lat="43.43918165616795" lon="6.283413689254108"><ele>339.8</ele><time>2026-03-29T08:17:26.999Z</time></trkpt><trkpt lat="43.439190226202896" lon="6.283317951529664"><ele>339.6</ele><time>2026-03-29T08:17:27.999Z</time></trkpt><trkpt lat="43.439245798095854" lon="6.283179535217387"><ele>339.4</ele><time>2026-03-29T08:17:29.999Z</time></trkpt><trkpt lat="43.439258343200805" lon="6.283057769578796"><ele>339.2</ele><time>2026-03-29T08:17:31.999Z</time></trkpt><trkpt lat="43.43922974326963" lon="6.282940787908886"><ele>339.0</ele><time>2026-03-29T08:17:33.999Z</time></trkpt><trkpt lat="43.43926736080592" lon="6.2828338915136515"><ele>339.0</ele><time>2026-03-29T08:17:35.999Z</time></trkpt><trkpt lat="43.43927689251917" lon="6.282710248989245"><ele>339.0</ele><time>2026-03-29T08:17:37.999Z</time></trkpt><trkpt lat="43.4392617252345" lon="6.282572849804306"><ele>339.0</ele><time>2026-03-29T08:17:39.999Z</time></trkpt><trkpt lat="43.43930738793525" lon="6.2823990021467155"><ele>339.0</ele><time>2026-03-29T08:17:41.999Z</time></trkpt><trkpt lat="43.43931445497072" lon="6.2823077968975305"><ele>339.0</ele><time>2026-03-29T08:17:42.999Z</time></trkpt><trkpt lat="43.439312328431626" lon="6.282146283238144"><ele>338.0</ele><time>2026-03-29T08:17:44.998Z</time></trkpt><trkpt lat="43.439353449018796" lon="6.282044316732442"><ele>337.0</ele><time>2026-03-29T08:17:46.998Z</time></trkpt><trkpt lat="43.43938499735265" lon="6.281901043247547"><ele>336.0</ele><time>2026-03-29T08:17:48.998Z</time></trkpt><trkpt lat="43.43941669648537" lon="6.2817752586771425"><ele>335.0</ele><time>2026-03-29T08:17:50.998Z</time></trkpt><trkpt lat="43.43938095088014" lon="6.281591521801861"><ele>334.0</ele><time>2026-03-29T08:17:52.998Z</time></trkpt><trkpt lat="43.439379070673354" lon="6.281452730964085"><ele>333.5</ele><time>2026-03-29T08:17:54.998Z</time></trkpt><trkpt lat="43.43938402742196" lon="6.281355566538611"><ele>333.0</ele><time>2026-03-29T08:17:55.998Z</time></trkpt><trkpt lat="43.439386412420035" lon="6.28125424770425"><ele>332.5</ele><time>2026-03-29T08:17:56.998Z</time></trkpt><trkpt lat="43.439387987589825" lon="6.281164934942281"><ele>332.0</ele><time>2026-03-29T08:17:57.998Z</time></trkpt><trkpt lat="43.43933894273784" lon="6.281016916841695"><ele>331.5</ele><time>2026-03-29T08:17:59.998Z</time></trkpt><trkpt lat="43.43933329432721" lon="6.280921589665888"><ele>331.0</ele><time>2026-03-29T08:18:00.998Z</time></trkpt><trkpt lat="43.43931995049389" lon="6.2808078316981115"><ele>331.0</ele><time>2026-03-29T08:18:01.998Z</time></trkpt><trkpt lat="43.43931130987888" lon="6.280689543421079"><ele>331.0</ele><time>2026-03-29T08:18:04Z</time></trkpt><trkpt lat="43.439323825344054" lon="6.280552088969053"><ele>331.0</ele><time>2026-03-29T08:18:06Z</time></trkpt><trkpt lat="43.439301955037884" lon="6.280450760619855"><ele>331.0</ele><time>2026-03-29T08:18:07Z</time></trkpt><trkpt lat="43.439292481004834" lon="6.280307890119224"><ele>331.0</ele><time>2026-03-29T08:18:09Z</time></trkpt><trkpt lat="43.43922423059472" lon="6.280193014901325"><ele>330.8571428571429</ele><time>2026-03-29T08:18:11Z</time></trkpt><trkpt lat="43.439173195531396" lon="6.280137758188606"><ele>330.7142857142857</ele><time>2026-03-29T08:18:13Z</time></trkpt><trkpt lat="43.43916466291303" lon="6.280037758313846"><ele>330.57142857142856</ele><time>2026-03-29T08:18:16Z</time></trkpt><trkpt lat="43.43914731045333" lon="6.279930025863717"><ele>330.42857142857144</ele><time>2026-03-29T08:18:18Z</time></trkpt><trkpt lat="43.43916153705218" lon="6.279840595200293"><ele>330.2857142857143</ele><time>2026-03-29T08:18:19Z</time></trkpt><trkpt lat="43.43913062161855" lon="6.2797308417851125"><ele>330.14285714285717</ele><time>2026-03-29T08:18:21Z</time></trkpt><trkpt lat="43.43913693630406" lon="6.279634201649945"><ele>330.0</ele><time>2026-03-29T08:18:22Z</time></trkpt><trkpt lat="43.43914375598861" lon="6.279541785825638"><ele>330.0</ele><time>2026-03-29T08:18:23Z</time></trkpt><trkpt lat="43.439200695834884" lon="6.279381678735631"><ele>330.0</ele><time>2026-03-29T08:18:25Z</time></trkpt><trkpt lat="43.43924448327726" lon="6.279276263835796"><ele>330.0</ele><time>2026-03-29T08:18:27Z</time></trkpt><trkpt lat="43.43926577451768" lon="6.2791361320705"><ele>330.0</ele><time>2026-03-29T08:18:29Z</time></trkpt><trkpt lat="43.43922829072234" lon="6.279054996188508"><ele>330.0</ele><time>2026-03-29T08:18:32Z</time></trkpt><trkpt lat="43.439269649854296" lon="6.278983234722398"><ele>330.3333333333333</ele><time>2026-03-29T08:18:34Z</time></trkpt><trkpt lat="43.439307246400034" lon="6.278905759357236"><ele>330.6666666666667</ele><time>2026-03-29T08:18:36Z</time></trkpt><trkpt lat="43.43929983001468" lon="6.278766245977507"><ele>331.0</ele><time>2026-03-29T08:18:38Z</time></trkpt><trkpt lat="43.43930409212251" lon="6.278648193213075"><ele>331.33333333333337</ele><time>2026-03-29T08:18:40Z</time></trkpt><trkpt lat="43.43941618852234" lon="6.278660064891378"><ele>331.6666666666667</ele><time>2026-03-29T08:18:42Z</time></trkpt><trkpt lat="43.439468977572616" lon="6.278710872588417"><ele>332.0</ele><time>2026-03-29T08:18:43Z</time></trkpt><trkpt lat="43.43956828389805" lon="6.27868456451001"><ele>332.0</ele><time>2026-03-29T08:18:45Z</time></trkpt><trkpt lat="43.439631583945" lon="6.27865064487874"><ele>332.0</ele><time>2026-03-29T08:18:46Z</time></trkpt><trkpt lat="43.439715875303975" lon="6.278599199398116"><ele>332.0</ele><time>2026-03-29T08:18:48Z</time></trkpt><trkpt lat="43.43980922654348" lon="6.278636795388691"><ele>332.0</ele><time>2026-03-29T08:18:50Z</time></trkpt><trkpt lat="43.43987485291619" lon="6.278624611669258"><ele>332.0</ele><time>2026-03-29T08:18:52Z</time></trkpt><trkpt lat="43.439937279685346" lon="6.278605650282054"><ele>332.0</ele><time>2026-03-29T08:18:53Z</time></trkpt><trkpt lat="43.43997355149469" lon="6.278518785400009"><ele>332.0</ele><time>2026-03-29T08:18:56Z</time></trkpt><trkpt lat="43.43989063683914" lon="6.27838940969496"><ele>332.0</ele><time>2026-03-29T08:18:58Z</time></trkpt><trkpt lat="43.439806071393086" lon="6.278312030668077"><ele>332.0</ele><time>2026-03-29T08:18:58.999Z</time></trkpt><trkpt lat="43.43972399573953" lon="6.2782355863822215"><ele>332.0</ele><time>2026-03-29T08:18:59.999Z</time></trkpt><trkpt lat="43.43963326514792" lon="6.278158119443157"><ele>332.0</ele><time>2026-03-29T08:19:00.999Z</time></trkpt><trkpt lat="43.43954364009054" lon="6.2780776276902746"><ele>331.6666666666667</ele><time>2026-03-29T08:19:01.999Z</time></trkpt><trkpt lat="43.439459448209014" lon="6.277996087153026"><ele>331.33333333333337</ele><time>2026-03-29T08:19:02.999Z</time></trkpt><trkpt lat="43.43938289491473" lon="6.277919945242859"><ele>331.0</ele><time>2026-03-29T08:19:03.999Z</time></trkpt><trkpt lat="43.43931595259455" lon="6.277852148735476"><ele>330.6666666666667</ele><time>2026-03-29T08:19:04.999Z</time></trkpt><trkpt lat="43.43925899858763" lon="6.27779866478222"><ele>330.3333333333333</ele><time>2026-03-29T08:19:05.999Z</time></trkpt><trkpt lat="43.43922009509476" lon="6.277681467216166"><ele>330.0</ele><time>2026-03-29T08:19:07.999Z</time></trkpt><trkpt lat="43.43925019103327" lon="6.277551322199075"><ele>330.0</ele><time>2026-03-29T08:19:09.999Z</time></trkpt><trkpt lat="43.439258204129224" lon="6.277404388139952"><ele>330.0</ele><time>2026-03-29T08:19:11.999Z</time></trkpt><trkpt lat="43.43924546255668" lon="6.277315464273425"><ele>330.0</ele><time>2026-03-29T08:19:12.999Z</time></trkpt><trkpt lat="43.43922969984537" lon="6.277136381604449"><ele>330.0</ele><time>2026-03-29T08:19:14.999Z</time></trkpt><trkpt lat="43.439252101616844" lon="6.277042292580019"><ele>330.0</ele><time>2026-03-29T08:19:15.999Z</time></trkpt><trkpt lat="43.43930431764767" lon="6.276886791510562"><ele>330.2</ele><time>2026-03-29T08:19:17.999Z</time></trkpt><trkpt lat="43.43935786755032" lon="6.276750059139057"><ele>330.4</ele><time>2026-03-29T08:19:19.999Z</time></trkpt><trkpt lat="43.43939456389749" lon="6.276665526557654"><ele>330.6</ele><time>2026-03-29T08:19:20.999Z</time></trkpt><trkpt lat="43.439438915561226" lon="6.276526681332718"><ele>330.8</ele><time>2026-03-29T08:19:22.999Z</time></trkpt><trkpt lat="43.4394752338418" lon="6.276438933543071"><ele>331.0</ele><time>2026-03-29T08:19:23.999Z</time></trkpt><trkpt lat="43.43951427102297" lon="6.276326755243839"><ele>331.0</ele><time>2026-03-29T08:19:24.999Z</time></trkpt><trkpt lat="43.43956019739979" lon="6.276216174066057"><ele>331.0</ele><time>2026-03-29T08:19:25.999Z</time></trkpt><trkpt lat="43.439586358627366" lon="6.276132576465003"><ele>331.0</ele><time>2026-03-29T08:19:26.999Z</time></trkpt><trkpt lat="43.4395791349048" lon="6.275950943084832"><ele>331.0</ele><time>2026-03-29T08:19:28.999Z</time></trkpt><trkpt lat="43.43959168525366" lon="6.275862176517922"><ele>331.0</ele><time>2026-03-29T08:19:29.999Z</time></trkpt><trkpt lat="43.43968410108338" lon="6.2758019275242765"><ele>332.4</ele><time>2026-03-29T08:19:31.999Z</time></trkpt><trkpt lat="43.43974894291266" lon="6.275757533719407"><ele>333.8</ele><time>2026-03-29T08:19:33.999Z</time></trkpt><trkpt lat="43.43979061179256" lon="6.275615157387001"><ele>335.2</ele><time>2026-03-29T08:19:35.999Z</time></trkpt><trkpt lat="43.43985907223679" lon="6.275561325097208"><ele>336.59999999999997</ele><time>2026-03-29T08:19:36.999Z</time></trkpt><trkpt lat="43.43995073099427" lon="6.275501805722854"><ele>338.0</ele><time>2026-03-29T08:19:37.999Z</time></trkpt><trkpt lat="43.4400340319677" lon="6.275436923534456"><ele>338.0</ele><time>2026-03-29T08:19:38.999Z</time></trkpt><trkpt lat="43.44009005663664" lon="6.275390091895024"><ele>338.0</ele><time>2026-03-29T08:19:39.999Z</time></trkpt><trkpt lat="43.44013600663879" lon="6.27531156755632"><ele>338.0</ele><time>2026-03-29T08:19:40.999Z</time></trkpt><trkpt lat="43.440193170402495" lon="6.275246376025533"><ele>338.0</ele><time>2026-03-29T08:19:41.999Z</time></trkpt><trkpt lat="43.44027111741119" lon="6.275171063681562"><ele>338.0</ele><time>2026-03-29T08:19:42.999Z</time></trkpt><trkpt lat="43.440331419960565" lon="6.275112335169065"><ele>338.0</ele><time>2026-03-29T08:19:43.999Z</time></trkpt><trkpt lat="43.44045343446625" lon="6.275055701376643"><ele>338.6666666666667</ele><time>2026-03-29T08:19:45.999Z</time></trkpt><trkpt lat="43.44052533507671" lon="6.2750062300721945"><ele>339.33333333333337</ele><time>2026-03-29T08:19:47.999Z</time></trkpt><trkpt lat="43.440586345813365" lon="6.274980928144621"><ele>340.0</ele><time>2026-03-29T08:19:48.999Z</time></trkpt><trkpt lat="43.44066964480774" lon="6.274906173434424"><ele>340.6666666666667</ele><time>2026-03-29T08:19:50.999Z</time></trkpt><trkpt lat="43.440725699618696" lon="6.274839776509471"><ele>341.3333333333333</ele><time>2026-03-29T08:19:51.999Z</time></trkpt><trkpt lat="43.440784727604616" lon="6.27479234029974"><ele>342.0</ele><time>2026-03-29T08:19:52.998Z</time></trkpt><trkpt lat="43.44091100921557" lon="6.274731957950068"><ele>342.0</ele><time>2026-03-29T08:19:54.998Z</time></trkpt><trkpt lat="43.440977625448554" lon="6.274728219276175"><ele>342.0</ele><time>2026-03-29T08:19:55.998Z</time></trkpt><trkpt lat="43.441105776585" lon="6.274633855333812"><ele>342.0</ele><time>2026-03-29T08:19:57.998Z</time></trkpt><trkpt lat="43.441203469021374" lon="6.274534817435985"><ele>342.0</ele><time>2026-03-29T08:19:59.998Z</time></trkpt><trkpt lat="43.44129005991516" lon="6.274472551151586"><ele>342.0</ele><time>2026-03-29T08:20:01.998Z</time></trkpt><trkpt lat="43.44134666322583" lon="6.274314467957049"><ele>342.1666666666667</ele><time>2026-03-29T08:20:03.998Z</time></trkpt><trkpt lat="43.44138261108924" lon="6.274240595448933"><ele>342.3333333333333</ele><time>2026-03-29T08:20:04.998Z</time></trkpt><trkpt lat="43.44141194885914" lon="6.274162226337414"><ele>342.5</ele><time>2026-03-29T08:20:05.998Z</time></trkpt><trkpt lat="43.44145156225009" lon="6.2740835701914435"><ele>342.66666666666663</ele><time>2026-03-29T08:20:06.998Z</time></trkpt><trkpt lat="43.441498276796715" lon="6.27399510512456"><ele>342.8333333333333</ele><time>2026-03-29T08:20:07.998Z</time></trkpt><trkpt lat="43.441506764301536" lon="6.273856596712769"><ele>343.0</ele><time>2026-03-29T08:20:10Z</time></trkpt><trkpt lat="43.44157818079322" lon="6.273837986077116"><ele>343.0</ele><time>2026-03-29T08:20:12Z</time></trkpt><trkpt lat="43.44164104255587" lon="6.273901267217719"><ele>343.0</ele><time>2026-03-29T08:20:13Z</time></trkpt><trkpt lat="43.441713401496045" lon="6.273992207553826"><ele>343.0</ele><time>2026-03-29T08:20:14Z</time></trkpt><trkpt lat="43.441778363020184" lon="6.274101030653144"><ele>343.0</ele><time>2026-03-29T08:20:15Z</time></trkpt><trkpt lat="43.44181485178566" lon="6.274217316438101"><ele>343.0</ele><time>2026-03-29T08:20:17Z</time></trkpt><trkpt lat="43.44179052850249" lon="6.274308617340076"><ele>343.0</ele><time>2026-03-29T08:20:19Z</time></trkpt><trkpt lat="43.44176087719754" lon="6.274385848540791"><ele>343.0</ele><time>2026-03-29T08:20:20Z</time></trkpt><trkpt lat="43.44166814135587" lon="6.274485380269786"><ele>343.0</ele><time>2026-03-29T08:20:22Z</time></trkpt><trkpt lat="43.4416020429704" lon="6.274509347678085"><ele>343.0</ele><time>2026-03-29T08:20:23Z</time></trkpt><trkpt lat="43.44153920329079" lon="6.274526509029655"><ele>343.0</ele><time>2026-03-29T08:20:24Z</time></trkpt><trkpt lat="43.44148423677985" lon="6.274646511418155"><ele>343.0</ele><time>2026-03-29T08:20:26Z</time></trkpt><trkpt lat="43.441447135903125" lon="6.274722529481021"><ele>343.0</ele><time>2026-03-29T08:20:27Z</time></trkpt><trkpt lat="43.4414224490468" lon="6.274814575132343"><ele>343.3333333333333</ele><time>2026-03-29T08:20:28Z</time></trkpt><trkpt lat="43.44138581868045" lon="6.27496643088405"><ele>343.66666666666663</ele><time>2026-03-29T08:20:30Z</time></trkpt><trkpt lat="43.441357676446685" lon="6.2750478575724955"><ele>344.0</ele><time>2026-03-29T08:20:31Z</time></trkpt><trkpt lat="43.441319897423035" lon="6.275129782100418"><ele>344.3333333333333</ele><time>2026-03-29T08:20:32Z</time></trkpt><trkpt lat="43.44126583979391" lon="6.27523730668143"><ele>344.6666666666667</ele><time>2026-03-29T08:20:33Z</time></trkpt><trkpt lat="43.441235129772" lon="6.275338082101397"><ele>345.0</ele><time>2026-03-29T08:20:34Z</time></trkpt><trkpt lat="43.44121293081649" lon="6.275424886072357"><ele>345.0</ele><time>2026-03-29T08:20:35Z</time></trkpt><trkpt lat="43.44115887690811" lon="6.275494618768613"><ele>345.0</ele><time>2026-03-29T08:20:36Z</time></trkpt><trkpt lat="43.44110812628011" lon="6.275559545807448"><ele>345.0</ele><time>2026-03-29T08:20:37Z</time></trkpt><trkpt lat="43.441083780800405" lon="6.2756403664176545"><ele>345.0</ele><time>2026-03-29T08:20:38Z</time></trkpt><trkpt lat="43.44106287689197" lon="6.275737217431176"><ele>345.0</ele><time>2026-03-29T08:20:39Z</time></trkpt><trkpt lat="43.44102140695002" lon="6.275832615392693"><ele>345.0</ele><time>2026-03-29T08:20:40Z</time></trkpt><trkpt lat="43.440999339178894" lon="6.2759168466903885"><ele>345.0</ele><time>2026-03-29T08:20:41Z</time></trkpt><trkpt lat="43.4410075779143" lon="6.276025294750194"><ele>344.0</ele><time>2026-03-29T08:20:42Z</time></trkpt><trkpt lat="43.44099753393967" lon="6.276127540344429"><ele>343.0</ele><time>2026-03-29T08:20:43Z</time></trkpt><trkpt lat="43.440972616821114" lon="6.276246009668008"><ele>342.0</ele><time>2026-03-29T08:20:44Z</time></trkpt><trkpt lat="43.44096012726432" lon="6.276356190222394"><ele>341.0</ele><time>2026-03-29T08:20:45Z</time></trkpt><trkpt lat="43.44094138443195" lon="6.276447124242528"><ele>340.0</ele><time>2026-03-29T08:20:46Z</time></trkpt><trkpt lat="43.44096593158887" lon="6.276621309491906"><ele>339.0</ele><time>2026-03-29T08:20:48Z</time></trkpt><trkpt lat="43.44099006643727" lon="6.276795913495607"><ele>337.6666666666667</ele><time>2026-03-29T08:20:50Z</time></trkpt><trkpt lat="43.440984707906345" lon="6.276903405965975"><ele>336.3333333333333</ele><time>2026-03-29T08:20:51Z</time></trkpt><trkpt lat="43.440981511459164" lon="6.277027577202679"><ele>335.0</ele><time>2026-03-29T08:20:52Z</time></trkpt><trkpt lat="43.44097754896687" lon="6.277143367602999"><ele>333.66666666666663</ele><time>2026-03-29T08:20:53Z</time></trkpt><trkpt lat="43.44096767406327" lon="6.277233741999279"><ele>332.3333333333333</ele><time>2026-03-29T08:20:54Z</time></trkpt><trkpt lat="43.44095787563551" lon="6.277391673353829"><ele>331.0</ele><time>2026-03-29T08:20:56Z</time></trkpt><trkpt lat="43.440953040472" lon="6.27750004008664"><ele>329.8</ele><time>2026-03-29T08:20:57Z</time></trkpt><trkpt lat="43.440941378882926" lon="6.27761275214268"><ele>328.6</ele><time>2026-03-29T08:20:58Z</time></trkpt><trkpt lat="43.44090583018231" lon="6.277752140965928"><ele>327.4</ele><time>2026-03-29T08:21:00Z</time></trkpt><trkpt lat="43.44089813799059" lon="6.2778548418600275"><ele>326.2</ele><time>2026-03-29T08:21:01Z</time></trkpt><trkpt lat="43.440901830385044" lon="6.277955046172361"><ele>325.0</ele><time>2026-03-29T08:21:02Z</time></trkpt><trkpt lat="43.440889358923044" lon="6.278123762895625"><ele>324.3333333333333</ele><time>2026-03-29T08:21:04Z</time></trkpt><trkpt lat="43.440876279228455" lon="6.278230763668666"><ele>323.66666666666663</ele><time>2026-03-29T08:21:05Z</time></trkpt><trkpt lat="43.44089646569774" lon="6.278386377563116"><ele>323.0</ele><time>2026-03-29T08:21:07Z</time></trkpt><trkpt lat="43.44094841814294" lon="6.278483887382404"><ele>322.3333333333333</ele><time>2026-03-29T08:21:08Z</time></trkpt><trkpt lat="43.440987817519165" lon="6.278553666399356"><ele>321.6666666666667</ele><time>2026-03-29T08:21:09Z</time></trkpt><trkpt lat="43.44100624512153" lon="6.278641050103711"><ele>321.0</ele><time>2026-03-29T08:21:10Z</time></trkpt><trkpt lat="43.4410369491668" lon="6.278721508571948"><ele>320.99999999999994</ele><time>2026-03-29T08:21:11Z</time></trkpt><trkpt lat="43.441062352891905" lon="6.278814695871394"><ele>321.0</ele><time>2026-03-29T08:21:11.999Z</time></trkpt><trkpt lat="43.44108142854156" lon="6.278909884287606"><ele>321.0</ele><time>2026-03-29T08:21:12.999Z</time></trkpt><trkpt lat="43.44108642448342" lon="6.278996678344681"><ele>321.0</ele><time>2026-03-29T08:21:13.999Z</time></trkpt><trkpt lat="43.44110921437877" lon="6.2791382229324055"><ele>321.0</ele><time>2026-03-29T08:21:15.999Z</time></trkpt><trkpt lat="43.441140231189344" lon="6.27922065698807"><ele>320.99999999999994</ele><time>2026-03-29T08:21:16.999Z</time></trkpt><trkpt lat="43.441162372127486" lon="6.279307843610505"><ele>321.0</ele><time>2026-03-29T08:21:17.999Z</time></trkpt><trkpt lat="43.44120276931136" lon="6.2794621545672324"><ele>319.8333333333333</ele><time>2026-03-29T08:21:19.999Z</time></trkpt><trkpt lat="43.44123957879506" lon="6.279551343631208"><ele>318.6666666666667</ele><time>2026-03-29T08:21:21.999Z</time></trkpt><trkpt lat="43.44123659612344" lon="6.27965928059402"><ele>317.5</ele><time>2026-03-29T08:21:23.999Z</time></trkpt><trkpt lat="43.441321078656" lon="6.279714066186436"><ele>316.33333333333337</ele><time>2026-03-29T08:21:26.999Z</time></trkpt><trkpt lat="43.44139098277309" lon="6.279788708610177"><ele>315.1666666666667</ele><time>2026-03-29T08:21:28.999Z</time></trkpt><trkpt lat="43.441488195398364" lon="6.279797500931773"><ele>314.0</ele><time>2026-03-29T08:21:30.999Z</time></trkpt><trkpt lat="43.4415809905187" lon="6.279858766339192"><ele>308.1666666666667</ele><time>2026-03-29T08:21:32.999Z</time></trkpt><trkpt lat="43.44163743637951" lon="6.279924634600419"><ele>302.33333333333337</ele><time>2026-03-29T08:21:33.999Z</time></trkpt><trkpt lat="43.44167993946508" lon="6.280001291318028"><ele>296.5</ele><time>2026-03-29T08:21:34.999Z</time></trkpt><trkpt lat="43.441797149895756" lon="6.280084708622626"><ele>290.6666666666667</ele><time>2026-03-29T08:21:36.999Z</time></trkpt><trkpt lat="43.441859453312155" lon="6.280126084311202"><ele>284.8333333333333</ele><time>2026-03-29T08:21:37.999Z</time></trkpt><trkpt lat="43.44196330450832" lon="6.2801379613532875"><ele>279.0</ele><time>2026-03-29T08:21:39.999Z</time></trkpt><trkpt lat="43.44203988077834" lon="6.28021198811768"><ele>276.6666666666667</ele><time>2026-03-29T08:21:41.999Z</time></trkpt><trkpt lat="43.44216747298157" lon="6.280248591798336"><ele>274.3333333333333</ele><time>2026-03-29T08:21:43.999Z</time></trkpt><trkpt lat="43.44224028633707" lon="6.280252108340893"><ele>272.0</ele><time>2026-03-29T08:21:44.999Z</time></trkpt><trkpt lat="43.44232350084629" lon="6.280265274860158"><ele>269.66666666666663</ele><time>2026-03-29T08:21:46.999Z</time></trkpt><trkpt lat="43.442359943331255" lon="6.280354898384015"><ele>267.3333333333333</ele><time>2026-03-29T08:21:49.999Z</time></trkpt><trkpt lat="43.44243201894494" lon="6.2804145892376075"><ele>265.0</ele><time>2026-03-29T08:21:51.999Z</time></trkpt><trkpt lat="43.44249145871783" lon="6.280501077399662"><ele>265.0</ele><time>2026-03-29T08:21:53.999Z</time></trkpt><trkpt lat="43.44257681711298" lon="6.28052029365198"><ele>265.0</ele><time>2026-03-29T08:21:55.999Z</time></trkpt><trkpt lat="43.442634198497025" lon="6.280634527767871"><ele>265.0</ele><time>2026-03-29T08:21:57.999Z</time></trkpt><trkpt lat="43.442704948328654" lon="6.28063681522301"><ele>265.0</ele><time>2026-03-29T08:21:58.999Z</time></trkpt><trkpt lat="43.44281406292472" lon="6.280739370348526"><ele>265.0</ele><time>2026-03-29T08:22:00.999Z</time></trkpt><trkpt lat="43.44285206879406" lon="6.280846578454689"><ele>265.3333333333333</ele><time>2026-03-29T08:22:02.999Z</time></trkpt><trkpt lat="43.44287644504466" lon="6.280957312942342"><ele>265.66666666666663</ele><time>2026-03-29T08:22:03.999Z</time></trkpt><trkpt lat="43.44289642965726" lon="6.281074571883992"><ele>266.0</ele><time>2026-03-29T08:22:04.998Z</time></trkpt><trkpt lat="43.44290661664206" lon="6.2811630012285145"><ele>266.3333333333333</ele><time>2026-03-29T08:22:05.998Z</time></trkpt><trkpt lat="43.442925350401005" lon="6.281248515482265"><ele>266.6666666666667</ele><time>2026-03-29T08:22:06.998Z</time></trkpt><trkpt lat="43.44295148033163" lon="6.281366810361622"><ele>267.0</ele><time>2026-03-29T08:22:07.998Z</time></trkpt><trkpt lat="43.442991766754446" lon="6.28144786025587"><ele>266.1666666666667</ele><time>2026-03-29T08:22:10.998Z</time></trkpt><trkpt lat="43.44302548417883" lon="6.281552650013869"><ele>265.3333333333333</ele><time>2026-03-29T08:22:13.998Z</time></trkpt><trkpt lat="43.443077634754076" lon="6.281625182199107"><ele>264.5</ele><time>2026-03-29T08:22:16Z</time></trkpt><trkpt lat="43.44315217785939" lon="6.281729576683504"><ele>263.66666666666663</ele><time>2026-03-29T08:22:18Z</time></trkpt><trkpt lat="43.443200148220264" lon="6.281834178585318"><ele>262.8333333333333</ele><time>2026-03-29T08:22:19Z</time></trkpt><trkpt lat="43.44323304006835" lon="6.28191047483544"><ele>262.0</ele><time>2026-03-29T08:22:20Z</time></trkpt><trkpt lat="43.443310890369254" lon="6.28197453406908"><ele>262.0</ele><time>2026-03-29T08:22:22Z</time></trkpt><trkpt lat="43.44340902786983" lon="6.282048876710373"><ele>262.0</ele><time>2026-03-29T08:22:24Z</time></trkpt><trkpt lat="43.443477496487006" lon="6.282104445510862"><ele>262.0</ele><time>2026-03-29T08:22:26Z</time></trkpt><trkpt lat="43.443440970494116" lon="6.2823219707355555"><ele>262.0</ele><time>2026-03-29T08:22:28Z</time></trkpt><trkpt lat="43.4434530421314" lon="6.282489281526003"><ele>261.6</ele><time>2026-03-29T08:22:30Z</time></trkpt><trkpt lat="43.44348837615056" lon="6.282588426831196"><ele>261.2</ele><time>2026-03-29T08:22:31Z</time></trkpt><trkpt lat="43.44350198847499" lon="6.28276181820635"><ele>260.8</ele><time>2026-03-29T08:22:33Z</time></trkpt><trkpt lat="43.44349502636748" lon="6.282872576820762"><ele>260.4</ele><time>2026-03-29T08:22:34Z</time></trkpt><trkpt lat="43.443514064732575" lon="6.2829820760929165"><ele>260.0</ele><time>2026-03-29T08:22:35Z</time></trkpt><trkpt lat="43.44353083823165" lon="6.283098257286086"><ele>259.14285714285717</ele><time>2026-03-29T08:22:36Z</time></trkpt><trkpt lat="43.44353232915577" lon="6.283208538756047"><ele>258.2857142857143</ele><time>2026-03-29T08:22:37Z</time></trkpt><trkpt lat="43.44353476632633" lon="6.283299603810092"><ele>257.42857142857144</ele><time>2026-03-29T08:22:38Z</time></trkpt><trkpt lat="43.44356019709013" lon="6.28338745586013"><ele>256.57142857142856</ele><time>2026-03-29T08:22:39Z</time></trkpt><trkpt lat="43.44357276291772" lon="6.283487646178268"><ele>255.71428571428572</ele><time>2026-03-29T08:22:40Z</time></trkpt><trkpt lat="43.44355761757643" lon="6.28358868755978"><ele>254.85714285714286</ele><time>2026-03-29T08:22:41Z</time></trkpt><trkpt lat="43.443559021919626" lon="6.2836757860595"><ele>254.0</ele><time>2026-03-29T08:22:42Z</time></trkpt><trkpt lat="43.443575507050134" lon="6.28377155960198"><ele>254.00000000000003</ele><time>2026-03-29T08:22:43Z</time></trkpt><trkpt lat="43.4435821070353" lon="6.283869507215785"><ele>254.0</ele><time>2026-03-29T08:22:44Z</time></trkpt><trkpt lat="43.443575886583126" lon="6.283975837645228"><ele>254.0</ele><time>2026-03-29T08:22:45Z</time></trkpt><trkpt lat="43.443588804306614" lon="6.28408042896114"><ele>254.0</ele><time>2026-03-29T08:22:46Z</time></trkpt><trkpt lat="43.44359531233315" lon="6.284203862997303"><ele>254.00000000000003</ele><time>2026-03-29T08:22:47Z</time></trkpt><trkpt lat="43.443593985807944" lon="6.284329474347663"><ele>254.0</ele><time>2026-03-29T08:22:48Z</time></trkpt><trkpt lat="43.443594391090485" lon="6.284447969822877"><ele>252.33333333333334</ele><time>2026-03-29T08:22:49Z</time></trkpt><trkpt lat="43.44359423248826" lon="6.284559726465406"><ele>250.66666666666669</ele><time>2026-03-29T08:22:50Z</time></trkpt><trkpt lat="43.443598778033994" lon="6.284652004578817"><ele>249.0</ele><time>2026-03-29T08:22:51Z</time></trkpt><trkpt lat="43.44357155933224" lon="6.284771298528432"><ele>247.33333333333331</ele><time>2026-03-29T08:22:54Z</time></trkpt><trkpt lat="43.44359608090967" lon="6.284868271212949"><ele>245.66666666666666</ele><time>2026-03-29T08:22:57Z</time></trkpt><trkpt lat="43.44366044720769" lon="6.284892223222251"><ele>244.0</ele><time>2026-03-29T08:22:59Z</time></trkpt><trkpt lat="43.44374814225653" lon="6.284911233033119"><ele>243.99999999999997</ele><time>2026-03-29T08:23:02Z</time></trkpt><trkpt lat="43.4437610626368" lon="6.2850298143974195"><ele>244.0</ele><time>2026-03-29T08:23:04Z</time></trkpt><trkpt lat="43.44384619070076" lon="6.285013117527638"><ele>244.0</ele><time>2026-03-29T08:23:07Z</time></trkpt><trkpt lat="43.44387452571433" lon="6.285138481908007"><ele>244.0</ele><time>2026-03-29T08:23:10Z</time></trkpt><trkpt lat="43.44385400407593" lon="6.285269749521012"><ele>243.99999999999997</ele><time>2026-03-29T08:23:12Z</time></trkpt><trkpt lat="43.44383818995567" lon="6.2853782511796075"><ele>244.0</ele><time>2026-03-29T08:23:14Z</time></trkpt><trkpt lat="43.44382765707778" lon="6.285511840392934"><ele>242.83333333333331</ele><time>2026-03-29T08:23:16Z</time></trkpt><trkpt lat="43.443823645824885" lon="6.28564079583053"><ele>241.66666666666666</ele><time>2026-03-29T08:23:18Z</time></trkpt><trkpt lat="43.44384410082667" lon="6.2857579144788644"><ele>240.5</ele><time>2026-03-29T08:23:20.999Z</time></trkpt><trkpt lat="43.44377634612697" lon="6.285866293485609"><ele>239.33333333333331</ele><time>2026-03-29T08:23:22.999Z</time></trkpt><trkpt lat="43.44380652508218" lon="6.285977373419077"><ele>238.16666666666666</ele><time>2026-03-29T08:23:24.999Z</time></trkpt><trkpt lat="43.44383025774871" lon="6.286077678110397"><ele>237.0</ele><time>2026-03-29T08:23:28.999Z</time></trkpt><trkpt lat="43.443866446886034" lon="6.286188435269202"><ele>237.0</ele><time>2026-03-29T08:23:32.999Z</time></trkpt><trkpt lat="43.44395735180123" lon="6.286184359750774"><ele>237.0</ele><time>2026-03-29T08:23:35.999Z</time></trkpt><trkpt lat="43.444043624745646" lon="6.2861976936003385"><ele>237.0</ele><time>2026-03-29T08:23:38.999Z</time></trkpt><trkpt lat="43.44410747443421" lon="6.286200452171926"><ele>237.0</ele><time>2026-03-29T08:23:39.999Z</time></trkpt><trkpt lat="43.444203947416455" lon="6.286173347768099"><ele>237.0</ele><time>2026-03-29T08:23:41.999Z</time></trkpt><trkpt lat="43.44430012667446" lon="6.286135753002763"><ele>237.0</ele><time>2026-03-29T08:23:43.999Z</time></trkpt><trkpt lat="43.44438793479766" lon="6.286102523610349"><ele>237.0</ele><time>2026-03-29T08:23:45.999Z</time></trkpt><trkpt lat="43.4444388053731" lon="6.286019434771274"><ele>237.0</ele><time>2026-03-29T08:23:47.999Z</time></trkpt><trkpt lat="43.44450506875153" lon="6.286020583846164"><ele>237.0</ele><time>2026-03-29T08:23:49.999Z</time></trkpt><trkpt lat="43.444569165558626" lon="6.286053533225501"><ele>237.0</ele><time>2026-03-29T08:23:53.999Z</time></trkpt><trkpt lat="43.4446285115918" lon="6.2859175351851695"><ele>237.0</ele><time>2026-03-29T08:23:58.999Z</time></trkpt><trkpt lat="43.44470013825048" lon="6.28577182498069"><ele>238.66666666666666</ele><time>2026-03-29T08:24:00.999Z</time></trkpt><trkpt lat="43.44472813341725" lon="6.285669662750247"><ele>240.33333333333331</ele><time>2026-03-29T08:24:01.999Z</time></trkpt><trkpt lat="43.444751690492645" lon="6.285571649202321"><ele>242.0</ele><time>2026-03-29T08:24:02.999Z</time></trkpt><trkpt lat="43.44482219233857" lon="6.285454669590697"><ele>243.66666666666666</ele><time>2026-03-29T08:24:04.999Z</time></trkpt><trkpt lat="43.44487259050466" lon="6.285381240705742"><ele>245.33333333333331</ele><time>2026-03-29T08:24:05.999Z</time></trkpt><trkpt lat="43.44493083799703" lon="6.285283969059517"><ele>247.0</ele><time>2026-03-29T08:24:06.999Z</time></trkpt><trkpt lat="43.44499337322057" lon="6.285200431636657"><ele>247.0</ele><time>2026-03-29T08:24:07.999Z</time></trkpt><trkpt lat="43.44506582129773" lon="6.285140363310278"><ele>247.0</ele><time>2026-03-29T08:24:08.999Z</time></trkpt><trkpt lat="43.44515194087725" lon="6.285061690307198"><ele>247.0</ele><time>2026-03-29T08:24:09.999Z</time></trkpt><trkpt lat="43.445223469399366" lon="6.284963652300823"><ele>247.0</ele><time>2026-03-29T08:24:10.999Z</time></trkpt><trkpt lat="43.44526534199974" lon="6.284852212255788"><ele>247.0</ele><time>2026-03-29T08:24:11.999Z</time></trkpt><trkpt lat="43.445310998817796" lon="6.284742777311891"><ele>246.2</ele><time>2026-03-29T08:24:12.998Z</time></trkpt><trkpt lat="43.44535716377821" lon="6.284649167327658"><ele>245.39999999999998</ele><time>2026-03-29T08:24:13.998Z</time></trkpt><trkpt lat="43.44543748764907" lon="6.284573211205268"><ele>244.60000000000002</ele><time>2026-03-29T08:24:14.998Z</time></trkpt><trkpt lat="43.44552773317162" lon="6.284462022595903"><ele>243.8</ele><time>2026-03-29T08:24:15.998Z</time></trkpt><trkpt lat="43.44558840194553" lon="6.284329931706067"><ele>243.0</ele><time>2026-03-29T08:24:16.998Z</time></trkpt><trkpt lat="43.4456618744697" lon="6.284212570058783"><ele>242.33333333333334</ele><time>2026-03-29T08:24:17.998Z</time></trkpt><trkpt lat="43.44571176978654" lon="6.284112903449876"><ele>241.66666666666669</ele><time>2026-03-29T08:24:18.998Z</time></trkpt><trkpt lat="43.445771200290274" lon="6.2840330516995895"><ele>241.0</ele><time>2026-03-29T08:24:19.998Z</time></trkpt><trkpt lat="43.44582248996739" lon="6.283966102259884"><ele>240.33333333333334</ele><time>2026-03-29T08:24:20.998Z</time></trkpt><trkpt lat="43.445862941559426" lon="6.283887822063421"><ele>239.66666666666669</ele><time>2026-03-29T08:24:22Z</time></trkpt><trkpt lat="43.44589776173702" lon="6.283793598208341"><ele>239.0</ele><time>2026-03-29T08:24:23Z</time></trkpt><trkpt lat="43.445958815301644" lon="6.283702091833051"><ele>236.79999999999998</ele><time>2026-03-29T08:24:24Z</time></trkpt><trkpt lat="43.44602587557895" lon="6.283612411691344"><ele>234.59999999999997</ele><time>2026-03-29T08:24:25Z</time></trkpt><trkpt lat="43.44608001597154" lon="6.283515082585201"><ele>232.4</ele><time>2026-03-29T08:24:26Z</time></trkpt><trkpt lat="43.44614740348661" lon="6.283426417669699"><ele>230.2</ele><time>2026-03-29T08:24:27Z</time></trkpt><trkpt lat="43.4462099099667" lon="6.2833236528198295"><ele>228.0</ele><time>2026-03-29T08:24:28Z</time></trkpt><trkpt lat="43.446261523542645" lon="6.283218761406134"><ele>228.33333333333334</ele><time>2026-03-29T08:24:29Z</time></trkpt><trkpt lat="43.446301554675664" lon="6.283123027513284"><ele>228.66666666666669</ele><time>2026-03-29T08:24:30Z</time></trkpt><trkpt lat="43.4463277772152" lon="6.283021713029982"><ele>229.0</ele><time>2026-03-29T08:24:31Z</time></trkpt><trkpt lat="43.44635310856424" lon="6.28291234860235"><ele>229.33333333333334</ele><time>2026-03-29T08:24:32Z</time></trkpt><trkpt lat="43.44639428898996" lon="6.282810012492125"><ele>229.66666666666669</ele><time>2026-03-29T08:24:33Z</time></trkpt><trkpt lat="43.44645854432727" lon="6.282704382127331"><ele>230.0</ele><time>2026-03-29T08:24:34Z</time></trkpt><trkpt lat="43.4465013930848" lon="6.282616371715998"><ele>227.83333333333334</ele><time>2026-03-29T08:24:35Z</time></trkpt><trkpt lat="43.446547609601325" lon="6.282535694910375"><ele>225.66666666666669</ele><time>2026-03-29T08:24:36Z</time></trkpt><trkpt lat="43.44661725383538" lon="6.2824696813289425"><ele>223.5</ele><time>2026-03-29T08:24:37Z</time></trkpt><trkpt lat="43.44668342912616" lon="6.282407911684232"><ele>221.33333333333331</ele><time>2026-03-29T08:24:38Z</time></trkpt><trkpt lat="43.44673413274995" lon="6.2823411582015085"><ele>219.16666666666666</ele><time>2026-03-29T08:24:39Z</time></trkpt><trkpt lat="43.44682145756922" lon="6.2822561339646485"><ele>217.0</ele><time>2026-03-29T08:24:41Z</time></trkpt><trkpt lat="43.446878451437804" lon="6.282219304151292"><ele>216.39999999999998</ele><time>2026-03-29T08:24:42Z</time></trkpt><trkpt lat="43.44697702767947" lon="6.282156202272116"><ele>215.79999999999998</ele><time>2026-03-29T08:24:43Z</time></trkpt><trkpt lat="43.44706780552775" lon="6.2820966546765895"><ele>215.2</ele><time>2026-03-29T08:24:44Z</time></trkpt><trkpt lat="43.44713749301259" lon="6.282045062109993"><ele>214.6</ele><time>2026-03-29T08:24:45Z</time></trkpt><trkpt lat="43.44719040122519" lon="6.281995637093418"><ele>214.0</ele><time>2026-03-29T08:24:46Z</time></trkpt><trkpt lat="43.44731755182107" lon="6.281980760791231"><ele>214.0</ele><time>2026-03-29T08:24:48Z</time></trkpt><trkpt lat="43.44741267822566" lon="6.282036126533421"><ele>213.99999999999997</ele><time>2026-03-29T08:24:49Z</time></trkpt><trkpt lat="43.44751701272585" lon="6.28209493153229"><ele>213.99999999999997</ele><time>2026-03-29T08:24:50Z</time></trkpt><trkpt lat="43.447609176948944" lon="6.282152121907448"><ele>214.0</ele><time>2026-03-29T08:24:51Z</time></trkpt><trkpt lat="43.44768705956616" lon="6.282227124390488"><ele>214.0</ele><time>2026-03-29T08:24:52Z</time></trkpt><trkpt lat="43.447757187156675" lon="6.282317015960987"><ele>214.0</ele><time>2026-03-29T08:24:53Z</time></trkpt><trkpt lat="43.44780746836104" lon="6.2824558311237215"><ele>213.99999999999997</ele><time>2026-03-29T08:24:54Z</time></trkpt><trkpt lat="43.44786340638352" lon="6.282570860526595"><ele>213.99999999999997</ele><time>2026-03-29T08:24:55Z</time></trkpt><trkpt lat="43.44793132646575" lon="6.282695611105086"><ele>214.0</ele><time>2026-03-29T08:24:56Z</time></trkpt><trkpt lat="43.44798605507867" lon="6.282797680244093"><ele>214.0</ele><time>2026-03-29T08:24:57Z</time></trkpt><trkpt lat="43.44805503481359" lon="6.282892008027357"><ele>213.79999999999998</ele><time>2026-03-29T08:24:58Z</time></trkpt><trkpt lat="43.44813171259138" lon="6.282947208185828"><ele>213.59999999999997</ele><time>2026-03-29T08:24:59Z</time></trkpt><trkpt lat="43.448193735434" lon="6.283056865844201"><ele>213.4</ele><time>2026-03-29T08:25:00Z</time></trkpt><trkpt lat="43.44825732928946" lon="6.283179172377307"><ele>213.2</ele><time>2026-03-29T08:25:01Z</time></trkpt><trkpt lat="43.448317137882626" lon="6.28327659513595"><ele>213.0</ele><time>2026-03-29T08:25:02Z</time></trkpt><trkpt lat="43.44840822202364" lon="6.283358035902498"><ele>212.83333333333334</ele><time>2026-03-29T08:25:04Z</time></trkpt><trkpt lat="43.44849113596032" lon="6.283346610924516"><ele>212.66666666666669</ele><time>2026-03-29T08:25:05Z</time></trkpt><trkpt lat="43.448579321130346" lon="6.2833561630174115"><ele>212.5</ele><time>2026-03-29T08:25:06Z</time></trkpt><trkpt lat="43.44865188069016" lon="6.2833881671183756"><ele>212.33333333333334</ele><time>2026-03-29T08:25:07Z</time></trkpt><trkpt lat="43.448717556463045" lon="6.283443817865169"><ele>212.16666666666669</ele><time>2026-03-29T08:25:08Z</time></trkpt><trkpt lat="43.44878159747653" lon="6.283494215082288"><ele>212.0</ele><time>2026-03-29T08:25:09Z</time></trkpt><trkpt lat="43.448863036413094" lon="6.28350506959422"><ele>210.83333333333334</ele><time>2026-03-29T08:25:10Z</time></trkpt><trkpt lat="43.44892862071016" lon="6.283545244300765"><ele>209.66666666666669</ele><time>2026-03-29T08:25:11Z</time></trkpt><trkpt lat="43.4489717799738" lon="6.2836106628036905"><ele>208.5</ele><time>2026-03-29T08:25:12Z</time></trkpt><trkpt lat="43.44904561375255" lon="6.283682740890323"><ele>207.33333333333331</ele><time>2026-03-29T08:25:14Z</time></trkpt><trkpt lat="43.44913554191296" lon="6.283663405576938"><ele>206.16666666666666</ele><time>2026-03-29T08:25:16Z</time></trkpt><trkpt lat="43.449211040065585" lon="6.283555828903423"><ele>205.0</ele><time>2026-03-29T08:25:18Z</time></trkpt><trkpt lat="43.44927680654753" lon="6.283540597645859"><ele>204.99999999999997</ele><time>2026-03-29T08:25:19Z</time></trkpt><trkpt lat="43.449351519698986" lon="6.2836068706811385"><ele>205.0</ele><time>2026-03-29T08:25:21Z</time></trkpt><trkpt lat="43.44941804459454" lon="6.2835244228762654"><ele>205.0</ele><time>2026-03-29T08:25:25Z</time></trkpt><trkpt lat="43.449449693088496" lon="6.283435629698041"><ele>205.0</ele><time>2026-03-29T08:25:27Z</time></trkpt><trkpt lat="43.4494604092892" lon="6.28328807119108"><ele>204.99999999999997</ele><time>2026-03-29T08:25:28.999Z</time></trkpt><trkpt lat="43.449461471093635" lon="6.283170057364067"><ele>205.0</ele><time>2026-03-29T08:25:31.999Z</time></trkpt><trkpt lat="43.44952210574791" lon="6.283098899082272"><ele>206.16666666666666</ele><time>2026-03-29T08:25:33.999Z</time></trkpt><trkpt lat="43.449544600393025" lon="6.283012116896557"><ele>207.33333333333331</ele><time>2026-03-29T08:25:35.999Z</time></trkpt><trkpt lat="43.449521058782054" lon="6.282922286103308"><ele>208.5</ele><time>2026-03-29T08:25:37.999Z</time></trkpt><trkpt lat="43.449452732302824" lon="6.282864458890845"><ele>209.66666666666669</ele><time>2026-03-29T08:25:39.999Z</time></trkpt><trkpt lat="43.449396503426996" lon="6.282762427594924"><ele>210.83333333333334</ele><time>2026-03-29T08:25:41.999Z</time></trkpt><trkpt lat="43.4493711745604" lon="6.282604982492621"><ele>212.0</ele><time>2026-03-29T08:25:43.999Z</time></trkpt><trkpt lat="43.44938269338297" lon="6.282515567772274"><ele>212.00000000000003</ele><time>2026-03-29T08:25:44.999Z</time></trkpt><trkpt lat="43.44939691610787" lon="6.282395144295628"><ele>212.0</ele><time>2026-03-29T08:25:45.998Z</time></trkpt><trkpt lat="43.44939106346669" lon="6.282232425643499"><ele>212.0</ele><time>2026-03-29T08:25:47.998Z</time></trkpt><trkpt lat="43.44936665396067" lon="6.282139554900767"><ele>212.0</ele><time>2026-03-29T08:25:48.998Z</time></trkpt><trkpt lat="43.44937504190849" lon="6.282022857466403"><ele>212.00000000000003</ele><time>2026-03-29T08:25:50.998Z</time></trkpt><trkpt lat="43.4494117059716" lon="6.281937138831597"><ele>212.0</ele><time>2026-03-29T08:25:53.998Z</time></trkpt><trkpt lat="43.44939584039804" lon="6.281827260688461"><ele>212.66666666666669</ele><time>2026-03-29T08:25:57.998Z</time></trkpt><trkpt lat="43.44931762122145" lon="6.281760645607266"><ele>213.33333333333334</ele><time>2026-03-29T08:26:00.998Z</time></trkpt><trkpt lat="43.44925921010676" lon="6.281723744561231"><ele>214.0</ele><time>2026-03-29T08:26:02.998Z</time></trkpt><trkpt lat="43.44924330220981" lon="6.2816096470503044"><ele>214.66666666666669</ele><time>2026-03-29T08:26:05.998Z</time></trkpt><trkpt lat="43.44919073455147" lon="6.281515196182924"><ele>215.33333333333334</ele><time>2026-03-29T08:26:08.998Z</time></trkpt><trkpt lat="43.449133927056046" lon="6.281437261737799"><ele>216.0</ele><time>2026-03-29T08:26:10.998Z</time></trkpt><trkpt lat="43.44906420117823" lon="6.281359950848443"><ele>216.66666666666666</ele><time>2026-03-29T08:26:13.998Z</time></trkpt><trkpt lat="43.449015776658385" lon="6.281291925506989"><ele>217.33333333333331</ele><time>2026-03-29T08:26:15.998Z</time></trkpt><trkpt lat="43.448962352778395" lon="6.281203262253323"><ele>218.0</ele><time>2026-03-29T08:26:18.998Z</time></trkpt><trkpt lat="43.4489133530444" lon="6.281090064765191"><ele>218.66666666666666</ele><time>2026-03-29T08:26:21.997Z</time></trkpt><trkpt lat="43.44885287524843" lon="6.281047228942216"><ele>219.33333333333331</ele><time>2026-03-29T08:26:23.997Z</time></trkpt><trkpt lat="43.448808945933" lon="6.280944355732261"><ele>220.0</ele><time>2026-03-29T08:26:25.997Z</time></trkpt><trkpt lat="43.44877174235582" lon="6.28087325681074"><ele>220.0</ele><time>2026-03-29T08:26:28Z</time></trkpt><trkpt lat="43.4487329047973" lon="6.28080190510243"><ele>220.0</ele><time>2026-03-29T08:26:30Z</time></trkpt><trkpt lat="43.44864452344055" lon="6.280835643613157"><ele>220.0</ele><time>2026-03-29T08:26:32Z</time></trkpt><trkpt lat="43.448557881852764" lon="6.280773617198836"><ele>220.0</ele><time>2026-03-29T08:26:34Z</time></trkpt><trkpt lat="43.44847112684566" lon="6.280657897558503"><ele>220.0</ele><time>2026-03-29T08:26:36Z</time></trkpt><trkpt lat="43.44841939241543" lon="6.280583404880944"><ele>220.6</ele><time>2026-03-29T08:26:37Z</time></trkpt><trkpt lat="43.44833467043423" lon="6.2804988799483485"><ele>221.2</ele><time>2026-03-29T08:26:39Z</time></trkpt><trkpt lat="43.44829582420412" lon="6.280427394245222"><ele>221.8</ele><time>2026-03-29T08:26:40Z</time></trkpt><trkpt lat="43.44825661409528" lon="6.280340093981892"><ele>222.4</ele><time>2026-03-29T08:26:41Z</time></trkpt><trkpt lat="43.44820199568614" lon="6.280186645722946"><ele>223.0</ele><time>2026-03-29T08:26:43Z</time></trkpt><trkpt lat="43.44817323862252" lon="6.2800512021764066"><ele>223.0</ele><time>2026-03-29T08:26:44.999Z</time></trkpt><trkpt lat="43.4481462525803" lon="6.27992699051301"><ele>223.0</ele><time>2026-03-29T08:26:46.999Z</time></trkpt><trkpt lat="43.44810215839386" lon="6.279838386637501"><ele>223.0</ele><time>2026-03-29T08:26:48.999Z</time></trkpt><trkpt lat="43.44810052748307" lon="6.279681991406143"><ele>223.0</ele><time>2026-03-29T08:26:50.999Z</time></trkpt><trkpt lat="43.44809166943991" lon="6.2795949918986915"><ele>223.0</ele><time>2026-03-29T08:26:51.999Z</time></trkpt><trkpt lat="43.4480770488601" lon="6.2794555404367385"><ele>224.60000000000002</ele><time>2026-03-29T08:26:53.999Z</time></trkpt><trkpt lat="43.448057574360604" lon="6.27931368253862"><ele>226.20000000000002</ele><time>2026-03-29T08:26:55.999Z</time></trkpt><trkpt lat="43.448046804567454" lon="6.279182233628432"><ele>227.8</ele><time>2026-03-29T08:26:57.999Z</time></trkpt><trkpt lat="43.44804203422333" lon="6.279043811469425"><ele>229.4</ele><time>2026-03-29T08:26:59.999Z</time></trkpt><trkpt lat="43.448025268145486" lon="6.278919250180113"><ele>231.0</ele><time>2026-03-29T08:27:01.999Z</time></trkpt><trkpt lat="43.44798598399934" lon="6.278789000755909"><ele>230.83333333333334</ele><time>2026-03-29T08:27:03.999Z</time></trkpt><trkpt lat="43.447962743629276" lon="6.278707191296401"><ele>230.66666666666669</ele><time>2026-03-29T08:27:04.999Z</time></trkpt><trkpt lat="43.447944401736585" lon="6.278568178300964"><ele>230.5</ele><time>2026-03-29T08:27:06.999Z</time></trkpt><trkpt lat="43.44793723108246" lon="6.278419123453911"><ele>230.33333333333334</ele><time>2026-03-29T08:27:08.999Z</time></trkpt><trkpt lat="43.44792974366271" lon="6.278277356056947"><ele>230.16666666666669</ele><time>2026-03-29T08:27:10.999Z</time></trkpt><trkpt lat="43.4479194539461" lon="6.278186702148413"><ele>230.0</ele><time>2026-03-29T08:27:11.999Z</time></trkpt><trkpt lat="43.44790320511511" lon="6.278071696751781"><ele>230.00000000000003</ele><time>2026-03-29T08:27:13.999Z</time></trkpt><trkpt lat="43.447884152107434" lon="6.277955581986918"><ele>230.0</ele><time>2026-03-29T08:27:15.999Z</time></trkpt><trkpt lat="43.447855970158905" lon="6.277873071729781"><ele>230.0</ele><time>2026-03-29T08:27:17.999Z</time></trkpt><trkpt lat="43.447797309662114" lon="6.277827402338006"><ele>230.0</ele><time>2026-03-29T08:27:19.999Z</time></trkpt><trkpt lat="43.44774772833371" lon="6.2777299925678705"><ele>230.00000000000003</ele><time>2026-03-29T08:27:21.999Z</time></trkpt><trkpt lat="43.4477364469364" lon="6.277613676106167"><ele>230.0</ele><time>2026-03-29T08:27:23.999Z</time></trkpt><trkpt lat="43.44775236211321" lon="6.27750297027773"><ele>230.00000000000003</ele><time>2026-03-29T08:27:26.999Z</time></trkpt><trkpt lat="43.44773915513886" lon="6.277408428800776"><ele>230.0</ele><time>2026-03-29T08:27:29.999Z</time></trkpt><trkpt lat="43.44773255387356" lon="6.2772930724519265"><ele>230.0</ele><time>2026-03-29T08:27:36.999Z</time></trkpt><trkpt lat="43.44769290557562" lon="6.277202354535896"><ele>230.0</ele><time>2026-03-29T08:27:39.998Z</time></trkpt><trkpt lat="43.447597378196406" lon="6.27711970169678"><ele>230.00000000000003</ele><time>2026-03-29T08:27:41.998Z</time></trkpt><trkpt lat="43.44752494589091" lon="6.277036275892251"><ele>230.0</ele><time>2026-03-29T08:27:43.998Z</time></trkpt><trkpt lat="43.44744551627957" lon="6.276934650652247"><ele>230.2</ele><time>2026-03-29T08:27:45.998Z</time></trkpt><trkpt lat="43.44737947840609" lon="6.276873942596565"><ele>230.4</ele><time>2026-03-29T08:27:47.998Z</time></trkpt><trkpt lat="43.447300337300405" lon="6.276836711432567"><ele>230.60000000000002</ele><time>2026-03-29T08:27:49.998Z</time></trkpt><trkpt lat="43.44720300829769" lon="6.27685181927502"><ele>230.8</ele><time>2026-03-29T08:27:51.998Z</time></trkpt><trkpt lat="43.447108284105404" lon="6.276881818411571"><ele>231.0</ele><time>2026-03-29T08:27:53.998Z</time></trkpt><trkpt lat="43.44701775694051" lon="6.276845621392112"><ele>231.4</ele><time>2026-03-29T08:27:55.998Z</time></trkpt><trkpt lat="43.44695072792175" lon="6.276685537486489"><ele>231.8</ele><time>2026-03-29T08:27:57.998Z</time></trkpt><trkpt lat="43.44691833835795" lon="6.276532075485649"><ele>232.20000000000002</ele><time>2026-03-29T08:27:59.998Z</time></trkpt><trkpt lat="43.44691904298813" lon="6.2763906324312595"><ele>232.60000000000002</ele><time>2026-03-29T08:28:01.998Z</time></trkpt><trkpt lat="43.44686851095662" lon="6.276278747821465"><ele>233.0</ele><time>2026-03-29T08:28:03.998Z</time></trkpt><trkpt lat="43.44677428353074" lon="6.276204442860794"><ele>233.00000000000003</ele><time>2026-03-29T08:28:05.998Z</time></trkpt><trkpt lat="43.44671172781024" lon="6.276109162334552"><ele>233.0</ele><time>2026-03-29T08:28:07.998Z</time></trkpt><trkpt lat="43.446660577396614" lon="6.2759772784738175"><ele>233.0</ele><time>2026-03-29T08:28:09.998Z</time></trkpt><trkpt lat="43.446616254588065" lon="6.275901854973857"><ele>233.0</ele><time>2026-03-29T08:28:10.998Z</time></trkpt><trkpt lat="43.446598826866584" lon="6.275807917540895"><ele>233.00000000000003</ele><time>2026-03-29T08:28:11.998Z</time></trkpt><trkpt lat="43.44656320120453" lon="6.275700649760635"><ele>233.0</ele><time>2026-03-29T08:28:12.998Z</time></trkpt><trkpt lat="43.446511443211065" lon="6.275606754505336"><ele>234.00000000000003</ele><time>2026-03-29T08:28:13.998Z</time></trkpt><trkpt lat="43.44646744774315" lon="6.275521404084235"><ele>235.0</ele><time>2026-03-29T08:28:14.998Z</time></trkpt><trkpt lat="43.44642050825582" lon="6.275422386232023"><ele>236.0</ele><time>2026-03-29T08:28:15.998Z</time></trkpt><trkpt lat="43.44636614341869" lon="6.275320085235426"><ele>237.0</ele><time>2026-03-29T08:28:16.998Z</time></trkpt><trkpt lat="43.44631680657422" lon="6.275221844590345"><ele>238.00000000000003</ele><time>2026-03-29T08:28:17.998Z</time></trkpt><trkpt lat="43.446268786979225" lon="6.275139011450247"><ele>239.0</ele><time>2026-03-29T08:28:18.998Z</time></trkpt><trkpt lat="43.446232126671504" lon="6.274981709044395"><ele>241.00000000000003</ele><time>2026-03-29T08:28:20.998Z</time></trkpt><trkpt lat="43.446228039677095" lon="6.274866539428692"><ele>243.0</ele><time>2026-03-29T08:28:21.998Z</time></trkpt><trkpt lat="43.44620208899121" lon="6.274774217973736"><ele>245.0</ele><time>2026-03-29T08:28:23.998Z</time></trkpt><trkpt lat="43.446100315285676" lon="6.274687073514198"><ele>247.0</ele><time>2026-03-29T08:28:25.998Z</time></trkpt><trkpt lat="43.44606626741546" lon="6.274612516128436"><ele>249.00000000000003</ele><time>2026-03-29T08:28:26.998Z</time></trkpt><trkpt lat="43.44603662838901" lon="6.274520993295206"><ele>251.0</ele><time>2026-03-29T08:28:27.998Z</time></trkpt><trkpt lat="43.44598990523462" lon="6.274422577327904"><ele>251.66666666666669</ele><time>2026-03-29T08:28:28.998Z</time></trkpt><trkpt lat="43.44599426870503" lon="6.274311438369749"><ele>252.33333333333334</ele><time>2026-03-29T08:28:29.998Z</time></trkpt><trkpt lat="43.446000987146235" lon="6.274209751327944"><ele>253.0</ele><time>2026-03-29T08:28:30.997Z</time></trkpt><trkpt lat="43.445979982533714" lon="6.274119773325897"><ele>253.66666666666669</ele><time>2026-03-29T08:28:31.997Z</time></trkpt><trkpt lat="43.445958688266" lon="6.274002436983744"><ele>254.33333333333334</ele><time>2026-03-29T08:28:34Z</time></trkpt><trkpt lat="43.44589316953799" lon="6.273958829495014"><ele>255.0</ele><time>2026-03-29T08:28:36Z</time></trkpt><trkpt lat="43.4458315159819" lon="6.273874951569572"><ele>256.0</ele><time>2026-03-29T08:28:38Z</time></trkpt><trkpt lat="43.4457605922894" lon="6.273834600024979"><ele>257.0</ele><time>2026-03-29T08:28:39Z</time></trkpt><trkpt lat="43.44569022037826" lon="6.2737748661222055"><ele>258.0</ele><time>2026-03-29T08:28:40Z</time></trkpt><trkpt lat="43.44565173433235" lon="6.273698764361656"><ele>259.0</ele><time>2026-03-29T08:28:41Z</time></trkpt><trkpt lat="43.44560063785736" lon="6.273589242745809"><ele>260.0</ele><time>2026-03-29T08:28:43Z</time></trkpt><trkpt lat="43.44553999730211" lon="6.273479311862912"><ele>261.0</ele><time>2026-03-29T08:28:47Z</time></trkpt><trkpt lat="43.44556339587109" lon="6.273367370912754"><ele>261.0</ele><time>2026-03-29T08:28:49Z</time></trkpt><trkpt lat="43.44559257104689" lon="6.273257433752506"><ele>261.0</ele><time>2026-03-29T08:28:51Z</time></trkpt><trkpt lat="43.44559609362875" lon="6.273162400984632"><ele>261.0</ele><time>2026-03-29T08:28:53Z</time></trkpt><trkpt lat="43.44553497762087" lon="6.273048870927612"><ele>261.0</ele><time>2026-03-29T08:28:55Z</time></trkpt><trkpt lat="43.445481057352744" lon="6.273003910230986"><ele>261.0</ele><time>2026-03-29T08:28:56Z</time></trkpt><trkpt lat="43.44544674746335" lon="6.27291206720819"><ele>261.0</ele><time>2026-03-29T08:28:57.999Z</time></trkpt><trkpt lat="43.44551904441278" lon="6.272803771625786"><ele>261.6666666666667</ele><time>2026-03-29T08:28:59.999Z</time></trkpt><trkpt lat="43.445512823634786" lon="6.27270835124528"><ele>262.3333333333333</ele><time>2026-03-29T08:29:00.999Z</time></trkpt><trkpt lat="43.4455430189007" lon="6.272567586372198"><ele>263.0</ele><time>2026-03-29T08:29:02.999Z</time></trkpt><trkpt lat="43.445573680681235" lon="6.2724638015082705"><ele>263.66666666666663</ele><time>2026-03-29T08:29:03.999Z</time></trkpt><trkpt lat="43.445581929739475" lon="6.272327509061601"><ele>264.3333333333333</ele><time>2026-03-29T08:29:04.999Z</time></trkpt><trkpt lat="43.445609806370896" lon="6.272211894447423"><ele>265.0</ele><time>2026-03-29T08:29:05.999Z</time></trkpt><trkpt lat="43.4456509470742" lon="6.272125450012152"><ele>265.57142857142856</ele><time>2026-03-29T08:29:06.999Z</time></trkpt><trkpt lat="43.4456903683276" lon="6.272044526947392"><ele>266.1428571428571</ele><time>2026-03-29T08:29:07.999Z</time></trkpt><trkpt lat="43.44571593715479" lon="6.271963842761729"><ele>266.7142857142857</ele><time>2026-03-29T08:29:08.999Z</time></trkpt><trkpt lat="43.44573070058853" lon="6.2718666877863125"><ele>267.2857142857143</ele><time>2026-03-29T08:29:09.999Z</time></trkpt><trkpt lat="43.44574100915216" lon="6.271771395184756"><ele>267.8571428571429</ele><time>2026-03-29T08:29:10.999Z</time></trkpt><trkpt lat="43.44575523030996" lon="6.271686087312086"><ele>268.42857142857144</ele><time>2026-03-29T08:29:11.999Z</time></trkpt><trkpt lat="43.445831429544086" lon="6.271612476793534"><ele>269.0</ele><time>2026-03-29T08:29:13.999Z</time></trkpt><trkpt lat="43.445899510851284" lon="6.271584770554047"><ele>269.0</ele><time>2026-03-29T08:29:14.999Z</time></trkpt><trkpt lat="43.4459656923506" lon="6.271590653718152"><ele>269.0</ele><time>2026-03-29T08:29:15.999Z</time></trkpt><trkpt lat="43.44603094546521" lon="6.271623625249927"><ele>269.0</ele><time>2026-03-29T08:29:16.999Z</time></trkpt><trkpt lat="43.446139794358416" lon="6.271703286091277"><ele>269.0</ele><time>2026-03-29T08:29:18.999Z</time></trkpt><trkpt lat="43.44620631519834" lon="6.271722495504922"><ele>269.0</ele><time>2026-03-29T08:29:19.999Z</time></trkpt><trkpt lat="43.44628080758735" lon="6.271689128137834"><ele>269.0</ele><time>2026-03-29T08:29:20.999Z</time></trkpt><trkpt lat="43.446359393801245" lon="6.2716619806564164"><ele>269.0</ele><time>2026-03-29T08:29:21.999Z</time></trkpt><trkpt lat="43.446443157655274" lon="6.27166141181198"><ele>269.0</ele><time>2026-03-29T08:29:22.999Z</time></trkpt><trkpt lat="43.446542439300465" lon="6.271640743158304"><ele>269.0</ele><time>2026-03-29T08:29:23.999Z</time></trkpt><trkpt lat="43.44663442576099" lon="6.271606910207793"><ele>269.0</ele><time>2026-03-29T08:29:24.999Z</time></trkpt><trkpt lat="43.44672029202629" lon="6.271575289795208"><ele>269.0</ele><time>2026-03-29T08:29:25.999Z</time></trkpt><trkpt lat="43.44680959094612" lon="6.271568555938962"><ele>269.0</ele><time>2026-03-29T08:29:26.999Z</time></trkpt><trkpt lat="43.446902876018235" lon="6.271579656931716"><ele>269.0</ele><time>2026-03-29T08:29:27.999Z</time></trkpt><trkpt lat="43.44697543519076" lon="6.271566668407694"><ele>269.0</ele><time>2026-03-29T08:29:28.999Z</time></trkpt><trkpt lat="43.447048946212846" lon="6.27152352194428"><ele>269.0</ele><time>2026-03-29T08:29:29.999Z</time></trkpt><trkpt lat="43.44711174502372" lon="6.271479784043307"><ele>269.0</ele><time>2026-03-29T08:29:30.999Z</time></trkpt><trkpt lat="43.44720291566262" lon="6.271420906008281"><ele>269.0</ele><time>2026-03-29T08:29:32.999Z</time></trkpt><trkpt lat="43.44724135137682" lon="6.271346572942321"><ele>270.59999999999997</ele><time>2026-03-29T08:29:33.999Z</time></trkpt><trkpt lat="43.44724090626754" lon="6.271226367240652"><ele>272.2</ele><time>2026-03-29T08:29:34.999Z</time></trkpt><trkpt lat="43.44723336444575" lon="6.2710721260410995"><ele>273.79999999999995</ele><time>2026-03-29T08:29:35.999Z</time></trkpt><trkpt lat="43.447230799006796" lon="6.270913282369691"><ele>275.4</ele><time>2026-03-29T08:29:36.999Z</time></trkpt><trkpt lat="43.44723336280134" lon="6.270753683089391"><ele>277.0</ele><time>2026-03-29T08:29:37.999Z</time></trkpt><trkpt lat="43.44724356233455" lon="6.270611028191648"><ele>278.0</ele><time>2026-03-29T08:29:38.999Z</time></trkpt><trkpt lat="43.44724820396787" lon="6.270502851865556"><ele>279.0</ele><time>2026-03-29T08:29:39.999Z</time></trkpt><trkpt lat="43.44724781959693" lon="6.270406207560338"><ele>280.0</ele><time>2026-03-29T08:29:40.999Z</time></trkpt><trkpt lat="43.44724192914307" lon="6.270286235953935"><ele>281.0</ele><time>2026-03-29T08:29:42.999Z</time></trkpt><trkpt lat="43.447187084757516" lon="6.2702169268390255"><ele>282.0</ele><time>2026-03-29T08:29:45.999Z</time></trkpt><trkpt lat="43.447128771872" lon="6.270147582305738"><ele>283.0</ele><time>2026-03-29T08:29:47.999Z</time></trkpt><trkpt lat="43.44705407770702" lon="6.270066820960353"><ele>284.66666666666663</ele><time>2026-03-29T08:29:50.998Z</time></trkpt><trkpt lat="43.446987145718865" lon="6.270067587881443"><ele>286.3333333333333</ele><time>2026-03-29T08:29:53.998Z</time></trkpt><trkpt lat="43.446928778095554" lon="6.2700104326925565"><ele>288.0</ele><time>2026-03-29T08:29:55.998Z</time></trkpt><trkpt lat="43.446854042078265" lon="6.269937905289364"><ele>289.6666666666667</ele><time>2026-03-29T08:29:57.998Z</time></trkpt><trkpt lat="43.44681479167159" lon="6.269823304091695"><ele>291.33333333333337</ele><time>2026-03-29T08:29:59.998Z</time></trkpt><trkpt lat="43.44679157134932" lon="6.269701527090763"><ele>293.0</ele><time>2026-03-29T08:30:01.998Z</time></trkpt><trkpt lat="43.446742540558255" lon="6.269591034716187"><ele>293.6</ele><time>2026-03-29T08:30:03.998Z</time></trkpt><trkpt lat="43.44669761962577" lon="6.26942560317233"><ele>294.20000000000005</ele><time>2026-03-29T08:30:05.998Z</time></trkpt><trkpt lat="43.44671580184019" lon="6.269254575325518"><ele>294.8</ele><time>2026-03-29T08:30:07.998Z</time></trkpt><trkpt lat="43.446675511067355" lon="6.269113004653809"><ele>295.40000000000003</ele><time>2026-03-29T08:30:09.998Z</time></trkpt><trkpt lat="43.446639362870805" lon="6.269021440840193"><ele>296.0</ele><time>2026-03-29T08:30:10.998Z</time></trkpt><trkpt lat="43.44664607843008" lon="6.268881302803886"><ele>296.5</ele><time>2026-03-29T08:30:12.998Z</time></trkpt><trkpt lat="43.446635819058095" lon="6.268771050205722"><ele>297.0</ele><time>2026-03-29T08:30:15.998Z</time></trkpt><trkpt lat="43.44666922669174" lon="6.2686102470366905"><ele>297.5</ele><time>2026-03-29T08:30:17.998Z</time></trkpt><trkpt lat="43.44668518796717" lon="6.268503118665866"><ele>298.0</ele><time>2026-03-29T08:30:19.998Z</time></trkpt><trkpt lat="43.44667518252047" lon="6.268385318583458"><ele>298.5</ele><time>2026-03-29T08:30:22.998Z</time></trkpt><trkpt lat="43.44662675102679" lon="6.268326531813242"><ele>299.0</ele><time>2026-03-29T08:30:24.998Z</time></trkpt><trkpt lat="43.446629256722204" lon="6.268239588018607"><ele>299.0</ele><time>2026-03-29T08:30:25.998Z</time></trkpt><trkpt lat="43.44665503470258" lon="6.268127852081727"><ele>299.0</ele><time>2026-03-29T08:30:26.998Z</time></trkpt><trkpt lat="43.44675173397898" lon="6.2680854252367375"><ele>299.0</ele><time>2026-03-29T08:30:28.998Z</time></trkpt><trkpt lat="43.446827197032476" lon="6.268108262389059"><ele>299.0</ele><time>2026-03-29T08:30:30.998Z</time></trkpt><trkpt lat="43.44687720062305" lon="6.268054115888244"><ele>299.0</ele><time>2026-03-29T08:30:33.998Z</time></trkpt><trkpt lat="43.446868939231415" lon="6.267954266486284"><ele>299.0</ele><time>2026-03-29T08:30:35.998Z</time></trkpt><trkpt lat="43.446920529756945" lon="6.267810010143299"><ele>300.1666666666667</ele><time>2026-03-29T08:30:37.998Z</time></trkpt><trkpt lat="43.44693923537049" lon="6.267711069692629"><ele>301.33333333333337</ele><time>2026-03-29T08:30:38.997Z</time></trkpt><trkpt lat="43.44694263495499" lon="6.2675994925794445"><ele>302.5</ele><time>2026-03-29T08:30:40Z</time></trkpt><trkpt lat="43.446930882787896" lon="6.267500886507897"><ele>303.6666666666667</ele><time>2026-03-29T08:30:41Z</time></trkpt><trkpt lat="43.44691440003099" lon="6.267395326713696"><ele>304.8333333333333</ele><time>2026-03-29T08:30:42Z</time></trkpt><trkpt lat="43.44688628187425" lon="6.267286328236559"><ele>306.0</ele><time>2026-03-29T08:30:43Z</time></trkpt><trkpt lat="43.446844975491935" lon="6.267144549190017"><ele>307.1666666666667</ele><time>2026-03-29T08:30:45Z</time></trkpt><trkpt lat="43.44679856785284" lon="6.2670757636464405"><ele>308.3333333333333</ele><time>2026-03-29T08:30:46Z</time></trkpt><trkpt lat="43.44679062299699" lon="6.266979242769394"><ele>309.5</ele><time>2026-03-29T08:30:47Z</time></trkpt><trkpt lat="43.44679450707264" lon="6.266861527809207"><ele>310.66666666666663</ele><time>2026-03-29T08:30:48Z</time></trkpt><trkpt lat="43.446796879528485" lon="6.266760229002004"><ele>311.8333333333333</ele><time>2026-03-29T08:30:49Z</time></trkpt><trkpt lat="43.446803304761644" lon="6.266554979883444"><ele>313.0</ele><time>2026-03-29T08:30:51Z</time></trkpt><trkpt lat="43.446807456610784" lon="6.266417152674818"><ele>313.3333333333333</ele><time>2026-03-29T08:30:52Z</time></trkpt><trkpt lat="43.4468035162812" lon="6.266287072834815"><ele>313.66666666666663</ele><time>2026-03-29T08:30:53Z</time></trkpt><trkpt lat="43.44680240241703" lon="6.266178427686917"><ele>314.0</ele><time>2026-03-29T08:30:54Z</time></trkpt><trkpt lat="43.44680896486076" lon="6.26608876964667"><ele>314.3333333333333</ele><time>2026-03-29T08:30:55Z</time></trkpt><trkpt lat="43.44682998744128" lon="6.265993035888505"><ele>314.6666666666667</ele><time>2026-03-29T08:30:56Z</time></trkpt><trkpt lat="43.44683466946202" lon="6.265888972594752"><ele>315.0</ele><time>2026-03-29T08:30:57Z</time></trkpt><trkpt lat="43.44683746572253" lon="6.265745873949308"><ele>315.0</ele><time>2026-03-29T08:30:59Z</time></trkpt><trkpt lat="43.44677143781124" lon="6.265644912659642"><ele>315.0</ele><time>2026-03-29T08:31:01Z</time></trkpt><trkpt lat="43.44673439386752" lon="6.265510604027775"><ele>315.0</ele><time>2026-03-29T08:31:03Z</time></trkpt><trkpt lat="43.44667970425627" lon="6.265450304115302"><ele>315.0</ele><time>2026-03-29T08:31:04Z</time></trkpt><trkpt lat="43.44663152536599" lon="6.265355808326997"><ele>315.0</ele><time>2026-03-29T08:31:04.999Z</time></trkpt><trkpt lat="43.44660924947273" lon="6.265236611824679"><ele>315.0</ele><time>2026-03-29T08:31:05.999Z</time></trkpt><trkpt lat="43.446604055810376" lon="6.265125680180131"><ele>315.4</ele><time>2026-03-29T08:31:06.999Z</time></trkpt><trkpt lat="43.446609623681525" lon="6.26503036780449"><ele>315.8</ele><time>2026-03-29T08:31:07.999Z</time></trkpt><trkpt lat="43.446532673167575" lon="6.264902128609464"><ele>316.2</ele><time>2026-03-29T08:31:09.999Z</time></trkpt><trkpt lat="43.446444121392126" lon="6.264821155209308"><ele>316.6</ele><time>2026-03-29T08:31:10.999Z</time></trkpt><trkpt lat="43.44635441945886" lon="6.264731762682611"><ele>317.0</ele><time>2026-03-29T08:31:11.999Z</time></trkpt><trkpt lat="43.44628079368985" lon="6.264657856440246"><ele>319.4</ele><time>2026-03-29T08:31:12.999Z</time></trkpt><trkpt lat="43.44621217802217" lon="6.264626687587084"><ele>321.79999999999995</ele><time>2026-03-29T08:31:13.999Z</time></trkpt><trkpt lat="43.44617362545459" lon="6.2645116530851865"><ele>324.2</ele><time>2026-03-29T08:31:15.999Z</time></trkpt><trkpt lat="43.44627125327778" lon="6.2644301466169505"><ele>326.59999999999997</ele><time>2026-03-29T08:31:17.999Z</time></trkpt><trkpt lat="43.44640439920529" lon="6.264413642892662"><ele>329.0</ele><time>2026-03-29T08:31:19.999Z</time></trkpt><trkpt lat="43.44649849021594" lon="6.264396346527248"><ele>329.0</ele><time>2026-03-29T08:31:20.999Z</time></trkpt><trkpt lat="43.44658974838149" lon="6.2643915139265465"><ele>329.0</ele><time>2026-03-29T08:31:21.999Z</time></trkpt><trkpt lat="43.44667525614224" lon="6.264398359460875"><ele>329.0</ele><time>2026-03-29T08:31:22.999Z</time></trkpt><trkpt lat="43.4467463611147" lon="6.264390150406147"><ele>329.0</ele><time>2026-03-29T08:31:23.999Z</time></trkpt><trkpt lat="43.446811400954616" lon="6.2643623248462434"><ele>329.0</ele><time>2026-03-29T08:31:24.999Z</time></trkpt><trkpt lat="43.44688764606548" lon="6.264328868687043"><ele>329.0</ele><time>2026-03-29T08:31:25.999Z</time></trkpt><trkpt lat="43.44695388949427" lon="6.264300775740315"><ele>329.0</ele><time>2026-03-29T08:31:26.999Z</time></trkpt><trkpt lat="43.44701872894961" lon="6.264259732426009"><ele>329.0</ele><time>2026-03-29T08:31:27.999Z</time></trkpt><trkpt lat="43.447093589755184" lon="6.264243307299035"><ele>329.0</ele><time>2026-03-29T08:31:28.999Z</time></trkpt><trkpt lat="43.44720669888078" lon="6.264308929164662"><ele>329.0</ele><time>2026-03-29T08:31:30.999Z</time></trkpt><trkpt lat="43.447298789942735" lon="6.264370720247151"><ele>329.0</ele><time>2026-03-29T08:31:32.999Z</time></trkpt><trkpt lat="43.447382058974874" lon="6.264364170627569"><ele>329.6666666666667</ele><time>2026-03-29T08:31:33.999Z</time></trkpt><trkpt lat="43.447470163608585" lon="6.264387212247898"><ele>330.33333333333337</ele><time>2026-03-29T08:31:34.999Z</time></trkpt><trkpt lat="43.44754309226271" lon="6.264440297409234"><ele>331.0</ele><time>2026-03-29T08:31:35.999Z</time></trkpt><trkpt lat="43.44760774616294" lon="6.264480548151833"><ele>331.6666666666667</ele><time>2026-03-29T08:31:36.999Z</time></trkpt><trkpt lat="43.44767131460953" lon="6.264492541245538"><ele>332.3333333333333</ele><time>2026-03-29T08:31:37.999Z</time></trkpt><trkpt lat="43.44777089236071" lon="6.264514988483866"><ele>333.0</ele><time>2026-03-29T08:31:39.999Z</time></trkpt><trkpt lat="43.447867832206" lon="6.264612467761871"><ele>333.0</ele><time>2026-03-29T08:31:41.999Z</time></trkpt><trkpt lat="43.44792553343135" lon="6.264719106694769"><ele>333.0</ele><time>2026-03-29T08:31:42.999Z</time></trkpt><trkpt lat="43.448005907870666" lon="6.264826306284766"><ele>333.0</ele><time>2026-03-29T08:31:43.999Z</time></trkpt><trkpt lat="43.448086970907156" lon="6.264958076791224"><ele>333.0</ele><time>2026-03-29T08:31:44.999Z</time></trkpt><trkpt lat="43.44815900418512" lon="6.265086773098342"><ele>333.3333333333333</ele><time>2026-03-29T08:31:45.999Z</time></trkpt><trkpt lat="43.44822286241512" lon="6.265221076652783"><ele>333.6666666666667</ele><time>2026-03-29T08:31:46.999Z</time></trkpt><trkpt lat="43.4482703961123" lon="6.265334478796668"><ele>334.0</ele><time>2026-03-29T08:31:47.999Z</time></trkpt><trkpt lat="43.44830698436224" lon="6.265438811467456"><ele>334.33333333333337</ele><time>2026-03-29T08:31:48.999Z</time></trkpt><trkpt lat="43.448339546730345" lon="6.265516356519755"><ele>334.6666666666667</ele><time>2026-03-29T08:31:49.999Z</time></trkpt><trkpt lat="43.448419019428805" lon="6.26552603002488"><ele>335.0</ele><time>2026-03-29T08:31:51.999Z</time></trkpt><trkpt lat="43.44844290161076" lon="6.2654234701182565"><ele>335.0</ele><time>2026-03-29T08:31:53.999Z</time></trkpt><trkpt lat="43.4484501255731" lon="6.265330638105639"><ele>335.0</ele><time>2026-03-29T08:31:54.999Z</time></trkpt><trkpt lat="43.44847106043328" lon="6.265233384182467"><ele>335.0</ele><time>2026-03-29T08:31:55.998Z</time></trkpt><trkpt lat="43.4484968059025" lon="6.26512572137654"><ele>335.0</ele><time>2026-03-29T08:31:56.998Z</time></trkpt><trkpt lat="43.44852821818047" lon="6.26498921734406"><ele>335.0</ele><time>2026-03-29T08:31:57.998Z</time></trkpt><trkpt lat="43.44855479055118" lon="6.264818946647003"><ele>334.1666666666667</ele><time>2026-03-29T08:31:58.998Z</time></trkpt><trkpt lat="43.44857826210866" lon="6.26468942747194"><ele>333.33333333333337</ele><time>2026-03-29T08:31:59.998Z</time></trkpt><trkpt lat="43.44859144472659" lon="6.2645731598522625"><ele>332.5</ele><time>2026-03-29T08:32:00.998Z</time></trkpt><trkpt lat="43.44860586433254" lon="6.264458347838076"><ele>331.6666666666667</ele><time>2026-03-29T08:32:01.998Z</time></trkpt><trkpt lat="43.44863218702791" lon="6.2643507235495575"><ele>330.8333333333333</ele><time>2026-03-29T08:32:02.998Z</time></trkpt><trkpt lat="43.44866717678053" lon="6.2642588956707055"><ele>330.0</ele><time>2026-03-29T08:32:03.998Z</time></trkpt><trkpt lat="43.44870232609726" lon="6.264161649842287"><ele>330.0</ele><time>2026-03-29T08:32:04.998Z</time></trkpt><trkpt lat="43.44874790353688" lon="6.264056945098106"><ele>330.0</ele><time>2026-03-29T08:32:05.998Z</time></trkpt><trkpt lat="43.448787542587205" lon="6.263968830023346"><ele>330.0</ele><time>2026-03-29T08:32:06.998Z</time></trkpt><trkpt lat="43.44882190713878" lon="6.263855335393019"><ele>330.0</ele><time>2026-03-29T08:32:07.998Z</time></trkpt><trkpt lat="43.448855384413065" lon="6.263744137153164"><ele>330.0</ele><time>2026-03-29T08:32:08.998Z</time></trkpt><trkpt lat="43.44889172355728" lon="6.263648223574929"><ele>330.0</ele><time>2026-03-29T08:32:09.998Z</time></trkpt><trkpt lat="43.448916479963756" lon="6.263552625978381"><ele>329.2</ele><time>2026-03-29T08:32:10.998Z</time></trkpt><trkpt lat="43.448961359268694" lon="6.263434274502148"><ele>328.4</ele><time>2026-03-29T08:32:11.998Z</time></trkpt><trkpt lat="43.449010571926586" lon="6.263317193406667"><ele>327.6</ele><time>2026-03-29T08:32:12.998Z</time></trkpt><trkpt lat="43.449060036327936" lon="6.2632000988569025"><ele>326.8</ele><time>2026-03-29T08:32:13.998Z</time></trkpt><trkpt lat="43.449107051183645" lon="6.263085597543183"><ele>326.0</ele><time>2026-03-29T08:32:14.998Z</time></trkpt><trkpt lat="43.44915078665351" lon="6.2629746051729285"><ele>324.1666666666667</ele><time>2026-03-29T08:32:15.998Z</time></trkpt><trkpt lat="43.449198462320176" lon="6.262876147152616"><ele>322.33333333333337</ele><time>2026-03-29T08:32:16.998Z</time></trkpt><trkpt lat="43.44924109141641" lon="6.262768014112622"><ele>320.5</ele><time>2026-03-29T08:32:17.998Z</time></trkpt><trkpt lat="43.449286897610264" lon="6.262646084094893"><ele>318.6666666666667</ele><time>2026-03-29T08:32:18.998Z</time></trkpt><trkpt lat="43.44932345862867" lon="6.262546267768082"><ele>316.8333333333333</ele><time>2026-03-29T08:32:19.998Z</time></trkpt><trkpt lat="43.44935358391281" lon="6.262449367506704"><ele>315.0</ele><time>2026-03-29T08:32:20.998Z</time></trkpt><trkpt lat="43.44938842654811" lon="6.262350288660757"><ele>314.8</ele><time>2026-03-29T08:32:21.998Z</time></trkpt><trkpt lat="43.449431420522615" lon="6.262239090107729"><ele>314.6</ele><time>2026-03-29T08:32:22.998Z</time></trkpt><trkpt lat="43.4494725554806" lon="6.262125082906909"><ele>314.4</ele><time>2026-03-29T08:32:23.998Z</time></trkpt><trkpt lat="43.44951053101862" lon="6.262009022499102"><ele>314.2</ele><time>2026-03-29T08:32:24.998Z</time></trkpt><trkpt lat="43.44954541264637" lon="6.261917594497723"><ele>314.0</ele><time>2026-03-29T08:32:25.998Z</time></trkpt><trkpt lat="43.44959823298054" lon="6.261775853578974"><ele>314.0</ele><time>2026-03-29T08:32:27.998Z</time></trkpt><trkpt lat="43.449647755536894" lon="6.261581098329184"><ele>314.0</ele><time>2026-03-29T08:32:29.998Z</time></trkpt><trkpt lat="43.44966452382325" lon="6.261439609758309"><ele>314.0</ele><time>2026-03-29T08:32:30.998Z</time></trkpt><trkpt lat="43.44971555422415" lon="6.261310197066697"><ele>314.0</ele><time>2026-03-29T08:32:31.998Z</time></trkpt><trkpt lat="43.44975083655937" lon="6.261190348360672"><ele>312.59999999999997</ele><time>2026-03-29T08:32:32.998Z</time></trkpt><trkpt lat="43.44977846651635" lon="6.261104483559079"><ele>311.2</ele><time>2026-03-29T08:32:33.998Z</time></trkpt><trkpt lat="43.44982457966807" lon="6.260955856037173"><ele>309.79999999999995</ele><time>2026-03-29T08:32:35.998Z</time></trkpt><trkpt lat="43.44985798538017" lon="6.260823494980594"><ele>308.4</ele><time>2026-03-29T08:32:37.998Z</time></trkpt><trkpt lat="43.44991571087843" lon="6.260692070107352"><ele>307.0</ele><time>2026-03-29T08:32:39.998Z</time></trkpt><trkpt lat="43.44997007087005" lon="6.26059992298617"><ele>307.0</ele><time>2026-03-29T08:32:40.998Z</time></trkpt><trkpt lat="43.450004417153686" lon="6.26049800735832"><ele>307.0</ele><time>2026-03-29T08:32:41.998Z</time></trkpt><trkpt lat="43.45001877080212" lon="6.260375265613167"><ele>307.0</ele><time>2026-03-29T08:32:42.998Z</time></trkpt><trkpt lat="43.450015407096224" lon="6.260276897967828"><ele>307.0</ele><time>2026-03-29T08:32:43.998Z</time></trkpt><trkpt lat="43.44999526540705" lon="6.260183806585547"><ele>307.0</ele><time>2026-03-29T08:32:44.998Z</time></trkpt><trkpt lat="43.4499547465699" lon="6.2601111309536055"><ele>307.0</ele><time>2026-03-29T08:32:46Z</time></trkpt><trkpt lat="43.44990033023346" lon="6.259976944864587"><ele>306.99999999999994</ele><time>2026-03-29T08:32:48Z</time></trkpt><trkpt lat="43.449883662947414" lon="6.259892019476446"><ele>307.0</ele><time>2026-03-29T08:32:49Z</time></trkpt><trkpt lat="43.449881865562304" lon="6.259797255667257"><ele>307.0</ele><time>2026-03-29T08:32:50Z</time></trkpt><trkpt lat="43.449909655882614" lon="6.259699613345803"><ele>307.0</ele><time>2026-03-29T08:32:51Z</time></trkpt><trkpt lat="43.44994502980699" lon="6.259591600910528"><ele>307.0</ele><time>2026-03-29T08:32:52Z</time></trkpt><trkpt lat="43.45000419158265" lon="6.259501120628161"><ele>306.99999999999994</ele><time>2026-03-29T08:32:53Z</time></trkpt><trkpt lat="43.45005192919121" lon="6.259438211815872"><ele>307.0</ele><time>2026-03-29T08:32:54Z</time></trkpt><trkpt lat="43.45008029337386" lon="6.259329731771632"><ele>307.66666666666663</ele><time>2026-03-29T08:32:55Z</time></trkpt><trkpt lat="43.450088190511835" lon="6.259223724110276"><ele>308.3333333333333</ele><time>2026-03-29T08:32:56Z</time></trkpt><trkpt lat="43.450109358033956" lon="6.259110939212539"><ele>309.0</ele><time>2026-03-29T08:32:57Z</time></trkpt><trkpt lat="43.45013496349304" lon="6.259010361230089"><ele>309.6666666666667</ele><time>2026-03-29T08:32:58Z</time></trkpt><trkpt lat="43.450169101016606" lon="6.258905297089028"><ele>310.33333333333337</ele><time>2026-03-29T08:32:59Z</time></trkpt><trkpt lat="43.4502148279282" lon="6.2587919304053035"><ele>311.0</ele><time>2026-03-29T08:33:00Z</time></trkpt><trkpt lat="43.45026099294959" lon="6.258669128217437"><ele>312.0</ele><time>2026-03-29T08:33:01Z</time></trkpt><trkpt lat="43.45030404207134" lon="6.2585271927269694"><ele>313.0</ele><time>2026-03-29T08:33:02Z</time></trkpt><trkpt lat="43.450333614384604" lon="6.258403100143009"><ele>314.0</ele><time>2026-03-29T08:33:03Z</time></trkpt><trkpt lat="43.450363181260144" lon="6.258280634624231"><ele>315.0</ele><time>2026-03-29T08:33:04Z</time></trkpt><trkpt lat="43.45039702371628" lon="6.2581505728728954"><ele>316.0</ele><time>2026-03-29T08:33:05Z</time></trkpt><trkpt lat="43.45041676580739" lon="6.258001047581445"><ele>315.0</ele><time>2026-03-29T08:33:06Z</time></trkpt><trkpt lat="43.45045029630251" lon="6.257852544758197"><ele>314.0</ele><time>2026-03-29T08:33:07Z</time></trkpt><trkpt lat="43.45047759507332" lon="6.25769569286118"><ele>313.0</ele><time>2026-03-29T08:33:08Z</time></trkpt><trkpt lat="43.45049986794992" lon="6.257562899243554"><ele>312.0</ele><time>2026-03-29T08:33:09Z</time></trkpt><trkpt lat="43.45055293376618" lon="6.257417546796367"><ele>311.0</ele><time>2026-03-29T08:33:10Z</time></trkpt><trkpt lat="43.45060502557213" lon="6.257262950465343"><ele>311.0</ele><time>2026-03-29T08:33:10.999Z</time></trkpt><trkpt lat="43.45064950174931" lon="6.2571000748939785"><ele>311.0</ele><time>2026-03-29T08:33:11.999Z</time></trkpt><trkpt lat="43.45069864834723" lon="6.256933258258259"><ele>311.0</ele><time>2026-03-29T08:33:12.999Z</time></trkpt><trkpt lat="43.450738201358845" lon="6.256768513476649"><ele>311.0</ele><time>2026-03-29T08:33:13.999Z</time></trkpt><trkpt lat="43.4507749795212" lon="6.25661161572155"><ele>312.0</ele><time>2026-03-29T08:33:14.999Z</time></trkpt><trkpt lat="43.45082271559742" lon="6.256446546041546"><ele>313.0</ele><time>2026-03-29T08:33:15.999Z</time></trkpt><trkpt lat="43.45087712780483" lon="6.256313239615078"><ele>314.0</ele><time>2026-03-29T08:33:16.999Z</time></trkpt><trkpt lat="43.45093602358515" lon="6.256197453858062"><ele>315.0</ele><time>2026-03-29T08:33:17.999Z</time></trkpt><trkpt lat="43.45098721495402" lon="6.256090616380718"><ele>316.0</ele><time>2026-03-29T08:33:18.999Z</time></trkpt><trkpt lat="43.45102711545087" lon="6.255996477950506"><ele>316.0</ele><time>2026-03-29T08:33:19.999Z</time></trkpt><trkpt lat="43.45106826254733" lon="6.25588995658474"><ele>316.0</ele><time>2026-03-29T08:33:20.999Z</time></trkpt><trkpt lat="43.45112564952824" lon="6.25575181470761"><ele>316.0</ele><time>2026-03-29T08:33:21.999Z</time></trkpt><trkpt lat="43.451163822398776" lon="6.255624333330616"><ele>316.0</ele><time>2026-03-29T08:33:22.999Z</time></trkpt><trkpt lat="43.4512211066844" lon="6.255494999525658"><ele>316.0</ele><time>2026-03-29T08:33:23.999Z</time></trkpt><trkpt lat="43.45126409031807" lon="6.255342257878891"><ele>313.6</ele><time>2026-03-29T08:33:24.999Z</time></trkpt><trkpt lat="43.4513050682388" lon="6.2552286306811435"><ele>311.20000000000005</ele><time>2026-03-29T08:33:25.999Z</time></trkpt><trkpt lat="43.45135556232946" lon="6.2551166551906885"><ele>308.79999999999995</ele><time>2026-03-29T08:33:26.999Z</time></trkpt><trkpt lat="43.451398161278746" lon="6.25501611029034"><ele>306.4</ele><time>2026-03-29T08:33:27.999Z</time></trkpt><trkpt lat="43.45142467631547" lon="6.254900008617278"><ele>304.0</ele><time>2026-03-29T08:33:28.999Z</time></trkpt><trkpt lat="43.4514487718406" lon="6.2547670650075995"><ele>303.8</ele><time>2026-03-29T08:33:29.999Z</time></trkpt><trkpt lat="43.45148300280976" lon="6.254683125853625"><ele>303.59999999999997</ele><time>2026-03-29T08:33:30.999Z</time></trkpt><trkpt lat="43.451592744055596" lon="6.2545678943745155"><ele>303.4</ele><time>2026-03-29T08:33:32.999Z</time></trkpt><trkpt lat="43.45165236271723" lon="6.254446246090331"><ele>303.2</ele><time>2026-03-29T08:33:34.999Z</time></trkpt><trkpt lat="43.45164024201283" lon="6.254330727974798"><ele>303.0</ele><time>2026-03-29T08:33:36.999Z</time></trkpt><trkpt lat="43.45162476929215" lon="6.254227481190111"><ele>303.0</ele><time>2026-03-29T08:33:38.999Z</time></trkpt><trkpt lat="43.45158282549125" lon="6.254136501954553"><ele>303.0</ele><time>2026-03-29T08:33:57.999Z</time></trkpt><trkpt lat="43.45152292078746" lon="6.2540317398368215"><ele>303.0</ele><time>2026-03-29T08:33:59.998Z</time></trkpt><trkpt lat="43.4514647487221" lon="6.253901396334073"><ele>303.0</ele><time>2026-03-29T08:34:01.998Z</time></trkpt><trkpt lat="43.45142285203145" lon="6.253744778363122"><ele>303.0</ele><time>2026-03-29T08:34:03.998Z</time></trkpt><trkpt lat="43.45140852224507" lon="6.253604797263662"><ele>301.6</ele><time>2026-03-29T08:34:05.998Z</time></trkpt><trkpt lat="43.451388244908934" lon="6.253485445691352"><ele>300.20000000000005</ele><time>2026-03-29T08:34:07.998Z</time></trkpt><trkpt lat="43.45137772355534" lon="6.253338449230032"><ele>298.8</ele><time>2026-03-29T08:34:09.998Z</time></trkpt><trkpt lat="43.45136867497344" lon="6.253186790655353"><ele>297.40000000000003</ele><time>2026-03-29T08:34:11.998Z</time></trkpt><trkpt lat="43.451406142696406" lon="6.253096969387426"><ele>296.0</ele><time>2026-03-29T08:34:13.998Z</time></trkpt><trkpt lat="43.451446414297756" lon="6.253009380020634"><ele>295.0</ele><time>2026-03-29T08:34:15.998Z</time></trkpt><trkpt lat="43.451462165751124" lon="6.252903168416048"><ele>294.0</ele><time>2026-03-29T08:34:17.998Z</time></trkpt><trkpt lat="43.451457519256614" lon="6.252711373930951"><ele>293.0</ele><time>2026-03-29T08:34:19.998Z</time></trkpt><trkpt lat="43.45144416295251" lon="6.2525881995405985"><ele>292.0</ele><time>2026-03-29T08:34:20.998Z</time></trkpt><trkpt lat="43.451431826493376" lon="6.25246744001013"><ele>291.0</ele><time>2026-03-29T08:34:21.998Z</time></trkpt><trkpt lat="43.45144036305584" lon="6.252353146906728"><ele>290.0</ele><time>2026-03-29T08:34:22.998Z</time></trkpt><trkpt lat="43.45147407018951" lon="6.252260161436088"><ele>289.0</ele><time>2026-03-29T08:34:23.998Z</time></trkpt><trkpt lat="43.45152169365785" lon="6.252169050755746"><ele>288.0</ele><time>2026-03-29T08:34:24.998Z</time></trkpt><trkpt lat="43.451568681214454" lon="6.252071071727957"><ele>287.0</ele><time>2026-03-29T08:34:25.998Z</time></trkpt><trkpt lat="43.45160367171808" lon="6.251976748412659"><ele>286.0</ele><time>2026-03-29T08:34:26.998Z</time></trkpt><trkpt lat="43.45162221607827" lon="6.251882371300159"><ele>285.0</ele><time>2026-03-29T08:34:27.998Z</time></trkpt><trkpt lat="43.45164976534288" lon="6.251732433320123"><ele>285.0</ele><time>2026-03-29T08:34:29.998Z</time></trkpt><trkpt lat="43.45165192870493" lon="6.251643364029305"><ele>285.0</ele><time>2026-03-29T08:34:30.998Z</time></trkpt><trkpt lat="43.45164859836136" lon="6.2515483581451825"><ele>285.0</ele><time>2026-03-29T08:34:31.998Z</time></trkpt><trkpt lat="43.45164283114251" lon="6.251454560604449"><ele>285.0</ele><time>2026-03-29T08:34:32.998Z</time></trkpt><trkpt lat="43.45164099866533" lon="6.251345056186918"><ele>285.0</ele><time>2026-03-29T08:34:33.998Z</time></trkpt><trkpt lat="43.451640167315716" lon="6.251231805448205"><ele>285.0</ele><time>2026-03-29T08:34:34.998Z</time></trkpt><trkpt lat="43.45163097200312" lon="6.251120995373232"><ele>285.0</ele><time>2026-03-29T08:34:35.998Z</time></trkpt><trkpt lat="43.45161192716967" lon="6.250996044158162"><ele>284.2</ele><time>2026-03-29T08:34:36.998Z</time></trkpt><trkpt lat="43.45157403217486" lon="6.250865340309647"><ele>283.4</ele><time>2026-03-29T08:34:37.998Z</time></trkpt><trkpt lat="43.45154187142338" lon="6.2507341552952544"><ele>282.6</ele><time>2026-03-29T08:34:38.998Z</time></trkpt><trkpt lat="43.45151932615106" lon="6.250613483760973"><ele>281.8</ele><time>2026-03-29T08:34:39.998Z</time></trkpt><trkpt lat="43.45150727762066" lon="6.250484943565578"><ele>281.0</ele><time>2026-03-29T08:34:40.998Z</time></trkpt><trkpt lat="43.451490945218524" lon="6.250327157196727"><ele>280.0</ele><time>2026-03-29T08:34:41.998Z</time></trkpt><trkpt lat="43.45146457063868" lon="6.25016718066203"><ele>279.0</ele><time>2026-03-29T08:34:42.998Z</time></trkpt><trkpt lat="43.45142759985363" lon="6.250028393561012"><ele>278.0</ele><time>2026-03-29T08:34:43.998Z</time></trkpt><trkpt lat="43.451391872049726" lon="6.249908672182806"><ele>277.0</ele><time>2026-03-29T08:34:44.998Z</time></trkpt><trkpt lat="43.45135626035256" lon="6.249789721292931"><ele>276.0</ele><time>2026-03-29T08:34:45.998Z</time></trkpt><trkpt lat="43.45132999979168" lon="6.2496707348408345"><ele>275.0</ele><time>2026-03-29T08:34:46.998Z</time></trkpt><trkpt lat="43.45131423982835" lon="6.249540015799889"><ele>274.0</ele><time>2026-03-29T08:34:47.998Z</time></trkpt><trkpt lat="43.45130920350964" lon="6.249412628456301"><ele>273.0</ele><time>2026-03-29T08:34:48.998Z</time></trkpt><trkpt lat="43.45131353027668" lon="6.249290451836337"><ele>272.0</ele><time>2026-03-29T08:34:49.998Z</time></trkpt><trkpt lat="43.45134398968958" lon="6.2491733380288075"><ele>271.0</ele><time>2026-03-29T08:34:50.997Z</time></trkpt><trkpt lat="43.451373893357676" lon="6.2490613492016935"><ele>270.2</ele><time>2026-03-29T08:34:52Z</time></trkpt><trkpt lat="43.45137772301619" lon="6.248939296641332"><ele>269.40000000000003</ele><time>2026-03-29T08:34:53Z</time></trkpt><trkpt lat="43.451348881829105" lon="6.24882370895814"><ele>268.6</ele><time>2026-03-29T08:34:54Z</time></trkpt><trkpt lat="43.45133832552936" lon="6.24870655457898"><ele>267.8</ele><time>2026-03-29T08:34:55Z</time></trkpt><trkpt lat="43.45131750254739" lon="6.248566211147375"><ele>267.0</ele><time>2026-03-29T08:34:56Z</time></trkpt><trkpt lat="43.451297390804555" lon="6.248440669580719"><ele>266.6</ele><time>2026-03-29T08:34:57Z</time></trkpt><trkpt lat="43.451270629958294" lon="6.248327574575786"><ele>266.2</ele><time>2026-03-29T08:34:58Z</time></trkpt><trkpt lat="43.451220297805556" lon="6.248198891477014"><ele>265.8</ele><time>2026-03-29T08:34:59Z</time></trkpt><trkpt lat="43.451165354107935" lon="6.248085331220703"><ele>265.4</ele><time>2026-03-29T08:35:00Z</time></trkpt><trkpt lat="43.451114464139685" lon="6.247934321903883"><ele>265.0</ele><time>2026-03-29T08:35:01Z</time></trkpt><trkpt lat="43.4510674970741" lon="6.247776056276244"><ele>265.0</ele><time>2026-03-29T08:35:02Z</time></trkpt><trkpt lat="43.45102314620338" lon="6.24765556024577"><ele>265.0</ele><time>2026-03-29T08:35:03Z</time></trkpt><trkpt lat="43.450993250289486" lon="6.2475718016289825"><ele>265.0</ele><time>2026-03-29T08:35:04Z</time></trkpt><trkpt lat="43.45095563451412" lon="6.247498766234153"><ele>265.0</ele><time>2026-03-29T08:35:05Z</time></trkpt><trkpt lat="43.45091570758758" lon="6.247402440954885"><ele>265.0</ele><time>2026-03-29T08:35:06Z</time></trkpt><trkpt lat="43.45087562000247" lon="6.247295620307594"><ele>265.0</ele><time>2026-03-29T08:35:07Z</time></trkpt><trkpt lat="43.45085377611883" lon="6.247156534861366"><ele>264.4</ele><time>2026-03-29T08:35:08Z</time></trkpt><trkpt lat="43.45081372666043" lon="6.247017503506994"><ele>263.8</ele><time>2026-03-29T08:35:09Z</time></trkpt><trkpt lat="43.45077336053255" lon="6.24690002392793"><ele>263.2</ele><time>2026-03-29T08:35:10Z</time></trkpt><trkpt lat="43.450712861795225" lon="6.246810172636636"><ele>262.6</ele><time>2026-03-29T08:35:11Z</time></trkpt><trkpt lat="43.45067100351686" lon="6.246682610320376"><ele>262.0</ele><time>2026-03-29T08:35:12Z</time></trkpt><trkpt lat="43.45063669899792" lon="6.246568249558843"><ele>262.0</ele><time>2026-03-29T08:35:13Z</time></trkpt><trkpt lat="43.45060406216597" lon="6.246477924217513"><ele>262.0</ele><time>2026-03-29T08:35:14Z</time></trkpt><trkpt lat="43.45055488852826" lon="6.2463636862738605"><ele>262.0</ele><time>2026-03-29T08:35:16Z</time></trkpt><trkpt lat="43.45053604763212" lon="6.2462807558840385"><ele>262.0</ele><time>2026-03-29T08:35:17.999Z</time></trkpt><trkpt lat="43.45052904052935" lon="6.246164387888529"><ele>262.0</ele><time>2026-03-29T08:35:19.999Z</time></trkpt><trkpt lat="43.4505084561948" lon="6.246065795072214"><ele>262.0</ele><time>2026-03-29T08:35:20.999Z</time></trkpt><trkpt lat="43.45046816357519" lon="6.245967185749481"><ele>261.8333333333333</ele><time>2026-03-29T08:35:21.999Z</time></trkpt><trkpt lat="43.45041774823267" lon="6.245829781384776"><ele>261.66666666666663</ele><time>2026-03-29T08:35:22.999Z</time></trkpt><trkpt lat="43.45038670130393" lon="6.245701948532088"><ele>261.5</ele><time>2026-03-29T08:35:23.999Z</time></trkpt><trkpt lat="43.45033873107335" lon="6.245610612454972"><ele>261.3333333333333</ele><time>2026-03-29T08:35:24.999Z</time></trkpt><trkpt lat="43.450281889732864" lon="6.245562194778619"><ele>261.1666666666667</ele><time>2026-03-29T08:35:25.999Z</time></trkpt><trkpt lat="43.4502124240053" lon="6.245557177330869"><ele>261.0</ele><time>2026-03-29T08:35:26.999Z</time></trkpt><trkpt lat="43.45011999292725" lon="6.245548001940095"><ele>260.2</ele><time>2026-03-29T08:35:27.999Z</time></trkpt><trkpt lat="43.45001390178514" lon="6.245502710947055"><ele>259.40000000000003</ele><time>2026-03-29T08:35:28.999Z</time></trkpt><trkpt lat="43.449906356426816" lon="6.2454588901966"><ele>258.6</ele><time>2026-03-29T08:35:29.999Z</time></trkpt><trkpt lat="43.44983679420065" lon="6.24540087742332"><ele>257.8</ele><time>2026-03-29T08:35:30.999Z</time></trkpt><trkpt lat="43.4497789749511" lon="6.2453121378910135"><ele>257.0</ele><time>2026-03-29T08:35:31.999Z</time></trkpt><trkpt lat="43.44973311312837" lon="6.245211427225771"><ele>257.0</ele><time>2026-03-29T08:35:32.999Z</time></trkpt><trkpt lat="43.44970328648409" lon="6.245099160918142"><ele>257.0</ele><time>2026-03-29T08:35:33.999Z</time></trkpt><trkpt lat="43.449694736410365" lon="6.2449625179410475"><ele>257.0</ele><time>2026-03-29T08:35:34.999Z</time></trkpt><trkpt lat="43.44970230730442" lon="6.244803258797946"><ele>257.0</ele><time>2026-03-29T08:35:35.999Z</time></trkpt><trkpt lat="43.449709467867464" lon="6.244638533551802"><ele>257.0</ele><time>2026-03-29T08:35:36.999Z</time></trkpt><trkpt lat="43.449711941146916" lon="6.244497783651822"><ele>256.33333333333337</ele><time>2026-03-29T08:35:37.999Z</time></trkpt><trkpt lat="43.44970669484836" lon="6.244366175300468"><ele>255.66666666666669</ele><time>2026-03-29T08:35:38.999Z</time></trkpt><trkpt lat="43.449722142212" lon="6.244244155740769"><ele>255.0</ele><time>2026-03-29T08:35:39.999Z</time></trkpt><trkpt lat="43.44974315038361" lon="6.244124907958777"><ele>254.33333333333331</ele><time>2026-03-29T08:35:40.999Z</time></trkpt><trkpt lat="43.449732043505186" lon="6.244025355905676"><ele>253.66666666666666</ele><time>2026-03-29T08:35:41.999Z</time></trkpt><trkpt lat="43.44969480794704" lon="6.2439040592116815"><ele>253.0</ele><time>2026-03-29T08:35:42.999Z</time></trkpt><trkpt lat="43.449651261052225" lon="6.243767974417065"><ele>252.2</ele><time>2026-03-29T08:35:43.999Z</time></trkpt><trkpt lat="43.449593000816314" lon="6.243654237267213"><ele>251.4</ele><time>2026-03-29T08:35:44.999Z</time></trkpt><trkpt lat="43.449531201052054" lon="6.243562499664605"><ele>250.59999999999997</ele><time>2026-03-29T08:35:45.999Z</time></trkpt><trkpt lat="43.44947569896218" lon="6.243443201594029"><ele>249.79999999999998</ele><time>2026-03-29T08:35:46.999Z</time></trkpt><trkpt lat="43.449423120585536" lon="6.24331584122346"><ele>249.0</ele><time>2026-03-29T08:35:47.999Z</time></trkpt><trkpt lat="43.44936881716929" lon="6.243196244119299"><ele>248.2</ele><time>2026-03-29T08:35:48.999Z</time></trkpt><trkpt lat="43.44931540524418" lon="6.2430790063734625"><ele>247.39999999999998</ele><time>2026-03-29T08:35:49.999Z</time></trkpt><trkpt lat="43.44926310722559" lon="6.2429566881043"><ele>246.6</ele><time>2026-03-29T08:35:50.999Z</time></trkpt><trkpt lat="43.44923152295339" lon="6.24283638271649"><ele>245.8</ele><time>2026-03-29T08:35:51.999Z</time></trkpt><trkpt lat="43.449194021618304" lon="6.242701475545379"><ele>245.0</ele><time>2026-03-29T08:35:52.999Z</time></trkpt><trkpt lat="43.44914602391249" lon="6.24255933977744"><ele>245.0</ele><time>2026-03-29T08:35:53.999Z</time></trkpt><trkpt lat="43.44910601012559" lon="6.242441195911704"><ele>245.0</ele><time>2026-03-29T08:35:54.999Z</time></trkpt><trkpt lat="43.449066814098465" lon="6.242309956174139"><ele>245.0</ele><time>2026-03-29T08:35:55.999Z</time></trkpt><trkpt lat="43.44903313114359" lon="6.24218103795985"><ele>245.0</ele><time>2026-03-29T08:35:56.999Z</time></trkpt><trkpt lat="43.448999882886234" lon="6.242066987561191"><ele>245.0</ele><time>2026-03-29T08:35:57.999Z</time></trkpt><trkpt lat="43.44896379540645" lon="6.24196999054444"><ele>245.16666666666669</ele><time>2026-03-29T08:35:58.999Z</time></trkpt><trkpt lat="43.448945276540414" lon="6.24188244865636"><ele>245.33333333333334</ele><time>2026-03-29T08:35:59.999Z</time></trkpt><trkpt lat="43.448916206514454" lon="6.241785989063736"><ele>245.5</ele><time>2026-03-29T08:36:01.999Z</time></trkpt><trkpt lat="43.44881621739024" lon="6.241749417648773"><ele>245.66666666666669</ele><time>2026-03-29T08:36:03.999Z</time></trkpt><trkpt lat="43.44874546265339" lon="6.241733551748572"><ele>245.83333333333334</ele><time>2026-03-29T08:36:04.999Z</time></trkpt><trkpt lat="43.448665671142976" lon="6.24171987679607"><ele>246.0</ele><time>2026-03-29T08:36:06.999Z</time></trkpt><trkpt lat="43.44858237965191" lon="6.241672295278259"><ele>246.00000000000003</ele><time>2026-03-29T08:36:14.998Z</time></trkpt><trkpt lat="43.448532061805984" lon="6.241610258171773"><ele>246.0</ele><time>2026-03-29T08:36:15.998Z</time></trkpt><trkpt lat="43.448484745753376" lon="6.241520856500628"><ele>246.00000000000003</ele><time>2026-03-29T08:36:16.998Z</time></trkpt><trkpt lat="43.448444734866015" lon="6.241440643043727"><ele>246.00000000000003</ele><time>2026-03-29T08:36:17.998Z</time></trkpt><trkpt lat="43.44840675185277" lon="6.241356916105295"><ele>246.0</ele><time>2026-03-29T08:36:18.998Z</time></trkpt><trkpt lat="43.448366214821775" lon="6.241277974618313"><ele>246.00000000000003</ele><time>2026-03-29T08:36:19.998Z</time></trkpt><trkpt lat="43.44831896217058" lon="6.241199215939832"><ele>246.00000000000003</ele><time>2026-03-29T08:36:20.998Z</time></trkpt><trkpt lat="43.448277769947296" lon="6.241108366037446"><ele>244.83333333333334</ele><time>2026-03-29T08:36:21.998Z</time></trkpt><trkpt lat="43.44823966664558" lon="6.241017845786402"><ele>243.66666666666669</ele><time>2026-03-29T08:36:22.998Z</time></trkpt><trkpt lat="43.44819575850918" lon="6.2409265289274956"><ele>242.5</ele><time>2026-03-29T08:36:23.998Z</time></trkpt><trkpt lat="43.448152065866175" lon="6.2408303827489435"><ele>241.33333333333334</ele><time>2026-03-29T08:36:24.998Z</time></trkpt><trkpt lat="43.44811116851051" lon="6.24073281966708"><ele>240.16666666666669</ele><time>2026-03-29T08:36:25.998Z</time></trkpt><trkpt lat="43.448071323612545" lon="6.240653605208795"><ele>239.0</ele><time>2026-03-29T08:36:26.998Z</time></trkpt><trkpt lat="43.44800645065393" lon="6.240498865123556"><ele>238.6</ele><time>2026-03-29T08:36:28.998Z</time></trkpt><trkpt lat="43.448127424633746" lon="6.240335870507694"><ele>238.2</ele><time>2026-03-29T08:36:29.998Z</time></trkpt><trkpt lat="43.448102352812356" lon="6.240223827922477"><ele>237.79999999999998</ele><time>2026-03-29T08:36:30.998Z</time></trkpt><trkpt lat="43.448082651626294" lon="6.240123297028276"><ele>237.39999999999998</ele><time>2026-03-29T08:36:31.998Z</time></trkpt><trkpt lat="43.44806409775724" lon="6.24002670740361"><ele>237.0</ele><time>2026-03-29T08:36:32.998Z</time></trkpt><trkpt lat="43.44804574595984" lon="6.239928043240317"><ele>236.99999999999997</ele><time>2026-03-29T08:36:33.998Z</time></trkpt><trkpt lat="43.44802629976548" lon="6.239823495318656"><ele>237.0</ele><time>2026-03-29T08:36:34.998Z</time></trkpt><trkpt lat="43.44800854760352" lon="6.239728054954739"><ele>236.99999999999997</ele><time>2026-03-29T08:36:35.998Z</time></trkpt><trkpt lat="43.447991207885686" lon="6.239641266286368"><ele>236.99999999999997</ele><time>2026-03-29T08:36:36.998Z</time></trkpt><trkpt lat="43.4479725060445" lon="6.239550857373074"><ele>237.0</ele><time>2026-03-29T08:36:37.998Z</time></trkpt><trkpt lat="43.44795260106305" lon="6.239454632204281"><ele>236.99999999999997</ele><time>2026-03-29T08:36:38.998Z</time></trkpt><trkpt lat="43.44793100077077" lon="6.239350211533967"><ele>236.99999999999997</ele><time>2026-03-29T08:36:39.998Z</time></trkpt><trkpt lat="43.44790984319055" lon="6.239247993710682"><ele>237.5</ele><time>2026-03-29T08:36:40.998Z</time></trkpt><trkpt lat="43.44788642960847" lon="6.239129928217701"><ele>238.0</ele><time>2026-03-29T08:36:41.998Z</time></trkpt><trkpt lat="43.44786495352012" lon="6.239021448085027"><ele>238.5</ele><time>2026-03-29T08:36:42.998Z</time></trkpt><trkpt lat="43.44784498747335" lon="6.238919985522681"><ele>239.0</ele><time>2026-03-29T08:36:43.998Z</time></trkpt><trkpt lat="43.447827949249834" lon="6.238833401450536"><ele>239.5</ele><time>2026-03-29T08:36:44.998Z</time></trkpt><trkpt lat="43.447811350641054" lon="6.238749051384114"><ele>240.0</ele><time>2026-03-29T08:36:45.998Z</time></trkpt><trkpt lat="43.44778195085519" lon="6.238599648882909"><ele>240.0</ele><time>2026-03-29T08:36:47.998Z</time></trkpt><trkpt lat="43.44775185916551" lon="6.238445023526047"><ele>240.0</ele><time>2026-03-29T08:36:49.998Z</time></trkpt><trkpt lat="43.4477234302355" lon="6.23829778611159"><ele>240.0</ele><time>2026-03-29T08:36:51.998Z</time></trkpt><trkpt lat="43.44769250283021" lon="6.238137608739783"><ele>240.0</ele><time>2026-03-29T08:36:53.998Z</time></trkpt><trkpt lat="43.447663724653665" lon="6.237988562532674"><ele>239.5</ele><time>2026-03-29T08:36:55.998Z</time></trkpt><trkpt lat="43.447630654533434" lon="6.237819227746476"><ele>239.0</ele><time>2026-03-29T08:36:58Z</time></trkpt><trkpt lat="43.447598789980276" lon="6.237658906609075"><ele>238.5</ele><time>2026-03-29T08:37:00Z</time></trkpt><trkpt lat="43.44756706858485" lon="6.237499305745526"><ele>238.0</ele><time>2026-03-29T08:37:02Z</time></trkpt><trkpt lat="43.44753943957439" lon="6.237360295024352"><ele>236.83333333333331</ele><time>2026-03-29T08:37:04Z</time></trkpt><trkpt lat="43.4475151698794" lon="6.23723659048478"><ele>235.66666666666666</ele><time>2026-03-29T08:37:06Z</time></trkpt><trkpt lat="43.44749301702333" lon="6.23712255317074"><ele>234.5</ele><time>2026-03-29T08:37:08Z</time></trkpt><trkpt lat="43.447468803498865" lon="6.2369962998614"><ele>233.33333333333331</ele><time>2026-03-29T08:37:10Z</time></trkpt><trkpt lat="43.44745230257785" lon="6.236905612425794"><ele>232.16666666666666</ele><time>2026-03-29T08:37:12Z</time></trkpt><trkpt lat="43.447433601207635" lon="6.236793840620694"><ele>231.0</ele><time>2026-03-29T08:37:15Z</time></trkpt><trkpt lat="43.44742145081607" lon="6.2366958340971"><ele>231.0</ele><time>2026-03-29T08:37:17Z</time></trkpt><trkpt lat="43.44741149557686" lon="6.236561150739011"><ele>231.00000000000003</ele><time>2026-03-29T08:37:19Z</time></trkpt><trkpt lat="43.44741887180033" lon="6.236380274731124"><ele>231.00000000000003</ele><time>2026-03-29T08:37:21Z</time></trkpt><trkpt lat="43.44743200516837" lon="6.236256834455484"><ele>231.0</ele><time>2026-03-29T08:37:23Z</time></trkpt><trkpt lat="43.447458576491876" lon="6.236109615230524"><ele>231.0</ele><time>2026-03-29T08:37:25Z</time></trkpt><trkpt lat="43.44749646342344" lon="6.23594768701555"><ele>230.8</ele><time>2026-03-29T08:37:26.999Z</time></trkpt><trkpt lat="43.44753228244317" lon="6.235809621070662"><ele>230.60000000000002</ele><time>2026-03-29T08:37:28.999Z</time></trkpt><trkpt lat="43.44756921845399" lon="6.235679056574848"><ele>230.4</ele><time>2026-03-29T08:37:30.999Z</time></trkpt><trkpt lat="43.44760417238192" lon="6.235558873172539"><ele>230.2</ele><time>2026-03-29T08:37:32.999Z</time></trkpt><trkpt lat="43.44752215062058" lon="6.235464557414396"><ele>230.0</ele><time>2026-03-29T08:37:33.999Z</time></trkpt><trkpt lat="43.44756005894135" lon="6.235354536184033"><ele>230.0</ele><time>2026-03-29T08:38:16.999Z</time></trkpt><trkpt lat="43.447580231403236" lon="6.235263027873942"><ele>230.0</ele><time>2026-03-29T08:38:33.998Z</time></trkpt><trkpt lat="43.447603846033154" lon="6.23515365469261"><ele>230.0</ele><time>2026-03-29T08:38:53.998Z</time></trkpt><trkpt lat="43.447577580176294" lon="6.235041711902957"><ele>230.0</ele><time>2026-03-29T08:38:57.998Z</time></trkpt><trkpt lat="43.44746799313857" lon="6.23506457420611"><ele>230.0</ele><time>2026-03-29T08:38:59.998Z</time></trkpt><trkpt lat="43.44736505776686" lon="6.23512476314525"><ele>230.0</ele><time>2026-03-29T08:39:00.998Z</time></trkpt><trkpt lat="43.447281402707716" lon="6.235225864431434"><ele>230.0</ele><time>2026-03-29T08:39:03Z</time></trkpt><trkpt lat="43.44724081359714" lon="6.235308360452056"><ele>230.0</ele><time>2026-03-29T08:39:04Z</time></trkpt><trkpt lat="43.44719336179357" lon="6.23541248995041"><ele>230.0</ele><time>2026-03-29T08:39:05Z</time></trkpt><trkpt lat="43.44722697135662" lon="6.235556453667103"><ele>230.0</ele><time>2026-03-29T08:39:06Z</time></trkpt><trkpt lat="43.44724063422344" lon="6.235695076897542"><ele>229.85714285714283</ele><time>2026-03-29T08:39:07Z</time></trkpt><trkpt lat="43.44720325990463" lon="6.235796422815292"><ele>229.71428571428572</ele><time>2026-03-29T08:39:09Z</time></trkpt><trkpt lat="43.447126039760754" lon="6.235818869864072"><ele>229.57142857142856</ele><time>2026-03-29T08:39:13Z</time></trkpt><trkpt lat="43.447069689942715" lon="6.2358610898578855"><ele>229.42857142857142</ele><time>2026-03-29T08:39:15Z</time></trkpt><trkpt lat="43.44705939148926" lon="6.235962466565316"><ele>229.28571428571428</ele><time>2026-03-29T08:39:17Z</time></trkpt><trkpt lat="43.44709845465736" lon="6.2360482517970945"><ele>229.14285714285714</ele><time>2026-03-29T08:39:19Z</time></trkpt><trkpt lat="43.44712235385957" lon="6.236131637518188"><ele>229.0</ele><time>2026-03-29T08:39:20Z</time></trkpt><trkpt lat="43.447138634429415" lon="6.236301575679286"><ele>228.99999999999997</ele><time>2026-03-29T08:39:22Z</time></trkpt><trkpt lat="43.44715906274338" lon="6.2363853065679455"><ele>229.0</ele><time>2026-03-29T08:39:23Z</time></trkpt><trkpt lat="43.44716922734514" lon="6.2365199956348185"><ele>229.0</ele><time>2026-03-29T08:39:25Z</time></trkpt><trkpt lat="43.4471481424441" lon="6.236619148958927"><ele>229.0</ele><time>2026-03-29T08:39:28Z</time></trkpt><trkpt lat="43.44717792559659" lon="6.2367158358163195"><ele>228.99999999999997</ele><time>2026-03-29T08:39:31Z</time></trkpt><trkpt lat="43.44721526260453" lon="6.236825979972025"><ele>229.0</ele><time>2026-03-29T08:39:54.999Z</time></trkpt><trkpt lat="43.44721574024081" lon="6.236926859622127"><ele>229.33333333333331</ele><time>2026-03-29T08:40:04.999Z</time></trkpt><trkpt lat="43.44722052669974" lon="6.237022248405029"><ele>229.66666666666666</ele><time>2026-03-29T08:40:06.999Z</time></trkpt><trkpt lat="43.44723258951237" lon="6.237110776766313"><ele>230.0</ele><time>2026-03-29T08:40:08.999Z</time></trkpt><trkpt lat="43.44725870904835" lon="6.237215583196039"><ele>230.33333333333331</ele><time>2026-03-29T08:40:11.999Z</time></trkpt><trkpt lat="43.447189597232345" lon="6.2372195764734615"><ele>230.66666666666666</ele><time>2026-03-29T08:41:01.998Z</time></trkpt><trkpt lat="43.4470854656129" lon="6.23715904688944"><ele>231.0</ele><time>2026-03-29T08:41:20Z</time></trkpt><trkpt lat="43.44698095222443" lon="6.237149396552221"><ele>234.57142857142856</ele><time>2026-03-29T08:41:22Z</time></trkpt><trkpt lat="43.44692679992273" lon="6.237066843890198"><ele>238.14285714285714</ele><time>2026-03-29T08:41:26Z</time></trkpt><trkpt lat="43.446859137916974" lon="6.237013441143731"><ele>241.71428571428572</ele><time>2026-03-29T08:41:29Z</time></trkpt><trkpt lat="43.446811367948385" lon="6.236954862371426"><ele>245.28571428571428</ele><time>2026-03-29T08:41:37Z</time></trkpt><trkpt lat="43.44680063290599" lon="6.237055891523954"><ele>248.85714285714283</ele><time>2026-03-29T08:41:47.999Z</time></trkpt><trkpt lat="43.44681754155803" lon="6.2369664023698625"><ele>252.42857142857142</ele><time>2026-03-29T08:42:27.999Z</time></trkpt><trkpt lat="43.446801553839904" lon="6.237060667844847"><ele>256.0</ele><time>2026-03-29T08:42:54.998Z</time></trkpt><trkpt lat="43.44675628634742" lon="6.237124663304611"><ele>255.99999999999997</ele><time>2026-03-29T08:43:16Z</time></trkpt><trkpt lat="43.44670411045694" lon="6.237191449538901"><ele>256.0</ele><time>2026-03-29T08:43:19Z</time></trkpt><trkpt lat="43.446634196047775" lon="6.237183969289684"><ele>256.0</ele><time>2026-03-29T08:43:21Z</time></trkpt><trkpt lat="43.446564558428506" lon="6.237099295426486"><ele>256.0</ele><time>2026-03-29T08:43:23Z</time></trkpt><trkpt lat="43.446580154828574" lon="6.236973160794896"><ele>255.99999999999997</ele><time>2026-03-29T08:43:26Z</time></trkpt><trkpt lat="43.4465435293717" lon="6.236882755604779"><ele>256.0</ele><time>2026-03-29T08:43:28Z</time></trkpt><trkpt lat="43.44651296053449" lon="6.236784622538463"><ele>256.0</ele><time>2026-03-29T08:43:31Z</time></trkpt><trkpt lat="43.44653285578909" lon="6.236656467123015"><ele>256.0</ele><time>2026-03-29T08:43:34Z</time></trkpt><trkpt lat="43.44651169860951" lon="6.236488903982441"><ele>256.0</ele><time>2026-03-29T08:43:36Z</time></trkpt><trkpt lat="43.44650207380473" lon="6.2363705860125345"><ele>256.0</ele><time>2026-03-29T08:43:37Z</time></trkpt><trkpt lat="43.44650918023525" lon="6.236266157732855"><ele>256.0</ele><time>2026-03-29T08:43:38Z</time></trkpt><trkpt lat="43.44653624456775" lon="6.2361544204503225"><ele>255.20000000000002</ele><time>2026-03-29T08:43:39Z</time></trkpt><trkpt lat="43.44655981251895" lon="6.236015250846485"><ele>254.40000000000003</ele><time>2026-03-29T08:43:40Z</time></trkpt><trkpt lat="43.44658261534052" lon="6.235883319199563"><ele>253.6</ele><time>2026-03-29T08:43:41Z</time></trkpt><trkpt lat="43.4465865997651" lon="6.2357659048076055"><ele>252.8</ele><time>2026-03-29T08:43:42Z</time></trkpt><trkpt lat="43.446574401264584" lon="6.2356433399431435"><ele>252.0</ele><time>2026-03-29T08:43:43Z</time></trkpt><trkpt lat="43.44655203904736" lon="6.235523580091458"><ele>250.8</ele><time>2026-03-29T08:43:44Z</time></trkpt><trkpt lat="43.446516828448964" lon="6.235402595323933"><ele>249.6</ele><time>2026-03-29T08:43:45Z</time></trkpt><trkpt lat="43.44647861577258" lon="6.235288167606144"><ele>248.40000000000003</ele><time>2026-03-29T08:43:46Z</time></trkpt><trkpt lat="43.446429346531374" lon="6.235174192015131"><ele>247.20000000000002</ele><time>2026-03-29T08:43:47Z</time></trkpt><trkpt lat="43.44638588983034" lon="6.2350649118250185"><ele>246.0</ele><time>2026-03-29T08:43:48Z</time></trkpt><trkpt lat="43.44632914397807" lon="6.23495577091307"><ele>247.4</ele><time>2026-03-29T08:43:49Z</time></trkpt><trkpt lat="43.44627159744335" lon="6.2348389612867035"><ele>248.8</ele><time>2026-03-29T08:43:50Z</time></trkpt><trkpt lat="43.44622065177363" lon="6.234717932261547"><ele>250.20000000000002</ele><time>2026-03-29T08:43:51Z</time></trkpt><trkpt lat="43.44619261651185" lon="6.234574630645707"><ele>251.60000000000002</ele><time>2026-03-29T08:43:52Z</time></trkpt><trkpt lat="43.44615250360586" lon="6.234419104166848"><ele>253.0</ele><time>2026-03-29T08:43:52.999Z</time></trkpt><trkpt lat="43.4461066599541" lon="6.23425647663171"><ele>253.0</ele><time>2026-03-29T08:43:53.999Z</time></trkpt><trkpt lat="43.44605566345404" lon="6.234104546098731"><ele>253.0</ele><time>2026-03-29T08:43:54.999Z</time></trkpt><trkpt lat="43.44601520611805" lon="6.233971204017006"><ele>253.0</ele><time>2026-03-29T08:43:55.999Z</time></trkpt><trkpt lat="43.445960808056526" lon="6.233860679332234"><ele>253.0</ele><time>2026-03-29T08:43:56.999Z</time></trkpt><trkpt lat="43.445909923599714" lon="6.233755644734197"><ele>253.0</ele><time>2026-03-29T08:43:57.999Z</time></trkpt><trkpt lat="43.44587172605135" lon="6.233665517395482"><ele>251.8</ele><time>2026-03-29T08:43:58.999Z</time></trkpt><trkpt lat="43.445841361049105" lon="6.233587428801571"><ele>250.60000000000002</ele><time>2026-03-29T08:43:59.999Z</time></trkpt><trkpt lat="43.44582867778923" lon="6.233441058262789"><ele>249.39999999999998</ele><time>2026-03-29T08:44:01.999Z</time></trkpt><trkpt lat="43.445768814418194" lon="6.233321913160925"><ele>248.2</ele><time>2026-03-29T08:44:03.999Z</time></trkpt><trkpt lat="43.44575030859482" lon="6.233178608870911"><ele>247.0</ele><time>2026-03-29T08:44:05.999Z</time></trkpt><trkpt lat="43.4456796735564" lon="6.233081097823823"><ele>246.71428571428572</ele><time>2026-03-29T08:44:07.999Z</time></trkpt><trkpt lat="43.44564736668798" lon="6.232996300463844"><ele>246.42857142857142</ele><time>2026-03-29T08:44:08.999Z</time></trkpt><trkpt lat="43.44567720594543" lon="6.232885450837776"><ele>246.14285714285714</ele><time>2026-03-29T08:44:10.999Z</time></trkpt><trkpt lat="43.44575433289987" lon="6.23287358943124"><ele>245.85714285714286</ele><time>2026-03-29T08:44:11.999Z</time></trkpt><trkpt lat="43.44581999023794" lon="6.232889076487868"><ele>245.57142857142856</ele><time>2026-03-29T08:44:12.999Z</time></trkpt><trkpt lat="43.44587314973617" lon="6.232938403737055"><ele>245.28571428571428</ele><time>2026-03-29T08:44:13.999Z</time></trkpt><trkpt lat="43.44591134361632" lon="6.233026821147059"><ele>245.0</ele><time>2026-03-29T08:44:14.999Z</time></trkpt><trkpt lat="43.445962871308566" lon="6.233087698264157"><ele>245.28571428571428</ele><time>2026-03-29T08:44:15.999Z</time></trkpt><trkpt lat="43.446009474625185" lon="6.233149970006376"><ele>245.57142857142856</ele><time>2026-03-29T08:44:16.999Z</time></trkpt><trkpt lat="43.4460543213042" lon="6.233228600914664"><ele>245.85714285714286</ele><time>2026-03-29T08:44:17.999Z</time></trkpt><trkpt lat="43.446101506607" lon="6.233302018804057"><ele>246.14285714285714</ele><time>2026-03-29T08:44:18.999Z</time></trkpt><trkpt lat="43.44615934599757" lon="6.2333588676846245"><ele>246.42857142857142</ele><time>2026-03-29T08:44:19.999Z</time></trkpt><trkpt lat="43.44613876746073" lon="6.233464385191592"><ele>246.71428571428572</ele><time>2026-03-29T08:44:21.999Z</time></trkpt><trkpt lat="43.44609227966684" lon="6.233569397115461"><ele>247.0</ele><time>2026-03-29T08:44:23.999Z</time></trkpt><trkpt lat="43.44611700159656" lon="6.233659229416047"><ele>246.99999999999997</ele><time>2026-03-29T08:44:26.999Z</time></trkpt><trkpt lat="43.44620015994943" lon="6.233636224223515"><ele>247.0</ele><time>2026-03-29T08:44:28.999Z</time></trkpt><trkpt lat="43.446274357416684" lon="6.233682291688442"><ele>247.0</ele><time>2026-03-29T08:44:29.999Z</time></trkpt><trkpt lat="43.446330406503805" lon="6.233785966198644"><ele>247.0</ele><time>2026-03-29T08:44:30.999Z</time></trkpt><trkpt lat="43.44635947536507" lon="6.233902825145961"><ele>246.99999999999997</ele><time>2026-03-29T08:44:31.999Z</time></trkpt><trkpt lat="43.44642285266017" lon="6.234005878485366"><ele>247.0</ele><time>2026-03-29T08:44:32.999Z</time></trkpt><trkpt lat="43.44647688966421" lon="6.234126000730406"><ele>246.0</ele><time>2026-03-29T08:44:33.999Z</time></trkpt><trkpt lat="43.44658502838426" lon="6.234202598364144"><ele>245.0</ele><time>2026-03-29T08:44:34.999Z</time></trkpt><trkpt lat="43.44663192534588" lon="6.234314124422297"><ele>244.0</ele><time>2026-03-29T08:44:35.999Z</time></trkpt><trkpt lat="43.44667919167637" lon="6.234412226114468"><ele>243.0</ele><time>2026-03-29T08:44:36.999Z</time></trkpt><trkpt lat="43.4467296412432" lon="6.234506094782625"><ele>242.0</ele><time>2026-03-29T08:44:37.999Z</time></trkpt><trkpt lat="43.44678282898653" lon="6.234574308428174"><ele>242.0</ele><time>2026-03-29T08:44:38.999Z</time></trkpt><trkpt lat="43.44684121051908" lon="6.234621202642934"><ele>242.0</ele><time>2026-03-29T08:44:39.999Z</time></trkpt><trkpt lat="43.446967598017345" lon="6.234636544727581"><ele>242.0</ele><time>2026-03-29T08:44:41.999Z</time></trkpt><trkpt lat="43.44704311604588" lon="6.23464526420437"><ele>242.0</ele><time>2026-03-29T08:44:42.999Z</time></trkpt><trkpt lat="43.44715607499232" lon="6.2346480531983905"><ele>242.0</ele><time>2026-03-29T08:44:44.998Z</time></trkpt><trkpt lat="43.44727089923047" lon="6.234646527771091"><ele>240.0</ele><time>2026-03-29T08:44:46.998Z</time></trkpt><trkpt lat="43.44738956114883" lon="6.234643848015856"><ele>238.0</ele><time>2026-03-29T08:44:48.998Z</time></trkpt><trkpt lat="43.44750146943155" lon="6.234639650971125"><ele>236.0</ele><time>2026-03-29T08:44:50.998Z</time></trkpt><trkpt lat="43.44758583111073" lon="6.234636487039783"><ele>234.0</ele><time>2026-03-29T08:44:52.998Z</time></trkpt><trkpt lat="43.44765197171965" lon="6.234638531477052"><ele>232.0</ele><time>2026-03-29T08:44:56.998Z</time></trkpt><trkpt lat="43.447731302470466" lon="6.234634653213873"><ele>231.99999999999997</ele><time>2026-03-29T08:44:58.998Z</time></trkpt><trkpt lat="43.44780285563084" lon="6.234638015648392"><ele>232.0</ele><time>2026-03-29T08:45:01.998Z</time></trkpt><trkpt lat="43.44786762788388" lon="6.2346414957895355"><ele>232.0</ele><time>2026-03-29T08:45:03.998Z</time></trkpt><trkpt lat="43.4479010608513" lon="6.234510595127668"><ele>232.0</ele><time>2026-03-29T08:45:04.998Z</time></trkpt><trkpt lat="43.44793004299147" lon="6.234362521350225"><ele>231.99999999999997</ele><time>2026-03-29T08:45:06.998Z</time></trkpt><trkpt lat="43.447944962500465" lon="6.234264760185335"><ele>232.0</ele><time>2026-03-29T08:45:07.998Z</time></trkpt><trkpt lat="43.44795291657937" lon="6.2341665001188264"><ele>232.0</ele><time>2026-03-29T08:45:08.998Z</time></trkpt><trkpt lat="43.44795586778999" lon="6.234059403793408"><ele>232.0</ele><time>2026-03-29T08:45:09.998Z</time></trkpt><trkpt lat="43.447939754803386" lon="6.233873340331099"><ele>232.0</ele><time>2026-03-29T08:45:11.998Z</time></trkpt><trkpt lat="43.44791703681939" lon="6.233749723142929"><ele>232.0</ele><time>2026-03-29T08:45:12.998Z</time></trkpt><trkpt lat="43.44789029013996" lon="6.233623209090344"><ele>232.0</ele><time>2026-03-29T08:45:13.998Z</time></trkpt><trkpt lat="43.447860499538685" lon="6.2334919609172585"><ele>232.25</ele><time>2026-03-29T08:45:14.998Z</time></trkpt><trkpt lat="43.44781638717372" lon="6.233344364051621"><ele>232.5</ele><time>2026-03-29T08:45:15.998Z</time></trkpt><trkpt lat="43.44777756713483" lon="6.233196227694431"><ele>232.75</ele><time>2026-03-29T08:45:16.998Z</time></trkpt><trkpt lat="43.44772663352194" lon="6.2330637542268565"><ele>233.0</ele><time>2026-03-29T08:45:17.998Z</time></trkpt><trkpt lat="43.44766176976592" lon="6.232922132489051"><ele>232.5</ele><time>2026-03-29T08:45:18.998Z</time></trkpt><trkpt lat="43.44759086142134" lon="6.232778298847649"><ele>232.0</ele><time>2026-03-29T08:45:19.998Z</time></trkpt><trkpt lat="43.44751965887591" lon="6.232634854759746"><ele>231.5</ele><time>2026-03-29T08:45:21Z</time></trkpt><trkpt lat="43.44744226558873" lon="6.232489958140465"><ele>231.0</ele><time>2026-03-29T08:45:22Z</time></trkpt><trkpt lat="43.447362270881385" lon="6.232339885655435"><ele>230.5</ele><time>2026-03-29T08:45:23Z</time></trkpt><trkpt lat="43.44728796696219" lon="6.232196855411248"><ele>230.0</ele><time>2026-03-29T08:45:24Z</time></trkpt><trkpt lat="43.44721536610122" lon="6.232061636689155"><ele>229.5</ele><time>2026-03-29T08:45:25Z</time></trkpt><trkpt lat="43.44714623288948" lon="6.231922692481399"><ele>229.0</ele><time>2026-03-29T08:45:26Z</time></trkpt><trkpt lat="43.44707326036323" lon="6.23177004800982"><ele>227.75</ele><time>2026-03-29T08:45:27Z</time></trkpt><trkpt lat="43.44700033414519" lon="6.231602411086649"><ele>226.5</ele><time>2026-03-29T08:45:28Z</time></trkpt><trkpt lat="43.44693467869433" lon="6.231419775066184"><ele>225.25</ele><time>2026-03-29T08:45:29Z</time></trkpt><trkpt lat="43.44687481297707" lon="6.2312474854867"><ele>224.0</ele><time>2026-03-29T08:45:30Z</time></trkpt><trkpt lat="43.446812857779854" lon="6.231074157886489"><ele>224.00000000000003</ele><time>2026-03-29T08:45:31Z</time></trkpt><trkpt lat="43.44676734073926" lon="6.230934539819711"><ele>224.0</ele><time>2026-03-29T08:45:32Z</time></trkpt><trkpt lat="43.446743658754606" lon="6.230843784545944"><ele>224.0</ele><time>2026-03-29T08:45:33Z</time></trkpt><trkpt lat="43.446727776190905" lon="6.23074024841618"><ele>224.0</ele><time>2026-03-29T08:45:35Z</time></trkpt><trkpt lat="43.44669820377819" lon="6.230649732097742"><ele>224.00000000000003</ele><time>2026-03-29T08:45:37Z</time></trkpt><trkpt lat="43.446635360594165" lon="6.230610767920529"><ele>224.0</ele><time>2026-03-29T08:45:45Z</time></trkpt><trkpt lat="43.44666960101622" lon="6.230738902272407"><ele>224.0</ele><time>2026-03-29T08:45:47Z</time></trkpt><trkpt lat="43.44670535804815" lon="6.230835408837149"><ele>223.99999999999997</ele><time>2026-03-29T08:45:48Z</time></trkpt><trkpt lat="43.44675571076654" lon="6.2309577684500175"><ele>223.99999999999997</ele><time>2026-03-29T08:45:50Z</time></trkpt><trkpt lat="43.44684376911539" lon="6.230969798991462"><ele>224.0</ele><time>2026-03-29T08:45:52Z</time></trkpt><trkpt lat="43.446744541779765" lon="6.230923177936254"><ele>224.0</ele><time>2026-03-29T08:46:06.999Z</time></trkpt><trkpt lat="43.44709433462135" lon="6.231075936945774"><ele>229.0</ele><time>2026-03-29T08:46:08.999Z</time></trkpt><trkpt lat="43.44665253241908" lon="6.230548231018741"><ele>229.0</ele><time>2026-03-29T08:46:09.999Z</time></trkpt><trkpt lat="43.4466000609779" lon="6.230379849363902"><ele>229.0</ele><time>2026-03-29T08:46:10.999Z</time></trkpt><trkpt lat="43.44653152315312" lon="6.230181510588312"><ele>229.0</ele><time>2026-03-29T08:46:11.999Z</time></trkpt><trkpt lat="43.44645900175331" lon="6.229982939120762"><ele>229.5</ele><time>2026-03-29T08:46:12.999Z</time></trkpt><trkpt lat="43.44638251942953" lon="6.2297847150119114"><ele>230.0</ele><time>2026-03-29T08:46:13.999Z</time></trkpt><trkpt lat="43.446313644080426" lon="6.229612678680799"><ele>230.5</ele><time>2026-03-29T08:46:14.999Z</time></trkpt><trkpt lat="43.44624349257124" lon="6.229459968842137"><ele>231.0</ele><time>2026-03-29T08:46:15.999Z</time></trkpt><trkpt lat="43.44617270459898" lon="6.229312790813035"><ele>228.0</ele><time>2026-03-29T08:46:16.999Z</time></trkpt><trkpt lat="43.446093659273" lon="6.2291589537563645"><ele>225.0</ele><time>2026-03-29T08:46:17.999Z</time></trkpt><trkpt lat="43.446015602298864" lon="6.228984097530289"><ele>222.0</ele><time>2026-03-29T08:46:18.999Z</time></trkpt><trkpt lat="43.44594581101143" lon="6.2287912046942076"><ele>219.0</ele><time>2026-03-29T08:46:19.999Z</time></trkpt><trkpt lat="43.44588447904793" lon="6.228578869095351"><ele>219.0</ele><time>2026-03-29T08:46:20.999Z</time></trkpt><trkpt lat="43.44583011459673" lon="6.22836715619611"><ele>219.0</ele><time>2026-03-29T08:46:21.999Z</time></trkpt><trkpt lat="43.44577892786037" lon="6.228148862249959"><ele>219.0</ele><time>2026-03-29T08:46:22.999Z</time></trkpt><trkpt lat="43.445730052831216" lon="6.22794249563991"><ele>219.66666666666669</ele><time>2026-03-29T08:46:23.999Z</time></trkpt><trkpt lat="43.44570559013687" lon="6.227747079662013"><ele>220.33333333333334</ele><time>2026-03-29T08:46:24.999Z</time></trkpt><trkpt lat="43.44565707132" lon="6.227530963700882"><ele>221.0</ele><time>2026-03-29T08:46:25.999Z</time></trkpt><trkpt lat="43.44564071402401" lon="6.227318394524799"><ele>219.66666666666669</ele><time>2026-03-29T08:46:26.999Z</time></trkpt><trkpt lat="43.44566335336175" lon="6.227101880153569"><ele>218.33333333333331</ele><time>2026-03-29T08:46:27.999Z</time></trkpt><trkpt lat="43.44568887143253" lon="6.226883640920089"><ele>217.0</ele><time>2026-03-29T08:46:28.999Z</time></trkpt><trkpt lat="43.44571320347834" lon="6.22665090429507"><ele>217.75</ele><time>2026-03-29T08:46:29.999Z</time></trkpt><trkpt lat="43.44572975672486" lon="6.226443486003373"><ele>218.5</ele><time>2026-03-29T08:46:30.999Z</time></trkpt><trkpt lat="43.445731887902454" lon="6.226242759057448"><ele>219.25</ele><time>2026-03-29T08:46:31.999Z</time></trkpt><trkpt lat="43.44569265197577" lon="6.226056065734057"><ele>220.0</ele><time>2026-03-29T08:46:32.999Z</time></trkpt><trkpt lat="43.44562092847965" lon="6.22588559303785"><ele>220.0</ele><time>2026-03-29T08:46:33.999Z</time></trkpt><trkpt lat="43.44551458851958" lon="6.22573073345034"><ele>220.0</ele><time>2026-03-29T08:46:34.999Z</time></trkpt><trkpt lat="43.44538124178604" lon="6.225603850740109"><ele>220.0</ele><time>2026-03-29T08:46:35.999Z</time></trkpt><trkpt lat="43.44524394930973" lon="6.2254745732482"><ele>217.66666666666666</ele><time>2026-03-29T08:46:36.999Z</time></trkpt><trkpt lat="43.44510012836808" lon="6.225328551369744"><ele>215.33333333333331</ele><time>2026-03-29T08:46:37.999Z</time></trkpt><trkpt lat="43.44495476360112" lon="6.225181990871926"><ele>213.0</ele><time>2026-03-29T08:46:38.999Z</time></trkpt><trkpt lat="43.44479836440737" lon="6.225022892963836"><ele>213.0</ele><time>2026-03-29T08:46:39.999Z</time></trkpt><trkpt lat="43.444639027828366" lon="6.2248566570232455"><ele>213.0</ele><time>2026-03-29T08:46:40.999Z</time></trkpt><trkpt lat="43.44449596950528" lon="6.22471312213559"><ele>213.0</ele><time>2026-03-29T08:46:41.999Z</time></trkpt><trkpt lat="43.444359525202735" lon="6.224571968720842"><ele>210.75</ele><time>2026-03-29T08:46:42.999Z</time></trkpt><trkpt lat="43.44424065396434" lon="6.224420091736529"><ele>208.5</ele><time>2026-03-29T08:46:43.999Z</time></trkpt><trkpt lat="43.44419478289951" lon="6.224221594363716"><ele>206.25</ele><time>2026-03-29T08:46:44.999Z</time></trkpt><trkpt lat="43.44418223823701" lon="6.2240418813747125"><ele>204.0</ele><time>2026-03-29T08:46:45.999Z</time></trkpt><trkpt lat="43.44416713584167" lon="6.22385000095642"><ele>203.25</ele><time>2026-03-29T08:46:46.999Z</time></trkpt><trkpt lat="43.444146646233605" lon="6.223650317223358"><ele>202.5</ele><time>2026-03-29T08:46:47.999Z</time></trkpt><trkpt lat="43.44412425642598" lon="6.223452920845818"><ele>201.75</ele><time>2026-03-29T08:46:48.999Z</time></trkpt><trkpt lat="43.44410204152735" lon="6.223264909282382"><ele>201.0</ele><time>2026-03-29T08:46:49.999Z</time></trkpt><trkpt lat="43.44408140331709" lon="6.223090242101548"><ele>201.0</ele><time>2026-03-29T08:46:50.999Z</time></trkpt><trkpt lat="43.4440599167798" lon="6.222917236713963"><ele>201.0</ele><time>2026-03-29T08:46:51.998Z</time></trkpt><trkpt lat="43.44403997995451" lon="6.222755554064039"><ele>201.0</ele><time>2026-03-29T08:46:52.998Z</time></trkpt><trkpt lat="43.44402182906752" lon="6.222608354811572"><ele>201.0</ele><time>2026-03-29T08:46:53.998Z</time></trkpt><trkpt lat="43.44400517556161" lon="6.222473298865588"><ele>201.0</ele><time>2026-03-29T08:46:54.998Z</time></trkpt><trkpt lat="43.443978716561276" lon="6.222370910204889"><ele>201.0</ele><time>2026-03-29T08:46:55.998Z</time></trkpt><trkpt lat="43.443975729866004" lon="6.222238276693686"><ele>201.0</ele><time>2026-03-29T08:46:57.998Z</time></trkpt><trkpt lat="43.44375954582469" lon="6.222298717253815"><ele>201.0</ele><time>2026-03-29T08:47:00.998Z</time></trkpt><trkpt lat="43.44369308610621" lon="6.222345283850511"><ele>199.5</ele><time>2026-03-29T08:47:01.998Z</time></trkpt><trkpt lat="43.44362101590967" lon="6.22238210154238"><ele>198.0</ele><time>2026-03-29T08:47:02.998Z</time></trkpt><trkpt lat="43.443549988021076" lon="6.2223914837122845"><ele>196.5</ele><time>2026-03-29T08:47:03.998Z</time></trkpt><trkpt lat="43.44348394009079" lon="6.222397111538432"><ele>195.0</ele><time>2026-03-29T08:47:04.998Z</time></trkpt><trkpt lat="43.44339908473215" lon="6.222413797451021"><ele>193.5</ele><time>2026-03-29T08:47:05.998Z</time></trkpt><trkpt lat="43.443301980789585" lon="6.222430986855733"><ele>192.0</ele><time>2026-03-29T08:47:06.998Z</time></trkpt><trkpt lat="43.44319799557093" lon="6.222455178682403"><ele>192.0</ele><time>2026-03-29T08:47:07.998Z</time></trkpt><trkpt lat="43.443093822307205" lon="6.222523585459949"><ele>192.0</ele><time>2026-03-29T08:47:08.998Z</time></trkpt><trkpt lat="43.44301631876059" lon="6.22263979967818"><ele>192.0</ele><time>2026-03-29T08:47:09.998Z</time></trkpt><trkpt lat="43.442940656473176" lon="6.222783172271037"><ele>192.0</ele><time>2026-03-29T08:47:10.998Z</time></trkpt><trkpt lat="43.44285053567891" lon="6.222904680497698"><ele>195.5</ele><time>2026-03-29T08:47:11.998Z</time></trkpt><trkpt lat="43.4427461775288" lon="6.222996055258891"><ele>199.0</ele><time>2026-03-29T08:47:12.998Z</time></trkpt><trkpt lat="43.44261848572916" lon="6.223042203548374"><ele>202.5</ele><time>2026-03-29T08:47:13.998Z</time></trkpt><trkpt lat="43.44248349789896" lon="6.223075233427428"><ele>206.0</ele><time>2026-03-29T08:47:14.998Z</time></trkpt><trkpt lat="43.44233717063379" lon="6.223100710208243"><ele>206.0</ele><time>2026-03-29T08:47:15.998Z</time></trkpt><trkpt lat="43.44218272242088" lon="6.223111646654293"><ele>206.0</ele><time>2026-03-29T08:47:16.998Z</time></trkpt><trkpt lat="43.44204015894774" lon="6.223074282200295"><ele>206.0</ele><time>2026-03-29T08:47:17.998Z</time></trkpt><trkpt lat="43.44189680123132" lon="6.222991756697551"><ele>211.5</ele><time>2026-03-29T08:47:18.998Z</time></trkpt><trkpt lat="43.44175274477069" lon="6.222957044917124"><ele>217.0</ele><time>2026-03-29T08:47:19.998Z</time></trkpt><trkpt lat="43.4416027815892" lon="6.222986054382128"><ele>222.5</ele><time>2026-03-29T08:47:20.998Z</time></trkpt><trkpt lat="43.44146301745708" lon="6.22304073784369"><ele>228.0</ele><time>2026-03-29T08:47:21.998Z</time></trkpt><trkpt lat="43.441323457328814" lon="6.223144201672224"><ele>227.5</ele><time>2026-03-29T08:47:22.998Z</time></trkpt><trkpt lat="43.44120641462614" lon="6.223278107017195"><ele>227.0</ele><time>2026-03-29T08:47:23.998Z</time></trkpt><trkpt lat="43.44112389672426" lon="6.223440381884644"><ele>226.5</ele><time>2026-03-29T08:47:24.998Z</time></trkpt><trkpt lat="43.4410710717501" lon="6.2236112705047"><ele>226.0</ele><time>2026-03-29T08:47:25.998Z</time></trkpt><trkpt lat="43.44103288488039" lon="6.223782614122038"><ele>226.0</ele><time>2026-03-29T08:47:27Z</time></trkpt><trkpt lat="43.44101680552112" lon="6.2239787681186565"><ele>226.0</ele><time>2026-03-29T08:47:28Z</time></trkpt><trkpt lat="43.44100226373934" lon="6.22419724320465"><ele>226.0</ele><time>2026-03-29T08:47:29Z</time></trkpt><trkpt lat="43.4409933963443" lon="6.224410512690019"><ele>222.33333333333331</ele><time>2026-03-29T08:47:30Z</time></trkpt><trkpt lat="43.441001944022844" lon="6.224615233379613"><ele>218.66666666666669</ele><time>2026-03-29T08:47:31Z</time></trkpt><trkpt lat="43.44102141907523" lon="6.224832881894577"><ele>215.0</ele><time>2026-03-29T08:47:32Z</time></trkpt><trkpt lat="43.441045143095444" lon="6.225028459264312"><ele>215.0</ele><time>2026-03-29T08:47:33Z</time></trkpt><trkpt lat="43.44107923212471" lon="6.2252100251695905"><ele>215.0</ele><time>2026-03-29T08:47:34Z</time></trkpt><trkpt lat="43.441110587985435" lon="6.225385243341684"><ele>215.0</ele><time>2026-03-29T08:47:35Z</time></trkpt><trkpt lat="43.44113890803539" lon="6.225557513129543"><ele>215.0</ele><time>2026-03-29T08:47:36Z</time></trkpt><trkpt lat="43.441158457473406" lon="6.225740827956127"><ele>212.25</ele><time>2026-03-29T08:47:37Z</time></trkpt><trkpt lat="43.441150539782534" lon="6.225912386731917"><ele>209.5</ele><time>2026-03-29T08:47:38Z</time></trkpt><trkpt lat="43.44113028366227" lon="6.226074832149716"><ele>206.75</ele><time>2026-03-29T08:47:39Z</time></trkpt><trkpt lat="43.44104600954419" lon="6.226179947335442"><ele>204.0</ele><time>2026-03-29T08:47:40Z</time></trkpt><trkpt lat="43.4409499422731" lon="6.226244406301232"><ele>204.0</ele><time>2026-03-29T08:47:41Z</time></trkpt><trkpt lat="43.440831470570984" lon="6.226289913122789"><ele>204.0</ele><time>2026-03-29T08:47:42Z</time></trkpt><trkpt lat="43.440685814419815" lon="6.226341828666358"><ele>204.0</ele><time>2026-03-29T08:47:43Z</time></trkpt><trkpt lat="43.44053514077628" lon="6.226411174549842"><ele>204.0</ele><time>2026-03-29T08:47:44Z</time></trkpt><trkpt lat="43.44037635162881" lon="6.226494176657624"><ele>203.0</ele><time>2026-03-29T08:47:45Z</time></trkpt><trkpt lat="43.440202510843484" lon="6.2265872964735225"><ele>202.0</ele><time>2026-03-29T08:47:46Z</time></trkpt><trkpt lat="43.440018305149586" lon="6.226685533564749"><ele>201.0</ele><time>2026-03-29T08:47:47Z</time></trkpt><trkpt lat="43.4398124435798" lon="6.226793000453053"><ele>209.33333333333331</ele><time>2026-03-29T08:47:48Z</time></trkpt><trkpt lat="43.439606212405096" lon="6.226901376758903"><ele>217.66666666666666</ele><time>2026-03-29T08:47:49Z</time></trkpt><trkpt lat="43.43942052784662" lon="6.2270133923923865"><ele>226.0</ele><time>2026-03-29T08:47:50Z</time></trkpt><trkpt lat="43.43924684792388" lon="6.227123934499847"><ele>226.0</ele><time>2026-03-29T08:47:51Z</time></trkpt><trkpt lat="43.43908177828303" lon="6.227218286381195"><ele>226.0</ele><time>2026-03-29T08:47:52Z</time></trkpt><trkpt lat="43.438915991887306" lon="6.227306296275308"><ele>226.0</ele><time>2026-03-29T08:47:53Z</time></trkpt><trkpt lat="43.438779243966316" lon="6.227410654458179"><ele>220.33333333333331</ele><time>2026-03-29T08:47:54Z</time></trkpt><trkpt lat="43.43863688806793" lon="6.227510641524405"><ele>214.66666666666669</ele><time>2026-03-29T08:47:55Z</time></trkpt><trkpt lat="43.43851689241549" lon="6.227661141920868"><ele>209.0</ele><time>2026-03-29T08:47:56Z</time></trkpt><trkpt lat="43.438405238304554" lon="6.2278020850439715"><ele>209.0</ele><time>2026-03-29T08:47:57Z</time></trkpt><trkpt lat="43.43828411045687" lon="6.2279430093641155"><ele>209.0</ele><time>2026-03-29T08:47:58Z</time></trkpt><trkpt lat="43.438166397733994" lon="6.228082647417098"><ele>209.0</ele><time>2026-03-29T08:47:59Z</time></trkpt><trkpt lat="43.43804581046697" lon="6.2282102339989835"><ele>205.33333333333334</ele><time>2026-03-29T08:48:00Z</time></trkpt><trkpt lat="43.437905230408674" lon="6.2282955987887245"><ele>201.66666666666669</ele><time>2026-03-29T08:48:01Z</time></trkpt><trkpt lat="43.43775947586334" lon="6.22836815913433"><ele>198.0</ele><time>2026-03-29T08:48:02Z</time></trkpt><trkpt lat="43.43760222218574" lon="6.228427032182533"><ele>198.0</ele><time>2026-03-29T08:48:03Z</time></trkpt><trkpt lat="43.43744114386793" lon="6.228460659306635"><ele>198.0</ele><time>2026-03-29T08:48:04Z</time></trkpt><trkpt lat="43.43727569066956" lon="6.2284988404013255"><ele>198.0</ele><time>2026-03-29T08:48:05Z</time></trkpt><trkpt lat="43.437114524065" lon="6.228535567062958"><ele>198.5</ele><time>2026-03-29T08:48:06Z</time></trkpt><trkpt lat="43.4369677788909" lon="6.228563394065641"><ele>199.0</ele><time>2026-03-29T08:48:07Z</time></trkpt><trkpt lat="43.436832862546545" lon="6.2285916758907565"><ele>199.5</ele><time>2026-03-29T08:48:07.999Z</time></trkpt><trkpt lat="43.43670594579497" lon="6.228613986067046"><ele>200.0</ele><time>2026-03-29T08:48:08.999Z</time></trkpt><trkpt lat="43.43658774338511" lon="6.228627156699349"><ele>200.0</ele><time>2026-03-29T08:48:09.999Z</time></trkpt><trkpt lat="43.43648093200508" lon="6.228614432706361"><ele>200.0</ele><time>2026-03-29T08:48:10.999Z</time></trkpt><trkpt lat="43.43637584478141" lon="6.228574821417423"><ele>200.0</ele><time>2026-03-29T08:48:11.999Z</time></trkpt><trkpt lat="43.43628840169704" lon="6.228522362926813"><ele>200.0</ele><time>2026-03-29T08:48:12.999Z</time></trkpt><trkpt lat="43.43622667572134" lon="6.228447403691008"><ele>200.0</ele><time>2026-03-29T08:48:13.999Z</time></trkpt><trkpt lat="43.43618038232459" lon="6.228383804035019"><ele>198.25</ele><time>2026-03-29T08:48:14.999Z</time></trkpt><trkpt lat="43.4359936407502" lon="6.228572175045688"><ele>196.5</ele><time>2026-03-29T08:48:17.999Z</time></trkpt><trkpt lat="43.43594424528487" lon="6.228653700612163"><ele>194.75</ele><time>2026-03-29T08:48:18.999Z</time></trkpt><trkpt lat="43.43580801295913" lon="6.228683871441487"><ele>193.0</ele><time>2026-03-29T08:48:20.999Z</time></trkpt><trkpt lat="43.43570009273263" lon="6.228642492507433"><ele>193.0</ele><time>2026-03-29T08:48:21.999Z</time></trkpt><trkpt lat="43.43558007645727" lon="6.228593957364871"><ele>193.0</ele><time>2026-03-29T08:48:22.999Z</time></trkpt><trkpt lat="43.435449021057934" lon="6.228555405722573"><ele>193.0</ele><time>2026-03-29T08:48:23.999Z</time></trkpt><trkpt lat="43.435315643563534" lon="6.228513337454465"><ele>193.0</ele><time>2026-03-29T08:48:24.999Z</time></trkpt><trkpt lat="43.43517931197651" lon="6.228502955294962"><ele>192.25</ele><time>2026-03-29T08:48:25.999Z</time></trkpt><trkpt lat="43.43505824515511" lon="6.22848175513185"><ele>191.5</ele><time>2026-03-29T08:48:26.999Z</time></trkpt><trkpt lat="43.43494394832386" lon="6.228467370771279"><ele>190.75</ele><time>2026-03-29T08:48:27.999Z</time></trkpt><trkpt lat="43.43483373151313" lon="6.228455288960733"><ele>190.0</ele><time>2026-03-29T08:48:28.999Z</time></trkpt><trkpt lat="43.43472255748678" lon="6.228465028309786"><ele>190.0</ele><time>2026-03-29T08:48:29.999Z</time></trkpt><trkpt lat="43.434597681087695" lon="6.2284812691479265"><ele>190.0</ele><time>2026-03-29T08:48:30.999Z</time></trkpt><trkpt lat="43.434467317885556" lon="6.228492308375307"><ele>190.0</ele><time>2026-03-29T08:48:31.999Z</time></trkpt><trkpt lat="43.43432877268207" lon="6.228490331625513"><ele>190.0</ele><time>2026-03-29T08:48:32.999Z</time></trkpt><trkpt lat="43.434197215726606" lon="6.228490478768339"><ele>190.0</ele><time>2026-03-29T08:48:33.999Z</time></trkpt><trkpt lat="43.43408305978538" lon="6.228494937976771"><ele>190.0</ele><time>2026-03-29T08:48:34.999Z</time></trkpt><trkpt lat="43.433981181483944" lon="6.22851345357868"><ele>190.0</ele><time>2026-03-29T08:48:35.999Z</time></trkpt><trkpt lat="43.43389355944095" lon="6.228522408575795"><ele>190.0</ele><time>2026-03-29T08:48:36.999Z</time></trkpt><trkpt lat="43.43381219865418" lon="6.22853279746379"><ele>190.0</ele><time>2026-03-29T08:48:37.999Z</time></trkpt><trkpt lat="43.43374082241962" lon="6.228532300166455"><ele>190.8</ele><time>2026-03-29T08:48:38.999Z</time></trkpt><trkpt lat="43.43366972556941" lon="6.2284874616747485"><ele>191.6</ele><time>2026-03-29T08:48:40.999Z</time></trkpt><trkpt lat="43.433677776462986" lon="6.228379172143615"><ele>192.39999999999998</ele><time>2026-03-29T08:48:42.999Z</time></trkpt><trkpt lat="43.43365758708512" lon="6.228290616124136"><ele>193.2</ele><time>2026-03-29T08:48:44.999Z</time></trkpt><trkpt lat="43.4335188058137" lon="6.228315508585236"><ele>194.0</ele><time>2026-03-29T08:48:46.999Z</time></trkpt><trkpt lat="43.43340690898319" lon="6.22831768316978"><ele>194.0</ele><time>2026-03-29T08:48:47.999Z</time></trkpt><trkpt lat="43.4333060016988" lon="6.228317883256455"><ele>194.0</ele><time>2026-03-29T08:48:48.999Z</time></trkpt><trkpt lat="43.4332202259815" lon="6.228327598763541"><ele>194.0</ele><time>2026-03-29T08:48:49.999Z</time></trkpt><trkpt lat="43.43314748708791" lon="6.228340888817295"><ele>194.0</ele><time>2026-03-29T08:48:50.999Z</time></trkpt><trkpt lat="43.433025698497524" lon="6.228357391401314"><ele>194.0</ele><time>2026-03-29T08:48:52.999Z</time></trkpt><trkpt lat="43.43294311917401" lon="6.228362045918251"><ele>193.50000000000003</ele><time>2026-03-29T08:48:53.999Z</time></trkpt><trkpt lat="43.432879887780416" lon="6.228361239920035"><ele>193.0</ele><time>2026-03-29T08:48:54.999Z</time></trkpt><trkpt lat="43.43280194928005" lon="6.228340287317095"><ele>192.5</ele><time>2026-03-29T08:48:56.999Z</time></trkpt><trkpt lat="43.43273028548047" lon="6.228418612679741"><ele>192.0</ele><time>2026-03-29T08:49:01.998Z</time></trkpt><trkpt lat="43.43264456128987" lon="6.228395255173182"><ele>191.5</ele><time>2026-03-29T08:49:03.998Z</time></trkpt><trkpt lat="43.43256086663794" lon="6.228363447103951"><ele>191.0</ele><time>2026-03-29T08:49:04.998Z</time></trkpt><trkpt lat="43.432469997808106" lon="6.228340779770197"><ele>191.0</ele><time>2026-03-29T08:49:05.998Z</time></trkpt><trkpt lat="43.43236385489487" lon="6.228287424855196"><ele>191.0</ele><time>2026-03-29T08:49:06.998Z</time></trkpt><trkpt lat="43.43228682799853" lon="6.228248947356907"><ele>191.0</ele><time>2026-03-29T08:49:07.998Z</time></trkpt><trkpt lat="43.43222700225361" lon="6.228184871597402"><ele>191.0</ele><time>2026-03-29T08:49:08.998Z</time></trkpt><trkpt lat="43.432161808112475" lon="6.228085534423594"><ele>191.0</ele><time>2026-03-29T08:49:09.998Z</time></trkpt><trkpt lat="43.43209779172972" lon="6.22800992718497"><ele>191.0</ele><time>2026-03-29T08:49:10.998Z</time></trkpt><trkpt lat="43.43203541027725" lon="6.227942992635844"><ele>191.0</ele><time>2026-03-29T08:49:11.998Z</time></trkpt><trkpt lat="43.431971511329536" lon="6.22791419660047"><ele>191.0</ele><time>2026-03-29T08:49:12.998Z</time></trkpt><trkpt lat="43.43182457890644" lon="6.227937678382202"><ele>191.0</ele><time>2026-03-29T08:49:14.998Z</time></trkpt><trkpt lat="43.43173163133716" lon="6.227898785408079"><ele>191.0</ele><time>2026-03-29T08:49:15.998Z</time></trkpt><trkpt lat="43.43164882480263" lon="6.2278467560237525"><ele>191.0</ele><time>2026-03-29T08:49:16.998Z</time></trkpt><trkpt lat="43.431562275548636" lon="6.227781923972029"><ele>191.0</ele><time>2026-03-29T08:49:17.998Z</time></trkpt><trkpt lat="43.43147455039283" lon="6.227718221042474"><ele>191.0</ele><time>2026-03-29T08:49:18.998Z</time></trkpt><trkpt lat="43.43139771187237" lon="6.2276513438677"><ele>191.0</ele><time>2026-03-29T08:49:19.998Z</time></trkpt><trkpt lat="43.43132835132483" lon="6.227594205220219"><ele>191.0</ele><time>2026-03-29T08:49:20.998Z</time></trkpt><trkpt lat="43.431253658910066" lon="6.227524743516901"><ele>190.66666666666666</ele><time>2026-03-29T08:49:21.998Z</time></trkpt><trkpt lat="43.43117377193134" lon="6.22745052135351"><ele>190.33333333333331</ele><time>2026-03-29T08:49:22.998Z</time></trkpt><trkpt lat="43.43110513157148" lon="6.227394505425296"><ele>190.0</ele><time>2026-03-29T08:49:23.998Z</time></trkpt><trkpt lat="43.43103282814491" lon="6.227320565507786"><ele>189.66666666666666</ele><time>2026-03-29T08:49:24.998Z</time></trkpt><trkpt lat="43.4309632264431" lon="6.227234209403643"><ele>189.33333333333334</ele><time>2026-03-29T08:49:25.998Z</time></trkpt><trkpt lat="43.430909650710724" lon="6.227143573943967"><ele>189.0</ele><time>2026-03-29T08:49:26.998Z</time></trkpt><trkpt lat="43.430851445997405" lon="6.227074365609972"><ele>189.0</ele><time>2026-03-29T08:49:27.998Z</time></trkpt><trkpt lat="43.430788145014056" lon="6.227027308977489"><ele>189.0</ele><time>2026-03-29T08:49:28.998Z</time></trkpt><trkpt lat="43.43072140459361" lon="6.226988890825882"><ele>189.0</ele><time>2026-03-29T08:49:29.998Z</time></trkpt><trkpt lat="43.430622996506955" lon="6.2268912685743665"><ele>189.0</ele><time>2026-03-29T08:49:31.998Z</time></trkpt><trkpt lat="43.4305669892385" lon="6.226825019923841"><ele>189.0</ele><time>2026-03-29T08:49:33Z</time></trkpt><trkpt lat="43.43051550838262" lon="6.226741542414074"><ele>189.0</ele><time>2026-03-29T08:49:34Z</time></trkpt><trkpt lat="43.43044665733641" lon="6.226620162196976"><ele>189.33333333333334</ele><time>2026-03-29T08:49:35Z</time></trkpt><trkpt lat="43.430362672718324" lon="6.22645652791593"><ele>189.66666666666669</ele><time>2026-03-29T08:49:36Z</time></trkpt><trkpt lat="43.43025956837701" lon="6.226279433798887"><ele>190.0</ele><time>2026-03-29T08:49:37Z</time></trkpt><trkpt lat="43.430131358181754" lon="6.226079578002478"><ele>190.0</ele><time>2026-03-29T08:49:38Z</time></trkpt><trkpt lat="43.43001697841" lon="6.225910046424545"><ele>190.0</ele><time>2026-03-29T08:49:39Z</time></trkpt><trkpt lat="43.429921709257904" lon="6.225770291281758"><ele>190.0</ele><time>2026-03-29T08:49:40Z</time></trkpt><trkpt lat="43.42983474692341" lon="6.2256501452970125"><ele>190.0</ele><time>2026-03-29T08:49:41Z</time></trkpt><trkpt lat="43.42974111454668" lon="6.225516767827043"><ele>190.4</ele><time>2026-03-29T08:49:42Z</time></trkpt><trkpt lat="43.4296423742953" lon="6.225341935407952"><ele>190.8</ele><time>2026-03-29T08:49:43Z</time></trkpt><trkpt lat="43.42956989032185" lon="6.22521214533985"><ele>191.2</ele><time>2026-03-29T08:49:44Z</time></trkpt><trkpt lat="43.429515840802004" lon="6.225126870625807"><ele>191.6</ele><time>2026-03-29T08:49:45Z</time></trkpt><trkpt lat="43.42945623000867" lon="6.22507413228463"><ele>192.0</ele><time>2026-03-29T08:49:46Z</time></trkpt><trkpt lat="43.42932081161677" lon="6.225103808764818"><ele>192.16666666666666</ele><time>2026-03-29T08:49:48Z</time></trkpt><trkpt lat="43.42924884777836" lon="6.225139604109773"><ele>192.33333333333331</ele><time>2026-03-29T08:49:49Z</time></trkpt><trkpt lat="43.42918288227484" lon="6.2250701612628685"><ele>192.5</ele><time>2026-03-29T08:49:51Z</time></trkpt><trkpt lat="43.42915283774671" lon="6.224984054309683"><ele>192.66666666666666</ele><time>2026-03-29T08:49:52Z</time></trkpt><trkpt lat="43.42911241074208" lon="6.224896155293787"><ele>192.83333333333331</ele><time>2026-03-29T08:49:53Z</time></trkpt><trkpt lat="43.429061262819744" lon="6.224784518334149"><ele>193.0</ele><time>2026-03-29T08:49:54Z</time></trkpt><trkpt lat="43.42901096579531" lon="6.224690158469585"><ele>193.8</ele><time>2026-03-29T08:49:55Z</time></trkpt><trkpt lat="43.42893692722534" lon="6.224612768246637"><ele>194.60000000000002</ele><time>2026-03-29T08:49:56Z</time></trkpt><trkpt lat="43.42885498014824" lon="6.224566342973914"><ele>195.39999999999998</ele><time>2026-03-29T08:49:57Z</time></trkpt><trkpt lat="43.42876382556748" lon="6.224534160601655"><ele>196.2</ele><time>2026-03-29T08:49:58Z</time></trkpt><trkpt lat="43.42865992989591" lon="6.224510836748573"><ele>197.0</ele><time>2026-03-29T08:49:59Z</time></trkpt><trkpt lat="43.42857269274165" lon="6.224503865554497"><ele>197.33333333333334</ele><time>2026-03-29T08:50:00Z</time></trkpt><trkpt lat="43.42849387856808" lon="6.2245256382676635"><ele>197.66666666666669</ele><time>2026-03-29T08:50:01Z</time></trkpt><trkpt lat="43.4284033736168" lon="6.2245604813917765"><ele>198.0</ele><time>2026-03-29T08:50:02Z</time></trkpt><trkpt lat="43.42830922539103" lon="6.224603110261376"><ele>198.33333333333331</ele><time>2026-03-29T08:50:03Z</time></trkpt><trkpt lat="43.42822368710616" lon="6.224636518490802"><ele>198.66666666666666</ele><time>2026-03-29T08:50:04Z</time></trkpt><trkpt lat="43.42814752914257" lon="6.224655429097125"><ele>199.0</ele><time>2026-03-29T08:50:05Z</time></trkpt><trkpt lat="43.42808109232866" lon="6.2246447135715615"><ele>199.0</ele><time>2026-03-29T08:50:06Z</time></trkpt><trkpt lat="43.42803639016408" lon="6.224566041447446"><ele>199.0</ele><time>2026-03-29T08:50:07Z</time></trkpt><trkpt lat="43.42803929210692" lon="6.224383487995623"><ele>199.0</ele><time>2026-03-29T08:50:08Z</time></trkpt><trkpt lat="43.427970905002695" lon="6.2243122853508455"><ele>199.0</ele><time>2026-03-29T08:50:09Z</time></trkpt><trkpt lat="43.427915618500535" lon="6.224209114734237"><ele>199.0</ele><time>2026-03-29T08:50:10Z</time></trkpt><trkpt lat="43.42783234510626" lon="6.224130469767268"><ele>198.6</ele><time>2026-03-29T08:50:11Z</time></trkpt><trkpt lat="43.42776283378533" lon="6.2240598177439095"><ele>198.2</ele><time>2026-03-29T08:50:12Z</time></trkpt><trkpt lat="43.42769224761561" lon="6.224019150872262"><ele>197.79999999999998</ele><time>2026-03-29T08:50:13Z</time></trkpt><trkpt lat="43.427596533380836" lon="6.224035797418494"><ele>197.39999999999998</ele><time>2026-03-29T08:50:14Z</time></trkpt><trkpt lat="43.42749821639036" lon="6.224035599788528"><ele>197.0</ele><time>2026-03-29T08:50:15Z</time></trkpt><trkpt lat="43.42740323730832" lon="6.223922526661203"><ele>196.75</ele><time>2026-03-29T08:50:16Z</time></trkpt><trkpt lat="43.4272744059537" lon="6.2238612408143155"><ele>196.5</ele><time>2026-03-29T08:50:16.999Z</time></trkpt><trkpt lat="43.42714908695825" lon="6.223808630715452"><ele>196.25</ele><time>2026-03-29T08:50:17.999Z</time></trkpt><trkpt lat="43.42703784541672" lon="6.223783742343845"><ele>196.0</ele><time>2026-03-29T08:50:18.999Z</time></trkpt><trkpt lat="43.42694790782281" lon="6.223729001603602"><ele>195.60000000000002</ele><time>2026-03-29T08:50:19.999Z</time></trkpt><trkpt lat="43.42688746150615" lon="6.2236657838002625"><ele>195.2</ele><time>2026-03-29T08:50:20.999Z</time></trkpt><trkpt lat="43.42683136327848" lon="6.223597287568318"><ele>194.8</ele><time>2026-03-29T08:50:22.999Z</time></trkpt><trkpt lat="43.4269530012728" lon="6.223359040330146"><ele>194.39999999999998</ele><time>2026-03-29T08:50:30.999Z</time></trkpt><trkpt lat="43.42698740958456" lon="6.223266054368966"><ele>194.0</ele><time>2026-03-29T08:50:31.999Z</time></trkpt><trkpt lat="43.42702927698001" lon="6.2231551267303535"><ele>194.33333333333334</ele><time>2026-03-29T08:50:32.999Z</time></trkpt><trkpt lat="43.427068590347154" lon="6.223052340220143"><ele>194.66666666666669</ele><time>2026-03-29T08:50:33.999Z</time></trkpt><trkpt lat="43.427115707483146" lon="6.222954361857312"><ele>195.0</ele><time>2026-03-29T08:50:34.999Z</time></trkpt><trkpt lat="43.42715544841622" lon="6.222875502370554"><ele>195.33333333333331</ele><time>2026-03-29T08:50:35.999Z</time></trkpt><trkpt lat="43.42718911126308" lon="6.222798013345203"><ele>195.66666666666666</ele><time>2026-03-29T08:50:36.999Z</time></trkpt><trkpt lat="43.427226297166584" lon="6.222720759415025"><ele>196.0</ele><time>2026-03-29T08:50:37.999Z</time></trkpt><trkpt lat="43.42728893850342" lon="6.222631620566486"><ele>196.0</ele><time>2026-03-29T08:50:39.999Z</time></trkpt><trkpt lat="43.42735715948238" lon="6.222673434897519"><ele>196.0</ele><time>2026-03-29T08:50:41.999Z</time></trkpt><trkpt lat="43.4274155736958" lon="6.22271062720657"><ele>196.0</ele><time>2026-03-29T08:50:43.999Z</time></trkpt><trkpt lat="43.4274281076815" lon="6.222801074371391"><ele>196.0</ele><time>2026-03-29T08:51:19.998Z</time></trkpt><trkpt lat="43.42741526915691" lon="6.222712999940172"><ele>196.0</ele><time>2026-03-29T08:51:54Z</time></trkpt><trkpt lat="43.42735019346644" lon="6.222683349132296"><ele>196.0</ele><time>2026-03-29T08:52:00Z</time></trkpt><trkpt lat="43.42740427197447" lon="6.222631470549732"><ele>196.0</ele><time>2026-03-29T08:52:06Z</time></trkpt><trkpt lat="43.42745759958528" lon="6.222582082427482"><ele>196.0</ele><time>2026-03-29T08:52:10Z</time></trkpt><trkpt lat="43.42751088611573" lon="6.222519216997869"><ele>196.0</ele><time>2026-03-29T08:52:14Z</time></trkpt><trkpt lat="43.427520638034274" lon="6.222419740304319"><ele>196.0</ele><time>2026-03-29T08:52:21Z</time></trkpt><trkpt lat="43.427505101821566" lon="6.2223283836493355"><ele>196.0</ele><time>2026-03-29T08:52:29.999Z</time></trkpt><trkpt lat="43.42754674828423" lon="6.222251880706709"><ele>196.0</ele><time>2026-03-29T08:52:34.999Z</time></trkpt><trkpt lat="43.42758811780254" lon="6.222182518611348"><ele>196.0</ele><time>2026-03-29T08:52:37.999Z</time></trkpt><trkpt lat="43.42752581645831" lon="6.222218948651273"><ele>196.0</ele><time>2026-03-29T08:56:00Z</time></trkpt><trkpt lat="43.427507094419454" lon="6.222302269557552"><ele>196.0</ele><time>2026-03-29T08:56:07Z</time></trkpt><trkpt lat="43.42751837804135" lon="6.222402498305825"><ele>196.0</ele><time>2026-03-29T08:56:12Z</time></trkpt><trkpt lat="43.42750852030396" lon="6.222506466093019"><ele>196.0</ele><time>2026-03-29T08:56:21Z</time></trkpt><trkpt lat="43.42744441113302" lon="6.222560300402519"><ele>196.0</ele><time>2026-03-29T08:56:26Z</time></trkpt><trkpt lat="43.42738474026342" lon="6.222621127148841"><ele>196.0</ele><time>2026-03-29T08:56:31Z</time></trkpt><trkpt lat="43.42739286806773" lon="6.222709072702793"><ele>196.0</ele><time>2026-03-29T08:56:40Z</time></trkpt><trkpt lat="43.427439808417354" lon="6.222792721829301"><ele>196.0</ele><time>2026-03-29T08:56:44.999Z</time></trkpt><trkpt lat="43.42743903259507" lon="6.222701998056284"><ele>195.99999999999997</ele><time>2026-03-29T09:01:08.999Z</time></trkpt><trkpt lat="43.42750541094303" lon="6.222669937819156"><ele>196.0</ele><time>2026-03-29T09:03:51.999Z</time></trkpt><trkpt lat="43.42757660779807" lon="6.2227180384669"><ele>196.0</ele><time>2026-03-29T09:03:54.999Z</time></trkpt><trkpt lat="43.42763080966123" lon="6.222809207968079"><ele>196.0</ele><time>2026-03-29T09:03:56.999Z</time></trkpt><trkpt lat="43.42769776967354" lon="6.222806188695662"><ele>195.99999999999997</ele><time>2026-03-29T09:03:59.999Z</time></trkpt><trkpt lat="43.42777878116603" lon="6.2227779076809595"><ele>196.0</ele><time>2026-03-29T09:04:02.998Z</time></trkpt><trkpt lat="43.427685513623004" lon="6.222756910521825"><ele>195.99999999999997</ele><time>2026-03-29T09:04:15Z</time></trkpt><trkpt lat="43.42764884132784" lon="6.222662963716075"><ele>196.0</ele><time>2026-03-29T09:04:17Z</time></trkpt><trkpt lat="43.427667840904064" lon="6.222570510065458"><ele>196.0</ele><time>2026-03-29T09:04:19Z</time></trkpt><trkpt lat="43.42772910608553" lon="6.2225022125243905"><ele>196.0</ele><time>2026-03-29T09:04:21Z</time></trkpt><trkpt lat="43.42779879134919" lon="6.222472673734223"><ele>195.99999999999997</ele><time>2026-03-29T09:04:23Z</time></trkpt><trkpt lat="43.427891274343324" lon="6.222404236732348"><ele>196.0</ele><time>2026-03-29T09:04:26Z</time></trkpt><trkpt lat="43.42796655922113" lon="6.22233266141567"><ele>196.8</ele><time>2026-03-29T09:04:28Z</time></trkpt><trkpt lat="43.428047608120316" lon="6.222260238098654"><ele>197.60000000000002</ele><time>2026-03-29T09:04:30Z</time></trkpt><trkpt lat="43.428109147291025" lon="6.222236257015157"><ele>198.4</ele><time>2026-03-29T09:04:32Z</time></trkpt><trkpt lat="43.42816116933196" lon="6.2223298459567635"><ele>199.2</ele><time>2026-03-29T09:04:34Z</time></trkpt><trkpt lat="43.4281628619527" lon="6.222108129481703"><ele>200.0</ele><time>2026-03-29T09:04:38Z</time></trkpt><trkpt lat="43.42813993072581" lon="6.222002897259282"><ele>200.14285714285717</ele><time>2026-03-29T09:04:39Z</time></trkpt><trkpt lat="43.4280889535179" lon="6.22192205703355"><ele>200.28571428571428</ele><time>2026-03-29T09:04:40Z</time></trkpt><trkpt lat="43.42805657075637" lon="6.221840529817254"><ele>200.42857142857144</ele><time>2026-03-29T09:04:41Z</time></trkpt><trkpt lat="43.42801764510889" lon="6.221742530117068"><ele>200.57142857142858</ele><time>2026-03-29T09:04:42Z</time></trkpt><trkpt lat="43.42798004394669" lon="6.2216500324437405"><ele>200.71428571428572</ele><time>2026-03-29T09:04:43Z</time></trkpt><trkpt lat="43.42794690059366" lon="6.221571923451683"><ele>200.85714285714286</ele><time>2026-03-29T09:04:44Z</time></trkpt><trkpt lat="43.427910263960975" lon="6.22148675215011"><ele>201.0</ele><time>2026-03-29T09:04:45Z</time></trkpt><trkpt lat="43.42785645671948" lon="6.221352764963872"><ele>201.33333333333334</ele><time>2026-03-29T09:04:47Z</time></trkpt><trkpt lat="43.427793134762254" lon="6.2212164410511654"><ele>201.66666666666669</ele><time>2026-03-29T09:04:49Z</time></trkpt><trkpt lat="43.427746466224264" lon="6.221153527055459"><ele>202.0</ele><time>2026-03-29T09:04:50Z</time></trkpt><trkpt lat="43.42769593965088" lon="6.22110064923738"><ele>202.33333333333334</ele><time>2026-03-29T09:04:51Z</time></trkpt><trkpt lat="43.427590583959365" lon="6.2210627468171955"><ele>202.66666666666669</ele><time>2026-03-29T09:04:53Z</time></trkpt><trkpt lat="43.42752670153094" lon="6.221044626430468"><ele>203.0</ele><time>2026-03-29T09:04:54Z</time></trkpt><trkpt lat="43.4274468000636" lon="6.2210251853409195"><ele>203.00000000000003</ele><time>2026-03-29T09:04:55Z</time></trkpt><trkpt lat="43.42738208195021" lon="6.2210094384339145"><ele>203.0</ele><time>2026-03-29T09:04:56Z</time></trkpt><trkpt lat="43.42731352810988" lon="6.220996130391182"><ele>203.0</ele><time>2026-03-29T09:04:57Z</time></trkpt><trkpt lat="43.427187728823796" lon="6.220968989699593"><ele>203.0</ele><time>2026-03-29T09:04:59Z</time></trkpt><trkpt lat="43.4271096676212" lon="6.220940958616361"><ele>203.00000000000003</ele><time>2026-03-29T09:05:00Z</time></trkpt><trkpt lat="43.42701622333646" lon="6.220947157501011"><ele>203.0</ele><time>2026-03-29T09:05:01Z</time></trkpt><trkpt lat="43.42692302085889" lon="6.220976136571627"><ele>203.16666666666669</ele><time>2026-03-29T09:05:02Z</time></trkpt><trkpt lat="43.42682723804928" lon="6.221011952329264"><ele>203.33333333333334</ele><time>2026-03-29T09:05:03Z</time></trkpt><trkpt lat="43.42674552858153" lon="6.2210419988901045"><ele>203.5</ele><time>2026-03-29T09:05:04Z</time></trkpt><trkpt lat="43.42666377932405" lon="6.221071681846843"><ele>203.66666666666669</ele><time>2026-03-29T09:05:05Z</time></trkpt><trkpt lat="43.42659221387636" lon="6.22108786864104"><ele>203.83333333333334</ele><time>2026-03-29T09:05:06Z</time></trkpt><trkpt lat="43.426522155527856" lon="6.2210818352475155"><ele>204.0</ele><time>2026-03-29T09:05:07Z</time></trkpt><trkpt lat="43.42644543149876" lon="6.22103524063548"><ele>204.0</ele><time>2026-03-29T09:05:08Z</time></trkpt><trkpt lat="43.426363172541976" lon="6.221004685723474"><ele>204.0</ele><time>2026-03-29T09:05:09Z</time></trkpt><trkpt lat="43.426287546904796" lon="6.220950918816574"><ele>204.0</ele><time>2026-03-29T09:05:10Z</time></trkpt><trkpt lat="43.42620455392893" lon="6.220924739559132"><ele>204.0</ele><time>2026-03-29T09:05:11Z</time></trkpt><trkpt lat="43.42613808227119" lon="6.220870316663509"><ele>204.0</ele><time>2026-03-29T09:05:12Z</time></trkpt><trkpt lat="43.426068298111154" lon="6.220837894410825"><ele>204.0</ele><time>2026-03-29T09:05:13Z</time></trkpt><trkpt lat="43.426003543806246" lon="6.220810872777432"><ele>204.57142857142858</ele><time>2026-03-29T09:05:14Z</time></trkpt><trkpt lat="43.42593517009203" lon="6.22078631914794"><ele>205.14285714285717</ele><time>2026-03-29T09:05:15Z</time></trkpt><trkpt lat="43.42587264974909" lon="6.220751080560848"><ele>205.71428571428572</ele><time>2026-03-29T09:05:16Z</time></trkpt><trkpt lat="43.42580155510903" lon="6.220742786575136"><ele>206.28571428571428</ele><time>2026-03-29T09:05:17Z</time></trkpt><trkpt lat="43.42573927878332" lon="6.220759282955292"><ele>206.85714285714286</ele><time>2026-03-29T09:05:17.999Z</time></trkpt><trkpt lat="43.42566523278321" lon="6.220773610093359"><ele>207.42857142857142</ele><time>2026-03-29T09:05:18.999Z</time></trkpt><trkpt lat="43.42558143517561" lon="6.2207870368036255"><ele>208.0</ele><time>2026-03-29T09:05:19.999Z</time></trkpt><trkpt lat="43.425488555309514" lon="6.220811854052583"><ele>207.66666666666666</ele><time>2026-03-29T09:05:20.999Z</time></trkpt><trkpt lat="43.425406187626365" lon="6.220827274562459"><ele>207.33333333333331</ele><time>2026-03-29T09:05:21.999Z</time></trkpt><trkpt lat="43.42532677488999" lon="6.220852177841412"><ele>207.0</ele><time>2026-03-29T09:05:22.998Z</time></trkpt><trkpt lat="43.425235039095284" lon="6.2208611684502735"><ele>206.66666666666669</ele><time>2026-03-29T09:05:23.998Z</time></trkpt><trkpt lat="43.42515062993049" lon="6.220858209173075"><ele>206.33333333333334</ele><time>2026-03-29T09:05:24.998Z</time></trkpt><trkpt lat="43.42507580611515" lon="6.220852887090243"><ele>206.0</ele><time>2026-03-29T09:05:25.998Z</time></trkpt><trkpt lat="43.42499284414645" lon="6.220858566732672"><ele>206.0</ele><time>2026-03-29T09:05:26.998Z</time></trkpt><trkpt lat="43.42490419249034" lon="6.220860500489905"><ele>206.0</ele><time>2026-03-29T09:05:27.998Z</time></trkpt><trkpt lat="43.424821908832314" lon="6.220845639141933"><ele>206.0</ele><time>2026-03-29T09:05:28.998Z</time></trkpt><trkpt lat="43.424727768033975" lon="6.220863244418317"><ele>206.0</ele><time>2026-03-29T09:05:29.998Z</time></trkpt><trkpt lat="43.42463241177754" lon="6.220838560406299"><ele>206.0</ele><time>2026-03-29T09:05:30.998Z</time></trkpt><trkpt lat="43.424535451013895" lon="6.220889179745403"><ele>206.83333333333334</ele><time>2026-03-29T09:05:31.998Z</time></trkpt><trkpt lat="43.42445662968194" lon="6.220937341801694"><ele>207.66666666666669</ele><time>2026-03-29T09:05:32.998Z</time></trkpt><trkpt lat="43.42436985915581" lon="6.221008533978588"><ele>208.5</ele><time>2026-03-29T09:05:33.998Z</time></trkpt><trkpt lat="43.42428824894498" lon="6.221078068488866"><ele>209.33333333333331</ele><time>2026-03-29T09:05:34.998Z</time></trkpt><trkpt lat="43.42421917696974" lon="6.221139130039915"><ele>210.16666666666666</ele><time>2026-03-29T09:05:35.998Z</time></trkpt><trkpt lat="43.42414763629198" lon="6.221179529488047"><ele>211.0</ele><time>2026-03-29T09:05:36.998Z</time></trkpt><trkpt lat="43.42405985411372" lon="6.221146221308471"><ele>211.0</ele><time>2026-03-29T09:05:37.998Z</time></trkpt><trkpt lat="43.42395168911605" lon="6.221131321058454"><ele>211.0</ele><time>2026-03-29T09:05:38.998Z</time></trkpt><trkpt lat="43.423828812532385" lon="6.221115970848083"><ele>211.0</ele><time>2026-03-29T09:05:39.998Z</time></trkpt><trkpt lat="43.42371010149916" lon="6.2211046581156415"><ele>211.0</ele><time>2026-03-29T09:05:40.998Z</time></trkpt><trkpt lat="43.42359471181775" lon="6.2210936618849635"><ele>211.5</ele><time>2026-03-29T09:05:41.998Z</time></trkpt><trkpt lat="43.42346206774217" lon="6.221081021376942"><ele>212.0</ele><time>2026-03-29T09:05:42.998Z</time></trkpt><trkpt lat="43.42333406976626" lon="6.221069729795081"><ele>212.5</ele><time>2026-03-29T09:05:43.998Z</time></trkpt><trkpt lat="43.42321153173528" lon="6.2210591569022995"><ele>213.0</ele><time>2026-03-29T09:05:44.998Z</time></trkpt><trkpt lat="43.42308963295257" lon="6.221048752076124"><ele>212.0</ele><time>2026-03-29T09:05:45.998Z</time></trkpt><trkpt lat="43.42296803496905" lon="6.221050247560703"><ele>211.0</ele><time>2026-03-29T09:05:46.998Z</time></trkpt><trkpt lat="43.422832287029344" lon="6.221032546876988"><ele>210.0</ele><time>2026-03-29T09:05:47.998Z</time></trkpt><trkpt lat="43.42270175815647" lon="6.221020021348851"><ele>209.0</ele><time>2026-03-29T09:05:48.998Z</time></trkpt><trkpt lat="43.422578553297924" lon="6.220998692937184"><ele>209.0</ele><time>2026-03-29T09:05:49.998Z</time></trkpt><trkpt lat="43.4224580940733" lon="6.220984565643975"><ele>209.0</ele><time>2026-03-29T09:05:50.998Z</time></trkpt><trkpt lat="43.42233841844817" lon="6.220956049891267"><ele>209.0</ele><time>2026-03-29T09:05:51.998Z</time></trkpt><trkpt lat="43.422205465107574" lon="6.220898968394971"><ele>209.0</ele><time>2026-03-29T09:05:52.998Z</time></trkpt><trkpt lat="43.42207659808568" lon="6.22082210044618"><ele>208.0</ele><time>2026-03-29T09:05:53.998Z</time></trkpt><trkpt lat="43.42193480385668" lon="6.220761818175512"><ele>207.0</ele><time>2026-03-29T09:05:54.998Z</time></trkpt><trkpt lat="43.42178005941224" lon="6.220721160323886"><ele>206.0</ele><time>2026-03-29T09:05:55.998Z</time></trkpt><trkpt lat="43.42162524457996" lon="6.2207135664832975"><ele>206.0</ele><time>2026-03-29T09:05:56.998Z</time></trkpt><trkpt lat="43.4214721025627" lon="6.220757209507348"><ele>206.0</ele><time>2026-03-29T09:05:57.998Z</time></trkpt><trkpt lat="43.4213344623774" lon="6.220772336172243"><ele>206.0</ele><time>2026-03-29T09:05:58.998Z</time></trkpt><trkpt lat="43.42120918520974" lon="6.220773829449285"><ele>206.0</ele><time>2026-03-29T09:05:59.998Z</time></trkpt><trkpt lat="43.42109133066452" lon="6.220782959265711"><ele>205.0</ele><time>2026-03-29T09:06:00.998Z</time></trkpt><trkpt lat="43.42097446038468" lon="6.220777462490383"><ele>204.0</ele><time>2026-03-29T09:06:01.998Z</time></trkpt><trkpt lat="43.4208535255883" lon="6.220752843495967"><ele>203.0</ele><time>2026-03-29T09:06:02.998Z</time></trkpt><trkpt lat="43.42072399890572" lon="6.220717870214427"><ele>202.0</ele><time>2026-03-29T09:06:03.998Z</time></trkpt><trkpt lat="43.42059705643508" lon="6.220705118615882"><ele>202.5</ele><time>2026-03-29T09:06:04.998Z</time></trkpt><trkpt lat="43.42048131083353" lon="6.220681486242798"><ele>203.0</ele><time>2026-03-29T09:06:05.998Z</time></trkpt><trkpt lat="43.420357320847785" lon="6.220680175969469"><ele>203.5</ele><time>2026-03-29T09:06:06.998Z</time></trkpt><trkpt lat="43.42023054388097" lon="6.220671805530476"><ele>204.0</ele><time>2026-03-29T09:06:07.998Z</time></trkpt><trkpt lat="43.42010416135236" lon="6.220664071498911"><ele>204.0</ele><time>2026-03-29T09:06:08.998Z</time></trkpt><trkpt lat="43.41997211874549" lon="6.220681008237425"><ele>204.0</ele><time>2026-03-29T09:06:09.998Z</time></trkpt><trkpt lat="43.419846059704625" lon="6.220661450170264"><ele>204.0</ele><time>2026-03-29T09:06:10.997Z</time></trkpt><trkpt lat="43.419723346709816" lon="6.22064829873746"><ele>204.0</ele><time>2026-03-29T09:06:11.997Z</time></trkpt><trkpt lat="43.419597725031515" lon="6.220640697747755"><ele>204.75</ele><time>2026-03-29T09:06:12.997Z</time></trkpt><trkpt lat="43.41946414310094" lon="6.220646938768262"><ele>205.5</ele><time>2026-03-29T09:06:13.997Z</time></trkpt><trkpt lat="43.41933092641016" lon="6.220683150974076"><ele>206.25</ele><time>2026-03-29T09:06:14.997Z</time></trkpt><trkpt lat="43.41920220487872" lon="6.220706311220499"><ele>207.0</ele><time>2026-03-29T09:06:15.997Z</time></trkpt><trkpt lat="43.419082563807756" lon="6.220737744623236"><ele>207.0</ele><time>2026-03-29T09:06:17Z</time></trkpt><trkpt lat="43.418961024722535" lon="6.2207603657938595"><ele>207.0</ele><time>2026-03-29T09:06:18Z</time></trkpt><trkpt lat="43.41883592721532" lon="6.2208173380847835"><ele>207.0</ele><time>2026-03-29T09:06:19Z</time></trkpt><trkpt lat="43.41870817576705" lon="6.220875555307807"><ele>207.0</ele><time>2026-03-29T09:06:20Z</time></trkpt><trkpt lat="43.41857549388972" lon="6.220947631106995"><ele>209.75</ele><time>2026-03-29T09:06:21Z</time></trkpt><trkpt lat="43.418444120957254" lon="6.22101697819991"><ele>212.5</ele><time>2026-03-29T09:06:22Z</time></trkpt><trkpt lat="43.41830598221101" lon="6.221093758136224"><ele>215.25</ele><time>2026-03-29T09:06:23Z</time></trkpt><trkpt lat="43.41816870008554" lon="6.221166463481084"><ele>218.0</ele><time>2026-03-29T09:06:24Z</time></trkpt><trkpt lat="43.41802662187041" lon="6.221225596514844"><ele>222.66666666666669</ele><time>2026-03-29T09:06:25Z</time></trkpt><trkpt lat="43.41788324547712" lon="6.221288434953056"><ele>227.33333333333331</ele><time>2026-03-29T09:06:26Z</time></trkpt><trkpt lat="43.417739492790375" lon="6.221360654944449"><ele>232.0</ele><time>2026-03-29T09:06:27Z</time></trkpt><trkpt lat="43.4175966470046" lon="6.221433769646159"><ele>228.66666666666666</ele><time>2026-03-29T09:06:28Z</time></trkpt><trkpt lat="43.4174440924787" lon="6.221525140282866"><ele>225.33333333333331</ele><time>2026-03-29T09:06:29Z</time></trkpt><trkpt lat="43.41728514976565" lon="6.221641743683695"><ele>222.0</ele><time>2026-03-29T09:06:30Z</time></trkpt><trkpt lat="43.41713542196658" lon="6.2218204511608"><ele>222.0</ele><time>2026-03-29T09:06:31Z</time></trkpt><trkpt lat="43.41698573562683" lon="6.222012576353637"><ele>222.0</ele><time>2026-03-29T09:06:31.999Z</time></trkpt><trkpt lat="43.41685148546809" lon="6.222166104490705"><ele>222.0</ele><time>2026-03-29T09:06:32.999Z</time></trkpt><trkpt lat="43.4167277416782" lon="6.222305742702742"><ele>217.25</ele><time>2026-03-29T09:06:33.999Z</time></trkpt><trkpt lat="43.41660145359556" lon="6.222428978709013"><ele>212.5</ele><time>2026-03-29T09:06:34.999Z</time></trkpt><trkpt lat="43.41647526744082" lon="6.222531034665048"><ele>207.75</ele><time>2026-03-29T09:06:35.999Z</time></trkpt><trkpt lat="43.41634765788385" lon="6.222586972069762"><ele>203.0</ele><time>2026-03-29T09:06:36.999Z</time></trkpt><trkpt lat="43.41620945787829" lon="6.222583724619683"><ele>202.75</ele><time>2026-03-29T09:06:37.999Z</time></trkpt><trkpt lat="43.416075179176445" lon="6.222527867426114"><ele>202.5</ele><time>2026-03-29T09:06:38.999Z</time></trkpt><trkpt lat="43.415978204700465" lon="6.2223626375359515"><ele>202.25</ele><time>2026-03-29T09:06:39.999Z</time></trkpt><trkpt lat="43.41586029346043" lon="6.222247676041539"><ele>202.0</ele><time>2026-03-29T09:06:40.999Z</time></trkpt><trkpt lat="43.41573102157499" lon="6.222114483063388"><ele>204.0</ele><time>2026-03-29T09:06:41.999Z</time></trkpt><trkpt lat="43.415610121592835" lon="6.221959451040426"><ele>206.0</ele><time>2026-03-29T09:06:42.999Z</time></trkpt><trkpt lat="43.41546688317316" lon="6.221792064883343"><ele>208.0</ele><time>2026-03-29T09:06:43.999Z</time></trkpt><trkpt lat="43.41533410437483" lon="6.22166761168818"><ele>208.0</ele><time>2026-03-29T09:06:44.999Z</time></trkpt><trkpt lat="43.41518101901526" lon="6.221568046418877"><ele>208.0</ele><time>2026-03-29T09:06:45.999Z</time></trkpt><trkpt lat="43.41502021875319" lon="6.2215074244918185"><ele>208.0</ele><time>2026-03-29T09:06:46.999Z</time></trkpt><trkpt lat="43.41490511948815" lon="6.221493093913108"><ele>209.66666666666666</ele><time>2026-03-29T09:06:47.999Z</time></trkpt><trkpt lat="43.4147499546369" lon="6.221477888783025"><ele>211.33333333333331</ele><time>2026-03-29T09:06:48.999Z</time></trkpt><trkpt lat="43.41458116001168" lon="6.221504259912262"><ele>213.0</ele><time>2026-03-29T09:06:49.999Z</time></trkpt><trkpt lat="43.414429212627454" lon="6.221578469857556"><ele>213.0</ele><time>2026-03-29T09:06:50.999Z</time></trkpt><trkpt lat="43.414288480604114" lon="6.221691507101202"><ele>213.0</ele><time>2026-03-29T09:06:51.999Z</time></trkpt><trkpt lat="43.41416615955323" lon="6.221813217178756"><ele>213.0</ele><time>2026-03-29T09:06:52.999Z</time></trkpt><trkpt lat="43.41404478191058" lon="6.221937971028018"><ele>213.0</ele><time>2026-03-29T09:06:53.999Z</time></trkpt><trkpt lat="43.41391766824599" lon="6.222024882245184"><ele>213.0</ele><time>2026-03-29T09:06:54.999Z</time></trkpt><trkpt lat="43.41378354117625" lon="6.222085033817641"><ele>213.0</ele><time>2026-03-29T09:06:55.999Z</time></trkpt><trkpt lat="43.41365432328584" lon="6.2221215418135865"><ele>213.0</ele><time>2026-03-29T09:06:56.999Z</time></trkpt><trkpt lat="43.4135240369486" lon="6.222132363774499"><ele>213.25</ele><time>2026-03-29T09:06:57.999Z</time></trkpt><trkpt lat="43.413403946430655" lon="6.222109922622921"><ele>213.5</ele><time>2026-03-29T09:06:58.999Z</time></trkpt><trkpt lat="43.41329547442825" lon="6.222008160691745"><ele>213.75</ele><time>2026-03-29T09:06:59.999Z</time></trkpt><trkpt lat="43.41318820523898" lon="6.221893466591177"><ele>214.0</ele><time>2026-03-29T09:07:00.999Z</time></trkpt><trkpt lat="43.41308072600174" lon="6.221754970582254"><ele>212.75</ele><time>2026-03-29T09:07:01.999Z</time></trkpt><trkpt lat="43.41297815998917" lon="6.221613799378906"><ele>211.5</ele><time>2026-03-29T09:07:02.999Z</time></trkpt><trkpt lat="43.41287353561823" lon="6.2214679836055975"><ele>210.25</ele><time>2026-03-29T09:07:03.999Z</time></trkpt><trkpt lat="43.41278697420995" lon="6.221347342257552"><ele>209.0</ele><time>2026-03-29T09:07:04.999Z</time></trkpt><trkpt lat="43.4126877099997" lon="6.22123283615698"><ele>209.0</ele><time>2026-03-29T09:07:05.999Z</time></trkpt><trkpt lat="43.412602599942964" lon="6.221100839888878"><ele>209.0</ele><time>2026-03-29T09:07:06.999Z</time></trkpt><trkpt lat="43.41251661720969" lon="6.220968332784937"><ele>209.0</ele><time>2026-03-29T09:07:07.999Z</time></trkpt><trkpt lat="43.41242800660886" lon="6.220843166881617"><ele>209.0</ele><time>2026-03-29T09:07:08.999Z</time></trkpt><trkpt lat="43.41234693734468" lon="6.220725612650964"><ele>208.50000000000003</ele><time>2026-03-29T09:07:09.999Z</time></trkpt><trkpt lat="43.412273480651095" lon="6.220624024263137"><ele>208.0</ele><time>2026-03-29T09:07:10.999Z</time></trkpt><trkpt lat="43.412212612870164" lon="6.220533449964124"><ele>207.5</ele><time>2026-03-29T09:07:11.999Z</time></trkpt><trkpt lat="43.412163390994984" lon="6.220457202783908"><ele>207.0</ele><time>2026-03-29T09:07:12.999Z</time></trkpt><trkpt lat="43.41210489361482" lon="6.2203746253990895"><ele>206.50000000000003</ele><time>2026-03-29T09:07:14.999Z</time></trkpt><trkpt lat="43.41204062918466" lon="6.220342542494243"><ele>206.0</ele><time>2026-03-29T09:07:18.999Z</time></trkpt><trkpt lat="43.411982224533325" lon="6.220267349081429"><ele>206.0</ele><time>2026-03-29T09:07:20.999Z</time></trkpt><trkpt lat="43.411908010825655" lon="6.220151258767086"><ele>206.0</ele><time>2026-03-29T09:07:22.999Z</time></trkpt><trkpt lat="43.411832687638025" lon="6.220046027556045"><ele>206.0</ele><time>2026-03-29T09:07:24.998Z</time></trkpt><trkpt lat="43.41175901583385" lon="6.219969149559097"><ele>206.0</ele><time>2026-03-29T09:07:26.998Z</time></trkpt><trkpt lat="43.411714368987234" lon="6.219888190292331"><ele>206.0</ele><time>2026-03-29T09:07:28.998Z</time></trkpt><trkpt lat="43.41165036419273" lon="6.219895004560276"><ele>205.83333333333334</ele><time>2026-03-29T09:07:30.998Z</time></trkpt><trkpt lat="43.411629473533225" lon="6.219804900200753"><ele>205.66666666666669</ele><time>2026-03-29T09:07:33.998Z</time></trkpt><trkpt lat="43.4116367698145" lon="6.21968878575539"><ele>205.5</ele><time>2026-03-29T09:07:35.998Z</time></trkpt><trkpt lat="43.411578535208996" lon="6.219601379557422"><ele>205.33333333333331</ele><time>2026-03-29T09:07:36.998Z</time></trkpt><trkpt lat="43.41150363124415" lon="6.219514997431636"><ele>205.16666666666666</ele><time>2026-03-29T09:07:37.998Z</time></trkpt><trkpt lat="43.41141070168202" lon="6.219445383017938"><ele>205.0</ele><time>2026-03-29T09:07:38.998Z</time></trkpt><trkpt lat="43.41132290678061" lon="6.219360436196322"><ele>205.0</ele><time>2026-03-29T09:07:39.998Z</time></trkpt><trkpt lat="43.411226438986354" lon="6.219289736971078"><ele>205.0</ele><time>2026-03-29T09:07:40.998Z</time></trkpt><trkpt lat="43.411115151489376" lon="6.219207152765544"><ele>205.0</ele><time>2026-03-29T09:07:41.998Z</time></trkpt><trkpt lat="43.41100136984862" lon="6.219121380815785"><ele>205.0</ele><time>2026-03-29T09:07:42.998Z</time></trkpt><trkpt lat="43.410904154437716" lon="6.2190285159483985"><ele>207.75</ele><time>2026-03-29T09:07:43.998Z</time></trkpt><trkpt lat="43.41081828604611" lon="6.218889958101511"><ele>210.5</ele><time>2026-03-29T09:07:44.998Z</time></trkpt><trkpt lat="43.41071862220551" lon="6.218758807988152"><ele>213.25</ele><time>2026-03-29T09:07:45.998Z</time></trkpt><trkpt lat="43.410627849483944" lon="6.218623789496719"><ele>216.0</ele><time>2026-03-29T09:07:46.998Z</time></trkpt><trkpt lat="43.41055415641603" lon="6.218489741677141"><ele>216.0</ele><time>2026-03-29T09:07:47.998Z</time></trkpt><trkpt lat="43.410499639730126" lon="6.218349522307256"><ele>216.00000000000003</ele><time>2026-03-29T09:07:48.998Z</time></trkpt><trkpt lat="43.41046383378977" lon="6.218217904552753"><ele>216.00000000000003</ele><time>2026-03-29T09:07:49.998Z</time></trkpt><trkpt lat="43.4104312238025" lon="6.218091303493494"><ele>216.0</ele><time>2026-03-29T09:07:50.998Z</time></trkpt><trkpt lat="43.410389880600235" lon="6.217980809357459"><ele>216.0</ele><time>2026-03-29T09:07:51.998Z</time></trkpt><trkpt lat="43.41031534412893" lon="6.217908715387623"><ele>216.83333333333334</ele><time>2026-03-29T09:07:52.998Z</time></trkpt><trkpt lat="43.410248176778495" lon="6.217842358038081"><ele>217.66666666666669</ele><time>2026-03-29T09:07:53.998Z</time></trkpt><trkpt lat="43.41016336361133" lon="6.217823692206465"><ele>218.5</ele><time>2026-03-29T09:07:55.998Z</time></trkpt><trkpt lat="43.41023945792447" lon="6.217858952362204"><ele>219.33333333333334</ele><time>2026-03-29T09:08:04.998Z</time></trkpt><trkpt lat="43.41033992220404" lon="6.217931177670242"><ele>220.16666666666669</ele><time>2026-03-29T09:08:06.998Z</time></trkpt><trkpt lat="43.410393891754005" lon="6.218005501707048"><ele>221.0</ele><time>2026-03-29T09:08:08.998Z</time></trkpt><trkpt lat="43.41049147174262" lon="6.217985408696827"><ele>221.0</ele><time>2026-03-29T09:08:09.998Z</time></trkpt><trkpt lat="43.410568071884505" lon="6.218016362581586"><ele>221.00000000000003</ele><time>2026-03-29T09:08:11.998Z</time></trkpt><trkpt lat="43.410630912043494" lon="6.217844961564606"><ele>221.00000000000003</ele><time>2026-03-29T09:08:19.997Z</time></trkpt><trkpt lat="43.41064174525291" lon="6.217729470743165"><ele>221.0</ele><time>2026-03-29T09:08:21.997Z</time></trkpt><trkpt lat="43.41066627895662" lon="6.21759715608598"><ele>221.0</ele><time>2026-03-29T09:08:31Z</time></trkpt><trkpt lat="43.410742860881165" lon="6.217454145558077"><ele>221.00000000000003</ele><time>2026-03-29T09:08:33Z</time></trkpt><trkpt lat="43.410804276804875" lon="6.217403788116052"><ele>221.0</ele><time>2026-03-29T09:08:34Z</time></trkpt><trkpt lat="43.41085774764841" lon="6.2172820098724335"><ele>221.0</ele><time>2026-03-29T09:08:36Z</time></trkpt><trkpt lat="43.41088547891547" lon="6.217194675290777"><ele>221.0</ele><time>2026-03-29T09:08:37Z</time></trkpt><trkpt lat="43.41091705936688" lon="6.21709791981749"><ele>221.00000000000003</ele><time>2026-03-29T09:08:38Z</time></trkpt><trkpt lat="43.4109851663814" lon="6.216961205991189"><ele>221.0</ele><time>2026-03-29T09:08:40.999Z</time></trkpt><trkpt lat="43.41103453164478" lon="6.216839193447909"><ele>220.50000000000003</ele><time>2026-03-29T09:08:42.999Z</time></trkpt><trkpt lat="43.4110368639981" lon="6.216729013276771"><ele>220.0</ele><time>2026-03-29T09:08:43.999Z</time></trkpt><trkpt lat="43.41104137375968" lon="6.216638293040068"><ele>219.5</ele><time>2026-03-29T09:08:44.999Z</time></trkpt><trkpt lat="43.411102181029" lon="6.216530551901975"><ele>219.0</ele><time>2026-03-29T09:08:46.999Z</time></trkpt><trkpt lat="43.411133982815386" lon="6.216444621066068"><ele>218.50000000000003</ele><time>2026-03-29T09:08:47.999Z</time></trkpt><trkpt lat="43.411158526198406" lon="6.216331426000944"><ele>218.0</ele><time>2026-03-29T09:08:48.999Z</time></trkpt><trkpt lat="43.411181482382794" lon="6.216231666163001"><ele>217.66666666666669</ele><time>2026-03-29T09:08:49.999Z</time></trkpt><trkpt lat="43.41118986851038" lon="6.216136220804725"><ele>217.33333333333334</ele><time>2026-03-29T09:08:50.999Z</time></trkpt><trkpt lat="43.41121751739003" lon="6.2160396638468"><ele>217.0</ele><time>2026-03-29T09:08:52.999Z</time></trkpt><trkpt lat="43.411296723614754" lon="6.216007989848853"><ele>216.66666666666669</ele><time>2026-03-29T09:08:54.999Z</time></trkpt><trkpt lat="43.41133422302877" lon="6.215867776263191"><ele>216.33333333333334</ele><time>2026-03-29T09:08:56.999Z</time></trkpt><trkpt lat="43.411378830324345" lon="6.215775829107372"><ele>216.0</ele><time>2026-03-29T09:08:57.999Z</time></trkpt><trkpt lat="43.41140637283157" lon="6.215680645629943"><ele>218.83333333333334</ele><time>2026-03-29T09:08:58.999Z</time></trkpt><trkpt lat="43.411447022646314" lon="6.215583828385614"><ele>221.66666666666669</ele><time>2026-03-29T09:08:59.999Z</time></trkpt><trkpt lat="43.41148967102908" lon="6.215408531486183"><ele>224.5</ele><time>2026-03-29T09:09:01.999Z</time></trkpt><trkpt lat="43.41152387562932" lon="6.215306579717524"><ele>227.33333333333334</ele><time>2026-03-29T09:09:02.999Z</time></trkpt><trkpt lat="43.41154467779167" lon="6.215204435484271"><ele>230.16666666666669</ele><time>2026-03-29T09:09:03.999Z</time></trkpt><trkpt lat="43.41157079740814" lon="6.215116652848975"><ele>233.0</ele><time>2026-03-29T09:09:04.999Z</time></trkpt><trkpt lat="43.41159852507221" lon="6.21502394353045"><ele>233.00000000000003</ele><time>2026-03-29T09:09:05.999Z</time></trkpt><trkpt lat="43.4116156553712" lon="6.214916295768999"><ele>233.0</ele><time>2026-03-29T09:09:06.999Z</time></trkpt><trkpt lat="43.41165209321969" lon="6.214836060718145"><ele>233.0</ele><time>2026-03-29T09:09:07.999Z</time></trkpt><trkpt lat="43.41167326786951" lon="6.2147470505272056"><ele>233.0</ele><time>2026-03-29T09:09:08.999Z</time></trkpt><trkpt lat="43.41169451410836" lon="6.21464107882185"><ele>233.00000000000003</ele><time>2026-03-29T09:09:10.999Z</time></trkpt><trkpt lat="43.4116757480352" lon="6.214547502646921"><ele>233.0</ele><time>2026-03-29T09:09:12.999Z</time></trkpt><trkpt lat="43.41163311234781" lon="6.214424839526492"><ele>232.50000000000003</ele><time>2026-03-29T09:09:14.999Z</time></trkpt><trkpt lat="43.41160506603726" lon="6.214272190971378"><ele>232.0</ele><time>2026-03-29T09:09:16.999Z</time></trkpt><trkpt lat="43.41162344413033" lon="6.214179820219224"><ele>231.5</ele><time>2026-03-29T09:09:17.999Z</time></trkpt><trkpt lat="43.411625944321656" lon="6.21406602127049"><ele>231.0</ele><time>2026-03-29T09:09:19.999Z</time></trkpt><trkpt lat="43.411671756251" lon="6.214000372465457"><ele>230.50000000000003</ele><time>2026-03-29T09:09:23.999Z</time></trkpt><trkpt lat="43.41176952668302" lon="6.214002423038932"><ele>230.0</ele><time>2026-03-29T09:09:25.999Z</time></trkpt><trkpt lat="43.41182411905773" lon="6.213917077684266"><ele>228.83333333333334</ele><time>2026-03-29T09:09:28.999Z</time></trkpt><trkpt lat="43.41187161738276" lon="6.213837287966317"><ele>227.66666666666669</ele><time>2026-03-29T09:09:32.999Z</time></trkpt><trkpt lat="43.411936299070305" lon="6.213813310879202"><ele>226.5</ele><time>2026-03-29T09:09:35.998Z</time></trkpt><trkpt lat="43.41198903540631" lon="6.213740473034121"><ele>225.33333333333331</ele><time>2026-03-29T09:09:37.998Z</time></trkpt><trkpt lat="43.41204857404317" lon="6.213682706424594"><ele>224.16666666666666</ele><time>2026-03-29T09:09:40.998Z</time></trkpt><trkpt lat="43.41214719576126" lon="6.213726410175144"><ele>223.0</ele><time>2026-03-29T09:09:43.998Z</time></trkpt><trkpt lat="43.412216916745216" lon="6.213709015040438"><ele>224.33333333333331</ele><time>2026-03-29T09:09:45.998Z</time></trkpt><trkpt lat="43.41224778857673" lon="6.213617819270288"><ele>225.66666666666666</ele><time>2026-03-29T09:09:49.998Z</time></trkpt><trkpt lat="43.412246042131805" lon="6.213520153676437"><ele>227.0</ele><time>2026-03-29T09:09:51.998Z</time></trkpt><trkpt lat="43.412332933010376" lon="6.213426265324297"><ele>228.33333333333331</ele><time>2026-03-29T09:09:53.998Z</time></trkpt><trkpt lat="43.41240452821659" lon="6.213369881634819"><ele>229.66666666666666</ele><time>2026-03-29T09:09:55.998Z</time></trkpt><trkpt lat="43.41245829616834" lon="6.213249398404779"><ele>231.0</ele><time>2026-03-29T09:09:57.998Z</time></trkpt><trkpt lat="43.412494318478615" lon="6.213148142235107"><ele>231.0</ele><time>2026-03-29T09:09:59.998Z</time></trkpt><trkpt lat="43.41253067018352" lon="6.213074234456003"><ele>231.0</ele><time>2026-03-29T09:10:01.998Z</time></trkpt><trkpt lat="43.41260738733272" lon="6.213033016801541"><ele>231.0</ele><time>2026-03-29T09:10:03.998Z</time></trkpt><trkpt lat="43.41267270680869" lon="6.212892079401648"><ele>231.0</ele><time>2026-03-29T09:10:04.998Z</time></trkpt><trkpt lat="43.41272751294715" lon="6.212812856486944"><ele>231.0</ele><time>2026-03-29T09:10:05.998Z</time></trkpt><trkpt lat="43.41277184291718" lon="6.212746845262647"><ele>231.0</ele><time>2026-03-29T09:10:06.998Z</time></trkpt><trkpt lat="43.41282478250031" lon="6.212676598429382"><ele>231.0</ele><time>2026-03-29T09:10:08.998Z</time></trkpt><trkpt lat="43.412798330738724" lon="6.212515994075354"><ele>231.00000000000003</ele><time>2026-03-29T09:10:10.998Z</time></trkpt><trkpt lat="43.4128044960609" lon="6.212420100811628"><ele>231.00000000000003</ele><time>2026-03-29T09:10:11.998Z</time></trkpt><trkpt lat="43.41282215352668" lon="6.212255865787277"><ele>231.0</ele><time>2026-03-29T09:10:13.998Z</time></trkpt><trkpt lat="43.412732309345046" lon="6.212152613479683"><ele>231.0</ele><time>2026-03-29T09:10:15.998Z</time></trkpt><trkpt lat="43.41268114521792" lon="6.212095937240403"><ele>229.66666666666666</ele><time>2026-03-29T09:10:16.998Z</time></trkpt><trkpt lat="43.41268127851629" lon="6.211961012899838"><ele>228.33333333333331</ele><time>2026-03-29T09:10:18.998Z</time></trkpt><trkpt lat="43.41274951845178" lon="6.211930180830879"><ele>227.0</ele><time>2026-03-29T09:10:20.998Z</time></trkpt><trkpt lat="43.41283097158121" lon="6.211906932916193"><ele>225.66666666666666</ele><time>2026-03-29T09:10:22.998Z</time></trkpt><trkpt lat="43.41282645625914" lon="6.21180758354709"><ele>224.33333333333331</ele><time>2026-03-29T09:10:26.998Z</time></trkpt><trkpt lat="43.412768411630374" lon="6.211707101583505"><ele>223.0</ele><time>2026-03-29T09:10:30Z</time></trkpt><trkpt lat="43.41269790936348" lon="6.211697420893338"><ele>222.99999999999997</ele><time>2026-03-29T09:10:31Z</time></trkpt><trkpt lat="43.412668659610624" lon="6.211581839253456"><ele>223.0</ele><time>2026-03-29T09:10:34Z</time></trkpt><trkpt lat="43.41262199788998" lon="6.211476773437331"><ele>223.0</ele><time>2026-03-29T09:10:37Z</time></trkpt><trkpt lat="43.41260837212895" lon="6.211388916575199"><ele>223.0</ele><time>2026-03-29T09:10:39Z</time></trkpt><trkpt lat="43.41266233038323" lon="6.211314596920313"><ele>222.99999999999997</ele><time>2026-03-29T09:10:40Z</time></trkpt><trkpt lat="43.41273530858116" lon="6.211292377366833"><ele>223.0</ele><time>2026-03-29T09:10:41Z</time></trkpt><trkpt lat="43.41280790724862" lon="6.211268449942706"><ele>222.75</ele><time>2026-03-29T09:10:42Z</time></trkpt><trkpt lat="43.412864886553685" lon="6.211158244637764"><ele>222.5</ele><time>2026-03-29T09:10:44Z</time></trkpt><trkpt lat="43.41287956059126" lon="6.211025044201036"><ele>222.25</ele><time>2026-03-29T09:10:45Z</time></trkpt><trkpt lat="43.41290983316733" lon="6.21086165772175"><ele>222.0</ele><time>2026-03-29T09:10:46Z</time></trkpt><trkpt lat="43.41294275023178" lon="6.210672737897995"><ele>223.25</ele><time>2026-03-29T09:10:47Z</time></trkpt><trkpt lat="43.412972880564176" lon="6.210487407849899"><ele>224.5</ele><time>2026-03-29T09:10:48Z</time></trkpt><trkpt lat="43.412992900102125" lon="6.210312196238648"><ele>225.75</ele><time>2026-03-29T09:10:49Z</time></trkpt><trkpt lat="43.41302601759861" lon="6.21016853950808"><ele>227.0</ele><time>2026-03-29T09:10:49.999Z</time></trkpt><trkpt lat="43.41308511270366" lon="6.210013772146871"><ele>230.75</ele><time>2026-03-29T09:10:50.999Z</time></trkpt><trkpt lat="43.41312872467671" lon="6.209854104893781"><ele>234.5</ele><time>2026-03-29T09:10:51.999Z</time></trkpt><trkpt lat="43.413158622142795" lon="6.209683242999202"><ele>238.25</ele><time>2026-03-29T09:10:52.999Z</time></trkpt><trkpt lat="43.413182179694026" lon="6.209478908503119"><ele>242.0</ele><time>2026-03-29T09:10:53.999Z</time></trkpt><trkpt lat="43.41320719736461" lon="6.209307505874941"><ele>242.39999999999998</ele><time>2026-03-29T09:10:54.999Z</time></trkpt><trkpt lat="43.413251175275185" lon="6.209155768258176"><ele>242.79999999999998</ele><time>2026-03-29T09:10:55.999Z</time></trkpt><trkpt lat="43.41329130448061" lon="6.209035152672257"><ele>243.2</ele><time>2026-03-29T09:10:56.999Z</time></trkpt><trkpt lat="43.413299355004106" lon="6.208917623091182"><ele>243.6</ele><time>2026-03-29T09:10:57.999Z</time></trkpt><trkpt lat="43.41328636397439" lon="6.208823106811946"><ele>244.0</ele><time>2026-03-29T09:10:58.999Z</time></trkpt><trkpt lat="43.41325009390116" lon="6.208714079786807"><ele>244.49999999999997</ele><time>2026-03-29T09:10:59.999Z</time></trkpt><trkpt lat="43.41321171139368" lon="6.2085932521533875"><ele>245.0</ele><time>2026-03-29T09:11:00.999Z</time></trkpt><trkpt lat="43.413173033224695" lon="6.208476870138395"><ele>245.5</ele><time>2026-03-29T09:11:01.999Z</time></trkpt><trkpt lat="43.41313890018125" lon="6.2083762119552395"><ele>246.0</ele><time>2026-03-29T09:11:02.999Z</time></trkpt><trkpt lat="43.41312186227164" lon="6.20827421316815"><ele>246.49999999999997</ele><time>2026-03-29T09:11:03.999Z</time></trkpt><trkpt lat="43.413124718441416" lon="6.2081700157822155"><ele>247.0</ele><time>2026-03-29T09:11:04.999Z</time></trkpt><trkpt lat="43.413144146535316" lon="6.208056353112269"><ele>246.99999999999997</ele><time>2026-03-29T09:11:05.999Z</time></trkpt><trkpt lat="43.41315796933925" lon="6.207966509332532"><ele>247.0</ele><time>2026-03-29T09:11:06.999Z</time></trkpt><trkpt lat="43.41312896694991" lon="6.207816429820203"><ele>247.0</ele><time>2026-03-29T09:11:08.999Z</time></trkpt><trkpt lat="43.41307299220813" lon="6.20777627310779"><ele>247.0</ele><time>2026-03-29T09:11:09.999Z</time></trkpt><trkpt lat="43.413021552087315" lon="6.207716043526777"><ele>246.99999999999997</ele><time>2026-03-29T09:11:10.999Z</time></trkpt><trkpt lat="43.412967870037676" lon="6.207659232173486"><ele>247.0</ele><time>2026-03-29T09:11:11.999Z</time></trkpt><trkpt lat="43.41289712063647" lon="6.207631158814902"><ele>245.39999999999998</ele><time>2026-03-29T09:11:12.999Z</time></trkpt><trkpt lat="43.41281643319889" lon="6.207629003124262"><ele>243.79999999999998</ele><time>2026-03-29T09:11:13.999Z</time></trkpt><trkpt lat="43.41272221006143" lon="6.20764744579886"><ele>242.2</ele><time>2026-03-29T09:11:14.999Z</time></trkpt><trkpt lat="43.41261364019008" lon="6.207673110952976"><ele>240.6</ele><time>2026-03-29T09:11:15.999Z</time></trkpt><trkpt lat="43.41251478320078" lon="6.207688591645045"><ele>239.0</ele><time>2026-03-29T09:11:16.999Z</time></trkpt><trkpt lat="43.41243938265755" lon="6.207680569686032"><ele>239.0</ele><time>2026-03-29T09:11:17.999Z</time></trkpt><trkpt lat="43.412352971401056" lon="6.207576155375745"><ele>238.99999999999997</ele><time>2026-03-29T09:11:19.999Z</time></trkpt><trkpt lat="43.41234401542137" lon="6.207465393354231"><ele>238.99999999999997</ele><time>2026-03-29T09:11:20.999Z</time></trkpt><trkpt lat="43.41234189423349" lon="6.2073162146816765"><ele>239.0</ele><time>2026-03-29T09:11:21.999Z</time></trkpt><trkpt lat="43.41233780644344" lon="6.207160029299184"><ele>239.0</ele><time>2026-03-29T09:11:22.999Z</time></trkpt><trkpt lat="43.41232391245713" lon="6.206990967517308"><ele>238.0</ele><time>2026-03-29T09:11:23.999Z</time></trkpt><trkpt lat="43.41227626971961" lon="6.206830968817772"><ele>237.0</ele><time>2026-03-29T09:11:24.999Z</time></trkpt><trkpt lat="43.41222068345772" lon="6.206668316050745"><ele>236.0</ele><time>2026-03-29T09:11:25.999Z</time></trkpt><trkpt lat="43.41218588129189" lon="6.206516944988992"><ele>235.0</ele><time>2026-03-29T09:11:26.999Z</time></trkpt><trkpt lat="43.412160886261134" lon="6.206387238546591"><ele>234.6</ele><time>2026-03-29T09:11:27.999Z</time></trkpt><trkpt lat="43.41214113574903" lon="6.206258864132375"><ele>234.2</ele><time>2026-03-29T09:11:28.999Z</time></trkpt><trkpt lat="43.412156508464356" lon="6.206134272346146"><ele>233.8</ele><time>2026-03-29T09:11:29.999Z</time></trkpt><trkpt lat="43.412214476237494" lon="6.206021553659939"><ele>233.4</ele><time>2026-03-29T09:11:30.999Z</time></trkpt><trkpt lat="43.41229222943404" lon="6.205885410179554"><ele>233.0</ele><time>2026-03-29T09:11:31.999Z</time></trkpt><trkpt lat="43.412359484406984" lon="6.205713852170742"><ele>232.0</ele><time>2026-03-29T09:11:32.999Z</time></trkpt><trkpt lat="43.412409654710714" lon="6.205507511996933"><ele>231.0</ele><time>2026-03-29T09:11:33.999Z</time></trkpt><trkpt lat="43.41245298780919" lon="6.2053262212126"><ele>230.0</ele><time>2026-03-29T09:11:34.999Z</time></trkpt><trkpt lat="43.412494793783495" lon="6.2051621172680145"><ele>229.0</ele><time>2026-03-29T09:11:35.999Z</time></trkpt><trkpt lat="43.41253525978704" lon="6.205007883476809"><ele>229.0</ele><time>2026-03-29T09:11:36.999Z</time></trkpt><trkpt lat="43.4125631187957" lon="6.204883772035482"><ele>228.99999999999997</ele><time>2026-03-29T09:11:37.999Z</time></trkpt><trkpt lat="43.41256890839752" lon="6.2047633760385885"><ele>228.99999999999997</ele><time>2026-03-29T09:11:38.999Z</time></trkpt><trkpt lat="43.412544882828456" lon="6.20463980212702"><ele>229.0</ele><time>2026-03-29T09:11:39.999Z</time></trkpt><trkpt lat="43.41249914434554" lon="6.204473185068143"><ele>229.0</ele><time>2026-03-29T09:11:40.999Z</time></trkpt><trkpt lat="43.4124601713417" lon="6.204303241814473"><ele>227.6</ele><time>2026-03-29T09:11:41.999Z</time></trkpt><trkpt lat="43.41242826493364" lon="6.20416209569732"><ele>226.2</ele><time>2026-03-29T09:11:42.998Z</time></trkpt><trkpt lat="43.4124270921557" lon="6.2040454483922955"><ele>224.79999999999998</ele><time>2026-03-29T09:11:43.998Z</time></trkpt><trkpt lat="43.41245926626642" lon="6.203911852763774"><ele>223.39999999999998</ele><time>2026-03-29T09:11:44.998Z</time></trkpt><trkpt lat="43.412521083224796" lon="6.203778258902486"><ele>222.0</ele><time>2026-03-29T09:11:45.998Z</time></trkpt><trkpt lat="43.41258223174529" lon="6.2036643381848915"><ele>222.0</ele><time>2026-03-29T09:11:46.998Z</time></trkpt><trkpt lat="43.41264106393919" lon="6.203548592679437"><ele>222.0</ele><time>2026-03-29T09:11:47.998Z</time></trkpt><trkpt lat="43.41270723112824" lon="6.203422444645271"><ele>222.0</ele><time>2026-03-29T09:11:48.998Z</time></trkpt><trkpt lat="43.41276679101095" lon="6.203299250478352"><ele>222.0</ele><time>2026-03-29T09:11:49.998Z</time></trkpt><trkpt lat="43.412811947373484" lon="6.203173800030616"><ele>222.0</ele><time>2026-03-29T09:11:50.998Z</time></trkpt><trkpt lat="43.41286653609719" lon="6.203048743581917"><ele>222.0</ele><time>2026-03-29T09:11:51.998Z</time></trkpt><trkpt lat="43.41291094364242" lon="6.202915943046745"><ele>222.0</ele><time>2026-03-29T09:11:52.998Z</time></trkpt><trkpt lat="43.41295479471767" lon="6.202787235068262"><ele>222.0</ele><time>2026-03-29T09:11:53.998Z</time></trkpt><trkpt lat="43.413006913380684" lon="6.202646933691914"><ele>222.0</ele><time>2026-03-29T09:11:54.998Z</time></trkpt><trkpt lat="43.41308123027846" lon="6.2025165975887075"><ele>222.0</ele><time>2026-03-29T09:11:55.998Z</time></trkpt><trkpt lat="43.41314823683859" lon="6.202405106218099"><ele>224.2</ele><time>2026-03-29T09:11:56.998Z</time></trkpt><trkpt lat="43.41321739460536" lon="6.202282244060806"><ele>226.39999999999998</ele><time>2026-03-29T09:11:57.998Z</time></trkpt><trkpt lat="43.41327940059405" lon="6.202169780384345"><ele>228.60000000000002</ele><time>2026-03-29T09:11:58.998Z</time></trkpt><trkpt lat="43.413334548030846" lon="6.2020728229728945"><ele>230.8</ele><time>2026-03-29T09:11:59.998Z</time></trkpt><trkpt lat="43.413389017310976" lon="6.201973130080195"><ele>233.0</ele><time>2026-03-29T09:12:00.998Z</time></trkpt><trkpt lat="43.413440675596135" lon="6.201885596298589"><ele>233.00000000000003</ele><time>2026-03-29T09:12:01.998Z</time></trkpt><trkpt lat="43.41348777678883" lon="6.201770659465263"><ele>233.0</ele><time>2026-03-29T09:12:02.998Z</time></trkpt><trkpt lat="43.41351783631096" lon="6.201663335134952"><ele>233.0</ele><time>2026-03-29T09:12:03.998Z</time></trkpt><trkpt lat="43.413545513166056" lon="6.201558786268172"><ele>233.0</ele><time>2026-03-29T09:12:04.998Z</time></trkpt><trkpt lat="43.41359269193218" lon="6.201464140681502"><ele>233.00000000000003</ele><time>2026-03-29T09:12:05.998Z</time></trkpt><trkpt lat="43.41366113104286" lon="6.201388080448432"><ele>233.0</ele><time>2026-03-29T09:12:06.998Z</time></trkpt><trkpt lat="43.41374946313178" lon="6.201296680323949"><ele>233.75</ele><time>2026-03-29T09:12:07.998Z</time></trkpt><trkpt lat="43.41383475464196" lon="6.20117997815488"><ele>234.5</ele><time>2026-03-29T09:12:08.998Z</time></trkpt><trkpt lat="43.41392544246749" lon="6.201037787854671"><ele>235.25</ele><time>2026-03-29T09:12:09.998Z</time></trkpt><trkpt lat="43.41401101209043" lon="6.200902077900543"><ele>236.0</ele><time>2026-03-29T09:12:10.998Z</time></trkpt><trkpt lat="43.41410624419331" lon="6.200800636747159"><ele>236.0</ele><time>2026-03-29T09:12:11.998Z</time></trkpt><trkpt lat="43.414179107357256" lon="6.200759043021125"><ele>236.00000000000003</ele><time>2026-03-29T09:12:12.998Z</time></trkpt><trkpt lat="43.41424494224471" lon="6.200756025009579"><ele>236.00000000000003</ele><time>2026-03-29T09:12:13.998Z</time></trkpt><trkpt lat="43.41429350341329" lon="6.200618920488195"><ele>236.0</ele><time>2026-03-29T09:12:16.998Z</time></trkpt><trkpt lat="43.4142619977451" lon="6.200497571791626"><ele>236.0</ele><time>2026-03-29T09:12:17.998Z</time></trkpt><trkpt lat="43.41423684185082" lon="6.2003541684322885"><ele>235.75</ele><time>2026-03-29T09:12:18.998Z</time></trkpt><trkpt lat="43.41421625344951" lon="6.200178496701849"><ele>235.5</ele><time>2026-03-29T09:12:19.998Z</time></trkpt><trkpt lat="43.4141842682721" lon="6.200004482417826"><ele>235.25</ele><time>2026-03-29T09:12:20.998Z</time></trkpt><trkpt lat="43.414156973273506" lon="6.199818680575012"><ele>235.0</ele><time>2026-03-29T09:12:21.998Z</time></trkpt><trkpt lat="43.41412918358853" lon="6.199623558221086"><ele>235.66666666666666</ele><time>2026-03-29T09:12:22.998Z</time></trkpt><trkpt lat="43.41410453988261" lon="6.199420168562777"><ele>236.33333333333331</ele><time>2026-03-29T09:12:23.998Z</time></trkpt><trkpt lat="43.41408062690211" lon="6.199205408246182"><ele>237.0</ele><time>2026-03-29T09:12:24.998Z</time></trkpt><trkpt lat="43.41406126852653" lon="6.199006380914876"><ele>236.5</ele><time>2026-03-29T09:12:25.998Z</time></trkpt><trkpt lat="43.41404920753938" lon="6.198848674399656"><ele>236.0</ele><time>2026-03-29T09:12:26.998Z</time></trkpt><trkpt lat="43.41404331475296" lon="6.198679898745966"><ele>235.5</ele><time>2026-03-29T09:12:27.998Z</time></trkpt><trkpt lat="43.4140257966363" lon="6.1985264808795035"><ele>235.0</ele><time>2026-03-29T09:12:28.998Z</time></trkpt><trkpt lat="43.41401594710256" lon="6.198383099656384"><ele>235.0</ele><time>2026-03-29T09:12:29.998Z</time></trkpt><trkpt lat="43.4140039536381" lon="6.1982332654536085"><ele>235.0</ele><time>2026-03-29T09:12:30.998Z</time></trkpt><trkpt lat="43.41399933427404" lon="6.198086701564056"><ele>235.0</ele><time>2026-03-29T09:12:31.998Z</time></trkpt><trkpt lat="43.413991016761976" lon="6.197940780473896"><ele>235.0</ele><time>2026-03-29T09:12:32.998Z</time></trkpt><trkpt lat="43.41398163846265" lon="6.197792838181022"><ele>235.0</ele><time>2026-03-29T09:12:34Z</time></trkpt><trkpt lat="43.413967450507506" lon="6.197663747561917"><ele>234.49999999999997</ele><time>2026-03-29T09:12:35Z</time></trkpt><trkpt lat="43.413960551048326" lon="6.19755858078464"><ele>234.0</ele><time>2026-03-29T09:12:36Z</time></trkpt><trkpt lat="43.41400147394417" lon="6.197469024458164"><ele>233.5</ele><time>2026-03-29T09:12:38Z</time></trkpt><trkpt lat="43.414069080433066" lon="6.1974487695327785"><ele>233.0</ele><time>2026-03-29T09:12:39Z</time></trkpt><trkpt lat="43.414137982527286" lon="6.197430699970743"><ele>232.49999999999997</ele><time>2026-03-29T09:12:40Z</time></trkpt><trkpt lat="43.414208957602206" lon="6.197330539357802"><ele>232.0</ele><time>2026-03-29T09:12:42Z</time></trkpt><trkpt lat="43.414184180799" lon="6.197109235668618"><ele>231.66666666666666</ele><time>2026-03-29T09:12:43Z</time></trkpt><trkpt lat="43.41415822577988" lon="6.1969061144497894"><ele>231.33333333333331</ele><time>2026-03-29T09:12:44Z</time></trkpt><trkpt lat="43.414126122915086" lon="6.1966194479216"><ele>231.0</ele><time>2026-03-29T09:12:45Z</time></trkpt><trkpt lat="43.41410042087743" lon="6.196303133946763"><ele>230.33333333333331</ele><time>2026-03-29T09:12:46Z</time></trkpt><trkpt lat="43.41407316900581" lon="6.195981423696255"><ele>229.66666666666666</ele><time>2026-03-29T09:12:47Z</time></trkpt><trkpt lat="43.41404971708418" lon="6.195729171318479"><ele>229.0</ele><time>2026-03-29T09:12:48Z</time></trkpt><trkpt lat="43.41403544907233" lon="6.195564381161244"><ele>228.99999999999997</ele><time>2026-03-29T09:12:49Z</time></trkpt><trkpt lat="43.4140255070727" lon="6.195432177327434"><ele>229.0</ele><time>2026-03-29T09:12:50Z</time></trkpt><trkpt lat="43.414023463623224" lon="6.195322450162548"><ele>229.0</ele><time>2026-03-29T09:12:51Z</time></trkpt><trkpt lat="43.41406413765691" lon="6.195209588721512"><ele>229.0</ele><time>2026-03-29T09:12:53Z</time></trkpt><trkpt lat="43.41413800795719" lon="6.195194980959302"><ele>228.99999999999997</ele><time>2026-03-29T09:12:54Z</time></trkpt><trkpt lat="43.41421763263468" lon="6.195162221576273"><ele>229.0</ele><time>2026-03-29T09:12:55Z</time></trkpt><trkpt lat="43.414335767258045" lon="6.195106248691517"><ele>229.0</ele><time>2026-03-29T09:12:56Z</time></trkpt><trkpt lat="43.41448671932312" lon="6.195018880079598"><ele>229.0</ele><time>2026-03-29T09:12:57Z</time></trkpt><trkpt lat="43.414600383734935" lon="6.194937967416822"><ele>229.0</ele><time>2026-03-29T09:12:58Z</time></trkpt><trkpt lat="43.4146705336492" lon="6.194867389051862"><ele>229.0</ele><time>2026-03-29T09:12:58.999Z</time></trkpt><trkpt lat="43.41470591419969" lon="6.194753598909236"><ele>229.16666666666666</ele><time>2026-03-29T09:13:00.999Z</time></trkpt><trkpt lat="43.414683692988696" lon="6.194671949683314"><ele>229.33333333333331</ele><time>2026-03-29T09:13:02.999Z</time></trkpt><trkpt lat="43.41469137007349" lon="6.194560531113281"><ele>229.5</ele><time>2026-03-29T09:13:04.999Z</time></trkpt><trkpt lat="43.41467176918458" lon="6.194477711677543"><ele>229.66666666666669</ele><time>2026-03-29T09:13:06.999Z</time></trkpt><trkpt lat="43.41461121116066" lon="6.194332626190824"><ele>229.83333333333334</ele><time>2026-03-29T09:13:08.999Z</time></trkpt><trkpt lat="43.41454468766378" lon="6.194224736447165"><ele>230.0</ele><time>2026-03-29T09:13:09.999Z</time></trkpt><trkpt lat="43.41443800070594" lon="6.19413585441174"><ele>230.0</ele><time>2026-03-29T09:13:10.999Z</time></trkpt><trkpt lat="43.414331214394025" lon="6.194002872166698"><ele>230.0</ele><time>2026-03-29T09:13:11.999Z</time></trkpt><trkpt lat="43.41421402100489" lon="6.193882786382927"><ele>230.0</ele><time>2026-03-29T09:13:12.999Z</time></trkpt><trkpt lat="43.414089988388824" lon="6.1937886196927145"><ele>230.0</ele><time>2026-03-29T09:13:13.999Z</time></trkpt><trkpt lat="43.41400916963389" lon="6.193716035734976"><ele>230.00000000000003</ele><time>2026-03-29T09:13:14.999Z</time></trkpt><trkpt lat="43.413941772903826" lon="6.193657123937619"><ele>230.0</ele><time>2026-03-29T09:13:15.999Z</time></trkpt><trkpt lat="43.41388180019616" lon="6.193606843340556"><ele>230.0</ele><time>2026-03-29T09:13:16.999Z</time></trkpt><trkpt lat="43.41382413415938" lon="6.1935606064813715"><ele>230.0</ele><time>2026-03-29T09:13:17.999Z</time></trkpt><trkpt lat="43.413729488189425" lon="6.193487688687593"><ele>230.00000000000003</ele><time>2026-03-29T09:13:19.999Z</time></trkpt><trkpt lat="43.41362560455384" lon="6.193429013502217"><ele>230.0</ele><time>2026-03-29T09:13:21.999Z</time></trkpt><trkpt lat="43.41355950405026" lon="6.193400834619203"><ele>230.4</ele><time>2026-03-29T09:13:22.999Z</time></trkpt><trkpt lat="43.41347588230643" lon="6.193370650297806"><ele>230.8</ele><time>2026-03-29T09:13:23.999Z</time></trkpt><trkpt lat="43.413398951089945" lon="6.193355275546177"><ele>231.2</ele><time>2026-03-29T09:13:24.999Z</time></trkpt><trkpt lat="43.413328986188205" lon="6.193334023754255"><ele>231.6</ele><time>2026-03-29T09:13:25.999Z</time></trkpt><trkpt lat="43.41323322549058" lon="6.193318392554116"><ele>232.0</ele><time>2026-03-29T09:13:26.999Z</time></trkpt><trkpt lat="43.41294088979717" lon="6.193197555627719"><ele>232.5</ele><time>2026-03-29T09:13:27.999Z</time></trkpt><trkpt lat="43.41282281187099" lon="6.193083783432628"><ele>233.0</ele><time>2026-03-29T09:13:28.999Z</time></trkpt><trkpt lat="43.41274018484584" lon="6.192968714032477"><ele>233.5</ele><time>2026-03-29T09:13:29.999Z</time></trkpt><trkpt lat="43.412654976404276" lon="6.192842000837713"><ele>234.0</ele><time>2026-03-29T09:13:30.999Z</time></trkpt><trkpt lat="43.412585005318874" lon="6.192663669697547"><ele>235.33333333333331</ele><time>2026-03-29T09:13:31.999Z</time></trkpt><trkpt lat="43.412472564350686" lon="6.19232430183963"><ele>236.66666666666666</ele><time>2026-03-29T09:13:32.999Z</time></trkpt><trkpt lat="43.41245053326217" lon="6.192112130738744"><ele>238.0</ele><time>2026-03-29T09:13:33.999Z</time></trkpt><trkpt lat="43.412460991103636" lon="6.192000401971048"><ele>238.0</ele><time>2026-03-29T09:13:34.999Z</time></trkpt><trkpt lat="43.41247922650664" lon="6.191893866530793"><ele>238.0</ele><time>2026-03-29T09:13:35.999Z</time></trkpt><trkpt lat="43.412482612478286" lon="6.191768252827014"><ele>238.0</ele><time>2026-03-29T09:13:36.999Z</time></trkpt><trkpt lat="43.41299829643904" lon="6.191337621275768"><ele>240.2</ele><time>2026-03-29T09:13:37.999Z</time></trkpt><trkpt lat="43.413002282790934" lon="6.191140989762806"><ele>242.4</ele><time>2026-03-29T09:13:38.999Z</time></trkpt><trkpt lat="43.41302347097775" lon="6.190989175116402"><ele>244.59999999999997</ele><time>2026-03-29T09:13:39.999Z</time></trkpt><trkpt lat="43.413024795894465" lon="6.190836017203703"><ele>246.79999999999998</ele><time>2026-03-29T09:13:40.999Z</time></trkpt><trkpt lat="43.413015377493196" lon="6.190728564468639"><ele>249.0</ele><time>2026-03-29T09:13:41.999Z</time></trkpt><trkpt lat="43.41297300761422" lon="6.190592086644869"><ele>249.0</ele><time>2026-03-29T09:13:42.999Z</time></trkpt><trkpt lat="43.41294665304699" lon="6.1904555116126065"><ele>248.99999999999997</ele><time>2026-03-29T09:13:43.999Z</time></trkpt><trkpt lat="43.41293408920473" lon="6.190322730685869"><ele>248.99999999999997</ele><time>2026-03-29T09:13:44.999Z</time></trkpt><trkpt lat="43.412921937236874" lon="6.190168651961483"><ele>249.0</ele><time>2026-03-29T09:13:45.999Z</time></trkpt><trkpt lat="43.412900433478896" lon="6.190030377547013"><ele>249.0</ele><time>2026-03-29T09:13:46.999Z</time></trkpt><trkpt lat="43.41285704051731" lon="6.189881020675037"><ele>251.25</ele><time>2026-03-29T09:13:47.999Z</time></trkpt><trkpt lat="43.412823833972155" lon="6.189721401687842"><ele>253.5</ele><time>2026-03-29T09:13:48.999Z</time></trkpt><trkpt lat="43.41278785690616" lon="6.189597968526039"><ele>255.75</ele><time>2026-03-29T09:13:49.999Z</time></trkpt><trkpt lat="43.41272874641279" lon="6.189463797984447"><ele>258.0</ele><time>2026-03-29T09:13:50.999Z</time></trkpt><trkpt lat="43.41265363435143" lon="6.189322460781533"><ele>258.0</ele><time>2026-03-29T09:13:51.998Z</time></trkpt><trkpt lat="43.41257852446689" lon="6.189168930528743"><ele>258.0</ele><time>2026-03-29T09:13:52.998Z</time></trkpt><trkpt lat="43.41249653739195" lon="6.189005494050894"><ele>258.0</ele><time>2026-03-29T09:13:53.998Z</time></trkpt><trkpt lat="43.41243341182006" lon="6.188868244792615"><ele>258.0</ele><time>2026-03-29T09:13:54.998Z</time></trkpt><trkpt lat="43.412397405980194" lon="6.188761630437686"><ele>256.2</ele><time>2026-03-29T09:13:55.998Z</time></trkpt><trkpt lat="43.4123154273119" lon="6.188635695046805"><ele>254.4</ele><time>2026-03-29T09:13:57.998Z</time></trkpt><trkpt lat="43.412268625004586" lon="6.188570460711639"><ele>252.59999999999997</ele><time>2026-03-29T09:13:58.998Z</time></trkpt><trkpt lat="43.412225419439515" lon="6.188489725494842"><ele>250.79999999999998</ele><time>2026-03-29T09:13:59.998Z</time></trkpt><trkpt lat="43.41217284513189" lon="6.188415217099135"><ele>249.0</ele><time>2026-03-29T09:14:00.998Z</time></trkpt><trkpt lat="43.41210782947623" lon="6.188245889688289"><ele>249.79999999999998</ele><time>2026-03-29T09:14:02.998Z</time></trkpt><trkpt lat="43.4120805018722" lon="6.188114297406402"><ele>250.59999999999997</ele><time>2026-03-29T09:14:03.998Z</time></trkpt><trkpt lat="43.41205133516558" lon="6.187985183056564"><ele>251.4</ele><time>2026-03-29T09:14:04.998Z</time></trkpt><trkpt lat="43.4120273653592" lon="6.187851564409037"><ele>252.2</ele><time>2026-03-29T09:14:05.998Z</time></trkpt><trkpt lat="43.411997734586926" lon="6.1877126297113785"><ele>253.0</ele><time>2026-03-29T09:14:06.998Z</time></trkpt><trkpt lat="43.41196808882106" lon="6.187604324886908"><ele>253.0</ele><time>2026-03-29T09:14:07.998Z</time></trkpt><trkpt lat="43.4119516398443" lon="6.187483381194038"><ele>253.0</ele><time>2026-03-29T09:14:08.998Z</time></trkpt><trkpt lat="43.411957313036154" lon="6.18736564978826"><ele>253.0</ele><time>2026-03-29T09:14:09.998Z</time></trkpt><trkpt lat="43.41196236618815" lon="6.187222360458924"><ele>253.0</ele><time>2026-03-29T09:14:10.998Z</time></trkpt><trkpt lat="43.41196339611041" lon="6.187067348368834"><ele>253.0</ele><time>2026-03-29T09:14:11.998Z</time></trkpt><trkpt lat="43.41196658783512" lon="6.186939994973869"><ele>252.99999999999997</ele><time>2026-03-29T09:14:12.998Z</time></trkpt><trkpt lat="43.41196311224742" lon="6.186828968802192"><ele>253.0</ele><time>2026-03-29T09:14:13.998Z</time></trkpt><trkpt lat="43.41196571991302" lon="6.186726917112717"><ele>253.0</ele><time>2026-03-29T09:14:15.998Z</time></trkpt><trkpt lat="43.41190187033214" lon="6.1866471572857575"><ele>253.0</ele><time>2026-03-29T09:14:18.998Z</time></trkpt><trkpt lat="43.411867720457614" lon="6.186548719630036"><ele>252.99999999999997</ele><time>2026-03-29T09:14:20.998Z</time></trkpt><trkpt lat="43.411880013050904" lon="6.186396025648856"><ele>253.0</ele><time>2026-03-29T09:14:22.998Z</time></trkpt><trkpt lat="43.41185337560354" lon="6.186282856348044"><ele>253.16666666666666</ele><time>2026-03-29T09:14:24.998Z</time></trkpt><trkpt lat="43.41180938952167" lon="6.186165077253851"><ele>253.33333333333331</ele><time>2026-03-29T09:14:26.998Z</time></trkpt><trkpt lat="43.41180767426272" lon="6.186047197167349"><ele>253.5</ele><time>2026-03-29T09:14:27.998Z</time></trkpt><trkpt lat="43.41180917178982" lon="6.185946459616384"><ele>253.66666666666669</ele><time>2026-03-29T09:14:28.998Z</time></trkpt><trkpt lat="43.41179456838175" lon="6.185856125134264"><ele>253.83333333333334</ele><time>2026-03-29T09:14:29.998Z</time></trkpt><trkpt lat="43.411807296997885" lon="6.185688878081217"><ele>254.0</ele><time>2026-03-29T09:14:31.998Z</time></trkpt><trkpt lat="43.41183610386479" lon="6.185566859088375"><ele>254.00000000000003</ele><time>2026-03-29T09:14:33.998Z</time></trkpt><trkpt lat="43.411877904433965" lon="6.1854652350432255"><ele>254.0</ele><time>2026-03-29T09:14:35.998Z</time></trkpt><trkpt lat="43.4118889833438" lon="6.185355398393488"><ele>254.0</ele><time>2026-03-29T09:14:37.998Z</time></trkpt><trkpt lat="43.41188459083588" lon="6.1852506275741135"><ele>254.0</ele><time>2026-03-29T09:14:38.998Z</time></trkpt><trkpt lat="43.41189364385588" lon="6.185148626430116"><ele>254.00000000000003</ele><time>2026-03-29T09:14:40Z</time></trkpt><trkpt lat="43.4119114992292" lon="6.185043325508388"><ele>254.0</ele><time>2026-03-29T09:14:41Z</time></trkpt><trkpt lat="43.41194185327483" lon="6.184937001262207"><ele>253.6</ele><time>2026-03-29T09:14:42Z</time></trkpt><trkpt lat="43.41196619318965" lon="6.1848322505658695"><ele>253.2</ele><time>2026-03-29T09:14:43Z</time></trkpt><trkpt lat="43.411994876429304" lon="6.184730947496645"><ele>252.79999999999998</ele><time>2026-03-29T09:14:44Z</time></trkpt><trkpt lat="43.41203139433842" lon="6.184632567390183"><ele>252.39999999999998</ele><time>2026-03-29T09:14:45Z</time></trkpt><trkpt lat="43.41206327815547" lon="6.18453092488038"><ele>252.0</ele><time>2026-03-29T09:14:46Z</time></trkpt><trkpt lat="43.41212873034635" lon="6.184366739712307"><ele>252.66666666666666</ele><time>2026-03-29T09:14:48Z</time></trkpt><trkpt lat="43.41216888893292" lon="6.184255786649888"><ele>253.33333333333331</ele><time>2026-03-29T09:14:49Z</time></trkpt><trkpt lat="43.41220237761499" lon="6.184165022306317"><ele>254.0</ele><time>2026-03-29T09:14:50Z</time></trkpt><trkpt lat="43.412203844160764" lon="6.184012000412723"><ele>254.66666666666666</ele><time>2026-03-29T09:14:52Z</time></trkpt><trkpt lat="43.41216907082171" lon="6.183931115506512"><ele>255.33333333333331</ele><time>2026-03-29T09:14:53Z</time></trkpt><trkpt lat="43.4121112786702" lon="6.183846945791642"><ele>256.0</ele><time>2026-03-29T09:14:54Z</time></trkpt><trkpt lat="43.41205840451571" lon="6.183761248858966"><ele>255.99999999999997</ele><time>2026-03-29T09:14:55Z</time></trkpt><trkpt lat="43.41202077276196" lon="6.183681713576075"><ele>256.0</ele><time>2026-03-29T09:14:56Z</time></trkpt><trkpt lat="43.41196582056068" lon="6.1836148714236305"><ele>256.0</ele><time>2026-03-29T09:14:57Z</time></trkpt><trkpt lat="43.41191773570553" lon="6.18354352037588"><ele>256.0</ele><time>2026-03-29T09:14:58Z</time></trkpt><trkpt lat="43.41186192399519" lon="6.183441765680959"><ele>255.99999999999997</ele><time>2026-03-29T09:15:00Z</time></trkpt><trkpt lat="43.41178264227373" lon="6.183380442744281"><ele>256.0</ele><time>2026-03-29T09:15:08.999Z</time></trkpt><trkpt lat="43.41179905390121" lon="6.18320564220322"><ele>257.6</ele><time>2026-03-29T09:15:10.999Z</time></trkpt><trkpt lat="43.411817150195006" lon="6.183088967761018"><ele>259.20000000000005</ele><time>2026-03-29T09:15:11.999Z</time></trkpt><trkpt lat="43.41179955696893" lon="6.182968743798579"><ele>260.79999999999995</ele><time>2026-03-29T09:15:12.999Z</time></trkpt><trkpt lat="43.41177787612619" lon="6.182845553810769"><ele>262.4</ele><time>2026-03-29T09:15:13.999Z</time></trkpt><trkpt lat="43.411761175214096" lon="6.182716671397193"><ele>264.0</ele><time>2026-03-29T09:15:14.999Z</time></trkpt><trkpt lat="43.41174242086678" lon="6.18258634825028"><ele>264.0</ele><time>2026-03-29T09:15:15.999Z</time></trkpt><trkpt lat="43.41170386270681" lon="6.182458688548437"><ele>264.0</ele><time>2026-03-29T09:15:16.999Z</time></trkpt><trkpt lat="43.41167318817634" lon="6.182334681662393"><ele>264.0</ele><time>2026-03-29T09:15:17.999Z</time></trkpt><trkpt lat="43.411652754754655" lon="6.182232137462054"><ele>264.0</ele><time>2026-03-29T09:15:18.999Z</time></trkpt><trkpt lat="43.411635975756745" lon="6.182131595147514"><ele>264.0</ele><time>2026-03-29T09:15:19.999Z</time></trkpt><trkpt lat="43.41162263362359" lon="6.1820374058455645"><ele>264.0</ele><time>2026-03-29T09:15:20.999Z</time></trkpt><trkpt lat="43.41161459091331" lon="6.181950398261927"><ele>264.3333333333333</ele><time>2026-03-29T09:15:21.999Z</time></trkpt><trkpt lat="43.41159735551366" lon="6.181822365560323"><ele>264.6666666666667</ele><time>2026-03-29T09:15:23.999Z</time></trkpt><trkpt lat="43.41154682660301" lon="6.181742917562688"><ele>265.0</ele><time>2026-03-29T09:15:25.999Z</time></trkpt><trkpt lat="43.41154425658959" lon="6.1816446047674924"><ele>265.33333333333337</ele><time>2026-03-29T09:15:30.999Z</time></trkpt><trkpt lat="43.41161719710058" lon="6.181747266906118"><ele>265.6666666666667</ele><time>2026-03-29T09:15:33.999Z</time></trkpt><trkpt lat="43.4116695728783" lon="6.181827325906933"><ele>266.0</ele><time>2026-03-29T09:15:35.999Z</time></trkpt><trkpt lat="43.4117178295788" lon="6.181894024559928"><ele>266.0</ele><time>2026-03-29T09:15:36.999Z</time></trkpt><trkpt lat="43.411770463911594" lon="6.181997118857656"><ele>266.0</ele><time>2026-03-29T09:15:37.999Z</time></trkpt><trkpt lat="43.411839032579756" lon="6.182099986708959"><ele>266.0</ele><time>2026-03-29T09:15:38.999Z</time></trkpt><trkpt lat="43.41188439283549" lon="6.182218996990869"><ele>266.0</ele><time>2026-03-29T09:15:39.999Z</time></trkpt><trkpt lat="43.411929966123914" lon="6.182314052530784"><ele>266.0</ele><time>2026-03-29T09:15:40.999Z</time></trkpt><trkpt lat="43.41198977481075" lon="6.18239472922493"><ele>265.6666666666667</ele><time>2026-03-29T09:15:41.999Z</time></trkpt><trkpt lat="43.412051160045195" lon="6.1824469324287925"><ele>265.33333333333337</ele><time>2026-03-29T09:15:42.999Z</time></trkpt><trkpt lat="43.41212312096802" lon="6.182487060549857"><ele>265.0</ele><time>2026-03-29T09:15:43.999Z</time></trkpt><trkpt lat="43.4122039043444" lon="6.182564895945309"><ele>264.6666666666667</ele><time>2026-03-29T09:15:44.999Z</time></trkpt><trkpt lat="43.412261139286144" lon="6.18262783795259"><ele>264.3333333333333</ele><time>2026-03-29T09:15:45.999Z</time></trkpt><trkpt lat="43.41235454208825" lon="6.182738506226234"><ele>264.0</ele><time>2026-03-29T09:15:47.999Z</time></trkpt><trkpt lat="43.41236488362433" lon="6.182833697468108"><ele>267.8</ele><time>2026-03-29T09:15:49.999Z</time></trkpt><trkpt lat="43.41235249252104" lon="6.182943785854032"><ele>271.59999999999997</ele><time>2026-03-29T09:15:50.999Z</time></trkpt><trkpt lat="43.412370301876656" lon="6.183120649167087"><ele>275.4</ele><time>2026-03-29T09:15:52.999Z</time></trkpt><trkpt lat="43.41238059045969" lon="6.183261857431265"><ele>279.2</ele><time>2026-03-29T09:15:53.999Z</time></trkpt><trkpt lat="43.412445894926286" lon="6.183396038902307"><ele>283.0</ele><time>2026-03-29T09:15:54.999Z</time></trkpt><trkpt lat="43.412527532508506" lon="6.183507931095982"><ele>283.0</ele><time>2026-03-29T09:15:55.999Z</time></trkpt><trkpt lat="43.41260822071226" lon="6.1835968153367995"><ele>283.0</ele><time>2026-03-29T09:15:56.999Z</time></trkpt><trkpt lat="43.41268031582964" lon="6.1837064686097944"><ele>283.0</ele><time>2026-03-29T09:15:57.998Z</time></trkpt><trkpt lat="43.412738471899054" lon="6.183824099855882"><ele>283.0</ele><time>2026-03-29T09:15:58.998Z</time></trkpt><trkpt lat="43.41280217324127" lon="6.183925043744923"><ele>283.0</ele><time>2026-03-29T09:15:59.998Z</time></trkpt><trkpt lat="43.41287727776657" lon="6.183999800145067"><ele>281.8333333333333</ele><time>2026-03-29T09:16:00.998Z</time></trkpt><trkpt lat="43.41295111257888" lon="6.184069031071333"><ele>280.66666666666663</ele><time>2026-03-29T09:16:01.998Z</time></trkpt><trkpt lat="43.4130040817202" lon="6.184132470101011"><ele>279.5</ele><time>2026-03-29T09:16:02.998Z</time></trkpt><trkpt lat="43.41298800616512" lon="6.1842744543502794"><ele>278.3333333333333</ele><time>2026-03-29T09:16:04.998Z</time></trkpt><trkpt lat="43.41298563250141" lon="6.184370472720071"><ele>277.1666666666667</ele><time>2026-03-29T09:16:05.998Z</time></trkpt><trkpt lat="43.4129785646595" lon="6.184471206075757"><ele>276.0</ele><time>2026-03-29T09:16:06.998Z</time></trkpt><trkpt lat="43.412951684432095" lon="6.184561139276544"><ele>276.0</ele><time>2026-03-29T09:16:09.998Z</time></trkpt><trkpt lat="43.41298299970845" lon="6.184662349832098"><ele>276.0</ele><time>2026-03-29T09:16:13.998Z</time></trkpt><trkpt lat="43.41305484852356" lon="6.184771021759407"><ele>276.0</ele><time>2026-03-29T09:16:15.998Z</time></trkpt><trkpt lat="43.41312450558609" lon="6.184898110727127"><ele>276.0</ele><time>2026-03-29T09:16:17.998Z</time></trkpt><trkpt lat="43.41318996000444" lon="6.185011480183428"><ele>276.0</ele><time>2026-03-29T09:16:18.998Z</time></trkpt><trkpt lat="43.41324535920309" lon="6.185126601397518"><ele>279.6666666666667</ele><time>2026-03-29T09:16:19.998Z</time></trkpt><trkpt lat="43.41330501481923" lon="6.1852249253667555"><ele>283.3333333333333</ele><time>2026-03-29T09:16:20.998Z</time></trkpt><trkpt lat="43.41336204017602" lon="6.185274164548281"><ele>287.0</ele><time>2026-03-29T09:16:21.998Z</time></trkpt><trkpt lat="43.41342957382691" lon="6.18523128279196"><ele>290.66666666666663</ele><time>2026-03-29T09:16:23.998Z</time></trkpt><trkpt lat="43.41350471199193" lon="6.185150580414105"><ele>294.3333333333333</ele><time>2026-03-29T09:16:25.998Z</time></trkpt><trkpt lat="43.41349817564815" lon="6.185012420673653"><ele>298.0</ele><time>2026-03-29T09:16:27.998Z</time></trkpt><trkpt lat="43.41346422578792" lon="6.184889160945921"><ele>298.6</ele><time>2026-03-29T09:16:29.998Z</time></trkpt><trkpt lat="43.41345660834022" lon="6.184753443612565"><ele>299.20000000000005</ele><time>2026-03-29T09:16:30.998Z</time></trkpt><trkpt lat="43.41344584162608" lon="6.1846176352934625"><ele>299.8</ele><time>2026-03-29T09:16:31.998Z</time></trkpt><trkpt lat="43.41342843363232" lon="6.184468492625096"><ele>300.40000000000003</ele><time>2026-03-29T09:16:32.998Z</time></trkpt><trkpt lat="43.413409914700544" lon="6.184288113255886"><ele>301.0</ele><time>2026-03-29T09:16:33.998Z</time></trkpt><trkpt lat="43.41338295068695" lon="6.184115651209893"><ele>301.8</ele><time>2026-03-29T09:16:34.998Z</time></trkpt><trkpt lat="43.41335808606023" lon="6.183950027450662"><ele>302.6</ele><time>2026-03-29T09:16:35.998Z</time></trkpt><trkpt lat="43.4133362610895" lon="6.183807935888414"><ele>303.4</ele><time>2026-03-29T09:16:36.998Z</time></trkpt><trkpt lat="43.41333774034978" lon="6.18369039076923"><ele>304.2</ele><time>2026-03-29T09:16:37.998Z</time></trkpt><trkpt lat="43.413375362555314" lon="6.183591140165479"><ele>305.0</ele><time>2026-03-29T09:16:38.998Z</time></trkpt><trkpt lat="43.41340364493861" lon="6.183478101574635"><ele>305.0</ele><time>2026-03-29T09:16:39.998Z</time></trkpt><trkpt lat="43.413410080646955" lon="6.183363225990684"><ele>305.0</ele><time>2026-03-29T09:16:40.998Z</time></trkpt><trkpt lat="43.41340367238445" lon="6.183262905427252"><ele>305.0</ele><time>2026-03-29T09:16:41.998Z</time></trkpt><trkpt lat="43.413387669212014" lon="6.183068021125074"><ele>305.0</ele><time>2026-03-29T09:16:43.998Z</time></trkpt><trkpt lat="43.413397918830604" lon="6.1829369988242915"><ele>305.0</ele><time>2026-03-29T09:16:44.998Z</time></trkpt><trkpt lat="43.41340463343401" lon="6.182794232820014"><ele>306.0</ele><time>2026-03-29T09:16:46Z</time></trkpt><trkpt lat="43.413359128219206" lon="6.18264870627556"><ele>307.0</ele><time>2026-03-29T09:16:47Z</time></trkpt><trkpt lat="43.413323090213645" lon="6.182525288555018"><ele>308.0</ele><time>2026-03-29T09:16:48Z</time></trkpt><trkpt lat="43.413317409216226" lon="6.182381650662193"><ele>309.0</ele><time>2026-03-29T09:16:49Z</time></trkpt><trkpt lat="43.413304373455944" lon="6.182232352185767"><ele>310.0</ele><time>2026-03-29T09:16:50Z</time></trkpt><trkpt lat="43.41330360610393" lon="6.1820759832563565"><ele>310.0</ele><time>2026-03-29T09:16:51Z</time></trkpt><trkpt lat="43.413292286590874" lon="6.181919497572894"><ele>310.0</ele><time>2026-03-29T09:16:52Z</time></trkpt><trkpt lat="43.413273627008664" lon="6.1817749433116465"><ele>310.0</ele><time>2026-03-29T09:16:53Z</time></trkpt><trkpt lat="43.4132691580098" lon="6.181643716729853"><ele>310.0</ele><time>2026-03-29T09:16:54Z</time></trkpt><trkpt lat="43.413293609719915" lon="6.181492061559179"><ele>310.0</ele><time>2026-03-29T09:16:55Z</time></trkpt><trkpt lat="43.41331072424901" lon="6.181328588584704"><ele>310.0</ele><time>2026-03-29T09:16:56Z</time></trkpt><trkpt lat="43.41331400564177" lon="6.181161512439556"><ele>310.0</ele><time>2026-03-29T09:16:57Z</time></trkpt><trkpt lat="43.41332260093903" lon="6.181012675135232"><ele>310.0</ele><time>2026-03-29T09:16:58Z</time></trkpt><trkpt lat="43.41332384737794" lon="6.180876184366873"><ele>310.0</ele><time>2026-03-29T09:16:59Z</time></trkpt><trkpt lat="43.4133240131787" lon="6.180750261549283"><ele>310.0</ele><time>2026-03-29T09:17:00Z</time></trkpt><trkpt lat="43.413309141335105" lon="6.180644893144481"><ele>310.4</ele><time>2026-03-29T09:17:01Z</time></trkpt><trkpt lat="43.41331370166631" lon="6.180508328846496"><ele>310.8</ele><time>2026-03-29T09:17:02Z</time></trkpt><trkpt lat="43.413324571178386" lon="6.180354869722718"><ele>311.2</ele><time>2026-03-29T09:17:03Z</time></trkpt><trkpt lat="43.41331858403041" lon="6.180226995273251"><ele>311.6</ele><time>2026-03-29T09:17:04Z</time></trkpt><trkpt lat="43.413300986984524" lon="6.180105803154541"><ele>312.0</ele><time>2026-03-29T09:17:05Z</time></trkpt><trkpt lat="43.41327770982985" lon="6.179982996615679"><ele>312.6</ele><time>2026-03-29T09:17:06Z</time></trkpt><trkpt lat="43.41325718751686" lon="6.179830315636537"><ele>313.2</ele><time>2026-03-29T09:17:07Z</time></trkpt><trkpt lat="43.4132387416655" lon="6.179688566207871"><ele>313.8</ele><time>2026-03-29T09:17:08Z</time></trkpt><trkpt lat="43.413213011045805" lon="6.179578614781516"><ele>314.4</ele><time>2026-03-29T09:17:09Z</time></trkpt><trkpt lat="43.41315391122277" lon="6.179459793461252"><ele>315.0</ele><time>2026-03-29T09:17:10Z</time></trkpt><trkpt lat="43.41311976614307" lon="6.179337684310936"><ele>315.0</ele><time>2026-03-29T09:17:11Z</time></trkpt><trkpt lat="43.413106574148316" lon="6.179202452522829"><ele>315.0</ele><time>2026-03-29T09:17:12Z</time></trkpt><trkpt lat="43.41309843156139" lon="6.179060062105192"><ele>315.0</ele><time>2026-03-29T09:17:13Z</time></trkpt><trkpt lat="43.413101459172225" lon="6.178942238721795"><ele>315.0</ele><time>2026-03-29T09:17:14Z</time></trkpt><trkpt lat="43.41312145205716" lon="6.178830045101844"><ele>315.0</ele><time>2026-03-29T09:17:15Z</time></trkpt><trkpt lat="43.41314826549633" lon="6.1787402593399845"><ele>315.0</ele><time>2026-03-29T09:17:16Z</time></trkpt><trkpt lat="43.41319794111622" lon="6.17864476436365"><ele>315.0</ele><time>2026-03-29T09:17:16.999Z</time></trkpt><trkpt lat="43.41318824871409" lon="6.178528355815566"><ele>315.0</ele><time>2026-03-29T09:17:17.999Z</time></trkpt><trkpt lat="43.41319146183542" lon="6.17839118076823"><ele>315.0</ele><time>2026-03-29T09:17:18.999Z</time></trkpt><trkpt lat="43.41319456561749" lon="6.178267727162597"><ele>315.0</ele><time>2026-03-29T09:17:19.999Z</time></trkpt><trkpt lat="43.41319380699036" lon="6.178179924648818"><ele>315.0</ele><time>2026-03-29T09:17:20.999Z</time></trkpt><trkpt lat="43.41320185267922" lon="6.178066678375868"><ele>315.0</ele><time>2026-03-29T09:17:21.999Z</time></trkpt><trkpt lat="43.4132087408569" lon="6.177973766910567"><ele>314.4</ele><time>2026-03-29T09:17:22.999Z</time></trkpt><trkpt lat="43.41321602183342" lon="6.17786222272696"><ele>313.8</ele><time>2026-03-29T09:17:23.999Z</time></trkpt><trkpt lat="43.41323112305017" lon="6.1777286600268635"><ele>313.2</ele><time>2026-03-29T09:17:24.999Z</time></trkpt><trkpt lat="43.41323898641876" lon="6.177576787908793"><ele>312.6</ele><time>2026-03-29T09:17:25.999Z</time></trkpt><trkpt lat="43.41325331486403" lon="6.177412370681172"><ele>312.0</ele><time>2026-03-29T09:17:26.999Z</time></trkpt><trkpt lat="43.413270661463415" lon="6.177274708325755"><ele>311.75</ele><time>2026-03-29T09:17:27.999Z</time></trkpt><trkpt lat="43.41328787073757" lon="6.177131723080117"><ele>311.5</ele><time>2026-03-29T09:17:28.999Z</time></trkpt><trkpt lat="43.41329352011117" lon="6.177000372621868"><ele>311.25</ele><time>2026-03-29T09:17:29.999Z</time></trkpt><trkpt lat="43.41327908190043" lon="6.176837121251435"><ele>311.0</ele><time>2026-03-29T09:17:30.999Z</time></trkpt><trkpt lat="43.413280470413405" lon="6.176652290835184"><ele>310.75</ele><time>2026-03-29T09:17:31.999Z</time></trkpt><trkpt lat="43.41327278375991" lon="6.17648385361856"><ele>310.5</ele><time>2026-03-29T09:17:32.999Z</time></trkpt><trkpt lat="43.41327262579693" lon="6.176340856204535"><ele>310.25</ele><time>2026-03-29T09:17:33.999Z</time></trkpt><trkpt lat="43.413269539182224" lon="6.176176434998291"><ele>310.0</ele><time>2026-03-29T09:17:34.999Z</time></trkpt><trkpt lat="43.4132664144686" lon="6.176022427490307"><ele>310.0</ele><time>2026-03-29T09:17:35.999Z</time></trkpt><trkpt lat="43.41327503052166" lon="6.175887555899672"><ele>310.0</ele><time>2026-03-29T09:17:36.999Z</time></trkpt><trkpt lat="43.413287218373966" lon="6.175756535959049"><ele>310.0</ele><time>2026-03-29T09:17:37.999Z</time></trkpt><trkpt lat="43.41332140218385" lon="6.175622541195534"><ele>310.0</ele><time>2026-03-29T09:17:38.999Z</time></trkpt><trkpt lat="43.41336385946145" lon="6.175499151351333"><ele>310.0</ele><time>2026-03-29T09:17:39.999Z</time></trkpt><trkpt lat="43.413407321154814" lon="6.175384667637019"><ele>309.6</ele><time>2026-03-29T09:17:40.999Z</time></trkpt><trkpt lat="43.41344093154956" lon="6.175255271108371"><ele>309.2</ele><time>2026-03-29T09:17:41.999Z</time></trkpt><trkpt lat="43.41347553432137" lon="6.175111845879786"><ele>308.8</ele><time>2026-03-29T09:17:42.999Z</time></trkpt><trkpt lat="43.41349532212385" lon="6.174963323140831"><ele>308.4</ele><time>2026-03-29T09:17:43.999Z</time></trkpt><trkpt lat="43.41350284667886" lon="6.174810070441155"><ele>308.0</ele><time>2026-03-29T09:17:44.999Z</time></trkpt><trkpt lat="43.413536165567606" lon="6.174681860978988"><ele>307.5</ele><time>2026-03-29T09:17:45.999Z</time></trkpt><trkpt lat="43.41355459330763" lon="6.174567772898691"><ele>307.0</ele><time>2026-03-29T09:17:46.999Z</time></trkpt><trkpt lat="43.41355581963152" lon="6.174457331143414"><ele>306.5</ele><time>2026-03-29T09:17:47.999Z</time></trkpt><trkpt lat="43.41351362162003" lon="6.1743697471582"><ele>306.0</ele><time>2026-03-29T09:17:48.999Z</time></trkpt><trkpt lat="43.41346866526615" lon="6.174291978503756"><ele>305.5</ele><time>2026-03-29T09:17:49.999Z</time></trkpt><trkpt lat="43.41343912845507" lon="6.174152683729554"><ele>305.0</ele><time>2026-03-29T09:17:51.999Z</time></trkpt><trkpt lat="43.41344584464048" lon="6.174054751255371"><ele>304.8</ele><time>2026-03-29T09:17:52.999Z</time></trkpt><trkpt lat="43.413465900198965" lon="6.173917475307598"><ele>304.6</ele><time>2026-03-29T09:17:53.999Z</time></trkpt><trkpt lat="43.41349778206216" lon="6.173767609182263"><ele>304.4</ele><time>2026-03-29T09:17:54.999Z</time></trkpt><trkpt lat="43.41349478348963" lon="6.173634227118389"><ele>304.2</ele><time>2026-03-29T09:17:55.999Z</time></trkpt><trkpt lat="43.413476490228476" lon="6.173517023675461"><ele>304.0</ele><time>2026-03-29T09:17:56.999Z</time></trkpt><trkpt lat="43.41348592664036" lon="6.173417498188058"><ele>304.0</ele><time>2026-03-29T09:17:57.999Z</time></trkpt><trkpt lat="43.413520744622296" lon="6.173339566676143"><ele>304.0</ele><time>2026-03-29T09:17:58.999Z</time></trkpt><trkpt lat="43.41357455104991" lon="6.173212708864557"><ele>304.0</ele><time>2026-03-29T09:17:59.999Z</time></trkpt><trkpt lat="43.41360328531534" lon="6.173085387444084"><ele>304.0</ele><time>2026-03-29T09:18:00.999Z</time></trkpt><trkpt lat="43.41363725893508" lon="6.172961684735779"><ele>304.0</ele><time>2026-03-29T09:18:01.999Z</time></trkpt><trkpt lat="43.41359339241077" lon="6.172787313198802"><ele>303.4</ele><time>2026-03-29T09:18:02.999Z</time></trkpt><trkpt lat="43.41360816473476" lon="6.172631736654946"><ele>302.79999999999995</ele><time>2026-03-29T09:18:03.999Z</time></trkpt><trkpt lat="43.413630425800356" lon="6.172474103805862"><ele>302.20000000000005</ele><time>2026-03-29T09:18:04.999Z</time></trkpt><trkpt lat="43.413658507216006" lon="6.172322437851043"><ele>301.6</ele><time>2026-03-29T09:18:05.999Z</time></trkpt><trkpt lat="43.41369682182807" lon="6.172214747814293"><ele>301.0</ele><time>2026-03-29T09:18:06.999Z</time></trkpt><trkpt lat="43.413755587204314" lon="6.172115156565373"><ele>300.0</ele><time>2026-03-29T09:18:07.999Z</time></trkpt><trkpt lat="43.41381060923855" lon="6.17200910622695"><ele>299.0</ele><time>2026-03-29T09:18:08.999Z</time></trkpt><trkpt lat="43.413860644474646" lon="6.171914013496805"><ele>298.0</ele><time>2026-03-29T09:18:09.998Z</time></trkpt><trkpt lat="43.4138827920387" lon="6.171829242550221"><ele>297.0</ele><time>2026-03-29T09:18:10.998Z</time></trkpt><trkpt lat="43.413925887878264" lon="6.1717472289284965"><ele>296.0</ele><time>2026-03-29T09:18:11.998Z</time></trkpt><trkpt lat="43.413976531650185" lon="6.171681194513515"><ele>295.0</ele><time>2026-03-29T09:18:12.998Z</time></trkpt><trkpt lat="43.41405408910672" lon="6.171607675594956"><ele>295.8333333333333</ele><time>2026-03-29T09:18:13.998Z</time></trkpt><trkpt lat="43.4141116741521" lon="6.171528318012438"><ele>296.66666666666663</ele><time>2026-03-29T09:18:14.998Z</time></trkpt><trkpt lat="43.41415601721126" lon="6.171421779790408"><ele>297.5</ele><time>2026-03-29T09:18:15.998Z</time></trkpt><trkpt lat="43.41419198589579" lon="6.171338391544238"><ele>298.3333333333333</ele><time>2026-03-29T09:18:16.998Z</time></trkpt><trkpt lat="43.414226365120285" lon="6.17126115424725"><ele>299.1666666666667</ele><time>2026-03-29T09:18:17.998Z</time></trkpt><trkpt lat="43.41433154082804" lon="6.171215165096167"><ele>300.0</ele><time>2026-03-29T09:18:19.998Z</time></trkpt><trkpt lat="43.41440706024903" lon="6.171237674167204"><ele>300.0</ele><time>2026-03-29T09:18:20.998Z</time></trkpt><trkpt lat="43.414508423096926" lon="6.171248436516987"><ele>300.0</ele><time>2026-03-29T09:18:21.998Z</time></trkpt><trkpt lat="43.414617367688614" lon="6.171248793810895"><ele>300.0</ele><time>2026-03-29T09:18:22.998Z</time></trkpt><trkpt lat="43.41469735651958" lon="6.171256334777041"><ele>300.0</ele><time>2026-03-29T09:18:23.998Z</time></trkpt><trkpt lat="43.41477939917009" lon="6.171259813927758"><ele>300.0</ele><time>2026-03-29T09:18:24.998Z</time></trkpt><trkpt lat="43.41490142697455" lon="6.171299152287037"><ele>302.6666666666667</ele><time>2026-03-29T09:18:26.998Z</time></trkpt><trkpt lat="43.41498876359314" lon="6.171349424812966"><ele>305.3333333333333</ele><time>2026-03-29T09:18:27.998Z</time></trkpt><trkpt lat="43.41505922431888" lon="6.171437659754597"><ele>308.0</ele><time>2026-03-29T09:18:28.998Z</time></trkpt><trkpt lat="43.41514025034498" lon="6.171471514339533"><ele>310.66666666666663</ele><time>2026-03-29T09:18:29.998Z</time></trkpt><trkpt lat="43.41521879381505" lon="6.171469377012885"><ele>313.3333333333333</ele><time>2026-03-29T09:18:55Z</time></trkpt><trkpt lat="43.41527857715933" lon="6.171513556149504"><ele>316.0</ele><time>2026-03-29T09:18:57Z</time></trkpt><trkpt lat="43.4153534328476" lon="6.171483569186039"><ele>316.0</ele><time>2026-03-29T09:18:59Z</time></trkpt><trkpt lat="43.41542537823886" lon="6.171521380459897"><ele>316.0</ele><time>2026-03-29T09:19:01Z</time></trkpt><trkpt lat="43.4154982074012" lon="6.171586784634835"><ele>316.0</ele><time>2026-03-29T09:19:02Z</time></trkpt><trkpt lat="43.4155596348032" lon="6.171673443269566"><ele>316.0</ele><time>2026-03-29T09:19:03Z</time></trkpt><trkpt lat="43.415621328337785" lon="6.17172076180735"><ele>316.0</ele><time>2026-03-29T09:19:04Z</time></trkpt><trkpt lat="43.41569490956746" lon="6.171804086595381"><ele>316.0</ele><time>2026-03-29T09:19:05Z</time></trkpt><trkpt lat="43.41575290367583" lon="6.171888860193212"><ele>316.8</ele><time>2026-03-29T09:19:06Z</time></trkpt><trkpt lat="43.415809533272004" lon="6.171948367354208"><ele>317.6</ele><time>2026-03-29T09:19:07Z</time></trkpt><trkpt lat="43.415892740796664" lon="6.171884326332056"><ele>318.4</ele><time>2026-03-29T09:19:10Z</time></trkpt><trkpt lat="43.415888505517465" lon="6.171760506971831"><ele>319.2</ele><time>2026-03-29T09:19:11Z</time></trkpt><trkpt lat="43.41588514249906" lon="6.171613911770571"><ele>320.0</ele><time>2026-03-29T09:19:12Z</time></trkpt><trkpt lat="43.41585678676051" lon="6.17144369449409"><ele>320.4</ele><time>2026-03-29T09:19:13Z</time></trkpt><trkpt lat="43.41585214964068" lon="6.1713266510907205"><ele>320.8</ele><time>2026-03-29T09:19:14Z</time></trkpt><trkpt lat="43.4158553548524" lon="6.171198207172779"><ele>321.20000000000005</ele><time>2026-03-29T09:19:15Z</time></trkpt><trkpt lat="43.415882372910616" lon="6.17106184107552"><ele>321.6</ele><time>2026-03-29T09:19:16Z</time></trkpt><trkpt lat="43.41590051742292" lon="6.1709297538736765"><ele>322.0</ele><time>2026-03-29T09:19:17Z</time></trkpt><trkpt lat="43.41591223130402" lon="6.170784389300626"><ele>322.20000000000005</ele><time>2026-03-29T09:19:18Z</time></trkpt><trkpt lat="43.41589035830444" lon="6.170658453807287"><ele>322.4</ele><time>2026-03-29T09:19:19Z</time></trkpt><trkpt lat="43.41584008142148" lon="6.170547251217057"><ele>322.6</ele><time>2026-03-29T09:19:20Z</time></trkpt><trkpt lat="43.41577922719094" lon="6.170446602303651"><ele>322.79999999999995</ele><time>2026-03-29T09:19:21Z</time></trkpt><trkpt lat="43.415742387067034" lon="6.170350289197882"><ele>323.0</ele><time>2026-03-29T09:19:22Z</time></trkpt><trkpt lat="43.4157326278218" lon="6.1702019872467115"><ele>323.0</ele><time>2026-03-29T09:19:23Z</time></trkpt><trkpt lat="43.41573217645515" lon="6.1700304499224154"><ele>323.0</ele><time>2026-03-29T09:19:23.999Z</time></trkpt><trkpt lat="43.41572301184148" lon="6.169861352219212"><ele>323.0</ele><time>2026-03-29T09:19:24.999Z</time></trkpt><trkpt lat="43.41571435222081" lon="6.169667357077668"><ele>323.0</ele><time>2026-03-29T09:19:25.999Z</time></trkpt><trkpt lat="43.41568474202619" lon="6.1694905739796555"><ele>323.0</ele><time>2026-03-29T09:19:26.999Z</time></trkpt><trkpt lat="43.41568406395939" lon="6.169336416880404"><ele>323.0</ele><time>2026-03-29T09:19:27.999Z</time></trkpt><trkpt lat="43.415691753799514" lon="6.169193868295437"><ele>323.0</ele><time>2026-03-29T09:19:28.999Z</time></trkpt><trkpt lat="43.41566858950559" lon="6.169070286640567"><ele>323.0</ele><time>2026-03-29T09:19:29.999Z</time></trkpt><trkpt lat="43.41565103141627" lon="6.16895062604318"><ele>323.0</ele><time>2026-03-29T09:19:30.999Z</time></trkpt><trkpt lat="43.415650489076924" lon="6.1688436661066985"><ele>322.79999999999995</ele><time>2026-03-29T09:19:31.999Z</time></trkpt><trkpt lat="43.415610281119775" lon="6.168739394539638"><ele>322.6</ele><time>2026-03-29T09:19:33.999Z</time></trkpt><trkpt lat="43.41550731764089" lon="6.168681009057567"><ele>322.4</ele><time>2026-03-29T09:19:35.999Z</time></trkpt><trkpt lat="43.415475117436785" lon="6.168592946351622"><ele>322.20000000000005</ele><time>2026-03-29T09:19:36.999Z</time></trkpt><trkpt lat="43.41546872040916" lon="6.168442129508644"><ele>322.0</ele><time>2026-03-29T09:19:37.999Z</time></trkpt><trkpt lat="43.41547453734474" lon="6.168289213562002"><ele>322.8</ele><time>2026-03-29T09:19:38.999Z</time></trkpt><trkpt lat="43.41546699213056" lon="6.1681934132485186"><ele>323.6</ele><time>2026-03-29T09:19:39.999Z</time></trkpt><trkpt lat="43.41542327595801" lon="6.168093610750872"><ele>324.40000000000003</ele><time>2026-03-29T09:19:40.999Z</time></trkpt><trkpt lat="43.41534890651064" lon="6.167989702605044"><ele>325.20000000000005</ele><time>2026-03-29T09:19:42.999Z</time></trkpt><trkpt lat="43.41534517411028" lon="6.1678530016950095"><ele>326.0</ele><time>2026-03-29T09:19:44.999Z</time></trkpt><trkpt lat="43.41529847469086" lon="6.167706629006901"><ele>326.0</ele><time>2026-03-29T09:19:46.999Z</time></trkpt><trkpt lat="43.415237221776074" lon="6.167650416113697"><ele>326.0</ele><time>2026-03-29T09:19:47.999Z</time></trkpt><trkpt lat="43.4151904259788" lon="6.167586390729347"><ele>326.0</ele><time>2026-03-29T09:19:48.999Z</time></trkpt><trkpt lat="43.415143963194545" lon="6.167448856703192"><ele>326.0</ele><time>2026-03-29T09:19:49.999Z</time></trkpt><trkpt lat="43.415131010880685" lon="6.167255332628826"><ele>326.0</ele><time>2026-03-29T09:19:50.999Z</time></trkpt><trkpt lat="43.41511335948933" lon="6.16709120422847"><ele>325.83333333333337</ele><time>2026-03-29T09:19:51.999Z</time></trkpt><trkpt lat="43.41509471542253" lon="6.166992768776561"><ele>325.6666666666667</ele><time>2026-03-29T09:19:52.999Z</time></trkpt><trkpt lat="43.415021028357685" lon="6.166847600381344"><ele>325.5</ele><time>2026-03-29T09:19:54.999Z</time></trkpt><trkpt lat="43.415006635127476" lon="6.1667438107536015"><ele>325.3333333333333</ele><time>2026-03-29T09:19:55.999Z</time></trkpt><trkpt lat="43.415017773997846" lon="6.16663006399152"><ele>325.16666666666663</ele><time>2026-03-29T09:19:56.999Z</time></trkpt><trkpt lat="43.41501651141056" lon="6.166514652557543"><ele>325.0</ele><time>2026-03-29T09:19:57.999Z</time></trkpt><trkpt lat="43.41500061363218" lon="6.166398246380673"><ele>325.0</ele><time>2026-03-29T09:19:58.999Z</time></trkpt><trkpt lat="43.41497516984552" lon="6.166279408528884"><ele>325.0</ele><time>2026-03-29T09:19:59.999Z</time></trkpt><trkpt lat="43.414949315748096" lon="6.166174504076502"><ele>325.0</ele><time>2026-03-29T09:20:00.999Z</time></trkpt><trkpt lat="43.41492071339291" lon="6.166092733450822"><ele>325.0</ele><time>2026-03-29T09:20:01.999Z</time></trkpt><trkpt lat="43.4148886902093" lon="6.166014453135122"><ele>325.0</ele><time>2026-03-29T09:20:02.999Z</time></trkpt><trkpt lat="43.41489286847138" lon="6.165812189089142"><ele>325.0</ele><time>2026-03-29T09:20:04.999Z</time></trkpt><trkpt lat="43.41491767877908" lon="6.165673552109588"><ele>325.0</ele><time>2026-03-29T09:20:05.999Z</time></trkpt><trkpt lat="43.41496150976541" lon="6.165556423245211"><ele>325.0</ele><time>2026-03-29T09:20:06.999Z</time></trkpt><trkpt lat="43.41499439930623" lon="6.165432073587709"><ele>325.0</ele><time>2026-03-29T09:20:07.999Z</time></trkpt><trkpt lat="43.415000623887" lon="6.165234243907475"><ele>325.0</ele><time>2026-03-29T09:20:08.999Z</time></trkpt><trkpt lat="43.415015792612934" lon="6.16512294484305"><ele>325.0</ele><time>2026-03-29T09:20:09.999Z</time></trkpt><trkpt lat="43.4150414579526" lon="6.165023339524435"><ele>325.0</ele><time>2026-03-29T09:20:10.999Z</time></trkpt><trkpt lat="43.41504470102711" lon="6.164863866482274"><ele>325.0</ele><time>2026-03-29T09:20:12.999Z</time></trkpt><trkpt lat="43.41504552391205" lon="6.164755745579025"><ele>325.0</ele><time>2026-03-29T09:20:14.999Z</time></trkpt><trkpt lat="43.41507456566939" lon="6.164638420190575"><ele>325.0</ele><time>2026-03-29T09:20:16.998Z</time></trkpt><trkpt lat="43.41503714740362" lon="6.164493937531854"><ele>325.0</ele><time>2026-03-29T09:20:18.998Z</time></trkpt><trkpt lat="43.415027914219124" lon="6.164401931149121"><ele>324.66666666666663</ele><time>2026-03-29T09:20:19.998Z</time></trkpt><trkpt lat="43.415030574171254" lon="6.164287901217899"><ele>324.3333333333333</ele><time>2026-03-29T09:20:20.998Z</time></trkpt><trkpt lat="43.415037113767035" lon="6.164193875428502"><ele>324.0</ele><time>2026-03-29T09:20:21.998Z</time></trkpt><trkpt lat="43.41499432024228" lon="6.16405758433021"><ele>323.6666666666667</ele><time>2026-03-29T09:20:23.998Z</time></trkpt><trkpt lat="43.415007177358035" lon="6.163943077233132"><ele>323.33333333333337</ele><time>2026-03-29T09:20:25.998Z</time></trkpt><trkpt lat="43.41498890497958" lon="6.163845927971672"><ele>323.0</ele><time>2026-03-29T09:20:26.998Z</time></trkpt><trkpt lat="43.414973504058" lon="6.163761530142828"><ele>322.7142857142857</ele><time>2026-03-29T09:20:27.998Z</time></trkpt><trkpt lat="43.41496853423597" lon="6.1636498797771795"><ele>322.42857142857144</ele><time>2026-03-29T09:20:28.998Z</time></trkpt><trkpt lat="43.41495203627302" lon="6.163553440508699"><ele>322.1428571428571</ele><time>2026-03-29T09:20:29.998Z</time></trkpt><trkpt lat="43.414936550030816" lon="6.163465670107912"><ele>321.8571428571429</ele><time>2026-03-29T09:20:30.998Z</time></trkpt><trkpt lat="43.414939237627216" lon="6.163377082008347"><ele>321.57142857142856</ele><time>2026-03-29T09:20:31.998Z</time></trkpt><trkpt lat="43.41496590933561" lon="6.16327506416728"><ele>321.2857142857143</ele><time>2026-03-29T09:20:32.998Z</time></trkpt><trkpt lat="43.41496205550675" lon="6.163164008657274"><ele>321.0</ele><time>2026-03-29T09:20:33.998Z</time></trkpt><trkpt lat="43.414955813032805" lon="6.163041208778425"><ele>321.0</ele><time>2026-03-29T09:20:34.998Z</time></trkpt><trkpt lat="43.4148994819917" lon="6.16289336433"><ele>321.0</ele><time>2026-03-29T09:20:36.998Z</time></trkpt><trkpt lat="43.41487200196805" lon="6.162792325777958"><ele>321.0</ele><time>2026-03-29T09:20:37.998Z</time></trkpt><trkpt lat="43.41486490279692" lon="6.162667461195641"><ele>321.0</ele><time>2026-03-29T09:20:38.998Z</time></trkpt><trkpt lat="43.41483562192175" lon="6.162542961396003"><ele>321.0</ele><time>2026-03-29T09:20:39.998Z</time></trkpt><trkpt lat="43.414812093511024" lon="6.162434703025794"><ele>320.0</ele><time>2026-03-29T09:20:40.998Z</time></trkpt><trkpt lat="43.41481391470587" lon="6.162316859788717"><ele>319.0</ele><time>2026-03-29T09:20:41.998Z</time></trkpt><trkpt lat="43.41481506989958" lon="6.162165429901173"><ele>318.0</ele><time>2026-03-29T09:20:42.998Z</time></trkpt><trkpt lat="43.414820798558715" lon="6.162036232640679"><ele>317.0</ele><time>2026-03-29T09:20:43.998Z</time></trkpt><trkpt lat="43.414833632786134" lon="6.1619008962893895"><ele>316.0</ele><time>2026-03-29T09:20:44.998Z</time></trkpt><trkpt lat="43.414844007700225" lon="6.161768716750904"><ele>316.0</ele><time>2026-03-29T09:20:45.998Z</time></trkpt><trkpt lat="43.41485434453841" lon="6.1616461609304"><ele>316.0</ele><time>2026-03-29T09:20:46.998Z</time></trkpt><trkpt lat="43.41488262167769" lon="6.161530766372199"><ele>316.0</ele><time>2026-03-29T09:20:48.998Z</time></trkpt><trkpt lat="43.41481413373716" lon="6.161415695375712"><ele>316.0</ele><time>2026-03-29T09:20:50.998Z</time></trkpt><trkpt lat="43.41477918859958" lon="6.16131093485616"><ele>316.0</ele><time>2026-03-29T09:20:51.998Z</time></trkpt><trkpt lat="43.4147673313632" lon="6.161222620971255"><ele>316.0</ele><time>2026-03-29T09:20:52.998Z</time></trkpt><trkpt lat="43.4147515084175" lon="6.161085244764144"><ele>315.66666666666663</ele><time>2026-03-29T09:20:54.998Z</time></trkpt><trkpt lat="43.41479845751843" lon="6.160944498381184"><ele>315.3333333333333</ele><time>2026-03-29T09:20:57Z</time></trkpt><trkpt lat="43.41478481953824" lon="6.160802977818704"><ele>315.0</ele><time>2026-03-29T09:20:59Z</time></trkpt><trkpt lat="43.41471370372513" lon="6.160731581667583"><ele>314.6666666666667</ele><time>2026-03-29T09:21:00Z</time></trkpt><trkpt lat="43.41466081526659" lon="6.160680564334601"><ele>314.33333333333337</ele><time>2026-03-29T09:21:01Z</time></trkpt><trkpt lat="43.4145892421024" lon="6.160663042562818"><ele>314.0</ele><time>2026-03-29T09:21:02Z</time></trkpt><trkpt lat="43.41448401239741" lon="6.160662434656228"><ele>313.6666666666667</ele><time>2026-03-29T09:21:03Z</time></trkpt><trkpt lat="43.41440797588322" lon="6.160683457821139"><ele>313.33333333333337</ele><time>2026-03-29T09:21:04Z</time></trkpt><trkpt lat="43.414338372782595" lon="6.1607225441509685"><ele>313.0</ele><time>2026-03-29T09:21:06Z</time></trkpt><trkpt lat="43.414338608797266" lon="6.1605582341352605"><ele>312.6666666666667</ele><time>2026-03-29T09:21:09Z</time></trkpt><trkpt lat="43.41434978694887" lon="6.160436883305133"><ele>312.3333333333333</ele><time>2026-03-29T09:21:11Z</time></trkpt><trkpt lat="43.41432974936959" lon="6.160351091566792"><ele>312.0</ele><time>2026-03-29T09:21:12Z</time></trkpt><trkpt lat="43.41429324623462" lon="6.160236664736148"><ele>313.2</ele><time>2026-03-29T09:21:13Z</time></trkpt><trkpt lat="43.414259887481485" lon="6.160086130563292"><ele>314.4</ele><time>2026-03-29T09:21:14Z</time></trkpt><trkpt lat="43.4142429544357" lon="6.15996546915074"><ele>315.6</ele><time>2026-03-29T09:21:15Z</time></trkpt><trkpt lat="43.41423640308291" lon="6.159830142721418"><ele>316.8</ele><time>2026-03-29T09:21:16Z</time></trkpt><trkpt lat="43.4142285213272" lon="6.159684635751422"><ele>318.0</ele><time>2026-03-29T09:21:17Z</time></trkpt><trkpt lat="43.41421240751295" lon="6.159560862242051"><ele>319.0</ele><time>2026-03-29T09:21:18Z</time></trkpt><trkpt lat="43.41418451690945" lon="6.159445740110086"><ele>320.0</ele><time>2026-03-29T09:21:19Z</time></trkpt><trkpt lat="43.414175706833" lon="6.159326964712077"><ele>321.0</ele><time>2026-03-29T09:21:20Z</time></trkpt><trkpt lat="43.414185156483825" lon="6.159196919227319"><ele>322.0</ele><time>2026-03-29T09:21:21Z</time></trkpt><trkpt lat="43.41417380519941" lon="6.159089241512562"><ele>323.0</ele><time>2026-03-29T09:21:22Z</time></trkpt><trkpt lat="43.414198089765726" lon="6.15896850460911"><ele>324.0</ele><time>2026-03-29T09:21:23Z</time></trkpt><trkpt lat="43.414213607598064" lon="6.158867410344106"><ele>325.0</ele><time>2026-03-29T09:21:24Z</time></trkpt><trkpt lat="43.41417678280239" lon="6.158755439167587"><ele>326.0</ele><time>2026-03-29T09:21:25Z</time></trkpt><trkpt lat="43.41415082255721" lon="6.158644152303048"><ele>327.0</ele><time>2026-03-29T09:21:26Z</time></trkpt><trkpt lat="43.414152920944865" lon="6.15854264410559"><ele>328.0</ele><time>2026-03-29T09:21:27Z</time></trkpt><trkpt lat="43.41418550288047" lon="6.15836084810101"><ele>329.0</ele><time>2026-03-29T09:21:29Z</time></trkpt><trkpt lat="43.41418146321029" lon="6.158262672571335"><ele>329.4</ele><time>2026-03-29T09:21:30Z</time></trkpt><trkpt lat="43.41414622073829" lon="6.158163283622092"><ele>329.79999999999995</ele><time>2026-03-29T09:21:31Z</time></trkpt><trkpt lat="43.41410732286921" lon="6.158044451544858"><ele>330.20000000000005</ele><time>2026-03-29T09:21:32Z</time></trkpt><trkpt lat="43.414054395992004" lon="6.157961733219435"><ele>330.6</ele><time>2026-03-29T09:21:32.999Z</time></trkpt><trkpt lat="43.414015349753186" lon="6.157790862000757"><ele>331.0</ele><time>2026-03-29T09:21:34.999Z</time></trkpt><trkpt lat="43.414010127220195" lon="6.157652486685189"><ele>331.0</ele><time>2026-03-29T09:21:35.999Z</time></trkpt><trkpt lat="43.41400398257162" lon="6.157547182515678"><ele>331.0</ele><time>2026-03-29T09:21:36.999Z</time></trkpt><trkpt lat="43.41401209469613" lon="6.157413465955481"><ele>331.0</ele><time>2026-03-29T09:21:38.999Z</time></trkpt><trkpt lat="43.41396643565558" lon="6.157317526181482"><ele>331.0</ele><time>2026-03-29T09:21:40.999Z</time></trkpt><trkpt lat="43.41396688380235" lon="6.157215946648068"><ele>331.0</ele><time>2026-03-29T09:21:41.999Z</time></trkpt><trkpt lat="43.413901769825635" lon="6.157127864765614"><ele>331.0</ele><time>2026-03-29T09:21:43.999Z</time></trkpt><trkpt lat="43.413892977958014" lon="6.157021213508233"><ele>330.5</ele><time>2026-03-29T09:21:45.999Z</time></trkpt><trkpt lat="43.41387125728769" lon="6.156897800859455"><ele>330.0</ele><time>2026-03-29T09:21:47.999Z</time></trkpt><trkpt lat="43.41391275246382" lon="6.156830913216973"><ele>329.5</ele><time>2026-03-29T09:21:48.999Z</time></trkpt><trkpt lat="43.41389422141646" lon="6.156704117655002"><ele>329.0</ele><time>2026-03-29T09:21:50.999Z</time></trkpt><trkpt lat="43.41386001892621" lon="6.156617972332489"><ele>328.5</ele><time>2026-03-29T09:21:51.999Z</time></trkpt><trkpt lat="43.41385971184052" lon="6.156454762916986"><ele>328.0</ele><time>2026-03-29T09:21:53.999Z</time></trkpt><trkpt lat="43.41385451278289" lon="6.1563482192842915"><ele>327.2</ele><time>2026-03-29T09:21:54.999Z</time></trkpt><trkpt lat="43.41382314498281" lon="6.156195966136259"><ele>326.4</ele><time>2026-03-29T09:21:56.999Z</time></trkpt><trkpt lat="43.41385072652909" lon="6.156094959412696"><ele>325.59999999999997</ele><time>2026-03-29T09:22:10.999Z</time></trkpt><trkpt lat="43.41382693761025" lon="6.155976396386967"><ele>324.79999999999995</ele><time>2026-03-29T09:22:12.999Z</time></trkpt><trkpt lat="43.413837268583976" lon="6.15581954847151"><ele>324.0</ele><time>2026-03-29T09:22:14.999Z</time></trkpt><trkpt lat="43.413815300703625" lon="6.15573798858643"><ele>323.0</ele><time>2026-03-29T09:22:15.999Z</time></trkpt><trkpt lat="43.413780400677474" lon="6.15562040910873"><ele>322.0</ele><time>2026-03-29T09:22:17.999Z</time></trkpt><trkpt lat="43.41377170051196" lon="6.155519933662434"><ele>321.0</ele><time>2026-03-29T09:22:19.999Z</time></trkpt><trkpt lat="43.4136989183957" lon="6.155538572405299"><ele>320.0</ele><time>2026-03-29T09:22:24.998Z</time></trkpt><trkpt lat="43.41365695713315" lon="6.15539339244506"><ele>319.0</ele><time>2026-03-29T09:22:27.998Z</time></trkpt><trkpt lat="43.41366227549354" lon="6.155251311841508"><ele>319.0</ele><time>2026-03-29T09:22:29.998Z</time></trkpt><trkpt lat="43.41367821968886" lon="6.1551512024161505"><ele>319.0</ele><time>2026-03-29T09:22:30.998Z</time></trkpt><trkpt lat="43.41366264006454" lon="6.155031954381749"><ele>319.0</ele><time>2026-03-29T09:22:31.998Z</time></trkpt><trkpt lat="43.41365093806494" lon="6.154905882815728"><ele>319.0</ele><time>2026-03-29T09:22:32.998Z</time></trkpt><trkpt lat="43.41365204078695" lon="6.1547903906502714"><ele>319.0</ele><time>2026-03-29T09:22:33.998Z</time></trkpt><trkpt lat="43.413653864153154" lon="6.154664921510498"><ele>319.0</ele><time>2026-03-29T09:22:34.998Z</time></trkpt><trkpt lat="43.413642024101414" lon="6.154552794432467"><ele>318.2</ele><time>2026-03-29T09:22:35.998Z</time></trkpt><trkpt lat="43.41362031577658" lon="6.154433668810509"><ele>317.4</ele><time>2026-03-29T09:22:37.998Z</time></trkpt><trkpt lat="43.413456597278014" lon="6.154399563545572"><ele>316.6</ele><time>2026-03-29T09:22:39.998Z</time></trkpt><trkpt lat="43.413390395337885" lon="6.154308432671742"><ele>315.8</ele><time>2026-03-29T09:22:41.998Z</time></trkpt><trkpt lat="43.41338622758041" lon="6.154203899591388"><ele>315.0</ele><time>2026-03-29T09:22:42.998Z</time></trkpt><trkpt lat="43.41338125262914" lon="6.1540806534445185"><ele>314.3333333333333</ele><time>2026-03-29T09:22:43.998Z</time></trkpt><trkpt lat="43.4133744390823" lon="6.153971325371231"><ele>313.6666666666667</ele><time>2026-03-29T09:22:44.998Z</time></trkpt><trkpt lat="43.41339490412831" lon="6.153873034254141"><ele>313.0</ele><time>2026-03-29T09:22:45.998Z</time></trkpt><trkpt lat="43.41340488581092" lon="6.15377106354745"><ele>312.33333333333337</ele><time>2026-03-29T09:22:46.998Z</time></trkpt><trkpt lat="43.41336871555198" lon="6.153660474722705"><ele>311.6666666666667</ele><time>2026-03-29T09:22:47.998Z</time></trkpt><trkpt lat="43.413343198859" lon="6.153570358393119"><ele>311.0</ele><time>2026-03-29T09:22:48.998Z</time></trkpt><trkpt lat="43.413409041584956" lon="6.153539932968508"><ele>311.0</ele><time>2026-03-29T09:22:51.998Z</time></trkpt><trkpt lat="43.41348933184171" lon="6.153455474502353"><ele>311.0</ele><time>2026-03-29T09:22:53.998Z</time></trkpt><trkpt lat="43.41355626846692" lon="6.1533366393063185"><ele>311.0</ele><time>2026-03-29T09:22:55.998Z</time></trkpt><trkpt lat="43.41352241372552" lon="6.153167196113349"><ele>311.0</ele><time>2026-03-29T09:22:57.998Z</time></trkpt><trkpt lat="43.41347117368258" lon="6.153031534777498"><ele>311.0</ele><time>2026-03-29T09:22:58.998Z</time></trkpt><trkpt lat="43.413446263483905" lon="6.152884914094678"><ele>310.33333333333337</ele><time>2026-03-29T09:23:00.998Z</time></trkpt><trkpt lat="43.413480302162384" lon="6.152734673100607"><ele>309.6666666666667</ele><time>2026-03-29T09:23:03Z</time></trkpt><trkpt lat="43.413528462729076" lon="6.152663514403546"><ele>309.0</ele><time>2026-03-29T09:23:04Z</time></trkpt><trkpt lat="43.41360224709707" lon="6.152542796660021"><ele>308.3333333333333</ele><time>2026-03-29T09:23:06Z</time></trkpt><trkpt lat="43.4136731126804" lon="6.152561121796065"><ele>307.66666666666663</ele><time>2026-03-29T09:23:08Z</time></trkpt><trkpt lat="43.41373300815363" lon="6.152621542754099"><ele>307.0</ele><time>2026-03-29T09:23:10Z</time></trkpt><trkpt lat="43.413809253516305" lon="6.1526308326236"><ele>305.16666666666663</ele><time>2026-03-29T09:23:11Z</time></trkpt><trkpt lat="43.41389195120408" lon="6.15263533820489"><ele>303.3333333333333</ele><time>2026-03-29T09:23:12Z</time></trkpt><trkpt lat="43.41396625189808" lon="6.15262855450621"><ele>301.5</ele><time>2026-03-29T09:23:13Z</time></trkpt><trkpt lat="43.41404011238699" lon="6.15262282727737"><ele>299.6666666666667</ele><time>2026-03-29T09:23:14Z</time></trkpt><trkpt lat="43.414106309878214" lon="6.152605624569565"><ele>297.83333333333337</ele><time>2026-03-29T09:23:15Z</time></trkpt><trkpt lat="43.41420670067389" lon="6.152612308952924"><ele>296.0</ele><time>2026-03-29T09:23:17Z</time></trkpt><trkpt lat="43.414255780354274" lon="6.1524686930533505"><ele>296.0</ele><time>2026-03-29T09:23:20Z</time></trkpt><trkpt lat="43.414346813599046" lon="6.152435425278594"><ele>296.0</ele><time>2026-03-29T09:23:22Z</time></trkpt><trkpt lat="43.41440888568895" lon="6.152410289291627"><ele>296.0</ele><time>2026-03-29T09:23:23Z</time></trkpt><trkpt lat="43.414488343271536" lon="6.152342567546203"><ele>296.0</ele><time>2026-03-29T09:23:25Z</time></trkpt><trkpt lat="43.41452304842426" lon="6.152246373536001"><ele>296.0</ele><time>2026-03-29T09:23:26Z</time></trkpt><trkpt lat="43.41462796399242" lon="6.152333680948171"><ele>292.33333333333337</ele><time>2026-03-29T09:23:29Z</time></trkpt><trkpt lat="43.41470348442123" lon="6.1524423131862775"><ele>288.6666666666667</ele><time>2026-03-29T09:23:30Z</time></trkpt><trkpt lat="43.41476213213594" lon="6.152535058102346"><ele>285.0</ele><time>2026-03-29T09:23:31Z</time></trkpt><trkpt lat="43.41481909260783" lon="6.152622633496975"><ele>281.3333333333333</ele><time>2026-03-29T09:23:32Z</time></trkpt><trkpt lat="43.41487970240986" lon="6.1526658369183895"><ele>277.66666666666663</ele><time>2026-03-29T09:23:33Z</time></trkpt><trkpt lat="43.414966228146504" lon="6.152685926184608"><ele>274.0</ele><time>2026-03-29T09:23:34Z</time></trkpt><trkpt lat="43.41506028965759" lon="6.152675396020193"><ele>274.0</ele><time>2026-03-29T09:23:35Z</time></trkpt><trkpt lat="43.41513399156051" lon="6.152677286825434"><ele>274.0</ele><time>2026-03-29T09:23:36Z</time></trkpt><trkpt lat="43.415239983655866" lon="6.152616855407724"><ele>274.0</ele><time>2026-03-29T09:23:38Z</time></trkpt><trkpt lat="43.415324813789" lon="6.152725174664096"><ele>274.0</ele><time>2026-03-29T09:23:41Z</time></trkpt><trkpt lat="43.415422160586516" lon="6.152787420586513"><ele>274.0</ele><time>2026-03-29T09:23:42.999Z</time></trkpt><trkpt lat="43.4154796071918" lon="6.152745640051939"><ele>271.00000000000006</ele><time>2026-03-29T09:23:43.999Z</time></trkpt><trkpt lat="43.415540879049495" lon="6.152714352737798"><ele>268.0</ele><time>2026-03-29T09:23:44.999Z</time></trkpt><trkpt lat="43.41560446292834" lon="6.152711664100701"><ele>265.0</ele><time>2026-03-29T09:23:45.999Z</time></trkpt><trkpt lat="43.41567446084836" lon="6.152722191444575"><ele>262.0</ele><time>2026-03-29T09:23:46.999Z</time></trkpt><trkpt lat="43.41574707722124" lon="6.152728761111009"><ele>259.0</ele><time>2026-03-29T09:23:47.999Z</time></trkpt><trkpt lat="43.41582833463548" lon="6.152715473611219"><ele>256.00000000000006</ele><time>2026-03-29T09:23:48.999Z</time></trkpt><trkpt lat="43.415920062503865" lon="6.152701226911744"><ele>253.00000000000003</ele><time>2026-03-29T09:23:50.999Z</time></trkpt><trkpt lat="43.41595633497557" lon="6.152821817490289"><ele>253.0</ele><time>2026-03-29T09:23:52.999Z</time></trkpt><trkpt lat="43.41595505723886" lon="6.152940616405665"><ele>253.0</ele><time>2026-03-29T09:23:53.999Z</time></trkpt><trkpt lat="43.41596758098919" lon="6.153096413067669"><ele>253.0</ele><time>2026-03-29T09:23:54.999Z</time></trkpt><trkpt lat="43.415987350204794" lon="6.1532778604615626"><ele>253.0</ele><time>2026-03-29T09:23:55.999Z</time></trkpt><trkpt lat="43.41598543430934" lon="6.153422075845771"><ele>253.0</ele><time>2026-03-29T09:23:56.999Z</time></trkpt><trkpt lat="43.41597763281845" lon="6.153536264737734"><ele>253.49999999999997</ele><time>2026-03-29T09:23:57.999Z</time></trkpt><trkpt lat="43.41599893257438" lon="6.153639033875154"><ele>254.0</ele><time>2026-03-29T09:23:58.999Z</time></trkpt><trkpt lat="43.41606539584115" lon="6.153710916773787"><ele>254.5</ele><time>2026-03-29T09:23:59.999Z</time></trkpt><trkpt lat="43.41615806244683" lon="6.153781020711545"><ele>255.0</ele><time>2026-03-29T09:24:00.999Z</time></trkpt><trkpt lat="43.416201301333565" lon="6.153881730057815"><ele>255.49999999999997</ele><time>2026-03-29T09:24:01.999Z</time></trkpt><trkpt lat="43.41628665531777" lon="6.153944052135371"><ele>256.0</ele><time>2026-03-29T09:24:02.999Z</time></trkpt><trkpt lat="43.416373180736116" lon="6.153993293291208"><ele>256.0</ele><time>2026-03-29T09:24:03.999Z</time></trkpt><trkpt lat="43.41641205789968" lon="6.154104526105227"><ele>256.0</ele><time>2026-03-29T09:24:04.999Z</time></trkpt><trkpt lat="43.416475796315346" lon="6.154216078050276"><ele>256.0</ele><time>2026-03-29T09:24:05.999Z</time></trkpt><trkpt lat="43.41657085076004" lon="6.15430217154599"><ele>256.0</ele><time>2026-03-29T09:24:06.999Z</time></trkpt><trkpt lat="43.4166375757874" lon="6.154393853181194"><ele>256.0</ele><time>2026-03-29T09:24:07.999Z</time></trkpt><trkpt lat="43.41666322174897" lon="6.154520411065478"><ele>256.0</ele><time>2026-03-29T09:24:08.999Z</time></trkpt><trkpt lat="43.41669069233963" lon="6.1546745791581925"><ele>256.0</ele><time>2026-03-29T09:24:09.999Z</time></trkpt><trkpt lat="43.41674122721712" lon="6.154827187565037"><ele>256.0</ele><time>2026-03-29T09:24:10.999Z</time></trkpt><trkpt lat="43.41677184804215" lon="6.154956937691091"><ele>256.0</ele><time>2026-03-29T09:24:11.999Z</time></trkpt><trkpt lat="43.416792847206416" lon="6.155063797382115"><ele>256.0</ele><time>2026-03-29T09:24:12.999Z</time></trkpt><trkpt lat="43.41678587524929" lon="6.155173526810814"><ele>255.83333333333331</ele><time>2026-03-29T09:24:13.999Z</time></trkpt><trkpt lat="43.41677823990362" lon="6.155295077331753"><ele>255.66666666666666</ele><time>2026-03-29T09:24:14.999Z</time></trkpt><trkpt lat="43.41681021460905" lon="6.155373721900975"><ele>255.5</ele><time>2026-03-29T09:24:15.999Z</time></trkpt><trkpt lat="43.41689896158372" lon="6.155401644324568"><ele>255.33333333333331</ele><time>2026-03-29T09:24:16.999Z</time></trkpt><trkpt lat="43.41698839015251" lon="6.155413925505554"><ele>255.16666666666666</ele><time>2026-03-29T09:24:17.999Z</time></trkpt><trkpt lat="43.4170565029389" lon="6.15539121112302"><ele>255.0</ele><time>2026-03-29T09:24:18.999Z</time></trkpt><trkpt lat="43.4171217764922" lon="6.155364263695699"><ele>256.2</ele><time>2026-03-29T09:24:19.999Z</time></trkpt><trkpt lat="43.41717346747252" lon="6.155417958880054"><ele>257.4</ele><time>2026-03-29T09:24:20.999Z</time></trkpt><trkpt lat="43.417193281206856" lon="6.155590091226903"><ele>258.6</ele><time>2026-03-29T09:24:21.999Z</time></trkpt><trkpt lat="43.417275061953504" lon="6.155701900315767"><ele>259.8</ele><time>2026-03-29T09:24:22.999Z</time></trkpt><trkpt lat="43.41735369209349" lon="6.155817974358981"><ele>261.0</ele><time>2026-03-29T09:24:23.999Z</time></trkpt><trkpt lat="43.41738020653398" lon="6.155938218571297"><ele>261.0</ele><time>2026-03-29T09:24:24.999Z</time></trkpt><trkpt lat="43.41731351529301" lon="6.156143174435428"><ele>261.0</ele><time>2026-03-29T09:24:26.999Z</time></trkpt><trkpt lat="43.41732899799204" lon="6.1562777165902665"><ele>261.0</ele><time>2026-03-29T09:24:27.999Z</time></trkpt><trkpt lat="43.41735404856346" lon="6.156436230692292"><ele>261.0</ele><time>2026-03-29T09:24:28.999Z</time></trkpt><trkpt lat="43.41735667649316" lon="6.156566050343286"><ele>261.0</ele><time>2026-03-29T09:24:29.999Z</time></trkpt><trkpt lat="43.417404848721254" lon="6.156696788345546"><ele>261.0</ele><time>2026-03-29T09:24:30.999Z</time></trkpt><trkpt lat="43.417470509900525" lon="6.156814419607857"><ele>261.0</ele><time>2026-03-29T09:24:31.999Z</time></trkpt><trkpt lat="43.41751840671849" lon="6.156917633269842"><ele>261.0</ele><time>2026-03-29T09:24:32.999Z</time></trkpt><trkpt lat="43.417528349695154" lon="6.157010788016394"><ele>261.0</ele><time>2026-03-29T09:24:33.999Z</time></trkpt><trkpt lat="43.41753082348424" lon="6.157122082408365"><ele>261.0</ele><time>2026-03-29T09:24:34.998Z</time></trkpt><trkpt lat="43.41754776286789" lon="6.15724878118173"><ele>261.0</ele><time>2026-03-29T09:24:35.998Z</time></trkpt><trkpt lat="43.417556884018076" lon="6.157388487668756"><ele>261.0</ele><time>2026-03-29T09:24:36.998Z</time></trkpt><trkpt lat="43.41755790789071" lon="6.157510847970598"><ele>261.0</ele><time>2026-03-29T09:24:37.998Z</time></trkpt><trkpt lat="43.417540347337585" lon="6.157611273751297"><ele>261.0</ele><time>2026-03-29T09:24:38.998Z</time></trkpt><trkpt lat="43.417511823661016" lon="6.157720706267413"><ele>261.0</ele><time>2026-03-29T09:24:39.998Z</time></trkpt><trkpt lat="43.4175044952708" lon="6.157813100436496"><ele>261.40000000000003</ele><time>2026-03-29T09:24:40.998Z</time></trkpt><trkpt lat="43.41756315165475" lon="6.157915734224776"><ele>261.8</ele><time>2026-03-29T09:24:41.998Z</time></trkpt><trkpt lat="43.41762402806104" lon="6.158048738517193"><ele>262.20000000000005</ele><time>2026-03-29T09:24:43.998Z</time></trkpt><trkpt lat="43.41763918868776" lon="6.158147952966368"><ele>262.6</ele><time>2026-03-29T09:24:44.998Z</time></trkpt><trkpt lat="43.417640304831316" lon="6.1582783784948765"><ele>263.0</ele><time>2026-03-29T09:24:45.998Z</time></trkpt><trkpt lat="43.41763560984027" lon="6.158401347355313"><ele>263.2</ele><time>2026-03-29T09:24:46.998Z</time></trkpt><trkpt lat="43.417648552479285" lon="6.158539221932711"><ele>263.4</ele><time>2026-03-29T09:24:47.998Z</time></trkpt><trkpt lat="43.417684324928885" lon="6.158636753232338"><ele>263.59999999999997</ele><time>2026-03-29T09:24:48.998Z</time></trkpt><trkpt lat="43.41770694688715" lon="6.158761987031659"><ele>263.8</ele><time>2026-03-29T09:24:49.998Z</time></trkpt><trkpt lat="43.417725852220265" lon="6.15889044958958"><ele>264.0</ele><time>2026-03-29T09:24:50.998Z</time></trkpt><trkpt lat="43.417751023609625" lon="6.159050491632429"><ele>264.0</ele><time>2026-03-29T09:24:51.998Z</time></trkpt><trkpt lat="43.417784206238196" lon="6.159214266421901"><ele>264.0</ele><time>2026-03-29T09:24:52.998Z</time></trkpt><trkpt lat="43.417824450393184" lon="6.1593224588001165"><ele>264.0</ele><time>2026-03-29T09:24:53.998Z</time></trkpt><trkpt lat="43.41786771172689" lon="6.159413333396665"><ele>264.0</ele><time>2026-03-29T09:24:54.998Z</time></trkpt><trkpt lat="43.417912466924065" lon="6.159501771470966"><ele>264.0</ele><time>2026-03-29T09:24:55.998Z</time></trkpt><trkpt lat="43.417967755468744" lon="6.159615841862552"><ele>264.2</ele><time>2026-03-29T09:24:56.998Z</time></trkpt><trkpt lat="43.41800902704162" lon="6.159739229984136"><ele>264.4</ele><time>2026-03-29T09:24:57.998Z</time></trkpt><trkpt lat="43.418018772552244" lon="6.1598442521536"><ele>264.6</ele><time>2026-03-29T09:24:58.998Z</time></trkpt><trkpt lat="43.418040116232746" lon="6.159950588308804"><ele>264.8</ele><time>2026-03-29T09:24:59.998Z</time></trkpt><trkpt lat="43.41789277439512" lon="6.160056365844626"><ele>265.0</ele><time>2026-03-29T09:25:00.998Z</time></trkpt><trkpt lat="43.41785405241255" lon="6.1601582611038275"><ele>265.0</ele><time>2026-03-29T09:25:01.998Z</time></trkpt><trkpt lat="43.417857080156956" lon="6.160268550289989"><ele>265.0</ele><time>2026-03-29T09:25:02.998Z</time></trkpt><trkpt lat="43.41786934164882" lon="6.160388116624669"><ele>265.0</ele><time>2026-03-29T09:25:03.998Z</time></trkpt><trkpt lat="43.417877072067114" lon="6.160522169656191"><ele>265.0</ele><time>2026-03-29T09:25:04.998Z</time></trkpt><trkpt lat="43.417882153438754" lon="6.160680930738149"><ele>265.0</ele><time>2026-03-29T09:25:05.998Z</time></trkpt><trkpt lat="43.41785562513551" lon="6.160801617521115"><ele>265.8</ele><time>2026-03-29T09:25:06.998Z</time></trkpt><trkpt lat="43.417892276107324" lon="6.160917240471877"><ele>266.6</ele><time>2026-03-29T09:25:09Z</time></trkpt><trkpt lat="43.41792387579363" lon="6.161010820628861"><ele>267.4</ele><time>2026-03-29T09:25:10Z</time></trkpt><trkpt lat="43.417957929701785" lon="6.161186462186753"><ele>268.2</ele><time>2026-03-29T09:25:11Z</time></trkpt><trkpt lat="43.417986789731785" lon="6.161333064424231"><ele>269.0</ele><time>2026-03-29T09:25:12Z</time></trkpt><trkpt lat="43.41804146217823" lon="6.161440723402779"><ele>269.8</ele><time>2026-03-29T09:25:13Z</time></trkpt><trkpt lat="43.41804123671757" lon="6.161602589607311"><ele>270.59999999999997</ele><time>2026-03-29T09:25:15Z</time></trkpt><trkpt lat="43.41802554851573" lon="6.161711204825797"><ele>271.4</ele><time>2026-03-29T09:25:16Z</time></trkpt><trkpt lat="43.41803930708913" lon="6.16187012451983"><ele>272.2</ele><time>2026-03-29T09:25:17Z</time></trkpt><trkpt lat="43.41805317768775" lon="6.162031788204204"><ele>273.0</ele><time>2026-03-29T09:25:18Z</time></trkpt><trkpt lat="43.41804827329559" lon="6.162182139090323"><ele>273.0</ele><time>2026-03-29T09:25:19Z</time></trkpt><trkpt lat="43.41807320793374" lon="6.162289967437031"><ele>273.0</ele><time>2026-03-29T09:25:20Z</time></trkpt><trkpt lat="43.41804852171255" lon="6.162387520458932"><ele>273.0</ele><time>2026-03-29T09:25:21Z</time></trkpt><trkpt lat="43.41802856502714" lon="6.162483044381727"><ele>273.0</ele><time>2026-03-29T09:25:22Z</time></trkpt><trkpt lat="43.418007587648916" lon="6.162571000809925"><ele>273.0</ele><time>2026-03-29T09:25:23Z</time></trkpt><trkpt lat="43.41793790053559" lon="6.162600164753647"><ele>273.0</ele><time>2026-03-29T09:25:24Z</time></trkpt><trkpt lat="43.41785574769769" lon="6.162652552518286"><ele>273.0</ele><time>2026-03-29T09:25:25Z</time></trkpt><trkpt lat="43.41785982126402" lon="6.162856959466362"><ele>273.0</ele><time>2026-03-29T09:25:27Z</time></trkpt><trkpt lat="43.41784580195476" lon="6.16297182162244"><ele>273.0</ele><time>2026-03-29T09:25:28Z</time></trkpt><trkpt lat="43.41780705974329" lon="6.163144110167975"><ele>273.0</ele><time>2026-03-29T09:25:30Z</time></trkpt><trkpt lat="43.41779393726788" lon="6.163259929904548"><ele>273.0</ele><time>2026-03-29T09:25:31Z</time></trkpt><trkpt lat="43.417767629481425" lon="6.163377184006938"><ele>273.0</ele><time>2026-03-29T09:25:32Z</time></trkpt><trkpt lat="43.41774492295868" lon="6.163472333099961"><ele>273.0</ele><time>2026-03-29T09:25:33Z</time></trkpt><trkpt lat="43.41774524543451" lon="6.163570864400891"><ele>273.0</ele><time>2026-03-29T09:25:34Z</time></trkpt><trkpt lat="43.41773325277075" lon="6.163678309000288"><ele>273.0</ele><time>2026-03-29T09:25:35Z</time></trkpt><trkpt lat="43.41770290929681" lon="6.163770796913833"><ele>273.0</ele><time>2026-03-29T09:25:36Z</time></trkpt><trkpt lat="43.41769114737836" lon="6.1638967895553725"><ele>273.0</ele><time>2026-03-29T09:25:37Z</time></trkpt><trkpt lat="43.417677244626795" lon="6.164034815416352"><ele>273.2</ele><time>2026-03-29T09:25:38Z</time></trkpt><trkpt lat="43.417643183022705" lon="6.164118550159382"><ele>273.4</ele><time>2026-03-29T09:25:39Z</time></trkpt><trkpt lat="43.417699152361514" lon="6.164239690034055"><ele>273.59999999999997</ele><time>2026-03-29T09:25:41Z</time></trkpt><trkpt lat="43.41770397672164" lon="6.164395086851459"><ele>273.8</ele><time>2026-03-29T09:25:42.999Z</time></trkpt><trkpt lat="43.417715791086444" lon="6.164557674639993"><ele>274.0</ele><time>2026-03-29T09:25:44.999Z</time></trkpt><trkpt lat="43.417799830711175" lon="6.164674321556853"><ele>274.0</ele><time>2026-03-29T09:25:46.999Z</time></trkpt><trkpt lat="43.417864283379075" lon="6.164726484432106"><ele>274.0</ele><time>2026-03-29T09:25:47.999Z</time></trkpt><trkpt lat="43.4178958959638" lon="6.164896367966831"><ele>274.0</ele><time>2026-03-29T09:25:49.999Z</time></trkpt><trkpt lat="43.417853218900206" lon="6.165013351133706"><ele>274.0</ele><time>2026-03-29T09:25:51.999Z</time></trkpt><trkpt lat="43.41784247761695" lon="6.165168798357865"><ele>274.0</ele><time>2026-03-29T09:25:53.999Z</time></trkpt><trkpt lat="43.41785197671074" lon="6.165279206418092"><ele>274.3333333333333</ele><time>2026-03-29T09:25:54.999Z</time></trkpt><trkpt lat="43.41783927428041" lon="6.165409491236721"><ele>274.66666666666663</ele><time>2026-03-29T09:25:55.999Z</time></trkpt><trkpt lat="43.417826444527385" lon="6.165530908335419"><ele>275.0</ele><time>2026-03-29T09:25:56.999Z</time></trkpt><trkpt lat="43.417832934604576" lon="6.165651734032267"><ele>275.3333333333333</ele><time>2026-03-29T09:25:57.999Z</time></trkpt><trkpt lat="43.4178493947601" lon="6.1657478483617085"><ele>275.6666666666667</ele><time>2026-03-29T09:25:58.999Z</time></trkpt><trkpt lat="43.41788686762422" lon="6.165851758410298"><ele>276.0</ele><time>2026-03-29T09:25:59.999Z</time></trkpt><trkpt lat="43.41793222807218" lon="6.165961679780385"><ele>276.75</ele><time>2026-03-29T09:26:00.999Z</time></trkpt><trkpt lat="43.41795005179565" lon="6.166081348133892"><ele>277.5</ele><time>2026-03-29T09:26:01.999Z</time></trkpt><trkpt lat="43.417935869485156" lon="6.166252487929458"><ele>278.25</ele><time>2026-03-29T09:26:02.999Z</time></trkpt><trkpt lat="43.41792426443428" lon="6.166446052251238"><ele>279.0</ele><time>2026-03-29T09:26:03.999Z</time></trkpt><trkpt lat="43.41791771743113" lon="6.16658923700771"><ele>279.59999999999997</ele><time>2026-03-29T09:26:04.999Z</time></trkpt><trkpt lat="43.41793191871733" lon="6.16672701438722"><ele>280.2</ele><time>2026-03-29T09:26:05.999Z</time></trkpt><trkpt lat="43.417962444121756" lon="6.16684163351821"><ele>280.79999999999995</ele><time>2026-03-29T09:26:06.999Z</time></trkpt><trkpt lat="43.417965284649206" lon="6.166989592256539"><ele>281.4</ele><time>2026-03-29T09:26:07.999Z</time></trkpt><trkpt lat="43.41795546843632" lon="6.167130329205402"><ele>282.0</ele><time>2026-03-29T09:26:08.999Z</time></trkpt><trkpt lat="43.41794304795889" lon="6.16727388832563"><ele>282.6</ele><time>2026-03-29T09:26:09.999Z</time></trkpt><trkpt lat="43.41795539938527" lon="6.167412086478879"><ele>283.2</ele><time>2026-03-29T09:26:10.999Z</time></trkpt><trkpt lat="43.41792825301375" lon="6.167543546449961"><ele>283.8</ele><time>2026-03-29T09:26:11.999Z</time></trkpt><trkpt lat="43.41792007304684" lon="6.167660936799654"><ele>284.4</ele><time>2026-03-29T09:26:12.999Z</time></trkpt><trkpt lat="43.417940028889205" lon="6.1678364931393785"><ele>285.0</ele><time>2026-03-29T09:26:13.999Z</time></trkpt><trkpt lat="43.417949641685404" lon="6.168024935311958"><ele>285.0</ele><time>2026-03-29T09:26:14.999Z</time></trkpt><trkpt lat="43.41794921738264" lon="6.168200244551811"><ele>285.0</ele><time>2026-03-29T09:26:15.999Z</time></trkpt><trkpt lat="43.41793969555729" lon="6.168401360271588"><ele>285.0</ele><time>2026-03-29T09:26:16.999Z</time></trkpt><trkpt lat="43.41794540931432" lon="6.168602868639418"><ele>285.0</ele><time>2026-03-29T09:26:17.999Z</time></trkpt><trkpt lat="43.41795930454715" lon="6.168755668700782"><ele>285.0</ele><time>2026-03-29T09:26:18.999Z</time></trkpt><trkpt lat="43.417964930744205" lon="6.168902121273982"><ele>285.0</ele><time>2026-03-29T09:26:19.999Z</time></trkpt><trkpt lat="43.41795192842566" lon="6.169061762556653"><ele>285.0</ele><time>2026-03-29T09:26:20.999Z</time></trkpt><trkpt lat="43.41794732720026" lon="6.169204125400985"><ele>285.0</ele><time>2026-03-29T09:26:21.999Z</time></trkpt><trkpt lat="43.41794154989219" lon="6.169348672527395"><ele>285.0</ele><time>2026-03-29T09:26:22.999Z</time></trkpt><trkpt lat="43.4179190305455" lon="6.169488091758401"><ele>285.4</ele><time>2026-03-29T09:26:23.999Z</time></trkpt><trkpt lat="43.417882458398864" lon="6.1696341720129615"><ele>285.8</ele><time>2026-03-29T09:26:24.999Z</time></trkpt><trkpt lat="43.41786477119748" lon="6.169755074481346"><ele>286.2</ele><time>2026-03-29T09:26:25.999Z</time></trkpt><trkpt lat="43.41787554834036" lon="6.169896929230392"><ele>286.6</ele><time>2026-03-29T09:26:27.999Z</time></trkpt><trkpt lat="43.41794701933542" lon="6.170027564008087"><ele>287.0</ele><time>2026-03-29T09:26:29.999Z</time></trkpt><trkpt lat="43.41796376922759" lon="6.17011390656374"><ele>287.75</ele><time>2026-03-29T09:26:30.999Z</time></trkpt><trkpt lat="43.41795341502831" lon="6.170221880367637"><ele>288.5</ele><time>2026-03-29T09:26:31.999Z</time></trkpt><trkpt lat="43.41790708374068" lon="6.17037305109113"><ele>289.25</ele><time>2026-03-29T09:26:32.998Z</time></trkpt><trkpt lat="43.417894404333865" lon="6.1705625728300015"><ele>290.0</ele><time>2026-03-29T09:26:33.998Z</time></trkpt><trkpt lat="43.417901891428706" lon="6.170748155753616"><ele>290.6</ele><time>2026-03-29T09:26:34.998Z</time></trkpt><trkpt lat="43.41790987172694" lon="6.170902556799886"><ele>291.2</ele><time>2026-03-29T09:26:35.998Z</time></trkpt><trkpt lat="43.417927533526274" lon="6.171073854354488"><ele>291.8</ele><time>2026-03-29T09:26:36.998Z</time></trkpt><trkpt lat="43.41792425679116" lon="6.171225774635526"><ele>292.4</ele><time>2026-03-29T09:26:37.998Z</time></trkpt><trkpt lat="43.41791039180052" lon="6.1713556312327915"><ele>293.0</ele><time>2026-03-29T09:26:38.998Z</time></trkpt><trkpt lat="43.41792957101989" lon="6.171498520233348"><ele>293.5</ele><time>2026-03-29T09:26:39.998Z</time></trkpt><trkpt lat="43.417965619212424" lon="6.171665676662816"><ele>294.0</ele><time>2026-03-29T09:26:40.998Z</time></trkpt><trkpt lat="43.418006063726196" lon="6.171795871319398"><ele>294.5</ele><time>2026-03-29T09:26:41.998Z</time></trkpt><trkpt lat="43.41803087279015" lon="6.171939116641954"><ele>295.0</ele><time>2026-03-29T09:26:42.998Z</time></trkpt><trkpt lat="43.418032937391146" lon="6.172096435929365"><ele>295.25</ele><time>2026-03-29T09:26:43.998Z</time></trkpt><trkpt lat="43.41802527003548" lon="6.172270033935574"><ele>295.5</ele><time>2026-03-29T09:26:44.998Z</time></trkpt><trkpt lat="43.4180575931148" lon="6.172447990336769"><ele>295.75</ele><time>2026-03-29T09:26:45.998Z</time></trkpt><trkpt lat="43.41806861594162" lon="6.172599959142823"><ele>296.0</ele><time>2026-03-29T09:26:46.998Z</time></trkpt><trkpt lat="43.418047714187466" lon="6.172731198605427"><ele>296.0</ele><time>2026-03-29T09:26:47.998Z</time></trkpt><trkpt lat="43.41805886264449" lon="6.172871251609073"><ele>296.0</ele><time>2026-03-29T09:26:48.998Z</time></trkpt><trkpt lat="43.41809837456719" lon="6.173004390197798"><ele>296.0</ele><time>2026-03-29T09:26:49.998Z</time></trkpt><trkpt lat="43.418109565667805" lon="6.173147587983376"><ele>296.0</ele><time>2026-03-29T09:26:50.998Z</time></trkpt><trkpt lat="43.41810405074436" lon="6.173284410206727"><ele>296.0</ele><time>2026-03-29T09:26:51.998Z</time></trkpt><trkpt lat="43.41809639278521" lon="6.1733787617895155"><ele>296.0</ele><time>2026-03-29T09:26:52.998Z</time></trkpt><trkpt lat="43.418090022582014" lon="6.173526241033084"><ele>296.0</ele><time>2026-03-29T09:26:54.998Z</time></trkpt><trkpt lat="43.418139258702844" lon="6.173625488024729"><ele>296.0</ele><time>2026-03-29T09:26:55.998Z</time></trkpt><trkpt lat="43.41815689400667" lon="6.173783396969684"><ele>296.0</ele><time>2026-03-29T09:26:56.998Z</time></trkpt><trkpt lat="43.418166970396506" lon="6.1739829725253355"><ele>296.40000000000003</ele><time>2026-03-29T09:26:57.998Z</time></trkpt><trkpt lat="43.41818416029514" lon="6.174108708605381"><ele>296.8</ele><time>2026-03-29T09:26:58.998Z</time></trkpt><trkpt lat="43.41822433099806" lon="6.174185161879091"><ele>297.20000000000005</ele><time>2026-03-29T09:26:59.998Z</time></trkpt><trkpt lat="43.418257934255934" lon="6.174264905537947"><ele>297.6</ele><time>2026-03-29T09:27:00.998Z</time></trkpt><trkpt lat="43.41823329678145" lon="6.174424526039995"><ele>298.0</ele><time>2026-03-29T09:27:01.998Z</time></trkpt><trkpt lat="43.41820119051112" lon="6.174583453561211"><ele>298.0</ele><time>2026-03-29T09:27:02.998Z</time></trkpt><trkpt lat="43.41819437328114" lon="6.1747213448051195"><ele>298.0</ele><time>2026-03-29T09:27:03.998Z</time></trkpt><trkpt lat="43.41818269002415" lon="6.174874381899602"><ele>298.0</ele><time>2026-03-29T09:27:04.998Z</time></trkpt><trkpt lat="43.418177339964686" lon="6.175033889380115"><ele>298.0</ele><time>2026-03-29T09:27:05.998Z</time></trkpt><trkpt lat="43.41816950266942" lon="6.175135620390691"><ele>298.0</ele><time>2026-03-29T09:27:06.998Z</time></trkpt><trkpt lat="43.418206481409506" lon="6.1752789616493144"><ele>298.4</ele><time>2026-03-29T09:27:08.998Z</time></trkpt><trkpt lat="43.4182753758767" lon="6.175310950030318"><ele>298.8</ele><time>2026-03-29T09:27:09.998Z</time></trkpt><trkpt lat="43.41836526056814" lon="6.175329701286878"><ele>299.2</ele><time>2026-03-29T09:27:10.998Z</time></trkpt><trkpt lat="43.41848225919869" lon="6.17532693722138"><ele>299.6</ele><time>2026-03-29T09:27:11.998Z</time></trkpt><trkpt lat="43.41858665976371" lon="6.175341859449513"><ele>300.0</ele><time>2026-03-29T09:27:12.998Z</time></trkpt><trkpt lat="43.41866482829979" lon="6.175343250706392"><ele>300.0</ele><time>2026-03-29T09:27:13.998Z</time></trkpt><trkpt lat="43.418747322608084" lon="6.175524195358165"><ele>300.0</ele><time>2026-03-29T09:27:15Z</time></trkpt><trkpt lat="43.41882572639004" lon="6.175520959394569"><ele>300.0</ele><time>2026-03-29T09:27:16Z</time></trkpt><trkpt lat="43.41891317759574" lon="6.175514414969403"><ele>300.0</ele><time>2026-03-29T09:27:17Z</time></trkpt><trkpt lat="43.41898071574762" lon="6.175508011599747"><ele>300.0</ele><time>2026-03-29T09:27:18Z</time></trkpt><trkpt lat="43.41910900062447" lon="6.175495848689691"><ele>301.1666666666667</ele><time>2026-03-29T09:27:20Z</time></trkpt><trkpt lat="43.41917653558483" lon="6.175490298715996"><ele>302.3333333333333</ele><time>2026-03-29T09:27:21Z</time></trkpt><trkpt lat="43.419246119002736" lon="6.175486564160788"><ele>303.5</ele><time>2026-03-29T09:27:22Z</time></trkpt><trkpt lat="43.41931872810599" lon="6.17548319173938"><ele>304.66666666666663</ele><time>2026-03-29T09:27:24Z</time></trkpt><trkpt lat="43.419445261701675" lon="6.175487990145372"><ele>305.8333333333333</ele><time>2026-03-29T09:27:26Z</time></trkpt><trkpt lat="43.41955002559343" lon="6.175467923243109"><ele>307.0</ele><time>2026-03-29T09:27:27Z</time></trkpt><trkpt lat="43.41965065712853" lon="6.175470138623878"><ele>309.0</ele><time>2026-03-29T09:27:28Z</time></trkpt><trkpt lat="43.41975753972372" lon="6.175443792339285"><ele>311.0</ele><time>2026-03-29T09:27:29Z</time></trkpt><trkpt lat="43.419867399791215" lon="6.175461615214414"><ele>313.0</ele><time>2026-03-29T09:27:30Z</time></trkpt><trkpt lat="43.41997946742429" lon="6.17545703990493"><ele>315.0</ele><time>2026-03-29T09:27:31Z</time></trkpt><trkpt lat="43.42008231853498" lon="6.175452659087374"><ele>317.0</ele><time>2026-03-29T09:27:32Z</time></trkpt><trkpt lat="43.42018171403934" lon="6.1754484254542925"><ele>317.0</ele><time>2026-03-29T09:27:33Z</time></trkpt><trkpt lat="43.42028646433667" lon="6.1754439638408485"><ele>317.0</ele><time>2026-03-29T09:27:34Z</time></trkpt><trkpt lat="43.42040031812895" lon="6.175438786472982"><ele>317.0</ele><time>2026-03-29T09:27:35Z</time></trkpt><trkpt lat="43.42052044260556" lon="6.1754166161408985"><ele>317.0</ele><time>2026-03-29T09:27:36Z</time></trkpt><trkpt lat="43.42065117523579" lon="6.175405648717009"><ele>320.0</ele><time>2026-03-29T09:27:37Z</time></trkpt><trkpt lat="43.420795696510744" lon="6.175421123894639"><ele>323.0</ele><time>2026-03-29T09:27:38Z</time></trkpt><trkpt lat="43.42094456921239" lon="6.175414385242293"><ele>326.0</ele><time>2026-03-29T09:27:39Z</time></trkpt><trkpt lat="43.42109084727824" lon="6.17541010697586"><ele>329.0</ele><time>2026-03-29T09:27:40Z</time></trkpt><trkpt lat="43.42123960654512" lon="6.175414638073063"><ele>329.75</ele><time>2026-03-29T09:27:41Z</time></trkpt><trkpt lat="43.42139191597724" lon="6.175429149094103"><ele>330.5</ele><time>2026-03-29T09:27:42Z</time></trkpt><trkpt lat="43.421512241235746" lon="6.17545727186289"><ele>331.25</ele><time>2026-03-29T09:27:43Z</time></trkpt><trkpt lat="43.42162631647151" lon="6.175491743706835"><ele>332.0</ele><time>2026-03-29T09:27:44Z</time></trkpt><trkpt lat="43.42174954593768" lon="6.175532438643178"><ele>332.0</ele><time>2026-03-29T09:27:45Z</time></trkpt><trkpt lat="43.421877590345105" lon="6.17557712720461"><ele>332.0</ele><time>2026-03-29T09:27:46Z</time></trkpt><trkpt lat="43.42201524122469" lon="6.175626727935012"><ele>332.0</ele><time>2026-03-29T09:27:47Z</time></trkpt><trkpt lat="43.42215653787933" lon="6.175677642303318"><ele>332.0</ele><time>2026-03-29T09:27:48Z</time></trkpt><trkpt lat="43.42230447635679" lon="6.1757309499204425"><ele>332.0</ele><time>2026-03-29T09:27:49Z</time></trkpt><trkpt lat="43.4224592801069" lon="6.175786731487612"><ele>332.0</ele><time>2026-03-29T09:27:50Z</time></trkpt><trkpt lat="43.42261440051528" lon="6.175842851408226"><ele>332.0</ele><time>2026-03-29T09:27:51Z</time></trkpt><trkpt lat="43.42277006686191" lon="6.175896139022134"><ele>332.0</ele><time>2026-03-29T09:27:52Z</time></trkpt><trkpt lat="43.422925038129705" lon="6.175948040066479"><ele>332.0</ele><time>2026-03-29T09:27:53Z</time></trkpt><trkpt lat="43.42306749638783" lon="6.176006760336322"><ele>332.0</ele><time>2026-03-29T09:27:54Z</time></trkpt><trkpt lat="43.42320842314184" lon="6.176059722333716"><ele>332.20000000000005</ele><time>2026-03-29T09:27:55Z</time></trkpt><trkpt lat="43.42333740842312" lon="6.176106011591765"><ele>332.4</ele><time>2026-03-29T09:27:56Z</time></trkpt><trkpt lat="43.42346376250795" lon="6.176150709530279"><ele>332.6</ele><time>2026-03-29T09:27:57Z</time></trkpt><trkpt lat="43.423559568361625" lon="6.176184410400533"><ele>332.79999999999995</ele><time>2026-03-29T09:27:58Z</time></trkpt><trkpt lat="43.4236223307651" lon="6.176225426873479"><ele>333.0</ele><time>2026-03-29T09:27:59Z</time></trkpt><trkpt lat="43.423660767092706" lon="6.17629875413056"><ele>333.0</ele><time>2026-03-29T09:28:01Z</time></trkpt><trkpt lat="43.423658078002425" lon="6.176470419060471"><ele>333.0</ele><time>2026-03-29T09:28:02.999Z</time></trkpt><trkpt lat="43.42365672001934" lon="6.176617582054011"><ele>333.0</ele><time>2026-03-29T09:28:03.999Z</time></trkpt><trkpt lat="43.423656587633594" lon="6.176765424546909"><ele>333.0</ele><time>2026-03-29T09:28:04.999Z</time></trkpt><trkpt lat="43.42365881298002" lon="6.176896722990949"><ele>333.0</ele><time>2026-03-29T09:28:05.999Z</time></trkpt><trkpt lat="43.42365535706645" lon="6.17698633502524"><ele>332.59999999999997</ele><time>2026-03-29T09:28:06.999Z</time></trkpt><trkpt lat="43.423608122376905" lon="6.177139849121608"><ele>332.2</ele><time>2026-03-29T09:28:08.999Z</time></trkpt><trkpt lat="43.42361349084891" lon="6.177264625182695"><ele>331.8</ele><time>2026-03-29T09:28:09.999Z</time></trkpt><trkpt lat="43.423616062516764" lon="6.177393185465501"><ele>331.4</ele><time>2026-03-29T09:28:10.999Z</time></trkpt><trkpt lat="43.423630664811235" lon="6.177487617669872"><ele>331.0</ele><time>2026-03-29T09:28:11.999Z</time></trkpt><trkpt lat="43.423658516135546" lon="6.17767710631631"><ele>330.6</ele><time>2026-03-29T09:28:13.999Z</time></trkpt><trkpt lat="43.42367995187617" lon="6.177858492401476"><ele>330.20000000000005</ele><time>2026-03-29T09:28:15.999Z</time></trkpt><trkpt lat="43.42369412348322" lon="6.1779858833407415"><ele>329.79999999999995</ele><time>2026-03-29T09:28:16.999Z</time></trkpt><trkpt lat="43.42370766210782" lon="6.178107584755871"><ele>329.4</ele><time>2026-03-29T09:28:17.999Z</time></trkpt><trkpt lat="43.42372119592678" lon="6.1782459420895455"><ele>329.0</ele><time>2026-03-29T09:28:18.999Z</time></trkpt><trkpt lat="43.42373857784618" lon="6.178419105693022"><ele>329.1666666666667</ele><time>2026-03-29T09:28:19.999Z</time></trkpt><trkpt lat="43.42375857979645" lon="6.178553299050872"><ele>329.33333333333337</ele><time>2026-03-29T09:28:20.999Z</time></trkpt><trkpt lat="43.42377650058524" lon="6.178664115688568"><ele>329.5</ele><time>2026-03-29T09:28:21.999Z</time></trkpt><trkpt lat="43.42379445938462" lon="6.178785649645492"><ele>329.6666666666667</ele><time>2026-03-29T09:28:22.999Z</time></trkpt><trkpt lat="43.423809554269866" lon="6.178887573425866"><ele>329.8333333333333</ele><time>2026-03-29T09:28:23.999Z</time></trkpt><trkpt lat="43.42382024120479" lon="6.178973919733017"><ele>330.0</ele><time>2026-03-29T09:28:24.999Z</time></trkpt><trkpt lat="43.42382401137462" lon="6.179123343949418"><ele>325.4</ele><time>2026-03-29T09:28:26.999Z</time></trkpt><trkpt lat="43.42380487468209" lon="6.179258205154086"><ele>320.8</ele><time>2026-03-29T09:28:28.999Z</time></trkpt><trkpt lat="43.42378994054034" lon="6.179389553860328"><ele>316.2</ele><time>2026-03-29T09:28:30.999Z</time></trkpt><trkpt lat="43.423773899049735" lon="6.179539062522371"><ele>311.6</ele><time>2026-03-29T09:28:32.999Z</time></trkpt><trkpt lat="43.42376257243406" lon="6.1797058437578904"><ele>307.0</ele><time>2026-03-29T09:28:34.999Z</time></trkpt><trkpt lat="43.42376174932692" lon="6.1798250431366695"><ele>305.8333333333333</ele><time>2026-03-29T09:28:35.999Z</time></trkpt><trkpt lat="43.42376324938173" lon="6.179933391058496"><ele>304.66666666666663</ele><time>2026-03-29T09:28:36.999Z</time></trkpt><trkpt lat="43.42376564947667" lon="6.180033295071647"><ele>303.5</ele><time>2026-03-29T09:28:37.999Z</time></trkpt><trkpt lat="43.423767962156916" lon="6.180129561535578"><ele>302.3333333333333</ele><time>2026-03-29T09:28:38.999Z</time></trkpt><trkpt lat="43.423771980685665" lon="6.1802346870596265"><ele>301.1666666666667</ele><time>2026-03-29T09:28:39.999Z</time></trkpt><trkpt lat="43.423776879034" lon="6.180369674900532"><ele>300.0</ele><time>2026-03-29T09:28:40.999Z</time></trkpt><trkpt lat="43.42378231057545" lon="6.180519125839068"><ele>300.0</ele><time>2026-03-29T09:28:41.999Z</time></trkpt><trkpt lat="43.42378671294081" lon="6.180610552912424"><ele>300.0</ele><time>2026-03-29T09:28:42.999Z</time></trkpt><trkpt lat="43.424095827464924" lon="6.180697055549881"><ele>300.0</ele><time>2026-03-29T09:28:44.999Z</time></trkpt><trkpt lat="43.42379606323815" lon="6.1808047376524105"><ele>299.5</ele><time>2026-03-29T09:28:45.999Z</time></trkpt><trkpt lat="43.423800906609735" lon="6.180913128707067"><ele>299.0</ele><time>2026-03-29T09:28:46.999Z</time></trkpt><trkpt lat="43.42380445355488" lon="6.181020000983311"><ele>298.5</ele><time>2026-03-29T09:28:47.999Z</time></trkpt><trkpt lat="43.42380261062857" lon="6.181107999233596"><ele>298.0</ele><time>2026-03-29T09:28:49.999Z</time></trkpt><trkpt lat="43.423793727928675" lon="6.181226542274508"><ele>297.5</ele><time>2026-03-29T09:28:50.999Z</time></trkpt><trkpt lat="43.42378439840628" lon="6.181351048300242"><ele>297.0</ele><time>2026-03-29T09:28:51.999Z</time></trkpt><trkpt lat="43.42377868332125" lon="6.181459839918475"><ele>296.5</ele><time>2026-03-29T09:28:53.999Z</time></trkpt><trkpt lat="43.42379395654697" lon="6.181598003190669"><ele>296.0</ele><time>2026-03-29T09:28:54.998Z</time></trkpt><trkpt lat="43.42379308807203" lon="6.181758935355412"><ele>295.5</ele><time>2026-03-29T09:28:55.998Z</time></trkpt><trkpt lat="43.423778409822006" lon="6.181949045180443"><ele>295.0</ele><time>2026-03-29T09:28:57.998Z</time></trkpt><trkpt lat="43.423705668752994" lon="6.182056528892215"><ele>295.0</ele><time>2026-03-29T09:29:00.998Z</time></trkpt><trkpt lat="43.42367683377405" lon="6.182156843848374"><ele>295.0</ele><time>2026-03-29T09:29:01.998Z</time></trkpt><trkpt lat="43.42364596056489" lon="6.182258282763707"><ele>295.0</ele><time>2026-03-29T09:29:02.998Z</time></trkpt><trkpt lat="43.42360674190567" lon="6.182387142030203"><ele>295.0</ele><time>2026-03-29T09:29:04.998Z</time></trkpt><trkpt lat="43.42356949899991" lon="6.182509509552955"><ele>295.0</ele><time>2026-03-29T09:29:06.998Z</time></trkpt><trkpt lat="43.423543506167334" lon="6.182594913110246"><ele>295.0</ele><time>2026-03-29T09:29:07.998Z</time></trkpt><trkpt lat="43.423511486699724" lon="6.182700118217304"><ele>294.2</ele><time>2026-03-29T09:29:08.998Z</time></trkpt><trkpt lat="43.42347834489906" lon="6.182809011071075"><ele>293.4</ele><time>2026-03-29T09:29:09.998Z</time></trkpt><trkpt lat="43.42344620805312" lon="6.182914601802444"><ele>292.6</ele><time>2026-03-29T09:29:11.998Z</time></trkpt><trkpt lat="43.42341040631923" lon="6.183032235193775"><ele>291.8</ele><time>2026-03-29T09:29:13.998Z</time></trkpt><trkpt lat="43.42337168617467" lon="6.183209948490453"><ele>291.0</ele><time>2026-03-29T09:29:14.998Z</time></trkpt><trkpt lat="43.42336131596078" lon="6.183384600187714"><ele>290.2</ele><time>2026-03-29T09:29:15.998Z</time></trkpt><trkpt lat="43.42335920585101" lon="6.183523092297887"><ele>289.40000000000003</ele><time>2026-03-29T09:29:16.998Z</time></trkpt><trkpt lat="43.42335801246493" lon="6.1836452589386175"><ele>288.6</ele><time>2026-03-29T09:29:17.998Z</time></trkpt><trkpt lat="43.42331743368159" lon="6.183735719849975"><ele>287.8</ele><time>2026-03-29T09:29:21Z</time></trkpt><trkpt lat="43.42322915393091" lon="6.1838389485397505"><ele>287.0</ele><time>2026-03-29T09:29:24Z</time></trkpt><trkpt lat="43.42313810151978" lon="6.18384230675242"><ele>287.0</ele><time>2026-03-29T09:29:27Z</time></trkpt><trkpt lat="43.42307590011836" lon="6.183881308932125"><ele>287.0</ele><time>2026-03-29T09:29:28Z</time></trkpt><trkpt lat="43.42297478281277" lon="6.183961944130207"><ele>287.0</ele><time>2026-03-29T09:29:29Z</time></trkpt><trkpt lat="43.42284341125765" lon="6.184187784937033"><ele>287.0</ele><time>2026-03-29T09:29:30Z</time></trkpt><trkpt lat="43.422813410211276" lon="6.184353752267962"><ele>285.0</ele><time>2026-03-29T09:29:31Z</time></trkpt><trkpt lat="43.42281739357653" lon="6.184522622958023"><ele>283.0</ele><time>2026-03-29T09:29:32Z</time></trkpt><trkpt lat="43.42283470452991" lon="6.1846474671007"><ele>281.0</ele><time>2026-03-29T09:29:33Z</time></trkpt><trkpt lat="43.422849826878306" lon="6.184773834723355"><ele>279.0</ele><time>2026-03-29T09:29:35Z</time></trkpt><trkpt lat="43.42287034164649" lon="6.184873144921043"><ele>277.0</ele><time>2026-03-29T09:29:36Z</time></trkpt><trkpt lat="43.42288783947941" lon="6.184967230700686"><ele>276.0</ele><time>2026-03-29T09:29:38Z</time></trkpt><trkpt lat="43.422915377462594" lon="6.185054928008503"><ele>275.0</ele><time>2026-03-29T09:29:40Z</time></trkpt><trkpt lat="43.422981607071186" lon="6.185212212552256"><ele>274.0</ele><time>2026-03-29T09:29:42Z</time></trkpt><trkpt lat="43.42300728702096" lon="6.185301881944933"><ele>273.0</ele><time>2026-03-29T09:29:43Z</time></trkpt><trkpt lat="43.42301661299048" lon="6.185405737074955"><ele>272.0</ele><time>2026-03-29T09:29:44Z</time></trkpt><trkpt lat="43.42303362950591" lon="6.185500237654826"><ele>271.0</ele><time>2026-03-29T09:29:45Z</time></trkpt><trkpt lat="43.42304651311483" lon="6.1855979660111045"><ele>270.6</ele><time>2026-03-29T09:29:46Z</time></trkpt><trkpt lat="43.423064490591145" lon="6.18575023353593"><ele>270.20000000000005</ele><time>2026-03-29T09:29:48Z</time></trkpt><trkpt lat="43.423186624967784" lon="6.1856281518036225"><ele>269.79999999999995</ele><time>2026-03-29T09:30:02Z</time></trkpt><trkpt lat="43.42321609571154" lon="6.185550556930201"><ele>269.4</ele><time>2026-03-29T09:30:03Z</time></trkpt><trkpt lat="43.42323569560116" lon="6.185462656781864"><ele>269.0</ele><time>2026-03-29T09:30:04Z</time></trkpt><trkpt lat="43.42324249730829" lon="6.1853548160575285"><ele>269.0</ele><time>2026-03-29T09:30:05Z</time></trkpt><trkpt lat="43.423250398986944" lon="6.185260437752909"><ele>269.0</ele><time>2026-03-29T09:30:06Z</time></trkpt><trkpt lat="43.4232702483289" lon="6.185173491391061"><ele>269.0</ele><time>2026-03-29T09:30:07Z</time></trkpt><trkpt lat="43.42331986844044" lon="6.185094015764381"><ele>269.0</ele><time>2026-03-29T09:30:07.999Z</time></trkpt><trkpt lat="43.42345416098427" lon="6.185044261623749"><ele>269.0</ele><time>2026-03-29T09:30:09.999Z</time></trkpt><trkpt lat="43.42354764800344" lon="6.185034969062234"><ele>269.0</ele><time>2026-03-29T09:30:10.999Z</time></trkpt><trkpt lat="43.42362586861195" lon="6.185019024394658"><ele>269.0</ele><time>2026-03-29T09:30:11.999Z</time></trkpt><trkpt lat="43.423695218778875" lon="6.185058701108105"><ele>269.0</ele><time>2026-03-29T09:30:13.999Z</time></trkpt><trkpt lat="43.42381664948401" lon="6.18512551416321"><ele>269.0</ele><time>2026-03-29T09:30:15.999Z</time></trkpt><trkpt lat="43.42388432558739" lon="6.185176585578623"><ele>269.0</ele><time>2026-03-29T09:30:16.999Z</time></trkpt><trkpt lat="43.423933109825676" lon="6.185298091424296"><ele>269.0</ele><time>2026-03-29T09:30:18.999Z</time></trkpt><trkpt lat="43.423941672147016" lon="6.185415462856022"><ele>269.1666666666667</ele><time>2026-03-29T09:30:19.999Z</time></trkpt><trkpt lat="43.42395155504104" lon="6.185504360679276"><ele>269.33333333333337</ele><time>2026-03-29T09:30:20.999Z</time></trkpt><trkpt lat="43.42400629691266" lon="6.185682245272634"><ele>269.5</ele><time>2026-03-29T09:30:22.999Z</time></trkpt><trkpt lat="43.42404297722513" lon="6.185772797645466"><ele>269.6666666666667</ele><time>2026-03-29T09:30:23.999Z</time></trkpt><trkpt lat="43.42409048954437" lon="6.1858773131629015"><ele>269.8333333333333</ele><time>2026-03-29T09:30:25.999Z</time></trkpt><trkpt lat="43.42411892316895" lon="6.18597136550304"><ele>270.0</ele><time>2026-03-29T09:30:28.999Z</time></trkpt><trkpt lat="43.42415615567771" lon="6.186042426861027"><ele>268.8</ele><time>2026-03-29T09:30:29.999Z</time></trkpt><trkpt lat="43.42425556076551" lon="6.186157768665403"><ele>267.6</ele><time>2026-03-29T09:30:31.999Z</time></trkpt><trkpt lat="43.4243778795292" lon="6.186212909822295"><ele>266.4</ele><time>2026-03-29T09:30:33.999Z</time></trkpt><trkpt lat="43.42447001571762" lon="6.186215519576647"><ele>265.2</ele><time>2026-03-29T09:30:35.999Z</time></trkpt><trkpt lat="43.42453115113661" lon="6.186131914536812"><ele>264.0</ele><time>2026-03-29T09:30:37.999Z</time></trkpt><trkpt lat="43.42458641711944" lon="6.186052066879493"><ele>264.2</ele><time>2026-03-29T09:30:38.999Z</time></trkpt><trkpt lat="43.42468076571367" lon="6.1860007321009585"><ele>264.4</ele><time>2026-03-29T09:30:40.999Z</time></trkpt><trkpt lat="43.424760119990566" lon="6.185977453006603"><ele>264.6</ele><time>2026-03-29T09:30:41.999Z</time></trkpt><trkpt lat="43.42485129690084" lon="6.185880912710005"><ele>264.8</ele><time>2026-03-29T09:30:43.999Z</time></trkpt><trkpt lat="43.424895442281844" lon="6.18581460877845"><ele>265.0</ele><time>2026-03-29T09:30:44.999Z</time></trkpt><trkpt lat="43.425027850470144" lon="6.185645619244845"><ele>265.0</ele><time>2026-03-29T09:30:46.999Z</time></trkpt><trkpt lat="43.42508918073355" lon="6.185554689534126"><ele>265.0</ele><time>2026-03-29T09:30:47.999Z</time></trkpt><trkpt lat="43.42518762006386" lon="6.185646609131962"><ele>265.0</ele><time>2026-03-29T09:30:50.999Z</time></trkpt><trkpt lat="43.425226717109894" lon="6.185758327472569"><ele>265.0</ele><time>2026-03-29T09:30:51.999Z</time></trkpt><trkpt lat="43.42528431129185" lon="6.185837831699109"><ele>265.0</ele><time>2026-03-29T09:30:52.999Z</time></trkpt><trkpt lat="43.42530990426345" lon="6.185985436926488"><ele>264.99999999999994</ele><time>2026-03-29T09:30:54.999Z</time></trkpt><trkpt lat="43.42530010598651" lon="6.186075061922819"><ele>265.0</ele><time>2026-03-29T09:30:55.999Z</time></trkpt><trkpt lat="43.4253097267095" lon="6.186174896263911"><ele>265.0</ele><time>2026-03-29T09:30:57.999Z</time></trkpt><trkpt lat="43.42531204502367" lon="6.18626301829725"><ele>265.0</ele><time>2026-03-29T09:30:58.999Z</time></trkpt><trkpt lat="43.425319706108496" lon="6.186373168776472"><ele>265.0</ele><time>2026-03-29T09:30:59.998Z</time></trkpt><trkpt lat="43.425333347567886" lon="6.18647363151317"><ele>264.99999999999994</ele><time>2026-03-29T09:31:00.998Z</time></trkpt><trkpt lat="43.42534998869641" lon="6.186581238411834"><ele>265.0</ele><time>2026-03-29T09:31:01.998Z</time></trkpt><trkpt lat="43.425363865674605" lon="6.186691902338306"><ele>265.5</ele><time>2026-03-29T09:31:02.998Z</time></trkpt><trkpt lat="43.425373059247804" lon="6.186812146452685"><ele>266.0</ele><time>2026-03-29T09:31:03.998Z</time></trkpt><trkpt lat="43.42538824374781" lon="6.186917692991763"><ele>266.5</ele><time>2026-03-29T09:31:04.998Z</time></trkpt><trkpt lat="43.425401386078036" lon="6.187011785401068"><ele>267.0</ele><time>2026-03-29T09:31:05.998Z</time></trkpt><trkpt lat="43.42541439261812" lon="6.187110205689694"><ele>267.5</ele><time>2026-03-29T09:31:06.998Z</time></trkpt><trkpt lat="43.42545236404824" lon="6.187272589781689"><ele>268.0</ele><time>2026-03-29T09:31:08.998Z</time></trkpt><trkpt lat="43.42548533086433" lon="6.187375342478309"><ele>268.0</ele><time>2026-03-29T09:31:09.998Z</time></trkpt><trkpt lat="43.425521053798505" lon="6.187465403806535"><ele>268.0</ele><time>2026-03-29T09:31:10.998Z</time></trkpt><trkpt lat="43.42556324849183" lon="6.187530400151838"><ele>268.0</ele><time>2026-03-29T09:31:11.998Z</time></trkpt><trkpt lat="43.425630113045464" lon="6.187579298584718"><ele>268.0</ele><time>2026-03-29T09:31:12.998Z</time></trkpt><trkpt lat="43.425706995733584" lon="6.187641069272668"><ele>268.0</ele><time>2026-03-29T09:31:13.998Z</time></trkpt><trkpt lat="43.42577246761573" lon="6.187700118107085"><ele>268.0</ele><time>2026-03-29T09:31:14.998Z</time></trkpt><trkpt lat="43.42583396233545" lon="6.187751338450951"><ele>268.0</ele><time>2026-03-29T09:31:15.998Z</time></trkpt><trkpt lat="43.42588495266953" lon="6.18784501416949"><ele>268.0</ele><time>2026-03-29T09:31:16.998Z</time></trkpt><trkpt lat="43.425927145194656" lon="6.187929713585506"><ele>268.0</ele><time>2026-03-29T09:31:17.998Z</time></trkpt><trkpt lat="43.425967374578526" lon="6.18800895279988"><ele>268.0</ele><time>2026-03-29T09:31:18.998Z</time></trkpt><trkpt lat="43.42601749329538" lon="6.188100512969177"><ele>268.0</ele><time>2026-03-29T09:31:19.998Z</time></trkpt><trkpt lat="43.42606076112006" lon="6.1881864576089445"><ele>268.0</ele><time>2026-03-29T09:31:20.998Z</time></trkpt><trkpt lat="43.42611065365425" lon="6.1882672675997625"><ele>265.8</ele><time>2026-03-29T09:31:21.998Z</time></trkpt><trkpt lat="43.426169022650285" lon="6.188344237035612"><ele>263.6</ele><time>2026-03-29T09:31:22.998Z</time></trkpt><trkpt lat="43.426239117565245" lon="6.188438759074974"><ele>261.4</ele><time>2026-03-29T09:31:24.998Z</time></trkpt><trkpt lat="43.42621795797513" lon="6.188539170356877"><ele>259.2</ele><time>2026-03-29T09:31:27Z</time></trkpt><trkpt lat="43.42617039197228" lon="6.18867474857311"><ele>257.0</ele><time>2026-03-29T09:31:29Z</time></trkpt><trkpt lat="43.426174122765104" lon="6.1888375970501075"><ele>257.0</ele><time>2026-03-29T09:31:31Z</time></trkpt><trkpt lat="43.42622222713413" lon="6.189003510778962"><ele>257.0</ele><time>2026-03-29T09:31:33Z</time></trkpt><trkpt lat="43.42629410582801" lon="6.1890952762975395"><ele>257.0</ele><time>2026-03-29T09:31:34Z</time></trkpt><trkpt lat="43.426378276975115" lon="6.189170892477469"><ele>257.0</ele><time>2026-03-29T09:31:35Z</time></trkpt><trkpt lat="43.42647514016939" lon="6.189262894853989"><ele>257.0</ele><time>2026-03-29T09:31:36Z</time></trkpt><trkpt lat="43.42655612277775" lon="6.189334824031079"><ele>258.0</ele><time>2026-03-29T09:31:37Z</time></trkpt><trkpt lat="43.42664217762136" lon="6.189399119258659"><ele>259.0</ele><time>2026-03-29T09:31:38Z</time></trkpt><trkpt lat="43.426699304641346" lon="6.18947154009021"><ele>260.0</ele><time>2026-03-29T09:31:39Z</time></trkpt><trkpt lat="43.42671845106348" lon="6.189587124062515"><ele>261.0</ele><time>2026-03-29T09:31:40Z</time></trkpt><trkpt lat="43.42674757020462" lon="6.189705656743228"><ele>262.0</ele><time>2026-03-29T09:31:41Z</time></trkpt><trkpt lat="43.42681214723582" lon="6.189789657208968"><ele>263.0</ele><time>2026-03-29T09:31:42Z</time></trkpt><trkpt lat="43.4268930102604" lon="6.189897568734115"><ele>263.8</ele><time>2026-03-29T09:31:43Z</time></trkpt><trkpt lat="43.42697922041927" lon="6.189991457696995"><ele>264.6</ele><time>2026-03-29T09:31:44Z</time></trkpt><trkpt lat="43.427054770140934" lon="6.190058715430091"><ele>265.4</ele><time>2026-03-29T09:31:45Z</time></trkpt><trkpt lat="43.427112984587936" lon="6.190132630288267"><ele>266.2</ele><time>2026-03-29T09:31:46Z</time></trkpt><trkpt lat="43.427187148957465" lon="6.1902503385350345"><ele>267.0</ele><time>2026-03-29T09:31:47Z</time></trkpt><trkpt lat="43.427261062143266" lon="6.190399476073016"><ele>267.0</ele><time>2026-03-29T09:31:48Z</time></trkpt><trkpt lat="43.42732732557145" lon="6.1905021824096815"><ele>267.0</ele><time>2026-03-29T09:31:49Z</time></trkpt><trkpt lat="43.42739957471095" lon="6.190537984948438"><ele>267.0</ele><time>2026-03-29T09:31:50Z</time></trkpt><trkpt lat="43.42748610914564" lon="6.190558439610753"><ele>267.0</ele><time>2026-03-29T09:31:51Z</time></trkpt><trkpt lat="43.427568848805535" lon="6.190538452236261"><ele>267.0</ele><time>2026-03-29T09:31:52Z</time></trkpt><trkpt lat="43.42764534181118" lon="6.190511046621698"><ele>267.0</ele><time>2026-03-29T09:31:53Z</time></trkpt><trkpt lat="43.427707272916685" lon="6.190490144710492"><ele>267.0</ele><time>2026-03-29T09:31:54Z</time></trkpt><trkpt lat="43.427774426585806" lon="6.190539111866076"><ele>267.0</ele><time>2026-03-29T09:31:55Z</time></trkpt><trkpt lat="43.42781708766201" lon="6.190641285654147"><ele>267.0</ele><time>2026-03-29T09:31:56Z</time></trkpt><trkpt lat="43.42783260221593" lon="6.190785361339025"><ele>267.0</ele><time>2026-03-29T09:31:57Z</time></trkpt><trkpt lat="43.427867269320686" lon="6.190925156039999"><ele>267.0</ele><time>2026-03-29T09:31:58Z</time></trkpt><trkpt lat="43.42790095344255" lon="6.19104652378082"><ele>268.0</ele><time>2026-03-29T09:31:59Z</time></trkpt><trkpt lat="43.42792076050637" lon="6.191192667129137"><ele>269.0</ele><time>2026-03-29T09:32:00Z</time></trkpt><trkpt lat="43.4279591962742" lon="6.191322441666178"><ele>270.0</ele><time>2026-03-29T09:32:01Z</time></trkpt><trkpt lat="43.428018002296824" lon="6.191440038969052"><ele>271.0</ele><time>2026-03-29T09:32:02Z</time></trkpt><trkpt lat="43.428099835862525" lon="6.191547370516634"><ele>272.0</ele><time>2026-03-29T09:32:03Z</time></trkpt><trkpt lat="43.428186679463884" lon="6.191660488345393"><ele>269.4</ele><time>2026-03-29T09:32:04Z</time></trkpt><trkpt lat="43.42825284444404" lon="6.1917675502738"><ele>266.79999999999995</ele><time>2026-03-29T09:32:05Z</time></trkpt><trkpt lat="43.42831075882016" lon="6.191867531828654"><ele>264.2</ele><time>2026-03-29T09:32:06Z</time></trkpt><trkpt lat="43.428349243250636" lon="6.191980974333987"><ele>261.59999999999997</ele><time>2026-03-29T09:32:07Z</time></trkpt><trkpt lat="43.42840444199849" lon="6.1921018613190695"><ele>259.0</ele><time>2026-03-29T09:32:08Z</time></trkpt><trkpt lat="43.4284433283834" lon="6.1921972567531895"><ele>259.0</ele><time>2026-03-29T09:32:09Z</time></trkpt><trkpt lat="43.42855008299565" lon="6.192215118175353"><ele>259.0</ele><time>2026-03-29T09:32:11Z</time></trkpt><trkpt lat="43.428664568053854" lon="6.192171558493507"><ele>259.0</ele><time>2026-03-29T09:32:12Z</time></trkpt><trkpt lat="43.42878136273533" lon="6.192176900795984"><ele>259.0</ele><time>2026-03-29T09:32:14Z</time></trkpt><trkpt lat="43.42885654007652" lon="6.192149281250041"><ele>259.0</ele><time>2026-03-29T09:32:16Z</time></trkpt><trkpt lat="43.42890203179972" lon="6.192237149602446"><ele>259.8333333333333</ele><time>2026-03-29T09:32:18Z</time></trkpt><trkpt lat="43.428934630698905" lon="6.192322123669747"><ele>260.66666666666663</ele><time>2026-03-29T09:32:18.999Z</time></trkpt><trkpt lat="43.42897823309184" lon="6.192477207286472"><ele>261.5</ele><time>2026-03-29T09:32:20.999Z</time></trkpt><trkpt lat="43.42902659362494" lon="6.192573963935931"><ele>262.3333333333333</ele><time>2026-03-29T09:32:21.999Z</time></trkpt><trkpt lat="43.42907657846748" lon="6.192666680613473"><ele>263.1666666666667</ele><time>2026-03-29T09:32:22.999Z</time></trkpt><trkpt lat="43.42911453164131" lon="6.192774953257168"><ele>264.0</ele><time>2026-03-29T09:32:24.999Z</time></trkpt><trkpt lat="43.42912127586965" lon="6.192920328265002"><ele>264.0</ele><time>2026-03-29T09:32:26.999Z</time></trkpt><trkpt lat="43.42914909810013" lon="6.193060480664115"><ele>264.0</ele><time>2026-03-29T09:32:28.999Z</time></trkpt><trkpt lat="43.429156850766255" lon="6.193210843288534"><ele>264.0</ele><time>2026-03-29T09:32:30.999Z</time></trkpt><trkpt lat="43.429161105357224" lon="6.193315979924964"><ele>264.0</ele><time>2026-03-29T09:32:31.999Z</time></trkpt><trkpt lat="43.42915543046398" lon="6.193407699738352"><ele>264.0</ele><time>2026-03-29T09:32:32.999Z</time></trkpt><trkpt lat="43.429182563031866" lon="6.193521179072379"><ele>264.0</ele><time>2026-03-29T09:32:36.999Z</time></trkpt><trkpt lat="43.429224153508564" lon="6.193616611824367"><ele>263.6666666666667</ele><time>2026-03-29T09:32:38.999Z</time></trkpt><trkpt lat="43.4292962236234" lon="6.193685434765986"><ele>263.3333333333333</ele><time>2026-03-29T09:32:40.999Z</time></trkpt><trkpt lat="43.42930659134656" lon="6.193774790038776"><ele>263.0</ele><time>2026-03-29T09:32:42.999Z</time></trkpt><trkpt lat="43.42932601887258" lon="6.193865655822623"><ele>262.66666666666663</ele><time>2026-03-29T09:32:44.999Z</time></trkpt><trkpt lat="43.4293465109667" lon="6.193994230823306"><ele>262.3333333333333</ele><time>2026-03-29T09:32:47.999Z</time></trkpt><trkpt lat="43.42938457919206" lon="6.194130421752462"><ele>262.0</ele><time>2026-03-29T09:32:49.999Z</time></trkpt><trkpt lat="43.429484584054975" lon="6.194256513360599"><ele>261.0</ele><time>2026-03-29T09:32:51.999Z</time></trkpt><trkpt lat="43.42956126201164" lon="6.194343536769693"><ele>260.0</ele><time>2026-03-29T09:32:52.999Z</time></trkpt><trkpt lat="43.429612858942406" lon="6.194404193050046"><ele>259.0</ele><time>2026-03-29T09:32:53.999Z</time></trkpt><trkpt lat="43.42967463835076" lon="6.194469183814351"><ele>258.0</ele><time>2026-03-29T09:32:56.999Z</time></trkpt><trkpt lat="43.4297800025047" lon="6.194593889288394"><ele>257.0</ele><time>2026-03-29T09:32:58.999Z</time></trkpt><trkpt lat="43.429832947891306" lon="6.194690510530585"><ele>259.1666666666667</ele><time>2026-03-29T09:33:00.999Z</time></trkpt><trkpt lat="43.429858735006185" lon="6.194792699521227"><ele>261.33333333333337</ele><time>2026-03-29T09:33:01.999Z</time></trkpt><trkpt lat="43.4298535223207" lon="6.19493353970362"><ele>263.5</ele><time>2026-03-29T09:33:02.999Z</time></trkpt><trkpt lat="43.429849031372186" lon="6.19505330084651"><ele>265.6666666666667</ele><time>2026-03-29T09:33:03.999Z</time></trkpt><trkpt lat="43.42984251874958" lon="6.195162231539114"><ele>267.8333333333333</ele><time>2026-03-29T09:33:04.999Z</time></trkpt><trkpt lat="43.429824556174246" lon="6.195290932137822"><ele>270.0</ele><time>2026-03-29T09:33:05.999Z</time></trkpt><trkpt lat="43.42982212658538" lon="6.195410528771613"><ele>270.0</ele><time>2026-03-29T09:33:06.999Z</time></trkpt><trkpt lat="43.42982454049737" lon="6.1955107029418315"><ele>270.0</ele><time>2026-03-29T09:33:07.999Z</time></trkpt><trkpt lat="43.42982918373291" lon="6.195612851293679"><ele>270.0</ele><time>2026-03-29T09:33:08.999Z</time></trkpt><trkpt lat="43.42982734162491" lon="6.195704986230617"><ele>270.0</ele><time>2026-03-29T09:33:09.999Z</time></trkpt><trkpt lat="43.429844004840724" lon="6.195791207244277"><ele>270.0</ele><time>2026-03-29T09:33:10.998Z</time></trkpt><trkpt lat="43.429888474056256" lon="6.195925447504687"><ele>270.0</ele><time>2026-03-29T09:33:12.998Z</time></trkpt><trkpt lat="43.429944219755086" lon="6.196075446449301"><ele>269.2</ele><time>2026-03-29T09:33:14.998Z</time></trkpt><trkpt lat="43.429986809775954" lon="6.196202426909646"><ele>268.4</ele><time>2026-03-29T09:33:16.998Z</time></trkpt><trkpt lat="43.430048818091905" lon="6.196340568745578"><ele>267.6</ele><time>2026-03-29T09:33:18.998Z</time></trkpt><trkpt lat="43.43011852388824" lon="6.196452016631115"><ele>266.8</ele><time>2026-03-29T09:33:20.998Z</time></trkpt><trkpt lat="43.430177270421915" lon="6.19655875258497"><ele>266.0</ele><time>2026-03-29T09:33:22.998Z</time></trkpt><trkpt lat="43.43027324641216" lon="6.196633871168737"><ele>264.83333333333337</ele><time>2026-03-29T09:33:24.998Z</time></trkpt><trkpt lat="43.43035533952771" lon="6.196695886628732"><ele>263.6666666666667</ele><time>2026-03-29T09:33:26.998Z</time></trkpt><trkpt lat="43.430339871934656" lon="6.196808425532507"><ele>262.5</ele><time>2026-03-29T09:33:28.998Z</time></trkpt><trkpt lat="43.43033110488984" lon="6.196912894915194"><ele>261.3333333333333</ele><time>2026-03-29T09:33:33Z</time></trkpt><trkpt lat="43.43030466782643" lon="6.197036375249566"><ele>260.16666666666663</ele><time>2026-03-29T09:33:35Z</time></trkpt><trkpt lat="43.430294435247525" lon="6.19712237046786"><ele>259.0</ele><time>2026-03-29T09:33:36Z</time></trkpt><trkpt lat="43.43030817161849" lon="6.197297128285815"><ele>258.5</ele><time>2026-03-29T09:33:38Z</time></trkpt><trkpt lat="43.43032173519244" lon="6.197480055101185"><ele>258.0</ele><time>2026-03-29T09:33:40Z</time></trkpt><trkpt lat="43.43034015509368" lon="6.197576187731414"><ele>257.5</ele><time>2026-03-29T09:33:41Z</time></trkpt><trkpt lat="43.430366918850545" lon="6.197700192642811"><ele>257.0</ele><time>2026-03-29T09:33:42Z</time></trkpt><trkpt lat="43.43038914932253" lon="6.197796112804438"><ele>256.5</ele><time>2026-03-29T09:33:43Z</time></trkpt><trkpt lat="43.43040849559502" lon="6.197896676080105"><ele>256.0</ele><time>2026-03-29T09:33:44Z</time></trkpt><trkpt lat="43.43043441051302" lon="6.197985908625547"><ele>255.99999999999997</ele><time>2026-03-29T09:33:45Z</time></trkpt><trkpt lat="43.430454249807845" lon="6.198069524328746"><ele>256.0</ele><time>2026-03-29T09:33:46Z</time></trkpt><trkpt lat="43.430485980913076" lon="6.198147337112751"><ele>256.0</ele><time>2026-03-29T09:33:47Z</time></trkpt><trkpt lat="43.4305196716384" lon="6.198244307296538"><ele>256.0</ele><time>2026-03-29T09:33:48Z</time></trkpt><trkpt lat="43.43055752369243" lon="6.1983276697338505"><ele>255.99999999999997</ele><time>2026-03-29T09:33:49Z</time></trkpt><trkpt lat="43.43060813979407" lon="6.198459117215104"><ele>256.0</ele><time>2026-03-29T09:33:51Z</time></trkpt><trkpt lat="43.43065618167802" lon="6.1985407782934105"><ele>257.66666666666663</ele><time>2026-03-29T09:33:54Z</time></trkpt><trkpt lat="43.43075604423665" lon="6.198570542701341"><ele>259.3333333333333</ele><time>2026-03-29T09:33:57Z</time></trkpt><trkpt lat="43.4308236347128" lon="6.198591450607275"><ele>261.0</ele><time>2026-03-29T09:33:59Z</time></trkpt><trkpt lat="43.43086710063613" lon="6.198672885871928"><ele>262.6666666666667</ele><time>2026-03-29T09:34:00Z</time></trkpt><trkpt lat="43.430915191429285" lon="6.19875722205645"><ele>264.33333333333337</ele><time>2026-03-29T09:34:01Z</time></trkpt><trkpt lat="43.43098028761551" lon="6.198814503193698"><ele>266.0</ele><time>2026-03-29T09:34:02Z</time></trkpt><trkpt lat="43.431036950965165" lon="6.198871048435963"><ele>266.0</ele><time>2026-03-29T09:34:03Z</time></trkpt><trkpt lat="43.43109924122893" lon="6.198917846730384"><ele>266.0</ele><time>2026-03-29T09:34:04Z</time></trkpt><trkpt lat="43.431167384651985" lon="6.198956314193392"><ele>266.0</ele><time>2026-03-29T09:34:05Z</time></trkpt><trkpt lat="43.431244063114335" lon="6.198995998572264"><ele>266.0</ele><time>2026-03-29T09:34:06Z</time></trkpt><trkpt lat="43.43131066469724" lon="6.1990225291739876"><ele>266.0</ele><time>2026-03-29T09:34:07Z</time></trkpt><trkpt lat="43.4313745411302" lon="6.199052076636413"><ele>266.0</ele><time>2026-03-29T09:34:08Z</time></trkpt><trkpt lat="43.43144236484416" lon="6.199118072340189"><ele>266.0</ele><time>2026-03-29T09:34:09Z</time></trkpt><trkpt lat="43.43152229712066" lon="6.199203351530349"><ele>268.0</ele><time>2026-03-29T09:34:10Z</time></trkpt><trkpt lat="43.43160776011301" lon="6.199279243489475"><ele>270.0</ele><time>2026-03-29T09:34:11Z</time></trkpt><trkpt lat="43.431676816748904" lon="6.199338636063628"><ele>272.0</ele><time>2026-03-29T09:34:12Z</time></trkpt><trkpt lat="43.43175045998846" lon="6.199388275623102"><ele>274.0</ele><time>2026-03-29T09:34:13Z</time></trkpt><trkpt lat="43.43183382988897" lon="6.1993915447083925"><ele>276.0</ele><time>2026-03-29T09:34:14Z</time></trkpt><trkpt lat="43.43191660053603" lon="6.199423143840967"><ele>278.0</ele><time>2026-03-29T09:34:15Z</time></trkpt><trkpt lat="43.43201016734448" lon="6.199431636832827"><ele>278.0</ele><time>2026-03-29T09:34:16Z</time></trkpt><trkpt lat="43.43210317482514" lon="6.199408384213568"><ele>278.0</ele><time>2026-03-29T09:34:17Z</time></trkpt><trkpt lat="43.432207721019864" lon="6.19937193601278"><ele>278.0</ele><time>2026-03-29T09:34:18Z</time></trkpt><trkpt lat="43.43232256078599" lon="6.199337080999997"><ele>278.0</ele><time>2026-03-29T09:34:19Z</time></trkpt><trkpt lat="43.43241943329257" lon="6.199299715782438"><ele>278.0</ele><time>2026-03-29T09:34:20Z</time></trkpt><trkpt lat="43.43249244073779" lon="6.199254447472315"><ele>278.0</ele><time>2026-03-29T09:34:21Z</time></trkpt><trkpt lat="43.432551913970826" lon="6.199199454575348"><ele>278.0</ele><time>2026-03-29T09:34:22Z</time></trkpt><trkpt lat="43.43261304426214" lon="6.199056809787846"><ele>278.0</ele><time>2026-03-29T09:34:24Z</time></trkpt><trkpt lat="43.43261880461407" lon="6.19894941670658"><ele>278.0</ele><time>2026-03-29T09:34:24.999Z</time></trkpt><trkpt lat="43.43261096641716" lon="6.19885238339015"><ele>278.0</ele><time>2026-03-29T09:34:25.999Z</time></trkpt><trkpt lat="43.43256779565032" lon="6.19875328033878"><ele>278.0</ele><time>2026-03-29T09:34:26.999Z</time></trkpt><trkpt lat="43.43248243915516" lon="6.19864585963174"><ele>278.6</ele><time>2026-03-29T09:34:27.999Z</time></trkpt><trkpt lat="43.432372491945394" lon="6.198566007650465"><ele>279.20000000000005</ele><time>2026-03-29T09:34:28.999Z</time></trkpt><trkpt lat="43.4323070751552" lon="6.198489825059478"><ele>279.8</ele><time>2026-03-29T09:34:29.999Z</time></trkpt><trkpt lat="43.432281344639065" lon="6.198380272978894"><ele>280.40000000000003</ele><time>2026-03-29T09:34:31.999Z</time></trkpt><trkpt lat="43.43237056696821" lon="6.19831846831328"><ele>281.0</ele><time>2026-03-29T09:34:33.999Z</time></trkpt><trkpt lat="43.43243258709911" lon="6.198295348313582"><ele>281.0</ele><time>2026-03-29T09:34:34.999Z</time></trkpt><trkpt lat="43.43250813423324" lon="6.198244567347083"><ele>281.0</ele><time>2026-03-29T09:34:35.999Z</time></trkpt><trkpt lat="43.43260511354712" lon="6.198190428787927"><ele>281.0</ele><time>2026-03-29T09:34:36.999Z</time></trkpt><trkpt lat="43.432698446848555" lon="6.198124165553"><ele>281.0</ele><time>2026-03-29T09:34:37.999Z</time></trkpt><trkpt lat="43.43279969147054" lon="6.1980262669001815"><ele>281.0</ele><time>2026-03-29T09:34:38.999Z</time></trkpt><trkpt lat="43.43289774538098" lon="6.197921543739775"><ele>281.40000000000003</ele><time>2026-03-29T09:34:39.999Z</time></trkpt><trkpt lat="43.432990483865765" lon="6.1978546675283885"><ele>281.8</ele><time>2026-03-29T09:34:40.999Z</time></trkpt><trkpt lat="43.43307193754786" lon="6.197839454332405"><ele>282.20000000000005</ele><time>2026-03-29T09:34:41.999Z</time></trkpt><trkpt lat="43.433133578141366" lon="6.197783645504234"><ele>282.6</ele><time>2026-03-29T09:34:44.999Z</time></trkpt><trkpt lat="43.43313825113232" lon="6.197618316201373"><ele>283.0</ele><time>2026-03-29T09:34:46.999Z</time></trkpt><trkpt lat="43.433127791578315" lon="6.197464099321414"><ele>284.3333333333333</ele><time>2026-03-29T09:34:47.999Z</time></trkpt><trkpt lat="43.43312644928531" lon="6.197275801212918"><ele>285.6666666666667</ele><time>2026-03-29T09:34:48.999Z</time></trkpt><trkpt lat="43.433086804037536" lon="6.197104823519932"><ele>287.0</ele><time>2026-03-29T09:34:49.999Z</time></trkpt><trkpt lat="43.43309201312164" lon="6.196847435250626"><ele>287.0</ele><time>2026-03-29T09:34:50.999Z</time></trkpt><trkpt lat="43.43309897373966" lon="6.196625890847479"><ele>287.0</ele><time>2026-03-29T09:34:51.999Z</time></trkpt><trkpt lat="43.43310497372342" lon="6.196439377845583"><ele>287.0</ele><time>2026-03-29T09:34:52.999Z</time></trkpt><trkpt lat="43.433107347693586" lon="6.1962863976562454"><ele>287.0</ele><time>2026-03-29T09:34:53.999Z</time></trkpt><trkpt lat="43.43310425710181" lon="6.196143773602157"><ele>288.2</ele><time>2026-03-29T09:34:54.999Z</time></trkpt><trkpt lat="43.433117492351386" lon="6.195983748054629"><ele>289.4</ele><time>2026-03-29T09:34:55.999Z</time></trkpt><trkpt lat="43.43311127615647" lon="6.19584968743572"><ele>290.6</ele><time>2026-03-29T09:34:56.999Z</time></trkpt><trkpt lat="43.43311706258551" lon="6.195705384246853"><ele>291.8</ele><time>2026-03-29T09:34:57.999Z</time></trkpt><trkpt lat="43.433114188793326" lon="6.195609273016661"><ele>293.0</ele><time>2026-03-29T09:34:58.999Z</time></trkpt><trkpt lat="43.43303013967936" lon="6.195587564253515"><ele>295.0</ele><time>2026-03-29T09:35:01.999Z</time></trkpt><trkpt lat="43.43295403992279" lon="6.195655707132136"><ele>297.0</ele><time>2026-03-29T09:35:03.999Z</time></trkpt><trkpt lat="43.43293175845526" lon="6.19556555338874"><ele>299.0</ele><time>2026-03-29T09:35:05.999Z</time></trkpt><trkpt lat="43.432921781139456" lon="6.19545181681956"><ele>301.0</ele><time>2026-03-29T09:35:07.999Z</time></trkpt><trkpt lat="43.43288262114266" lon="6.195368126636375"><ele>303.0</ele><time>2026-03-29T09:35:09.999Z</time></trkpt><trkpt lat="43.43291478451196" lon="6.195273752197661"><ele>305.0</ele><time>2026-03-29T09:35:12.999Z</time></trkpt><trkpt lat="43.43294943588687" lon="6.195154678106457"><ele>305.0</ele><time>2026-03-29T09:35:14.999Z</time></trkpt><trkpt lat="43.43289577417692" lon="6.19498341563296"><ele>305.0</ele><time>2026-03-29T09:35:16.998Z</time></trkpt><trkpt lat="43.43288374238468" lon="6.194852649538333"><ele>305.0</ele><time>2026-03-29T09:35:18.998Z</time></trkpt><trkpt lat="43.432963789339524" lon="6.1947495349580715"><ele>305.0</ele><time>2026-03-29T09:35:20.998Z</time></trkpt><trkpt lat="43.433006571788916" lon="6.194682048859033"><ele>305.0</ele><time>2026-03-29T09:35:21.998Z</time></trkpt><trkpt lat="43.4330723270012" lon="6.194618186401538"><ele>305.0</ele><time>2026-03-29T09:35:22.998Z</time></trkpt><trkpt lat="43.43313111896183" lon="6.194535856116358"><ele>305.0</ele><time>2026-03-29T09:35:23.998Z</time></trkpt><trkpt lat="43.43317454603249" lon="6.19445552129111"><ele>305.0</ele><time>2026-03-29T09:35:24.998Z</time></trkpt><trkpt lat="43.43321281297313" lon="6.194377361532075"><ele>305.0</ele><time>2026-03-29T09:35:25.998Z</time></trkpt><trkpt lat="43.43323316005667" lon="6.19428088568248"><ele>305.0</ele><time>2026-03-29T09:35:26.998Z</time></trkpt><trkpt lat="43.4332419712581" lon="6.1941600909995"><ele>305.0</ele><time>2026-03-29T09:35:28.998Z</time></trkpt><trkpt lat="43.43324751429201" lon="6.194010995210595"><ele>305.6</ele><time>2026-03-29T09:35:31.998Z</time></trkpt><trkpt lat="43.43324861852381" lon="6.193857153822263"><ele>306.2</ele><time>2026-03-29T09:35:33.998Z</time></trkpt><trkpt lat="43.433224525382826" lon="6.193706933683446"><ele>306.8</ele><time>2026-03-29T09:35:35.998Z</time></trkpt><trkpt lat="43.43321424911445" lon="6.193572614956588"><ele>307.4</ele><time>2026-03-29T09:35:37.998Z</time></trkpt><trkpt lat="43.433210341100114" lon="6.193427289422131"><ele>308.0</ele><time>2026-03-29T09:35:40Z</time></trkpt><trkpt lat="43.43324402538386" lon="6.19333423395068"><ele>308.0</ele><time>2026-03-29T09:35:42Z</time></trkpt><trkpt lat="43.43320830195586" lon="6.193218531645429"><ele>308.0</ele><time>2026-03-29T09:35:44Z</time></trkpt><trkpt lat="43.433190423157164" lon="6.1931336142730755"><ele>308.0</ele><time>2026-03-29T09:35:45Z</time></trkpt><trkpt lat="43.433218242150225" lon="6.192954702893624"><ele>308.0</ele><time>2026-03-29T09:35:47Z</time></trkpt><trkpt lat="43.433232405235415" lon="6.1928594960851795"><ele>308.0</ele><time>2026-03-29T09:35:48Z</time></trkpt><trkpt lat="43.43323036750527" lon="6.192763574868216"><ele>308.0</ele><time>2026-03-29T09:35:49Z</time></trkpt><trkpt lat="43.433210540287995" lon="6.192651183708217"><ele>309.0</ele><time>2026-03-29T09:35:50Z</time></trkpt><trkpt lat="43.43325687321365" lon="6.192474266787857"><ele>310.0</ele><time>2026-03-29T09:35:52Z</time></trkpt><trkpt lat="43.433273263361734" lon="6.192311315952192"><ele>311.0</ele><time>2026-03-29T09:35:54Z</time></trkpt><trkpt lat="43.4333007779151" lon="6.192233034462289"><ele>312.0</ele><time>2026-03-29T09:35:55Z</time></trkpt><trkpt lat="43.433308955480044" lon="6.192117342115392"><ele>313.0</ele><time>2026-03-29T09:35:57Z</time></trkpt><trkpt lat="43.43330585427652" lon="6.192018382320198"><ele>313.8</ele><time>2026-03-29T09:35:58Z</time></trkpt><trkpt lat="43.4332552028549" lon="6.191877110049882"><ele>314.6</ele><time>2026-03-29T09:36:00Z</time></trkpt><trkpt lat="43.43321354154065" lon="6.191808631369122"><ele>315.4</ele><time>2026-03-29T09:36:01Z</time></trkpt><trkpt lat="43.433214763886006" lon="6.191630011656552"><ele>316.2</ele><time>2026-03-29T09:36:03Z</time></trkpt><trkpt lat="43.43317060236523" lon="6.191543880091235"><ele>317.0</ele><time>2026-03-29T09:36:04Z</time></trkpt><trkpt lat="43.433127046537784" lon="6.191458074813021"><ele>317.6</ele><time>2026-03-29T09:36:05Z</time></trkpt><trkpt lat="43.43309899602921" lon="6.191320464803788"><ele>318.2</ele><time>2026-03-29T09:36:07Z</time></trkpt><trkpt lat="43.43307659551478" lon="6.1911695207248"><ele>318.8</ele><time>2026-03-29T09:36:09Z</time></trkpt><trkpt lat="43.4330790332407" lon="6.19105492453527"><ele>319.4</ele><time>2026-03-29T09:36:10Z</time></trkpt><trkpt lat="43.433085779362735" lon="6.190899047413884"><ele>320.0</ele><time>2026-03-29T09:36:12Z</time></trkpt><trkpt lat="43.43306444646864" lon="6.190799635687752"><ele>320.0</ele><time>2026-03-29T09:36:13Z</time></trkpt><trkpt lat="43.43305065990707" lon="6.190695998365127"><ele>320.0</ele><time>2026-03-29T09:36:14Z</time></trkpt><trkpt lat="43.433051853458615" lon="6.190597060437832"><ele>320.0</ele><time>2026-03-29T09:36:15Z</time></trkpt><trkpt lat="43.43305994834515" lon="6.190495620739098"><ele>320.0</ele><time>2026-03-29T09:36:16Z</time></trkpt><trkpt lat="43.43306181638232" lon="6.190334845528366"><ele>320.0</ele><time>2026-03-29T09:36:18Z</time></trkpt><trkpt lat="43.43307300104383" lon="6.190217282048731"><ele>320.0</ele><time>2026-03-29T09:36:19Z</time></trkpt><trkpt lat="43.43308112575295" lon="6.190117253562729"><ele>320.0</ele><time>2026-03-29T09:36:20Z</time></trkpt><trkpt lat="43.433085599726006" lon="6.190010539806333"><ele>320.0</ele><time>2026-03-29T09:36:21Z</time></trkpt><trkpt lat="43.433084109294455" lon="6.189891308370761"><ele>320.0</ele><time>2026-03-29T09:36:22Z</time></trkpt><trkpt lat="43.43309806190535" lon="6.189804754129895"><ele>320.0</ele><time>2026-03-29T09:36:23Z</time></trkpt><trkpt lat="43.43310588879733" lon="6.189685687183183"><ele>320.0</ele><time>2026-03-29T09:36:24Z</time></trkpt><trkpt lat="43.43309677831945" lon="6.189569573157262"><ele>320.0</ele><time>2026-03-29T09:36:25Z</time></trkpt><trkpt lat="43.433089774015265" lon="6.1894642054849"><ele>320.0</ele><time>2026-03-29T09:36:26Z</time></trkpt><trkpt lat="43.43311240736987" lon="6.189338549143441"><ele>320.0</ele><time>2026-03-29T09:36:27Z</time></trkpt><trkpt lat="43.433121052185" lon="6.189221513293266"><ele>320.0</ele><time>2026-03-29T09:36:28Z</time></trkpt><trkpt lat="43.43312421217124" lon="6.189124954473583"><ele>320.0</ele><time>2026-03-29T09:36:29Z</time></trkpt><trkpt lat="43.433139563521515" lon="6.188979605699807"><ele>320.0</ele><time>2026-03-29T09:36:31Z</time></trkpt><trkpt lat="43.43312704554617" lon="6.188893158428331"><ele>320.0</ele><time>2026-03-29T09:36:32Z</time></trkpt><trkpt lat="43.43314618241016" lon="6.188801610560487"><ele>320.2</ele><time>2026-03-29T09:36:33Z</time></trkpt><trkpt lat="43.433140950607516" lon="6.188626082941185"><ele>320.4</ele><time>2026-03-29T09:36:35Z</time></trkpt><trkpt lat="43.433140180029426" lon="6.188518654803465"><ele>320.6</ele><time>2026-03-29T09:36:35.999Z</time></trkpt><trkpt lat="43.43314590861066" lon="6.188335735352367"><ele>320.8</ele><time>2026-03-29T09:36:37.999Z</time></trkpt><trkpt lat="43.433144205190914" lon="6.188186930547804"><ele>321.0</ele><time>2026-03-29T09:36:39.999Z</time></trkpt><trkpt lat="43.43315987841547" lon="6.188061183875327"><ele>321.1666666666667</ele><time>2026-03-29T09:36:40.999Z</time></trkpt><trkpt lat="43.43316742945842" lon="6.187924766565034"><ele>321.3333333333333</ele><time>2026-03-29T09:36:41.999Z</time></trkpt><trkpt lat="43.433177492556354" lon="6.187793878627614"><ele>321.5</ele><time>2026-03-29T09:36:42.999Z</time></trkpt><trkpt lat="43.43317869300928" lon="6.187682327469464"><ele>321.66666666666663</ele><time>2026-03-29T09:36:43.999Z</time></trkpt><trkpt lat="43.43318212362605" lon="6.187578683221093"><ele>321.8333333333333</ele><time>2026-03-29T09:36:44.999Z</time></trkpt><trkpt lat="43.4331928684353" lon="6.187475265114973"><ele>322.0</ele><time>2026-03-29T09:36:45.999Z</time></trkpt><trkpt lat="43.43317552631577" lon="6.187368631321669"><ele>322.0</ele><time>2026-03-29T09:36:46.999Z</time></trkpt><trkpt lat="43.43319973631783" lon="6.187262910890349"><ele>322.0</ele><time>2026-03-29T09:36:47.999Z</time></trkpt><trkpt lat="43.43322681030274" lon="6.18716053963853"><ele>322.0</ele><time>2026-03-29T09:36:48.999Z</time></trkpt><trkpt lat="43.43326923780614" lon="6.187070290275745"><ele>322.0</ele><time>2026-03-29T09:36:49.999Z</time></trkpt><trkpt lat="43.433319119839574" lon="6.186967141534271"><ele>322.0</ele><time>2026-03-29T09:36:50.999Z</time></trkpt><trkpt lat="43.43335205266385" lon="6.186865739672871"><ele>322.0</ele><time>2026-03-29T09:36:51.999Z</time></trkpt><trkpt lat="43.43336454914804" lon="6.186743249689615"><ele>322.0</ele><time>2026-03-29T09:36:53.999Z</time></trkpt><trkpt lat="43.4333477659828" lon="6.186642829644327"><ele>322.0</ele><time>2026-03-29T09:36:54.999Z</time></trkpt><trkpt lat="43.4333151453966" lon="6.186523846616982"><ele>322.0</ele><time>2026-03-29T09:36:55.999Z</time></trkpt><trkpt lat="43.43329005418134" lon="6.186398793027336"><ele>322.0</ele><time>2026-03-29T09:36:56.999Z</time></trkpt><trkpt lat="43.433264706587074" lon="6.186294510523545"><ele>322.0</ele><time>2026-03-29T09:36:57.999Z</time></trkpt><trkpt lat="43.43321628732828" lon="6.186222335385816"><ele>322.0</ele><time>2026-03-29T09:36:58.999Z</time></trkpt><trkpt lat="43.433172213878095" lon="6.186136162790106"><ele>322.0</ele><time>2026-03-29T09:36:59.999Z</time></trkpt><trkpt lat="43.43314825213584" lon="6.186042898987816"><ele>322.0</ele><time>2026-03-29T09:37:00.999Z</time></trkpt><trkpt lat="43.43315034140383" lon="6.185935059691859"><ele>322.0</ele><time>2026-03-29T09:37:01.999Z</time></trkpt><trkpt lat="43.43313341609196" lon="6.1858513408520714"><ele>322.0</ele><time>2026-03-29T09:37:02.999Z</time></trkpt><trkpt lat="43.43310153708643" lon="6.185748897259752"><ele>322.0</ele><time>2026-03-29T09:37:03.999Z</time></trkpt><trkpt lat="43.43308448629701" lon="6.185582910614275"><ele>322.0</ele><time>2026-03-29T09:37:05.999Z</time></trkpt><trkpt lat="43.43307295802471" lon="6.185449321348897"><ele>322.20000000000005</ele><time>2026-03-29T09:37:06.999Z</time></trkpt><trkpt lat="43.43306798852257" lon="6.185332289912267"><ele>322.4</ele><time>2026-03-29T09:37:07.999Z</time></trkpt><trkpt lat="43.43305125783755" lon="6.185236322390196"><ele>322.6</ele><time>2026-03-29T09:37:08.999Z</time></trkpt><trkpt lat="43.43305092645562" lon="6.1850823760591656"><ele>322.79999999999995</ele><time>2026-03-29T09:37:10.999Z</time></trkpt><trkpt lat="43.43304589921055" lon="6.18492681014089"><ele>323.0</ele><time>2026-03-29T09:37:12.999Z</time></trkpt><trkpt lat="43.43306298986967" lon="6.1848306862541085"><ele>323.0</ele><time>2026-03-29T09:37:13.999Z</time></trkpt><trkpt lat="43.43310035665629" lon="6.184758447896047"><ele>323.0</ele><time>2026-03-29T09:37:14.999Z</time></trkpt><trkpt lat="43.43308013043102" lon="6.1846167119910325"><ele>323.0</ele><time>2026-03-29T09:37:16.999Z</time></trkpt><trkpt lat="43.433092148146564" lon="6.184516053708611"><ele>323.0</ele><time>2026-03-29T09:37:17.999Z</time></trkpt><trkpt lat="43.43309341993165" lon="6.184425320168193"><ele>323.0</ele><time>2026-03-29T09:37:18.999Z</time></trkpt><trkpt lat="43.433098607383336" lon="6.184307776826629"><ele>323.0</ele><time>2026-03-29T09:37:20.999Z</time></trkpt><trkpt lat="43.43313992905513" lon="6.184217771367562"><ele>323.0</ele><time>2026-03-29T09:37:21.999Z</time></trkpt><trkpt lat="43.433182564431995" lon="6.184123769613276"><ele>323.0</ele><time>2026-03-29T09:37:22.999Z</time></trkpt><trkpt lat="43.43322244534463" lon="6.184049677282606"><ele>323.0</ele><time>2026-03-29T09:37:23.999Z</time></trkpt><trkpt lat="43.43325351058972" lon="6.183953650498302"><ele>323.0</ele><time>2026-03-29T09:37:24.999Z</time></trkpt><trkpt lat="43.43328309826347" lon="6.18387377751645"><ele>323.0</ele><time>2026-03-29T09:37:25.999Z</time></trkpt><trkpt lat="43.43330117623837" lon="6.183775052308201"><ele>323.0</ele><time>2026-03-29T09:37:26.999Z</time></trkpt><trkpt lat="43.43339824674909" lon="6.183670419108141"><ele>323.0</ele><time>2026-03-29T09:37:28.998Z</time></trkpt><trkpt lat="43.433467039283386" lon="6.183575843123617"><ele>323.0</ele><time>2026-03-29T09:37:29.998Z</time></trkpt><trkpt lat="43.43355762841296" lon="6.183493176169049"><ele>323.0</ele><time>2026-03-29T09:37:30.998Z</time></trkpt><trkpt lat="43.43367189342599" lon="6.183427462956331"><ele>323.0</ele><time>2026-03-29T09:37:31.998Z</time></trkpt><trkpt lat="43.43382187491937" lon="6.183358927892049"><ele>322.0</ele><time>2026-03-29T09:37:32.998Z</time></trkpt><trkpt lat="43.433993717566125" lon="6.183333263977857"><ele>321.0</ele><time>2026-03-29T09:37:33.998Z</time></trkpt><trkpt lat="43.434185077212" lon="6.18330401838799"><ele>320.0</ele><time>2026-03-29T09:37:34.998Z</time></trkpt><trkpt lat="43.434355836296476" lon="6.183276740983774"><ele>320.0</ele><time>2026-03-29T09:37:35.998Z</time></trkpt><trkpt lat="43.434511415291595" lon="6.183230239140041"><ele>320.0</ele><time>2026-03-29T09:37:36.998Z</time></trkpt><trkpt lat="43.43466176209272" lon="6.183202494100263"><ele>320.0</ele><time>2026-03-29T09:37:37.998Z</time></trkpt><trkpt lat="43.43477989573056" lon="6.183129753359474"><ele>320.0</ele><time>2026-03-29T09:37:38.998Z</time></trkpt><trkpt lat="43.4348995608825" lon="6.18303253346382"><ele>321.75</ele><time>2026-03-29T09:37:39.998Z</time></trkpt><trkpt lat="43.4350335949396" lon="6.182989929682811"><ele>323.5</ele><time>2026-03-29T09:37:40.998Z</time></trkpt><trkpt lat="43.43518758413404" lon="6.1829749239375325"><ele>325.25</ele><time>2026-03-29T09:37:41.998Z</time></trkpt><trkpt lat="43.435304479578136" lon="6.182955161409209"><ele>327.0</ele><time>2026-03-29T09:37:42.998Z</time></trkpt><trkpt lat="43.435429869281926" lon="6.182985647121457"><ele>327.0</ele><time>2026-03-29T09:37:44Z</time></trkpt><trkpt lat="43.43554167680303" lon="6.183039792956701"><ele>327.0</ele><time>2026-03-29T09:37:45Z</time></trkpt><trkpt lat="43.43562444560981" lon="6.183113450852182"><ele>327.0</ele><time>2026-03-29T09:37:46Z</time></trkpt><trkpt lat="43.43569556533239" lon="6.183202542068011"><ele>327.0</ele><time>2026-03-29T09:37:47Z</time></trkpt><trkpt lat="43.43576956355121" lon="6.183339056165732"><ele>327.0</ele><time>2026-03-29T09:37:48Z</time></trkpt><trkpt lat="43.43587411590359" lon="6.183461694978673"><ele>326.75</ele><time>2026-03-29T09:37:49Z</time></trkpt><trkpt lat="43.43597776649929" lon="6.183570742916392"><ele>326.5</ele><time>2026-03-29T09:37:50Z</time></trkpt><trkpt lat="43.43607649166488" lon="6.183704709675"><ele>326.25</ele><time>2026-03-29T09:37:51Z</time></trkpt><trkpt lat="43.436187094934276" lon="6.183859293389978"><ele>326.0</ele><time>2026-03-29T09:37:52Z</time></trkpt><trkpt lat="43.436299290583676" lon="6.1839717256105295"><ele>325.75</ele><time>2026-03-29T09:37:53Z</time></trkpt><trkpt lat="43.436374529727324" lon="6.184076541765492"><ele>325.5</ele><time>2026-03-29T09:37:54Z</time></trkpt><trkpt lat="43.43641943607765" lon="6.184198927024839"><ele>325.25</ele><time>2026-03-29T09:37:55Z</time></trkpt><trkpt lat="43.43645022434896" lon="6.184370622012234"><ele>325.0</ele><time>2026-03-29T09:37:56Z</time></trkpt><trkpt lat="43.43651354628326" lon="6.184504795715691"><ele>325.0</ele><time>2026-03-29T09:37:57Z</time></trkpt><trkpt lat="43.43660396877186" lon="6.184611618757853"><ele>325.0</ele><time>2026-03-29T09:37:58Z</time></trkpt><trkpt lat="43.436719406988566" lon="6.184694852949395"><ele>325.0</ele><time>2026-03-29T09:37:59Z</time></trkpt><trkpt lat="43.43683364317461" lon="6.18475605661419"><ele>325.0</ele><time>2026-03-29T09:38:00Z</time></trkpt><trkpt lat="43.43692426460355" lon="6.1848293395151686"><ele>324.4</ele><time>2026-03-29T09:38:01Z</time></trkpt><trkpt lat="43.43700255548397" lon="6.1849435708026705"><ele>323.8</ele><time>2026-03-29T09:38:02Z</time></trkpt><trkpt lat="43.43709612295168" lon="6.185028892734256"><ele>323.20000000000005</ele><time>2026-03-29T09:38:03Z</time></trkpt><trkpt lat="43.43719130783937" lon="6.185064169285801"><ele>322.6</ele><time>2026-03-29T09:38:04Z</time></trkpt><trkpt lat="43.43729706176362" lon="6.185068952404398"><ele>322.0</ele><time>2026-03-29T09:38:05Z</time></trkpt><trkpt lat="43.437401900788295" lon="6.185049747258148"><ele>322.0</ele><time>2026-03-29T09:38:06Z</time></trkpt><trkpt lat="43.43751870901588" lon="6.185058925554352"><ele>322.0</ele><time>2026-03-29T09:38:07Z</time></trkpt><trkpt lat="43.437629238668734" lon="6.185067297123234"><ele>322.0</ele><time>2026-03-29T09:38:08Z</time></trkpt><trkpt lat="43.437717185281336" lon="6.185061984612649"><ele>322.0</ele><time>2026-03-29T09:38:09Z</time></trkpt><trkpt lat="43.437799458329835" lon="6.1850702502530925"><ele>322.0</ele><time>2026-03-29T09:38:10Z</time></trkpt><trkpt lat="43.43788350446874" lon="6.185086948550961"><ele>322.0</ele><time>2026-03-29T09:38:11Z</time></trkpt><trkpt lat="43.43796727986981" lon="6.185136862711916"><ele>322.0</ele><time>2026-03-29T09:38:12Z</time></trkpt><trkpt lat="43.43804906615032" lon="6.1852047688747165"><ele>322.0</ele><time>2026-03-29T09:38:13Z</time></trkpt><trkpt lat="43.438122828781346" lon="6.185270385289444"><ele>322.0</ele><time>2026-03-29T09:38:14Z</time></trkpt><trkpt lat="43.438192710049336" lon="6.18534723616675"><ele>322.0</ele><time>2026-03-29T09:38:15Z</time></trkpt><trkpt lat="43.43825887377894" lon="6.18543182045984"><ele>321.6</ele><time>2026-03-29T09:38:16Z</time></trkpt><trkpt lat="43.43831732043583" lon="6.18552171210045"><ele>321.20000000000005</ele><time>2026-03-29T09:38:17Z</time></trkpt><trkpt lat="43.43838202938204" lon="6.185625232486168"><ele>320.8</ele><time>2026-03-29T09:38:18Z</time></trkpt><trkpt lat="43.43844766464258" lon="6.185739206485172"><ele>320.4</ele><time>2026-03-29T09:38:19Z</time></trkpt><trkpt lat="43.4385096526835" lon="6.185855618912134"><ele>320.0</ele><time>2026-03-29T09:38:20Z</time></trkpt><trkpt lat="43.438570807367256" lon="6.1859798659571394"><ele>318.2</ele><time>2026-03-29T09:38:21Z</time></trkpt><trkpt lat="43.43862274536989" lon="6.186104762017858"><ele>316.4</ele><time>2026-03-29T09:38:22Z</time></trkpt><trkpt lat="43.43866634966711" lon="6.186236465521932"><ele>314.6</ele><time>2026-03-29T09:38:23Z</time></trkpt><trkpt lat="43.438710130557936" lon="6.186370936884871"><ele>312.8</ele><time>2026-03-29T09:38:24Z</time></trkpt><trkpt lat="43.43875733397545" lon="6.18649607908514"><ele>311.0</ele><time>2026-03-29T09:38:25Z</time></trkpt><trkpt lat="43.438794474394115" lon="6.186617638058508"><ele>307.2</ele><time>2026-03-29T09:38:26Z</time></trkpt><trkpt lat="43.438831077690814" lon="6.186744419377046"><ele>303.40000000000003</ele><time>2026-03-29T09:38:27Z</time></trkpt><trkpt lat="43.43886848964639" lon="6.186874342712454"><ele>299.6</ele><time>2026-03-29T09:38:28Z</time></trkpt><trkpt lat="43.43891859944819" lon="6.18698929652125"><ele>295.8</ele><time>2026-03-29T09:38:29Z</time></trkpt><trkpt lat="43.43898262251499" lon="6.187094227370253"><ele>292.0</ele><time>2026-03-29T09:38:30Z</time></trkpt><trkpt lat="43.43905703348725" lon="6.1871934501285555"><ele>292.0</ele><time>2026-03-29T09:38:31Z</time></trkpt><trkpt lat="43.43913724691302" lon="6.187307557342011"><ele>292.0</ele><time>2026-03-29T09:38:32Z</time></trkpt><trkpt lat="43.43921435971196" lon="6.187422242979431"><ele>292.0</ele><time>2026-03-29T09:38:33Z</time></trkpt><trkpt lat="43.439289585679326" lon="6.187535509233521"><ele>292.0</ele><time>2026-03-29T09:38:34Z</time></trkpt><trkpt lat="43.43936105746276" lon="6.187664276500209"><ele>289.8</ele><time>2026-03-29T09:38:35Z</time></trkpt><trkpt lat="43.439435197098646" lon="6.187784999025779"><ele>287.6</ele><time>2026-03-29T09:38:36Z</time></trkpt><trkpt lat="43.43950131691107" lon="6.1879162796291975"><ele>285.40000000000003</ele><time>2026-03-29T09:38:37Z</time></trkpt><trkpt lat="43.439560973005214" lon="6.188046636628188"><ele>283.2</ele><time>2026-03-29T09:38:38Z</time></trkpt><trkpt lat="43.439606399090295" lon="6.188167341746419"><ele>281.0</ele><time>2026-03-29T09:38:39Z</time></trkpt><trkpt lat="43.43966327631919" lon="6.188292094830725"><ele>277.8</ele><time>2026-03-29T09:38:40Z</time></trkpt><trkpt lat="43.43971648433428" lon="6.188428393048942"><ele>274.6</ele><time>2026-03-29T09:38:41Z</time></trkpt><trkpt lat="43.43977053320382" lon="6.1885646218001416"><ele>271.4</ele><time>2026-03-29T09:38:41.999Z</time></trkpt><trkpt lat="43.43982155248928" lon="6.1886994445526256"><ele>268.2</ele><time>2026-03-29T09:38:42.999Z</time></trkpt><trkpt lat="43.43987189871548" lon="6.188834720549903"><ele>265.0</ele><time>2026-03-29T09:38:43.999Z</time></trkpt><trkpt lat="43.439924631815295" lon="6.188995712227329"><ele>263.0</ele><time>2026-03-29T09:38:44.999Z</time></trkpt><trkpt lat="43.43998885550861" lon="6.1891460067342825"><ele>261.0</ele><time>2026-03-29T09:38:45.999Z</time></trkpt><trkpt lat="43.44004634071003" lon="6.189300255811502"><ele>259.0</ele><time>2026-03-29T09:38:46.999Z</time></trkpt><trkpt lat="43.4401178939987" lon="6.189429334653153"><ele>257.0</ele><time>2026-03-29T09:38:47.999Z</time></trkpt><trkpt lat="43.44019012891503" lon="6.189532288620194"><ele>257.0</ele><time>2026-03-29T09:38:48.999Z</time></trkpt><trkpt lat="43.44024727437371" lon="6.1896309416883"><ele>257.0</ele><time>2026-03-29T09:38:49.999Z</time></trkpt><trkpt lat="43.44029374384212" lon="6.189751759530744"><ele>257.0</ele><time>2026-03-29T09:38:50.999Z</time></trkpt><trkpt lat="43.44033506005282" lon="6.18992380479205"><ele>257.0</ele><time>2026-03-29T09:38:51.999Z</time></trkpt><trkpt lat="43.440374985491395" lon="6.190089943717031"><ele>255.75</ele><time>2026-03-29T09:38:52.999Z</time></trkpt><trkpt lat="43.44042264364726" lon="6.190271917071548"><ele>254.5</ele><time>2026-03-29T09:38:53.999Z</time></trkpt><trkpt lat="43.44046487873611" lon="6.190441530743843"><ele>253.25</ele><time>2026-03-29T09:38:54.999Z</time></trkpt><trkpt lat="43.440496753941645" lon="6.1906147610987485"><ele>252.0</ele><time>2026-03-29T09:38:55.999Z</time></trkpt><trkpt lat="43.44052377538377" lon="6.1907998138191855"><ele>249.25</ele><time>2026-03-29T09:38:56.999Z</time></trkpt><trkpt lat="43.44054454249226" lon="6.1909731908794265"><ele>246.5</ele><time>2026-03-29T09:38:57.999Z</time></trkpt><trkpt lat="43.44056087983769" lon="6.191132940216685"><ele>243.75</ele><time>2026-03-29T09:38:58.999Z</time></trkpt><trkpt lat="43.44056568349032" lon="6.1913006317281845"><ele>241.0</ele><time>2026-03-29T09:38:59.999Z</time></trkpt><trkpt lat="43.44056379528067" lon="6.191479477977834"><ele>239.5</ele><time>2026-03-29T09:39:00.999Z</time></trkpt><trkpt lat="43.440576598853504" lon="6.19165163166899"><ele>238.0</ele><time>2026-03-29T09:39:01.999Z</time></trkpt><trkpt lat="43.44057732111452" lon="6.191830997515384"><ele>236.5</ele><time>2026-03-29T09:39:02.999Z</time></trkpt><trkpt lat="43.44056579502335" lon="6.192013982539165"><ele>235.0</ele><time>2026-03-29T09:39:03.999Z</time></trkpt><trkpt lat="43.44055611873654" lon="6.192175122376125"><ele>235.0</ele><time>2026-03-29T09:39:04.999Z</time></trkpt><trkpt lat="43.4405608336027" lon="6.192327544713961"><ele>235.0</ele><time>2026-03-29T09:39:05.999Z</time></trkpt><trkpt lat="43.44059021716328" lon="6.192479752604845"><ele>235.0</ele><time>2026-03-29T09:39:06.999Z</time></trkpt><trkpt lat="43.44061992193309" lon="6.192628850614716"><ele>235.0</ele><time>2026-03-29T09:39:07.999Z</time></trkpt><trkpt lat="43.44063618531256" lon="6.192791943485823"><ele>234.6</ele><time>2026-03-29T09:39:08.999Z</time></trkpt><trkpt lat="43.44065481548726" lon="6.192922995142595"><ele>234.2</ele><time>2026-03-29T09:39:09.999Z</time></trkpt><trkpt lat="43.44065449070291" lon="6.1930474659579655"><ele>233.8</ele><time>2026-03-29T09:39:10.999Z</time></trkpt><trkpt lat="43.440649873731964" lon="6.193184440511152"><ele>233.4</ele><time>2026-03-29T09:39:11.999Z</time></trkpt><trkpt lat="43.44063582235025" lon="6.193308565160504"><ele>233.0</ele><time>2026-03-29T09:39:12.999Z</time></trkpt><trkpt lat="43.4406249631531" lon="6.193428472439754"><ele>231.8</ele><time>2026-03-29T09:39:13.999Z</time></trkpt><trkpt lat="43.440603204216345" lon="6.193568792336667"><ele>230.60000000000002</ele><time>2026-03-29T09:39:14.999Z</time></trkpt><trkpt lat="43.440562108405864" lon="6.193699362627041"><ele>229.39999999999998</ele><time>2026-03-29T09:39:15.999Z</time></trkpt><trkpt lat="43.44051017309827" lon="6.193831814262998"><ele>228.2</ele><time>2026-03-29T09:39:16.999Z</time></trkpt><trkpt lat="43.44046712820965" lon="6.193947761113827"><ele>227.0</ele><time>2026-03-29T09:39:17.999Z</time></trkpt><trkpt lat="43.44043653900571" lon="6.194045809736156"><ele>227.0</ele><time>2026-03-29T09:39:18.999Z</time></trkpt><trkpt lat="43.440438950872014" lon="6.19415239617628"><ele>227.0</ele><time>2026-03-29T09:39:19.999Z</time></trkpt><trkpt lat="43.44047218951233" lon="6.194279636195333"><ele>227.0</ele><time>2026-03-29T09:39:20.999Z</time></trkpt><trkpt lat="43.44053079108013" lon="6.194399450789727"><ele>227.0</ele><time>2026-03-29T09:39:21.999Z</time></trkpt><trkpt lat="43.44060582852868" lon="6.194546765630389"><ele>227.0</ele><time>2026-03-29T09:39:22.999Z</time></trkpt><trkpt lat="43.44066538399568" lon="6.194685429809447"><ele>226.39999999999998</ele><time>2026-03-29T09:39:23.999Z</time></trkpt><trkpt lat="43.440712460948426" lon="6.194812529793651"><ele>225.79999999999998</ele><time>2026-03-29T09:39:24.999Z</time></trkpt><trkpt lat="43.440729124377995" lon="6.194932032190636"><ele>225.2</ele><time>2026-03-29T09:39:25.999Z</time></trkpt><trkpt lat="43.44073127778058" lon="6.195059432350827"><ele>224.6</ele><time>2026-03-29T09:39:26.999Z</time></trkpt><trkpt lat="43.440735087607315" lon="6.195182701849336"><ele>224.0</ele><time>2026-03-29T09:39:27.999Z</time></trkpt><trkpt lat="43.440719996095424" lon="6.195326464336357"><ele>223.79999999999998</ele><time>2026-03-29T09:39:28.999Z</time></trkpt><trkpt lat="43.440690583542896" lon="6.195471478363891"><ele>223.59999999999997</ele><time>2026-03-29T09:39:29.999Z</time></trkpt><trkpt lat="43.44066882508667" lon="6.195620506799639"><ele>223.4</ele><time>2026-03-29T09:39:30.999Z</time></trkpt><trkpt lat="43.44067315571555" lon="6.195765187809899"><ele>223.2</ele><time>2026-03-29T09:39:31.999Z</time></trkpt><trkpt lat="43.44067644226496" lon="6.195895814456701"><ele>223.0</ele><time>2026-03-29T09:39:32.999Z</time></trkpt><trkpt lat="43.44066734806271" lon="6.196014073417877"><ele>222.8</ele><time>2026-03-29T09:39:33.998Z</time></trkpt><trkpt lat="43.440661918229715" lon="6.196125123981484"><ele>222.60000000000002</ele><time>2026-03-29T09:39:34.998Z</time></trkpt><trkpt lat="43.440706819853865" lon="6.19626458382404"><ele>222.39999999999998</ele><time>2026-03-29T09:39:36.998Z</time></trkpt><trkpt lat="43.44077800169139" lon="6.196293191383824"><ele>222.2</ele><time>2026-03-29T09:39:37.998Z</time></trkpt><trkpt lat="43.44087280223697" lon="6.196331014912426"><ele>222.0</ele><time>2026-03-29T09:39:38.998Z</time></trkpt><trkpt lat="43.4409470903016" lon="6.196435826134833"><ele>221.8</ele><time>2026-03-29T09:39:39.998Z</time></trkpt><trkpt lat="43.44103191184757" lon="6.196544082661087"><ele>221.6</ele><time>2026-03-29T09:39:40.998Z</time></trkpt><trkpt lat="43.44110378491578" lon="6.19666745866958"><ele>221.40000000000003</ele><time>2026-03-29T09:39:41.998Z</time></trkpt><trkpt lat="43.441160638770576" lon="6.196804141265021"><ele>221.20000000000002</ele><time>2026-03-29T09:39:42.998Z</time></trkpt><trkpt lat="43.44120945742634" lon="6.196928512539688"><ele>221.0</ele><time>2026-03-29T09:39:43.998Z</time></trkpt><trkpt lat="43.44125841312125" lon="6.197059946674406"><ele>219.25</ele><time>2026-03-29T09:39:44.998Z</time></trkpt><trkpt lat="43.44130727848371" lon="6.19719904194169"><ele>217.5</ele><time>2026-03-29T09:39:45.998Z</time></trkpt><trkpt lat="43.44135265294166" lon="6.19733365998264"><ele>215.75</ele><time>2026-03-29T09:39:46.998Z</time></trkpt><trkpt lat="43.441391774857856" lon="6.197482298864546"><ele>214.0</ele><time>2026-03-29T09:39:47.998Z</time></trkpt><trkpt lat="43.44141530413894" lon="6.197638056599861"><ele>213.79999999999998</ele><time>2026-03-29T09:39:49Z</time></trkpt><trkpt lat="43.441458034349466" lon="6.197777331669408"><ele>213.59999999999997</ele><time>2026-03-29T09:39:50Z</time></trkpt><trkpt lat="43.44154251598176" lon="6.197869537385459"><ele>213.4</ele><time>2026-03-29T09:39:51Z</time></trkpt><trkpt lat="43.44160755569647" lon="6.197960649722421"><ele>213.2</ele><time>2026-03-29T09:39:52Z</time></trkpt><trkpt lat="43.441701085295215" lon="6.198025222732656"><ele>213.0</ele><time>2026-03-29T09:39:53Z</time></trkpt><trkpt lat="43.44177179413906" lon="6.198123770734548"><ele>212.60000000000002</ele><time>2026-03-29T09:39:54Z</time></trkpt><trkpt lat="43.44186110930119" lon="6.1982136724972765"><ele>212.20000000000002</ele><time>2026-03-29T09:39:55Z</time></trkpt><trkpt lat="43.441967911307195" lon="6.198296004551029"><ele>211.8</ele><time>2026-03-29T09:39:56Z</time></trkpt><trkpt lat="43.44208493184338" lon="6.198349710461056"><ele>211.4</ele><time>2026-03-29T09:39:57Z</time></trkpt><trkpt lat="43.442172861093105" lon="6.198389511107414"><ele>211.0</ele><time>2026-03-29T09:39:58Z</time></trkpt><trkpt lat="43.44225164086311" lon="6.198431225715841"><ele>209.49999999999997</ele><time>2026-03-29T09:39:59Z</time></trkpt><trkpt lat="43.442322321975496" lon="6.198462892245134"><ele>208.0</ele><time>2026-03-29T09:40:00Z</time></trkpt><trkpt lat="43.442394762510766" lon="6.198497282365708"><ele>206.5</ele><time>2026-03-29T09:40:01Z</time></trkpt><trkpt lat="43.442471918889424" lon="6.1985525219531254"><ele>205.0</ele><time>2026-03-29T09:40:02Z</time></trkpt><trkpt lat="43.442557537660605" lon="6.198568078594321"><ele>203.49999999999997</ele><time>2026-03-29T09:40:03Z</time></trkpt><trkpt lat="43.44264504018763" lon="6.198606565484619"><ele>202.0</ele><time>2026-03-29T09:40:04Z</time></trkpt><trkpt lat="43.44272613943862" lon="6.198651710543697"><ele>201.99999999999997</ele><time>2026-03-29T09:40:05Z</time></trkpt><trkpt lat="43.442809780573704" lon="6.198702990391466"><ele>202.0</ele><time>2026-03-29T09:40:06Z</time></trkpt><trkpt lat="43.44290416336808" lon="6.198739215616587"><ele>202.0</ele><time>2026-03-29T09:40:07Z</time></trkpt><trkpt lat="43.44297108999726" lon="6.198791441168585"><ele>202.0</ele><time>2026-03-29T09:40:08Z</time></trkpt><trkpt lat="43.44302910702647" lon="6.198852942062798"><ele>201.99999999999997</ele><time>2026-03-29T09:40:09Z</time></trkpt><trkpt lat="43.443089119534996" lon="6.198892951175938"><ele>202.0</ele><time>2026-03-29T09:40:10Z</time></trkpt><trkpt lat="43.443166467966535" lon="6.198924234932297"><ele>198.0</ele><time>2026-03-29T09:40:11Z</time></trkpt><trkpt lat="43.44325060756511" lon="6.1989442337416705"><ele>194.0</ele><time>2026-03-29T09:40:12Z</time></trkpt><trkpt lat="43.44333996546779" lon="6.1989355183327755"><ele>190.0</ele><time>2026-03-29T09:40:13Z</time></trkpt><trkpt lat="43.443444088503135" lon="6.198934367003338"><ele>186.0</ele><time>2026-03-29T09:40:14Z</time></trkpt><trkpt lat="43.443523919378265" lon="6.198951257175408"><ele>182.0</ele><time>2026-03-29T09:40:15Z</time></trkpt><trkpt lat="43.443635681845436" lon="6.198978912068981"><ele>181.33333333333331</ele><time>2026-03-29T09:40:16Z</time></trkpt><trkpt lat="43.44372294689742" lon="6.199013839309329"><ele>180.66666666666666</ele><time>2026-03-29T09:40:17Z</time></trkpt><trkpt lat="43.44378482259145" lon="6.1990572740452405"><ele>180.0</ele><time>2026-03-29T09:40:18Z</time></trkpt><trkpt lat="43.443852924721796" lon="6.199193766644003"><ele>179.33333333333334</ele><time>2026-03-29T09:40:20Z</time></trkpt><trkpt lat="43.44385775603815" lon="6.199290861118247"><ele>178.66666666666669</ele><time>2026-03-29T09:40:21Z</time></trkpt><trkpt lat="43.443880017420604" lon="6.19940555191664"><ele>178.0</ele><time>2026-03-29T09:40:22Z</time></trkpt><trkpt lat="43.44388379752359" lon="6.199515999196642"><ele>178.0</ele><time>2026-03-29T09:40:23Z</time></trkpt><trkpt lat="43.4438903422832" lon="6.1996155746790444"><ele>178.0</ele><time>2026-03-29T09:40:24Z</time></trkpt><trkpt lat="43.443930095167474" lon="6.199739086795679"><ele>178.0</ele><time>2026-03-29T09:40:26Z</time></trkpt><trkpt lat="43.444068444441605" lon="6.199744861945146"><ele>178.0</ele><time>2026-03-29T09:40:28Z</time></trkpt><trkpt lat="43.444127000446535" lon="6.199709332510171"><ele>178.0</ele><time>2026-03-29T09:40:29Z</time></trkpt><trkpt lat="43.444232616094915" lon="6.199652638456714"><ele>178.0</ele><time>2026-03-29T09:40:31Z</time></trkpt><trkpt lat="43.44429406946323" lon="6.199534511423691"><ele>178.0</ele><time>2026-03-29T09:40:32Z</time></trkpt><trkpt lat="43.444332919061246" lon="6.199454013329409"><ele>178.0</ele><time>2026-03-29T09:40:33Z</time></trkpt><trkpt lat="43.44430887477766" lon="6.199336926054548"><ele>178.0</ele><time>2026-03-29T09:40:34Z</time></trkpt><trkpt lat="43.44431600346842" lon="6.1992322874054"><ele>178.0</ele><time>2026-03-29T09:40:36Z</time></trkpt><trkpt lat="43.44446638362794" lon="6.19928258731431"><ele>178.0</ele><time>2026-03-29T09:40:48.999Z</time></trkpt><trkpt lat="43.44456899230257" lon="6.199371621775979"><ele>178.0</ele><time>2026-03-29T09:40:49.999Z</time></trkpt><trkpt lat="43.44470897761035" lon="6.199438315762052"><ele>178.0</ele><time>2026-03-29T09:40:50.999Z</time></trkpt><trkpt lat="43.4448576372384" lon="6.199515584130452"><ele>178.0</ele><time>2026-03-29T09:40:51.999Z</time></trkpt><trkpt lat="43.4450032645455" lon="6.19959706238139"><ele>176.5</ele><time>2026-03-29T09:40:52.999Z</time></trkpt><trkpt lat="43.445134573557056" lon="6.199670034376771"><ele>175.0</ele><time>2026-03-29T09:40:53.999Z</time></trkpt><trkpt lat="43.445248030804805" lon="6.199730885325944"><ele>173.5</ele><time>2026-03-29T09:40:54.999Z</time></trkpt><trkpt lat="43.445350074843404" lon="6.1997856149438375"><ele>172.0</ele><time>2026-03-29T09:40:55.999Z</time></trkpt><trkpt lat="43.4454431793043" lon="6.199838134225569"><ele>171.6</ele><time>2026-03-29T09:40:56.999Z</time></trkpt><trkpt lat="43.44554714943439" lon="6.199870592160135"><ele>171.2</ele><time>2026-03-29T09:40:57.999Z</time></trkpt><trkpt lat="43.44561684317098" lon="6.199972407864239"><ele>170.8</ele><time>2026-03-29T09:40:58.999Z</time></trkpt><trkpt lat="43.445690458075326" lon="6.200068479585739"><ele>170.4</ele><time>2026-03-29T09:40:59.999Z</time></trkpt><trkpt lat="43.44576617041" lon="6.200119349826531"><ele>170.0</ele><time>2026-03-29T09:41:00.999Z</time></trkpt><trkpt lat="43.44585558849361" lon="6.2001165687658535"><ele>170.0</ele><time>2026-03-29T09:41:01.999Z</time></trkpt><trkpt lat="43.44595453268922" lon="6.200099570602933"><ele>170.0</ele><time>2026-03-29T09:41:02.999Z</time></trkpt><trkpt lat="43.44605363056854" lon="6.200141792319265"><ele>170.0</ele><time>2026-03-29T09:41:03.999Z</time></trkpt><trkpt lat="43.44612849066093" lon="6.200257273855813"><ele>170.0</ele><time>2026-03-29T09:41:04.999Z</time></trkpt><trkpt lat="43.44622994329921" lon="6.200338830983496"><ele>170.0</ele><time>2026-03-29T09:41:05.999Z</time></trkpt><trkpt lat="43.4463302456551" lon="6.200372557865721"><ele>170.33333333333331</ele><time>2026-03-29T09:41:06.999Z</time></trkpt><trkpt lat="43.44638443529691" lon="6.200431028678135"><ele>170.66666666666666</ele><time>2026-03-29T09:41:07.999Z</time></trkpt><trkpt lat="43.446475978047225" lon="6.200487992344983"><ele>171.0</ele><time>2026-03-29T09:41:09.999Z</time></trkpt><trkpt lat="43.446538322492486" lon="6.200503171530636"><ele>171.33333333333334</ele><time>2026-03-29T09:41:11.999Z</time></trkpt><trkpt lat="43.446624807298704" lon="6.200522486549189"><ele>171.66666666666669</ele><time>2026-03-29T09:41:13.999Z</time></trkpt><trkpt lat="43.446689407271805" lon="6.2005324976333815"><ele>172.0</ele><time>2026-03-29T09:41:15.999Z</time></trkpt><trkpt lat="43.44674981510827" lon="6.20091714462658"><ele>173.57142857142858</ele><time>2026-03-29T09:41:20.999Z</time></trkpt><trkpt lat="43.446773561182624" lon="6.201015448606696"><ele>175.14285714285714</ele><time>2026-03-29T09:41:22.999Z</time></trkpt><trkpt lat="43.44676442234494" lon="6.2011182313956175"><ele>176.71428571428572</ele><time>2026-03-29T09:41:23.999Z</time></trkpt><trkpt lat="43.446778557736636" lon="6.201205328763274"><ele>178.28571428571428</ele><time>2026-03-29T09:41:24.999Z</time></trkpt><trkpt lat="43.44683817124964" lon="6.2013078414252165"><ele>179.85714285714286</ele><time>2026-03-29T09:41:27.999Z</time></trkpt><trkpt lat="43.446899874308784" lon="6.201326559999127"><ele>181.42857142857144</ele><time>2026-03-29T09:41:35.999Z</time></trkpt><trkpt lat="43.446969122042674" lon="6.201368097309964"><ele>183.0</ele><time>2026-03-29T09:41:47.998Z</time></trkpt><trkpt lat="43.44702834782549" lon="6.2014578357118415"><ele>183.16666666666666</ele><time>2026-03-29T09:41:51.998Z</time></trkpt><trkpt lat="43.44703093925309" lon="6.201614753831598"><ele>183.33333333333334</ele><time>2026-03-29T09:41:53.998Z</time></trkpt><trkpt lat="43.447024725503454" lon="6.201729861674166"><ele>183.5</ele><time>2026-03-29T09:41:55Z</time></trkpt><trkpt lat="43.44703581164023" lon="6.2018404422916165"><ele>183.66666666666669</ele><time>2026-03-29T09:41:56Z</time></trkpt><trkpt lat="43.447051537112785" lon="6.201949141113318"><ele>183.83333333333334</ele><time>2026-03-29T09:41:57Z</time></trkpt><trkpt lat="43.44706128067229" lon="6.202064110247229"><ele>184.0</ele><time>2026-03-29T09:41:58Z</time></trkpt><trkpt lat="43.447081467509776" lon="6.202164282350326"><ele>184.0</ele><time>2026-03-29T09:41:59Z</time></trkpt><trkpt lat="43.447095396576024" lon="6.202275733318328"><ele>184.0</ele><time>2026-03-29T09:42:00Z</time></trkpt><trkpt lat="43.44709375028263" lon="6.2023948133975555"><ele>184.0</ele><time>2026-03-29T09:42:01Z</time></trkpt><trkpt lat="43.44708886823571" lon="6.202501141788271"><ele>184.0</ele><time>2026-03-29T09:42:02Z</time></trkpt><trkpt lat="43.447093418326276" lon="6.202594630626446"><ele>184.0</ele><time>2026-03-29T09:42:03Z</time></trkpt><trkpt lat="43.447075462990675" lon="6.202752057835704"><ele>184.0</ele><time>2026-03-29T09:42:04Z</time></trkpt><trkpt lat="43.44706524174445" lon="6.202895313555617"><ele>185.16666666666669</ele><time>2026-03-29T09:42:05Z</time></trkpt><trkpt lat="43.4470474842018" lon="6.203033273371797"><ele>186.33333333333334</ele><time>2026-03-29T09:42:06Z</time></trkpt><trkpt lat="43.44704701325683" lon="6.203129825351804"><ele>187.5</ele><time>2026-03-29T09:42:07Z</time></trkpt><trkpt lat="43.44698513566449" lon="6.203179059280014"><ele>188.66666666666666</ele><time>2026-03-29T09:42:10Z</time></trkpt><trkpt lat="43.44690034023967" lon="6.203160289713777"><ele>189.83333333333331</ele><time>2026-03-29T09:42:12Z</time></trkpt><trkpt lat="43.44683018157361" lon="6.203245692535609"><ele>191.0</ele><time>2026-03-29T09:42:14Z</time></trkpt><trkpt lat="43.4468064259824" lon="6.203343796534671"><ele>191.5</ele><time>2026-03-29T09:42:15Z</time></trkpt><trkpt lat="43.44680531713306" lon="6.203460390652022"><ele>192.0</ele><time>2026-03-29T09:42:16Z</time></trkpt><trkpt lat="43.446784100930834" lon="6.203557141005248"><ele>192.5</ele><time>2026-03-29T09:42:17Z</time></trkpt><trkpt lat="43.446762936637136" lon="6.203650205669788"><ele>193.0</ele><time>2026-03-29T09:42:18Z</time></trkpt><trkpt lat="43.446738148722964" lon="6.203730626301099"><ele>193.50000000000003</ele><time>2026-03-29T09:42:19Z</time></trkpt><trkpt lat="43.44669190894824" lon="6.203825840359781"><ele>194.0</ele><time>2026-03-29T09:42:21Z</time></trkpt><trkpt lat="43.44666190720844" lon="6.203939272224297"><ele>195.2</ele><time>2026-03-29T09:42:23Z</time></trkpt><trkpt lat="43.44661110820094" lon="6.204038729000266"><ele>196.39999999999998</ele><time>2026-03-29T09:42:25Z</time></trkpt><trkpt lat="43.44655032503365" lon="6.204190603080794"><ele>197.6</ele><time>2026-03-29T09:42:27Z</time></trkpt><trkpt lat="43.44650859186452" lon="6.20432777198121"><ele>198.8</ele><time>2026-03-29T09:42:29Z</time></trkpt><trkpt lat="43.44647080305045" lon="6.204427830810046"><ele>200.0</ele><time>2026-03-29T09:42:32Z</time></trkpt><trkpt lat="43.44640698803947" lon="6.204512722852118"><ele>200.0</ele><time>2026-03-29T09:42:34Z</time></trkpt><trkpt lat="43.446314882614004" lon="6.204654884596845"><ele>200.0</ele><time>2026-03-29T09:42:36Z</time></trkpt><trkpt lat="43.44629290772017" lon="6.204747656431262"><ele>200.0</ele><time>2026-03-29T09:42:37Z</time></trkpt><trkpt lat="43.44628066131571" lon="6.204900725280609"><ele>200.0</ele><time>2026-03-29T09:42:38Z</time></trkpt><trkpt lat="43.44626278933685" lon="6.205091133273143"><ele>196.75</ele><time>2026-03-29T09:42:39Z</time></trkpt><trkpt lat="43.44625068092187" lon="6.20531521580619"><ele>193.5</ele><time>2026-03-29T09:42:40Z</time></trkpt><trkpt lat="43.44623103507089" lon="6.205503292341828"><ele>190.25</ele><time>2026-03-29T09:42:41Z</time></trkpt><trkpt lat="43.44620448605723" lon="6.2056355937977195"><ele>187.0</ele><time>2026-03-29T09:42:42Z</time></trkpt><trkpt lat="43.446144633090654" lon="6.205730997604252"><ele>187.0</ele><time>2026-03-29T09:42:43Z</time></trkpt><trkpt lat="43.44605277891472" lon="6.205821634683807"><ele>187.0</ele><time>2026-03-29T09:42:44Z</time></trkpt><trkpt lat="43.445943000285475" lon="6.2059309805591285"><ele>187.0</ele><time>2026-03-29T09:42:45Z</time></trkpt><trkpt lat="43.44583677197953" lon="6.206059788904931"><ele>187.0</ele><time>2026-03-29T09:42:46Z</time></trkpt><trkpt lat="43.44571166558493" lon="6.206163593745854"><ele>187.0</ele><time>2026-03-29T09:42:47Z</time></trkpt><trkpt lat="43.44559025261736" lon="6.206248957186254"><ele>187.0</ele><time>2026-03-29T09:42:48Z</time></trkpt><trkpt lat="43.445496636178824" lon="6.2063301418039645"><ele>187.0</ele><time>2026-03-29T09:42:49Z</time></trkpt><trkpt lat="43.44542476075303" lon="6.206404044519634"><ele>187.0</ele><time>2026-03-29T09:42:50Z</time></trkpt><trkpt lat="43.44537691694954" lon="6.2064956989279425"><ele>187.0</ele><time>2026-03-29T09:42:51Z</time></trkpt><trkpt lat="43.44532991019887" lon="6.206631588184815"><ele>186.0</ele><time>2026-03-29T09:42:52Z</time></trkpt><trkpt lat="43.44527137451976" lon="6.2067732434290885"><ele>185.0</ele><time>2026-03-29T09:42:53Z</time></trkpt><trkpt lat="43.44524056375977" lon="6.206935482529152"><ele>184.0</ele><time>2026-03-29T09:42:54Z</time></trkpt><trkpt lat="43.445246458326444" lon="6.2071061414262525"><ele>183.0</ele><time>2026-03-29T09:42:55Z</time></trkpt><trkpt lat="43.44529531732985" lon="6.207276384580355"><ele>182.25</ele><time>2026-03-29T09:42:56Z</time></trkpt><trkpt lat="43.445308920872456" lon="6.207433736487062"><ele>181.5</ele><time>2026-03-29T09:42:57Z</time></trkpt><trkpt lat="43.44531232576706" lon="6.2075903725897374"><ele>180.75</ele><time>2026-03-29T09:42:58Z</time></trkpt><trkpt lat="43.44529379981258" lon="6.207744574146556"><ele>180.0</ele><time>2026-03-29T09:42:59Z</time></trkpt><trkpt lat="43.4452551676487" lon="6.207897964994168"><ele>180.0</ele><time>2026-03-29T09:42:59.999Z</time></trkpt><trkpt lat="43.44519277550859" lon="6.208052823852731"><ele>180.0</ele><time>2026-03-29T09:43:00.999Z</time></trkpt><trkpt lat="43.44514701183386" lon="6.208204891706336"><ele>180.0</ele><time>2026-03-29T09:43:01.999Z</time></trkpt><trkpt lat="43.4451182830024" lon="6.208372555062403"><ele>180.0</ele><time>2026-03-29T09:43:02.999Z</time></trkpt><trkpt lat="43.4450816461986" lon="6.2085421256244535"><ele>178.75</ele><time>2026-03-29T09:43:03.999Z</time></trkpt><trkpt lat="43.44505434822617" lon="6.20870704089586"><ele>177.5</ele><time>2026-03-29T09:43:04.999Z</time></trkpt><trkpt lat="43.44499396243653" lon="6.208888828799825"><ele>176.25</ele><time>2026-03-29T09:43:05.999Z</time></trkpt><trkpt lat="43.44492715489321" lon="6.209063502469633"><ele>175.0</ele><time>2026-03-29T09:43:06.999Z</time></trkpt><trkpt lat="43.44486459547291" lon="6.209234910962988"><ele>175.0</ele><time>2026-03-29T09:43:07.999Z</time></trkpt><trkpt lat="43.44480453075769" lon="6.209402640395374"><ele>175.0</ele><time>2026-03-29T09:43:08.999Z</time></trkpt><trkpt lat="43.44474188740411" lon="6.209565173897864"><ele>175.0</ele><time>2026-03-29T09:43:09.999Z</time></trkpt><trkpt lat="43.444688136362686" lon="6.209699218383999"><ele>175.0</ele><time>2026-03-29T09:43:10.999Z</time></trkpt><trkpt lat="43.44464902921721" lon="6.209836710657307"><ele>176.25</ele><time>2026-03-29T09:43:11.999Z</time></trkpt><trkpt lat="43.444616583096476" lon="6.209996193483181"><ele>177.5</ele><time>2026-03-29T09:43:12.999Z</time></trkpt><trkpt lat="43.444566882568274" lon="6.2101460370195705"><ele>178.75</ele><time>2026-03-29T09:43:13.999Z</time></trkpt><trkpt lat="43.44452589793838" lon="6.210303004786617"><ele>180.0</ele><time>2026-03-29T09:43:14.999Z</time></trkpt><trkpt lat="43.44450590314197" lon="6.210444515352634"><ele>180.0</ele><time>2026-03-29T09:43:15.999Z</time></trkpt><trkpt lat="43.44450473942079" lon="6.210589790149039"><ele>180.0</ele><time>2026-03-29T09:43:16.999Z</time></trkpt><trkpt lat="43.44452222228131" lon="6.210741222059503"><ele>180.0</ele><time>2026-03-29T09:43:17.999Z</time></trkpt><trkpt lat="43.44454946556047" lon="6.2109030176256015"><ele>180.0</ele><time>2026-03-29T09:43:18.999Z</time></trkpt><trkpt lat="43.44458771193716" lon="6.211072008282118"><ele>180.5</ele><time>2026-03-29T09:43:19.999Z</time></trkpt><trkpt lat="43.44463682205411" lon="6.211235870965209"><ele>181.0</ele><time>2026-03-29T09:43:20.999Z</time></trkpt><trkpt lat="43.444695374510054" lon="6.211385866191809"><ele>181.5</ele><time>2026-03-29T09:43:21.999Z</time></trkpt><trkpt lat="43.44475200334649" lon="6.211531252954068"><ele>182.0</ele><time>2026-03-29T09:43:22.999Z</time></trkpt><trkpt lat="43.444816188416105" lon="6.211679402874242"><ele>182.0</ele><time>2026-03-29T09:43:23.999Z</time></trkpt><trkpt lat="43.44491878504739" lon="6.211811871965759"><ele>182.0</ele><time>2026-03-29T09:43:24.999Z</time></trkpt><trkpt lat="43.44503680472474" lon="6.211932166103356"><ele>182.0</ele><time>2026-03-29T09:43:25.999Z</time></trkpt><trkpt lat="43.44514367341595" lon="6.212034919229687"><ele>182.0</ele><time>2026-03-29T09:43:26.999Z</time></trkpt><trkpt lat="43.44524626718925" lon="6.212100779136686"><ele>182.0</ele><time>2026-03-29T09:43:27.999Z</time></trkpt><trkpt lat="43.445369237846606" lon="6.212143273655331"><ele>182.0</ele><time>2026-03-29T09:43:28.999Z</time></trkpt><trkpt lat="43.44550031012076" lon="6.212192834584344"><ele>182.0</ele><time>2026-03-29T09:43:29.999Z</time></trkpt><trkpt lat="43.44562863758958" lon="6.212214077602049"><ele>182.0</ele><time>2026-03-29T09:43:30.999Z</time></trkpt><trkpt lat="43.445756369724" lon="6.212224127682359"><ele>182.5</ele><time>2026-03-29T09:43:31.999Z</time></trkpt><trkpt lat="43.44589352546476" lon="6.212231137169094"><ele>183.0</ele><time>2026-03-29T09:43:32.999Z</time></trkpt><trkpt lat="43.44603117647963" lon="6.212233742016093"><ele>183.5</ele><time>2026-03-29T09:43:33.999Z</time></trkpt><trkpt lat="43.44617756856436" lon="6.212238047716152"><ele>184.0</ele><time>2026-03-29T09:43:34.999Z</time></trkpt><trkpt lat="43.446308829221636" lon="6.2122390251976904"><ele>184.5</ele><time>2026-03-29T09:43:35.999Z</time></trkpt><trkpt lat="43.44642845716185" lon="6.212253467358502"><ele>185.0</ele><time>2026-03-29T09:43:36.999Z</time></trkpt><trkpt lat="43.44655061625028" lon="6.212285128605542"><ele>185.5</ele><time>2026-03-29T09:43:37.999Z</time></trkpt><trkpt lat="43.4466787496976" lon="6.2123359395871605"><ele>186.0</ele><time>2026-03-29T09:43:38.999Z</time></trkpt><trkpt lat="43.44678893177588" lon="6.212385224005576"><ele>186.0</ele><time>2026-03-29T09:43:39.999Z</time></trkpt><trkpt lat="43.446882111344" lon="6.2124501949699455"><ele>186.0</ele><time>2026-03-29T09:43:40.999Z</time></trkpt><trkpt lat="43.44697299570038" lon="6.212560410399768"><ele>186.0</ele><time>2026-03-29T09:43:41.999Z</time></trkpt><trkpt lat="43.447068912974316" lon="6.2126860495316905"><ele>186.0</ele><time>2026-03-29T09:43:42.999Z</time></trkpt><trkpt lat="43.447153130265406" lon="6.212836671570676"><ele>187.0</ele><time>2026-03-29T09:43:43.999Z</time></trkpt><trkpt lat="43.4472365049561" lon="6.21299580728159"><ele>188.0</ele><time>2026-03-29T09:43:44.999Z</time></trkpt><trkpt lat="43.44731396345507" lon="6.213126082048511"><ele>189.0</ele><time>2026-03-29T09:43:45.999Z</time></trkpt><trkpt lat="43.44738663851568" lon="6.21321646840979"><ele>190.0</ele><time>2026-03-29T09:43:46.999Z</time></trkpt><trkpt lat="43.44747022062371" lon="6.213285610708756"><ele>190.8</ele><time>2026-03-29T09:43:47.999Z</time></trkpt><trkpt lat="43.44756710773418" lon="6.213329399009924"><ele>191.6</ele><time>2026-03-29T09:43:48.999Z</time></trkpt><trkpt lat="43.447644036741124" lon="6.21336917082938"><ele>192.39999999999998</ele><time>2026-03-29T09:43:49.999Z</time></trkpt><trkpt lat="43.44771089171319" lon="6.213397501091952"><ele>193.2</ele><time>2026-03-29T09:43:50.999Z</time></trkpt><trkpt lat="43.4477702503113" lon="6.213542459857462"><ele>194.0</ele><time>2026-03-29T09:43:52.998Z</time></trkpt><trkpt lat="43.44777570898571" lon="6.2136571658281845"><ele>194.0</ele><time>2026-03-29T09:43:53.998Z</time></trkpt><trkpt lat="43.44773020036906" lon="6.213791213229053"><ele>194.0</ele><time>2026-03-29T09:43:54.998Z</time></trkpt><trkpt lat="43.447695354095096" lon="6.213907816615514"><ele>194.0</ele><time>2026-03-29T09:43:55.998Z</time></trkpt><trkpt lat="43.44772188316745" lon="6.214058462710687"><ele>194.0</ele><time>2026-03-29T09:43:57.998Z</time></trkpt><trkpt lat="43.44773876565523" lon="6.2142372111948525"><ele>194.0</ele><time>2026-03-29T09:43:59.998Z</time></trkpt><trkpt lat="43.44771984990951" lon="6.214363724887262"><ele>194.6</ele><time>2026-03-29T09:44:01.001Z</time></trkpt><trkpt lat="43.447745369069686" lon="6.214513962707737"><ele>195.2</ele><time>2026-03-29T09:44:02.001Z</time></trkpt><trkpt lat="43.44778066250275" lon="6.214654900137396"><ele>195.79999999999998</ele><time>2026-03-29T09:44:03.001Z</time></trkpt><trkpt lat="43.447775072829195" lon="6.214787924009334"><ele>196.39999999999998</ele><time>2026-03-29T09:44:04.001Z</time></trkpt><trkpt lat="43.447767542504124" lon="6.2149385778354"><ele>197.0</ele><time>2026-03-29T09:44:05.001Z</time></trkpt><trkpt lat="43.44776194835994" lon="6.2150653555777335"><ele>197.0</ele><time>2026-03-29T09:44:06.001Z</time></trkpt><trkpt lat="43.44776321189678" lon="6.215214115265002"><ele>197.0</ele><time>2026-03-29T09:44:07.001Z</time></trkpt><trkpt lat="43.44777775667134" lon="6.215357369363609"><ele>197.0</ele><time>2026-03-29T09:44:08.001Z</time></trkpt><trkpt lat="43.44778482470035" lon="6.215471662501089"><ele>197.0</ele><time>2026-03-29T09:44:09.001Z</time></trkpt><trkpt lat="43.44784508611055" lon="6.215586641508058"><ele>197.0</ele><time>2026-03-29T09:44:11.001Z</time></trkpt><trkpt lat="43.44789527758209" lon="6.215676689817399"><ele>196.25</ele><time>2026-03-29T09:44:12.001Z</time></trkpt><trkpt lat="43.44793778184037" lon="6.215814183836811"><ele>195.5</ele><time>2026-03-29T09:44:13.001Z</time></trkpt><trkpt lat="43.448010441743754" lon="6.215993197189854"><ele>194.75</ele><time>2026-03-29T09:44:14.001Z</time></trkpt><trkpt lat="43.448083777206975" lon="6.216159853437002"><ele>194.0</ele><time>2026-03-29T09:44:15.001Z</time></trkpt><trkpt lat="43.448147432814956" lon="6.216270574721603"><ele>197.79999999999998</ele><time>2026-03-29T09:44:16.001Z</time></trkpt><trkpt lat="43.448185026903126" lon="6.2163981153671255"><ele>201.6</ele><time>2026-03-29T09:44:17Z</time></trkpt><trkpt lat="43.44822154830957" lon="6.2165465713218335"><ele>205.4</ele><time>2026-03-29T09:44:18Z</time></trkpt><trkpt lat="43.44826177730858" lon="6.216667552512095"><ele>209.2</ele><time>2026-03-29T09:44:19Z</time></trkpt><trkpt lat="43.44831603947223" lon="6.2167887986209545"><ele>213.0</ele><time>2026-03-29T09:44:20Z</time></trkpt><trkpt lat="43.448349919990456" lon="6.216878154438734"><ele>213.0</ele><time>2026-03-29T09:44:21Z</time></trkpt><trkpt lat="43.44837617445955" lon="6.216969001896921"><ele>213.0</ele><time>2026-03-29T09:44:22Z</time></trkpt><trkpt lat="43.44838828685064" lon="6.217077137721269"><ele>213.0</ele><time>2026-03-29T09:44:23Z</time></trkpt><trkpt lat="43.44840331758174" lon="6.217219835811888"><ele>213.0</ele><time>2026-03-29T09:44:24Z</time></trkpt><trkpt lat="43.44842440008687" lon="6.217393291760712"><ele>213.0</ele><time>2026-03-29T09:44:25Z</time></trkpt><trkpt lat="43.44844063676225" lon="6.217529729725621"><ele>213.25</ele><time>2026-03-29T09:44:26Z</time></trkpt><trkpt lat="43.44845540916291" lon="6.21767640727203"><ele>213.5</ele><time>2026-03-29T09:44:27Z</time></trkpt><trkpt lat="43.448473481319446" lon="6.217822789783929"><ele>213.75</ele><time>2026-03-29T09:44:28Z</time></trkpt><trkpt lat="43.44847865224812" lon="6.217975204616644"><ele>214.0</ele><time>2026-03-29T09:44:29Z</time></trkpt><trkpt lat="43.44845762079053" lon="6.218164667953342"><ele>214.0</ele><time>2026-03-29T09:44:30Z</time></trkpt><trkpt lat="43.448438232463985" lon="6.218324656478879"><ele>213.99999999999997</ele><time>2026-03-29T09:44:31Z</time></trkpt><trkpt lat="43.44840625497292" lon="6.2184749063099884"><ele>213.99999999999997</ele><time>2026-03-29T09:44:32Z</time></trkpt><trkpt lat="43.44838892349011" lon="6.218611599529675"><ele>214.0</ele><time>2026-03-29T09:44:33Z</time></trkpt><trkpt lat="43.448361169052085" lon="6.218754535836271"><ele>214.0</ele><time>2026-03-29T09:44:34Z</time></trkpt><trkpt lat="43.44831011136165" lon="6.218929432508767"><ele>214.39999999999998</ele><time>2026-03-29T09:44:34.999Z</time></trkpt><trkpt lat="43.448242938360664" lon="6.219094544615943"><ele>214.79999999999998</ele><time>2026-03-29T09:44:35.999Z</time></trkpt><trkpt lat="43.44817336494355" lon="6.219225341752288"><ele>215.20000000000002</ele><time>2026-03-29T09:44:36.999Z</time></trkpt><trkpt lat="43.44811735329844" lon="6.21932099476525"><ele>215.60000000000002</ele><time>2026-03-29T09:44:37.999Z</time></trkpt><trkpt lat="43.44807312921836" lon="6.219434770127413"><ele>216.0</ele><time>2026-03-29T09:44:38.999Z</time></trkpt><trkpt lat="43.44801815516659" lon="6.219578550463885"><ele>214.75</ele><time>2026-03-29T09:44:39.999Z</time></trkpt><trkpt lat="43.447952046468906" lon="6.219727304922569"><ele>213.5</ele><time>2026-03-29T09:44:40.999Z</time></trkpt><trkpt lat="43.44787709409119" lon="6.219892106592892"><ele>212.25</ele><time>2026-03-29T09:44:41.999Z</time></trkpt><trkpt lat="43.4478117087439" lon="6.220084146867782"><ele>211.0</ele><time>2026-03-29T09:44:42.999Z</time></trkpt><trkpt lat="43.44776844794521" lon="6.2202591164648275"><ele>211.0</ele><time>2026-03-29T09:44:43.999Z</time></trkpt><trkpt lat="43.447735519847036" lon="6.22043958292189"><ele>211.0</ele><time>2026-03-29T09:44:44.999Z</time></trkpt><trkpt lat="43.44772183205553" lon="6.220642692612597"><ele>211.0</ele><time>2026-03-29T09:44:45.999Z</time></trkpt><trkpt lat="43.447715305202635" lon="6.220844113490356"><ele>211.0</ele><time>2026-03-29T09:44:46.999Z</time></trkpt><trkpt lat="43.44773047041563" lon="6.221041224621268"><ele>211.66666666666666</ele><time>2026-03-29T09:44:47.999Z</time></trkpt><trkpt lat="43.4477602999522" lon="6.221185590899429"><ele>212.33333333333331</ele><time>2026-03-29T09:44:48.999Z</time></trkpt><trkpt lat="43.44780597624903" lon="6.221291187369898"><ele>213.0</ele><time>2026-03-29T09:44:49.999Z</time></trkpt><trkpt lat="43.44785287230004" lon="6.221377618358847"><ele>213.66666666666669</ele><time>2026-03-29T09:44:50.999Z</time></trkpt><trkpt lat="43.44789559932866" lon="6.221460942151771"><ele>214.33333333333334</ele><time>2026-03-29T09:44:51.999Z</time></trkpt><trkpt lat="43.44789866036459" lon="6.2215488218015755"><ele>215.0</ele><time>2026-03-29T09:44:53.999Z</time></trkpt><trkpt lat="43.44785514020084" lon="6.2216523711417695"><ele>216.00000000000003</ele><time>2026-03-29T09:44:57.999Z</time></trkpt><trkpt lat="43.44786301628454" lon="6.221760548467646"><ele>217.0</ele><time>2026-03-29T09:45:02.999Z</time></trkpt><trkpt lat="43.44787210390856" lon="6.221880357840517"><ele>218.0</ele><time>2026-03-29T09:45:05.998Z</time></trkpt><trkpt lat="43.447917159236496" lon="6.221976513116482"><ele>219.0</ele><time>2026-03-29T09:45:07.998Z</time></trkpt><trkpt lat="43.44793918753804" lon="6.221891491489259"><ele>220.00000000000003</ele><time>2026-03-29T09:48:05.997Z</time></trkpt><trkpt lat="43.44792506172697" lon="6.2219794579309795"><ele>221.0</ele><time>2026-03-29T09:50:44.999Z</time></trkpt><trkpt lat="43.44797047768354" lon="6.222110766749149"><ele>221.00000000000003</ele><time>2026-03-29T09:50:46.999Z</time></trkpt><trkpt lat="43.448034616477955" lon="6.2222016616905345"><ele>221.0</ele><time>2026-03-29T09:50:48.999Z</time></trkpt><trkpt lat="43.44806716919072" lon="6.222283863153395"><ele>221.0</ele><time>2026-03-29T09:50:50.999Z</time></trkpt><trkpt lat="43.44808832692316" lon="6.222365742856869"><ele>221.0</ele><time>2026-03-29T09:50:51.999Z</time></trkpt><trkpt lat="43.44809489072907" lon="6.222533533462112"><ele>221.00000000000003</ele><time>2026-03-29T09:50:53.999Z</time></trkpt><trkpt lat="43.448114797873245" lon="6.222616506731051"><ele>221.0</ele><time>2026-03-29T09:50:54.999Z</time></trkpt><trkpt lat="43.44813191383151" lon="6.222715805746853"><ele>221.66666666666669</ele><time>2026-03-29T09:50:55.999Z</time></trkpt><trkpt lat="43.44815543745366" lon="6.222799764974333"><ele>222.33333333333334</ele><time>2026-03-29T09:50:56.999Z</time></trkpt><trkpt lat="43.448182410500436" lon="6.222951577839823"><ele>223.0</ele><time>2026-03-29T09:50:58.999Z</time></trkpt><trkpt lat="43.44821585449384" lon="6.223068428346306"><ele>223.66666666666669</ele><time>2026-03-29T09:50:59.999Z</time></trkpt><trkpt lat="43.448219649578206" lon="6.2231957627859895"><ele>224.33333333333334</ele><time>2026-03-29T09:51:00.999Z</time></trkpt><trkpt lat="43.44821269682508" lon="6.223311850090955"><ele>225.0</ele><time>2026-03-29T09:51:01.999Z</time></trkpt><trkpt lat="43.44821886818076" lon="6.223423405653326"><ele>225.75</ele><time>2026-03-29T09:51:02.999Z</time></trkpt><trkpt lat="43.44823135537431" lon="6.22354881817557"><ele>226.5</ele><time>2026-03-29T09:51:03.999Z</time></trkpt><trkpt lat="43.448251011053806" lon="6.223703539057807"><ele>227.25</ele><time>2026-03-29T09:51:04.999Z</time></trkpt><trkpt lat="43.44828124240482" lon="6.223903061904294"><ele>228.0</ele><time>2026-03-29T09:51:05.999Z</time></trkpt><trkpt lat="43.44829466176969" lon="6.224077598693847"><ele>228.33333333333334</ele><time>2026-03-29T09:51:06.999Z</time></trkpt><trkpt lat="43.44830084097755" lon="6.224210442412817"><ele>228.66666666666669</ele><time>2026-03-29T09:51:07.999Z</time></trkpt><trkpt lat="43.44832072474119" lon="6.224344716068243"><ele>229.0</ele><time>2026-03-29T09:51:08.999Z</time></trkpt><trkpt lat="43.44831824135161" lon="6.224466669500126"><ele>229.33333333333334</ele><time>2026-03-29T09:51:09.999Z</time></trkpt><trkpt lat="43.44830736935538" lon="6.224572937903745"><ele>229.66666666666669</ele><time>2026-03-29T09:51:10.999Z</time></trkpt><trkpt lat="43.44825665249587" lon="6.224639282609977"><ele>230.0</ele><time>2026-03-29T09:51:11.999Z</time></trkpt><trkpt lat="43.44818282135877" lon="6.224683649215969"><ele>230.0</ele><time>2026-03-29T09:51:12.999Z</time></trkpt><trkpt lat="43.44809547466563" lon="6.224747688163596"><ele>230.0</ele><time>2026-03-29T09:51:13.999Z</time></trkpt><trkpt lat="43.44799217644442" lon="6.224794619577233"><ele>230.0</ele><time>2026-03-29T09:51:14.999Z</time></trkpt><trkpt lat="43.44789371211297" lon="6.224902518456329"><ele>230.0</ele><time>2026-03-29T09:51:15.999Z</time></trkpt><trkpt lat="43.44779597703509" lon="6.2249837086282644"><ele>230.0</ele><time>2026-03-29T09:51:16.999Z</time></trkpt><trkpt lat="43.44770182928891" lon="6.225049216597279"><ele>230.8</ele><time>2026-03-29T09:51:17.999Z</time></trkpt><trkpt lat="43.44761035977448" lon="6.225139295848747"><ele>231.6</ele><time>2026-03-29T09:51:18.999Z</time></trkpt><trkpt lat="43.44752475367815" lon="6.225226090288366"><ele>232.39999999999998</ele><time>2026-03-29T09:51:19.999Z</time></trkpt><trkpt lat="43.44743733693411" lon="6.225298088268363"><ele>233.2</ele><time>2026-03-29T09:51:20.999Z</time></trkpt><trkpt lat="43.44736610281535" lon="6.225386861654979"><ele>234.0</ele><time>2026-03-29T09:51:21.999Z</time></trkpt><trkpt lat="43.447306576387405" lon="6.225664248905191"><ele>234.0</ele><time>2026-03-29T09:51:23.999Z</time></trkpt><trkpt lat="43.4472437510811" lon="6.225721910738631"><ele>233.99999999999997</ele><time>2026-03-29T09:51:24.999Z</time></trkpt><trkpt lat="43.44714299547075" lon="6.225827100394394"><ele>233.99999999999997</ele><time>2026-03-29T09:51:26.999Z</time></trkpt><trkpt lat="43.447036049364314" lon="6.2259472735265815"><ele>234.0</ele><time>2026-03-29T09:51:28.998Z</time></trkpt><trkpt lat="43.44698571493545" lon="6.22600982703508"><ele>234.0</ele><time>2026-03-29T09:51:29.998Z</time></trkpt><trkpt lat="43.44692915008774" lon="6.226078011519776"><ele>234.0</ele><time>2026-03-29T09:51:30.998Z</time></trkpt><trkpt lat="43.44686995365774" lon="6.226151794841228"><ele>233.99999999999997</ele><time>2026-03-29T09:51:31.998Z</time></trkpt><trkpt lat="43.446817290791074" lon="6.226217860861684"><ele>233.99999999999997</ele><time>2026-03-29T09:51:32.998Z</time></trkpt><trkpt lat="43.446732676513165" lon="6.226324010346979"><ele>234.0</ele><time>2026-03-29T09:51:34.998Z</time></trkpt><trkpt lat="43.44665611342993" lon="6.2264200595518036"><ele>234.0</ele><time>2026-03-29T09:51:36.998Z</time></trkpt><trkpt lat="43.44659372729662" lon="6.226494795675141"><ele>234.0</ele><time>2026-03-29T09:51:38.998Z</time></trkpt><trkpt lat="43.446529809426025" lon="6.22652247457275"><ele>234.0</ele><time>2026-03-29T09:51:40.998Z</time></trkpt><trkpt lat="43.44650186666585" lon="6.226609269791692"><ele>234.0</ele><time>2026-03-29T09:51:42.998Z</time></trkpt><trkpt lat="43.4464606225295" lon="6.226681786418294"><ele>234.0</ele><time>2026-03-29T09:51:43.998Z</time></trkpt><trkpt lat="43.446413766312716" lon="6.2267722075691685"><ele>234.0</ele><time>2026-03-29T09:51:44.998Z</time></trkpt><trkpt lat="43.446360747602945" lon="6.226892333814035"><ele>234.0</ele><time>2026-03-29T09:51:45.998Z</time></trkpt><trkpt lat="43.44634662464605" lon="6.226981946090977"><ele>234.0</ele><time>2026-03-29T09:51:46.998Z</time></trkpt><trkpt lat="43.44632830885461" lon="6.227076660713682"><ele>233.99999999999997</ele><time>2026-03-29T09:51:47.998Z</time></trkpt><trkpt lat="43.446331756873164" lon="6.227222010937478"><ele>233.99999999999997</ele><time>2026-03-29T09:51:49.998Z</time></trkpt><trkpt lat="43.4463562389195" lon="6.227379731376745"><ele>234.0</ele><time>2026-03-29T09:51:51.998Z</time></trkpt><trkpt lat="43.44639386825558" lon="6.2275113388233745"><ele>234.0</ele><time>2026-03-29T09:51:53.998Z</time></trkpt><trkpt lat="43.44642554760602" lon="6.227624544027358"><ele>234.16666666666666</ele><time>2026-03-29T09:51:54.998Z</time></trkpt><trkpt lat="43.44646496708127" lon="6.227756273892072"><ele>234.33333333333331</ele><time>2026-03-29T09:51:55.998Z</time></trkpt><trkpt lat="43.44650187782545" lon="6.227868218108481"><ele>234.5</ele><time>2026-03-29T09:51:56.998Z</time></trkpt><trkpt lat="43.44654401474772" lon="6.227985684490599"><ele>234.66666666666666</ele><time>2026-03-29T09:51:57.998Z</time></trkpt><trkpt lat="43.446576989625086" lon="6.228073197665154"><ele>234.83333333333331</ele><time>2026-03-29T09:51:58.998Z</time></trkpt><trkpt lat="43.44661280860704" lon="6.228165036917968"><ele>235.0</ele><time>2026-03-29T09:51:59.998Z</time></trkpt><trkpt lat="43.44665235665751" lon="6.228264618196468"><ele>234.99999999999997</ele><time>2026-03-29T09:52:00.998Z</time></trkpt><trkpt lat="43.44669911023868" lon="6.228381231832685"><ele>235.0</ele><time>2026-03-29T09:52:01.998Z</time></trkpt><trkpt lat="43.4467470445287" lon="6.228498209909841"><ele>235.0</ele><time>2026-03-29T09:52:02.998Z</time></trkpt><trkpt lat="43.44680045588894" lon="6.22862855399003"><ele>235.0</ele><time>2026-03-29T09:52:03.998Z</time></trkpt><trkpt lat="43.44683397354788" lon="6.228710351061061"><ele>234.99999999999997</ele><time>2026-03-29T09:52:04.998Z</time></trkpt><trkpt lat="43.4468702090081" lon="6.228790670544479"><ele>235.0</ele><time>2026-03-29T09:52:05.998Z</time></trkpt><trkpt lat="43.446931464811684" lon="6.228915118653571"><ele>236.0</ele><time>2026-03-29T09:52:07.998Z</time></trkpt><trkpt lat="43.4470071739702" lon="6.229039538659621"><ele>237.0</ele><time>2026-03-29T09:52:09.998Z</time></trkpt><trkpt lat="43.447162053818694" lon="6.229313968201049"><ele>238.0</ele><time>2026-03-29T09:52:10.998Z</time></trkpt><trkpt lat="43.44718831659916" lon="6.229433131635389"><ele>238.0</ele><time>2026-03-29T09:52:11.998Z</time></trkpt><trkpt lat="43.447243130942" lon="6.229589449312874"><ele>238.0</ele><time>2026-03-29T09:52:13.998Z</time></trkpt><trkpt lat="43.44727710600569" lon="6.229674683181302"><ele>238.0</ele><time>2026-03-29T09:52:14.998Z</time></trkpt><trkpt lat="43.447309605930656" lon="6.229756216498263"><ele>238.0</ele><time>2026-03-29T09:52:15.998Z</time></trkpt><trkpt lat="43.44740229454692" lon="6.230276083660004"><ele>237.8</ele><time>2026-03-29T09:52:17.998Z</time></trkpt><trkpt lat="43.44736902144574" lon="6.230435178108155"><ele>237.60000000000002</ele><time>2026-03-29T09:52:18.998Z</time></trkpt><trkpt lat="43.447297441640806" lon="6.230620340165933"><ele>237.39999999999998</ele><time>2026-03-29T09:52:19.997Z</time></trkpt><trkpt lat="43.447249792139445" lon="6.230738544772136"><ele>237.2</ele><time>2026-03-29T09:52:21.997Z</time></trkpt><trkpt lat="43.44721130756699" lon="6.230829187746203"><ele>237.0</ele><time>2026-03-29T09:52:22.997Z</time></trkpt><trkpt lat="43.44716732157764" lon="6.230916552856329"><ele>230.5</ele><time>2026-03-29T09:52:24Z</time></trkpt><trkpt lat="43.447118438034515" lon="6.230995568067281"><ele>224.0</ele><time>2026-03-29T09:52:25Z</time></trkpt><trkpt lat="43.44673403055057" lon="6.230892605072152"><ele>224.0</ele><time>2026-03-29T09:52:26Z</time></trkpt><trkpt lat="43.44672652207588" lon="6.230750189099369"><ele>224.0</ele><time>2026-03-29T09:52:32Z</time></trkpt><trkpt lat="43.446693229946085" lon="6.230594554090709"><ele>224.0</ele><time>2026-03-29T09:52:33Z</time></trkpt><trkpt lat="43.446635858438526" lon="6.230423149432572"><ele>224.0</ele><time>2026-03-29T09:52:34Z</time></trkpt><trkpt lat="43.44655096507961" lon="6.230204979255358"><ele>225.66666666666669</ele><time>2026-03-29T09:52:35Z</time></trkpt><trkpt lat="43.44645921180109" lon="6.229964518202916"><ele>227.33333333333331</ele><time>2026-03-29T09:52:36Z</time></trkpt><trkpt lat="43.446357560347366" lon="6.229718421295744"><ele>229.0</ele><time>2026-03-29T09:52:37Z</time></trkpt><trkpt lat="43.44623949611999" lon="6.229452504144834"><ele>225.66666666666666</ele><time>2026-03-29T09:52:38Z</time></trkpt><trkpt lat="43.44614003083137" lon="6.229220837678125"><ele>222.33333333333331</ele><time>2026-03-29T09:52:39Z</time></trkpt><trkpt lat="43.446042358582446" lon="6.2290027494722064"><ele>219.0</ele><time>2026-03-29T09:52:40Z</time></trkpt><trkpt lat="43.44594885859611" lon="6.22878382418865"><ele>219.0</ele><time>2026-03-29T09:52:41Z</time></trkpt><trkpt lat="43.44588243684642" lon="6.228561489659576"><ele>219.0</ele><time>2026-03-29T09:52:42Z</time></trkpt><trkpt lat="43.44583154986891" lon="6.228335509636282"><ele>219.0</ele><time>2026-03-29T09:52:43Z</time></trkpt><trkpt lat="43.445781565614276" lon="6.228132454776381"><ele>219.33333333333334</ele><time>2026-03-29T09:52:44Z</time></trkpt><trkpt lat="43.44573941620108" lon="6.227957255865096"><ele>219.66666666666669</ele><time>2026-03-29T09:52:45Z</time></trkpt><trkpt lat="43.44571571591918" lon="6.2278318479368835"><ele>220.0</ele><time>2026-03-29T09:52:46Z</time></trkpt><trkpt lat="43.44570014343435" lon="6.227743251445791"><ele>220.33333333333334</ele><time>2026-03-29T09:52:47Z</time></trkpt><trkpt lat="43.445673710955234" lon="6.22763399391188"><ele>220.66666666666669</ele><time>2026-03-29T09:52:49.999Z</time></trkpt><trkpt lat="43.44564742889162" lon="6.227544626540751"><ele>221.0</ele><time>2026-03-29T09:52:52.999Z</time></trkpt><trkpt lat="43.44568185636399" lon="6.227394558607551"><ele>220.0</ele><time>2026-03-29T09:52:54.999Z</time></trkpt><trkpt lat="43.44568914428203" lon="6.227257583252992"><ele>219.0</ele><time>2026-03-29T09:52:55.999Z</time></trkpt><trkpt lat="43.445701377681225" lon="6.227110138448808"><ele>218.0</ele><time>2026-03-29T09:52:56.999Z</time></trkpt><trkpt lat="43.445718249384704" lon="6.226928709771828"><ele>217.0</ele><time>2026-03-29T09:52:57.999Z</time></trkpt><trkpt lat="43.445732621871066" lon="6.226727130107711"><ele>217.0</ele><time>2026-03-29T09:52:58.999Z</time></trkpt><trkpt lat="43.44574584257298" lon="6.226516953187061"><ele>217.0</ele><time>2026-03-29T09:52:59.999Z</time></trkpt><trkpt lat="43.44573368137601" lon="6.226323099913021"><ele>217.0</ele><time>2026-03-29T09:53:00.999Z</time></trkpt><trkpt lat="43.44571951208286" lon="6.2261451915690476"><ele>217.0</ele><time>2026-03-29T09:53:01.999Z</time></trkpt><trkpt lat="43.44567064532978" lon="6.225986998883137"><ele>217.75</ele><time>2026-03-29T09:53:02.999Z</time></trkpt><trkpt lat="43.44558998607643" lon="6.225839142096264"><ele>218.5</ele><time>2026-03-29T09:53:03.999Z</time></trkpt><trkpt lat="43.44549264928079" lon="6.225698035904661"><ele>219.25</ele><time>2026-03-29T09:53:04.999Z</time></trkpt><trkpt lat="43.445371462241546" lon="6.225572225730348"><ele>220.0</ele><time>2026-03-29T09:53:05.999Z</time></trkpt><trkpt lat="43.44525735263228" lon="6.2254373083852315"><ele>217.66666666666666</ele><time>2026-03-29T09:53:06.999Z</time></trkpt><trkpt lat="43.44512932251745" lon="6.225311567675723"><ele>215.33333333333331</ele><time>2026-03-29T09:53:07.999Z</time></trkpt><trkpt lat="43.445002218802976" lon="6.225191688727156"><ele>213.0</ele><time>2026-03-29T09:53:08.999Z</time></trkpt><trkpt lat="43.44486812542295" lon="6.2250610321244055"><ele>213.0</ele><time>2026-03-29T09:53:09.999Z</time></trkpt><trkpt lat="43.444737286954854" lon="6.224928265184218"><ele>213.0</ele><time>2026-03-29T09:53:10.999Z</time></trkpt><trkpt lat="43.44459999210994" lon="6.224777807517001"><ele>213.0</ele><time>2026-03-29T09:53:11.999Z</time></trkpt><trkpt lat="43.44447539656777" lon="6.224644502963905"><ele>210.0</ele><time>2026-03-29T09:53:12.999Z</time></trkpt><trkpt lat="43.44435831586499" lon="6.22451104778303"><ele>207.0</ele><time>2026-03-29T09:53:13.999Z</time></trkpt><trkpt lat="43.444250195654455" lon="6.224356821587213"><ele>204.0</ele><time>2026-03-29T09:53:14.999Z</time></trkpt><trkpt lat="43.44418225705033" lon="6.224182459496904"><ele>204.0</ele><time>2026-03-29T09:53:15.999Z</time></trkpt><trkpt lat="43.44417807684751" lon="6.22398481345818"><ele>204.0</ele><time>2026-03-29T09:53:16.999Z</time></trkpt><trkpt lat="43.44416052497944" lon="6.223782871600107"><ele>204.0</ele><time>2026-03-29T09:53:17.999Z</time></trkpt><trkpt lat="43.44412631629109" lon="6.223602485532283"><ele>204.0</ele><time>2026-03-29T09:53:18.999Z</time></trkpt><trkpt lat="43.44412133859397" lon="6.223407267842624"><ele>203.25</ele><time>2026-03-29T09:53:19.999Z</time></trkpt><trkpt lat="43.44410090638869" lon="6.223227684960291"><ele>202.5</ele><time>2026-03-29T09:53:20.999Z</time></trkpt><trkpt lat="43.44407468721805" lon="6.223042783351401"><ele>201.75</ele><time>2026-03-29T09:53:21.999Z</time></trkpt><trkpt lat="43.444047714436955" lon="6.222862062526652"><ele>201.0</ele><time>2026-03-29T09:53:22.999Z</time></trkpt><trkpt lat="43.44402323519949" lon="6.222693990456321"><ele>201.0</ele><time>2026-03-29T09:53:23.999Z</time></trkpt><trkpt lat="43.44400674411451" lon="6.222531591355299"><ele>201.0</ele><time>2026-03-29T09:53:24.999Z</time></trkpt><trkpt lat="43.44399243578092" lon="6.222400007275819"><ele>201.0</ele><time>2026-03-29T09:53:25.999Z</time></trkpt><trkpt lat="43.44397513107355" lon="6.222293551154724"><ele>201.0</ele><time>2026-03-29T09:53:26.999Z</time></trkpt><trkpt lat="43.44396904567742" lon="6.222180291196494"><ele>201.0</ele><time>2026-03-29T09:53:28.999Z</time></trkpt><trkpt lat="43.44386310402703" lon="6.222270482931767"><ele>199.4</ele><time>2026-03-29T09:53:29.999Z</time></trkpt><trkpt lat="43.4437890992723" lon="6.222288399413633"><ele>197.8</ele><time>2026-03-29T09:53:30.999Z</time></trkpt><trkpt lat="43.44370248857694" lon="6.222305136307364"><ele>196.20000000000002</ele><time>2026-03-29T09:53:31.999Z</time></trkpt><trkpt lat="43.44360003141353" lon="6.222320214173734"><ele>194.60000000000002</ele><time>2026-03-29T09:53:32.999Z</time></trkpt><trkpt lat="43.443492779839396" lon="6.222341288345569"><ele>193.0</ele><time>2026-03-29T09:53:33.999Z</time></trkpt><trkpt lat="43.443370944439884" lon="6.222362939153654"><ele>192.8</ele><time>2026-03-29T09:53:34.999Z</time></trkpt><trkpt lat="43.44326926535206" lon="6.222389782524707"><ele>192.60000000000002</ele><time>2026-03-29T09:53:35.999Z</time></trkpt><trkpt lat="43.44318130959036" lon="6.222428972555441"><ele>192.39999999999998</ele><time>2026-03-29T09:53:36.999Z</time></trkpt><trkpt lat="43.4431008952532" lon="6.222480797355625"><ele>192.2</ele><time>2026-03-29T09:53:37.999Z</time></trkpt><trkpt lat="43.44303138228774" lon="6.222581030855608"><ele>192.0</ele><time>2026-03-29T09:53:38.999Z</time></trkpt><trkpt lat="43.442971315496" lon="6.2227029323395495"><ele>195.5</ele><time>2026-03-29T09:53:39.999Z</time></trkpt><trkpt lat="43.44290042588102" lon="6.222821437391304"><ele>199.0</ele><time>2026-03-29T09:53:40.998Z</time></trkpt><trkpt lat="43.442802033592834" lon="6.222914489877388"><ele>202.5</ele><time>2026-03-29T09:53:41.998Z</time></trkpt><trkpt lat="43.44267751226591" lon="6.222995039519798"><ele>206.0</ele><time>2026-03-29T09:53:42.998Z</time></trkpt><trkpt lat="43.442547604641234" lon="6.223046330789076"><ele>206.0</ele><time>2026-03-29T09:53:43.998Z</time></trkpt><trkpt lat="43.44240620709015" lon="6.223077303315292"><ele>206.0</ele><time>2026-03-29T09:53:44.998Z</time></trkpt><trkpt lat="43.44226775341865" lon="6.223100420032523"><ele>206.0</ele><time>2026-03-29T09:53:45.998Z</time></trkpt><trkpt lat="43.44212680000008" lon="6.223108709287921"><ele>206.0</ele><time>2026-03-29T09:53:46.998Z</time></trkpt><trkpt lat="43.44200717555572" lon="6.22303485297237"><ele>211.5</ele><time>2026-03-29T09:53:47.998Z</time></trkpt><trkpt lat="43.441877104241634" lon="6.222984890926584"><ele>217.0</ele><time>2026-03-29T09:53:48.998Z</time></trkpt><trkpt lat="43.44175612699617" lon="6.222976595211423"><ele>222.5</ele><time>2026-03-29T09:53:49.998Z</time></trkpt><trkpt lat="43.441628651559846" lon="6.222966986100876"><ele>228.0</ele><time>2026-03-29T09:53:50.998Z</time></trkpt><trkpt lat="43.44149956172529" lon="6.223045245364214"><ele>228.0</ele><time>2026-03-29T09:53:51.998Z</time></trkpt><trkpt lat="43.44138955685193" lon="6.223121466250475"><ele>228.0</ele><time>2026-03-29T09:53:52.998Z</time></trkpt><trkpt lat="43.441280884566794" lon="6.22321453680461"><ele>228.0</ele><time>2026-03-29T09:53:53.998Z</time></trkpt><trkpt lat="43.441185834498356" lon="6.223319618476466"><ele>228.0</ele><time>2026-03-29T09:53:54.998Z</time></trkpt><trkpt lat="43.44111278630859" lon="6.223466860830047"><ele>227.5</ele><time>2026-03-29T09:53:55.998Z</time></trkpt><trkpt lat="43.44106771957146" lon="6.223658399223351"><ele>227.0</ele><time>2026-03-29T09:53:56.998Z</time></trkpt><trkpt lat="43.44103015533293" lon="6.2238461827241265"><ele>226.5</ele><time>2026-03-29T09:53:57.998Z</time></trkpt><trkpt lat="43.4410168416821" lon="6.224063445612864"><ele>226.0</ele><time>2026-03-29T09:53:58.998Z</time></trkpt><trkpt lat="43.441013531690444" lon="6.224279071915096"><ele>222.33333333333331</ele><time>2026-03-29T09:53:59.998Z</time></trkpt><trkpt lat="43.44101344409063" lon="6.224495240886964"><ele>218.66666666666669</ele><time>2026-03-29T09:54:00.998Z</time></trkpt><trkpt lat="43.441029737066415" lon="6.224737102747791"><ele>215.0</ele><time>2026-03-29T09:54:01.998Z</time></trkpt><trkpt lat="43.441072393783394" lon="6.225002042692119"><ele>215.0</ele><time>2026-03-29T09:54:02.998Z</time></trkpt><trkpt lat="43.441112853803006" lon="6.225259311548362"><ele>215.0</ele><time>2026-03-29T09:54:03.998Z</time></trkpt><trkpt lat="43.441146181487326" lon="6.225482570869224"><ele>215.0</ele><time>2026-03-29T09:54:04.998Z</time></trkpt><trkpt lat="43.441169772190115" lon="6.225674111206213"><ele>212.25</ele><time>2026-03-29T09:54:05.998Z</time></trkpt><trkpt lat="43.44117210105736" lon="6.225856611659615"><ele>209.5</ele><time>2026-03-29T09:54:06.998Z</time></trkpt><trkpt lat="43.441142153468746" lon="6.226029716810652"><ele>206.75</ele><time>2026-03-29T09:54:07.998Z</time></trkpt><trkpt lat="43.441075344268086" lon="6.226165656194112"><ele>204.0</ele><time>2026-03-29T09:54:08.998Z</time></trkpt><trkpt lat="43.44097504724661" lon="6.226223362148838"><ele>204.0</ele><time>2026-03-29T09:54:09.998Z</time></trkpt><trkpt lat="43.4408511192456" lon="6.2262817616449775"><ele>204.0</ele><time>2026-03-29T09:54:10.998Z</time></trkpt><trkpt lat="43.4407141945439" lon="6.226351308960192"><ele>204.0</ele><time>2026-03-29T09:54:11.998Z</time></trkpt><trkpt lat="43.44056719168735" lon="6.2264177403932255"><ele>204.0</ele><time>2026-03-29T09:54:12.998Z</time></trkpt><trkpt lat="43.44041940441715" lon="6.2264950491168465"><ele>203.0</ele><time>2026-03-29T09:54:13.998Z</time></trkpt><trkpt lat="43.44025687715146" lon="6.226558174592347"><ele>202.0</ele><time>2026-03-29T09:54:14.998Z</time></trkpt><trkpt lat="43.440095800627184" lon="6.226644457282038"><ele>201.0</ele><time>2026-03-29T09:54:15.998Z</time></trkpt><trkpt lat="43.439931538482185" lon="6.226752216448722"><ele>201.0</ele><time>2026-03-29T09:54:16.998Z</time></trkpt><trkpt lat="43.43975599725441" lon="6.226843664004517"><ele>201.0</ele><time>2026-03-29T09:54:17.998Z</time></trkpt><trkpt lat="43.439573571502514" lon="6.226944306415908"><ele>201.0</ele><time>2026-03-29T09:54:18.998Z</time></trkpt><trkpt lat="43.43940712072026" lon="6.227041370303534"><ele>198.33333333333331</ele><time>2026-03-29T09:54:19.998Z</time></trkpt><trkpt lat="43.43923945079924" lon="6.227142911850139"><ele>195.66666666666666</ele><time>2026-03-29T09:54:20.998Z</time></trkpt><trkpt lat="43.43906304776888" lon="6.22722787254707"><ele>193.0</ele><time>2026-03-29T09:54:21.998Z</time></trkpt><trkpt lat="43.438901967902474" lon="6.2273148005931755"><ele>198.33333333333331</ele><time>2026-03-29T09:54:22.998Z</time></trkpt><trkpt lat="43.438754248626786" lon="6.227419630622262"><ele>203.66666666666669</ele><time>2026-03-29T09:54:23.998Z</time></trkpt><trkpt lat="43.438627734159304" lon="6.227561032834316"><ele>209.0</ele><time>2026-03-29T09:54:24.998Z</time></trkpt><trkpt lat="43.43848510860933" lon="6.227696145918568"><ele>209.0</ele><time>2026-03-29T09:54:25.998Z</time></trkpt><trkpt lat="43.4383493175052" lon="6.227857042270649"><ele>209.0</ele><time>2026-03-29T09:54:26.998Z</time></trkpt><trkpt lat="43.43821314095461" lon="6.228021448154669"><ele>209.0</ele><time>2026-03-29T09:54:27.998Z</time></trkpt><trkpt lat="43.438069046449" lon="6.228167111120834"><ele>205.33333333333334</ele><time>2026-03-29T09:54:28.998Z</time></trkpt><trkpt lat="43.437911931408664" lon="6.228290455521375"><ele>201.66666666666669</ele><time>2026-03-29T09:54:30Z</time></trkpt><trkpt lat="43.43776230775881" lon="6.2283668974021404"><ele>198.0</ele><time>2026-03-29T09:54:31Z</time></trkpt><trkpt lat="43.437615984498635" lon="6.228422536601961"><ele>198.0</ele><time>2026-03-29T09:54:32Z</time></trkpt><trkpt lat="43.43746633147546" lon="6.228455573748145"><ele>198.0</ele><time>2026-03-29T09:54:33Z</time></trkpt><trkpt lat="43.437293023439175" lon="6.228494673414319"><ele>198.0</ele><time>2026-03-29T09:54:34Z</time></trkpt><trkpt lat="43.4371151703576" lon="6.228535444759381"><ele>198.66666666666669</ele><time>2026-03-29T09:54:35Z</time></trkpt><trkpt lat="43.436948774806226" lon="6.228567303948246"><ele>199.33333333333334</ele><time>2026-03-29T09:54:36Z</time></trkpt><trkpt lat="43.436799771445095" lon="6.228597887967537"><ele>200.0</ele><time>2026-03-29T09:54:37Z</time></trkpt><trkpt lat="43.43666612905853" lon="6.228619804935705"><ele>200.0</ele><time>2026-03-29T09:54:38Z</time></trkpt><trkpt lat="43.43653426290504" lon="6.2286244107701485"><ele>200.0</ele><time>2026-03-29T09:54:39Z</time></trkpt><trkpt lat="43.43641673005694" lon="6.228594370250787"><ele>200.0</ele><time>2026-03-29T09:54:40Z</time></trkpt><trkpt lat="43.4363170501504" lon="6.228539549969413"><ele>200.0</ele><time>2026-03-29T09:54:41Z</time></trkpt><trkpt lat="43.43624390827776" lon="6.228464381097425"><ele>198.6</ele><time>2026-03-29T09:54:42Z</time></trkpt><trkpt lat="43.436194817483596" lon="6.228400768682695"><ele>197.2</ele><time>2026-03-29T09:54:43Z</time></trkpt><trkpt lat="43.43613252205256" lon="6.228349708055761"><ele>195.8</ele><time>2026-03-29T09:54:45Z</time></trkpt><trkpt lat="43.43601545687165" lon="6.2285395802838535"><ele>194.4</ele><time>2026-03-29T09:54:46Z</time></trkpt><trkpt lat="43.435969904158455" lon="6.228613856811143"><ele>193.0</ele><time>2026-03-29T09:54:47Z</time></trkpt><trkpt lat="43.435838501544985" lon="6.228649542679028"><ele>193.0</ele><time>2026-03-29T09:54:49Z</time></trkpt><trkpt lat="43.435743781886764" lon="6.228627762907088"><ele>193.0</ele><time>2026-03-29T09:54:50Z</time></trkpt><trkpt lat="43.43563318214575" lon="6.228579478966097"><ele>193.0</ele><time>2026-03-29T09:54:51Z</time></trkpt><trkpt lat="43.435502128706766" lon="6.228544950289051"><ele>193.0</ele><time>2026-03-29T09:54:52Z</time></trkpt><trkpt lat="43.435344083105534" lon="6.228513252616284"><ele>192.25</ele><time>2026-03-29T09:54:53Z</time></trkpt><trkpt lat="43.43520504554087" lon="6.228485920996581"><ele>191.5</ele><time>2026-03-29T09:54:54Z</time></trkpt><trkpt lat="43.43505739765779" lon="6.228462097475289"><ele>190.75</ele><time>2026-03-29T09:54:55Z</time></trkpt><trkpt lat="43.43491046881439" lon="6.228461539656473"><ele>190.0</ele><time>2026-03-29T09:54:56Z</time></trkpt><trkpt lat="43.434762694200984" lon="6.228469146936809"><ele>190.0</ele><time>2026-03-29T09:54:56.999Z</time></trkpt><trkpt lat="43.434627217752436" lon="6.228473881579019"><ele>190.0</ele><time>2026-03-29T09:54:57.999Z</time></trkpt><trkpt lat="43.4344771933876" lon="6.228478069131585"><ele>190.0</ele><time>2026-03-29T09:54:58.999Z</time></trkpt><trkpt lat="43.43432374340875" lon="6.228472589300145"><ele>190.0</ele><time>2026-03-29T09:54:59.999Z</time></trkpt><trkpt lat="43.43419576694447" lon="6.228483487806243"><ele>190.0</ele><time>2026-03-29T09:55:00.999Z</time></trkpt><trkpt lat="43.43408038630695" lon="6.228498511390332"><ele>190.0</ele><time>2026-03-29T09:55:01.999Z</time></trkpt><trkpt lat="43.43397891784987" lon="6.228509353468046"><ele>190.0</ele><time>2026-03-29T09:55:02.999Z</time></trkpt><trkpt lat="43.4338836923343" lon="6.228519030611233"><ele>190.0</ele><time>2026-03-29T09:55:03.999Z</time></trkpt><trkpt lat="43.433791104494915" lon="6.2285234281784705"><ele>190.0</ele><time>2026-03-29T09:55:04.999Z</time></trkpt><trkpt lat="43.43370360500965" lon="6.228497779317815"><ele>190.8</ele><time>2026-03-29T09:55:06.999Z</time></trkpt><trkpt lat="43.43370252364075" lon="6.228410580682262"><ele>191.6</ele><time>2026-03-29T09:55:10.999Z</time></trkpt><trkpt lat="43.4336723369539" lon="6.228303955007773"><ele>192.39999999999998</ele><time>2026-03-29T09:55:12.999Z</time></trkpt><trkpt lat="43.4335321067894" lon="6.228328008652926"><ele>193.2</ele><time>2026-03-29T09:55:14.999Z</time></trkpt><trkpt lat="43.43342595273582" lon="6.228316979693245"><ele>194.0</ele><time>2026-03-29T09:55:15.999Z</time></trkpt><trkpt lat="43.433318453164276" lon="6.228298292300487"><ele>194.00000000000003</ele><time>2026-03-29T09:55:16.999Z</time></trkpt><trkpt lat="43.43324423215631" lon="6.228302019293818"><ele>194.0</ele><time>2026-03-29T09:55:17.999Z</time></trkpt><trkpt lat="43.43317494969457" lon="6.22831115316906"><ele>194.0</ele><time>2026-03-29T09:55:18.999Z</time></trkpt><trkpt lat="43.433101980942965" lon="6.228313790049055"><ele>194.0</ele><time>2026-03-29T09:55:19.999Z</time></trkpt><trkpt lat="43.433018264095324" lon="6.228314749158857"><ele>194.00000000000003</ele><time>2026-03-29T09:55:20.999Z</time></trkpt><trkpt lat="43.432929622855156" lon="6.228325315369961"><ele>194.0</ele><time>2026-03-29T09:55:21.999Z</time></trkpt><trkpt lat="43.43283511058595" lon="6.228309290007518"><ele>193.50000000000003</ele><time>2026-03-29T09:55:23.999Z</time></trkpt><trkpt lat="43.43276325249815" lon="6.22835764959152"><ele>193.0</ele><time>2026-03-29T09:55:26.999Z</time></trkpt><trkpt lat="43.43269678092124" lon="6.228397579806571"><ele>192.5</ele><time>2026-03-29T09:55:28.999Z</time></trkpt><trkpt lat="43.43263098432639" lon="6.228377590061549"><ele>192.0</ele><time>2026-03-29T09:55:29.999Z</time></trkpt><trkpt lat="43.4325466009649" lon="6.228347542346805"><ele>191.5</ele><time>2026-03-29T09:55:30.999Z</time></trkpt><trkpt lat="43.43245519957178" lon="6.228316054988406"><ele>191.0</ele><time>2026-03-29T09:55:31.999Z</time></trkpt><trkpt lat="43.43234603525401" lon="6.228266760389239"><ele>191.0</ele><time>2026-03-29T09:55:32.999Z</time></trkpt><trkpt lat="43.43227535065274" lon="6.228228908965737"><ele>191.0</ele><time>2026-03-29T09:55:33.999Z</time></trkpt><trkpt lat="43.43223241403602" lon="6.228162394513374"><ele>191.0</ele><time>2026-03-29T09:55:34.999Z</time></trkpt><trkpt lat="43.43216751990245" lon="6.228061761756169"><ele>191.0</ele><time>2026-03-29T09:55:35.999Z</time></trkpt><trkpt lat="43.4321008764139" lon="6.227978981254097"><ele>191.0</ele><time>2026-03-29T09:55:36.999Z</time></trkpt><trkpt lat="43.43197975604752" lon="6.227942766537332"><ele>191.0</ele><time>2026-03-29T09:55:38.999Z</time></trkpt><trkpt lat="43.43188170569772" lon="6.2279622503843"><ele>191.0</ele><time>2026-03-29T09:55:39.999Z</time></trkpt><trkpt lat="43.43179734975693" lon="6.227938919004417"><ele>191.0</ele><time>2026-03-29T09:55:40.999Z</time></trkpt><trkpt lat="43.43170049807574" lon="6.227886119894157"><ele>191.0</ele><time>2026-03-29T09:55:41.999Z</time></trkpt><trkpt lat="43.43159593439043" lon="6.227815079686251"><ele>191.0</ele><time>2026-03-29T09:55:42.999Z</time></trkpt><trkpt lat="43.43147908402408" lon="6.227737651369062"><ele>191.0</ele><time>2026-03-29T09:55:43.999Z</time></trkpt><trkpt lat="43.43136856649278" lon="6.227637286031481"><ele>191.0</ele><time>2026-03-29T09:55:44.999Z</time></trkpt><trkpt lat="43.431255034758784" lon="6.2275313113544755"><ele>191.0</ele><time>2026-03-29T09:55:45.999Z</time></trkpt><trkpt lat="43.431154022811754" lon="6.227443252331525"><ele>191.0</ele><time>2026-03-29T09:55:46.998Z</time></trkpt><trkpt lat="43.43106767257444" lon="6.2273636784503985"><ele>190.60000000000002</ele><time>2026-03-29T09:55:47.998Z</time></trkpt><trkpt lat="43.430993098925164" lon="6.227263527035769"><ele>190.2</ele><time>2026-03-29T09:55:48.998Z</time></trkpt><trkpt lat="43.430919266682835" lon="6.227160203351376"><ele>189.8</ele><time>2026-03-29T09:55:49.998Z</time></trkpt><trkpt lat="43.43084645475236" lon="6.227074404879384"><ele>189.39999999999998</ele><time>2026-03-29T09:55:50.998Z</time></trkpt><trkpt lat="43.43075406003853" lon="6.227011666397112"><ele>189.0</ele><time>2026-03-29T09:55:51.998Z</time></trkpt><trkpt lat="43.430646094319364" lon="6.226925274513759"><ele>189.0</ele><time>2026-03-29T09:55:52.998Z</time></trkpt><trkpt lat="43.43054996333238" lon="6.226801676165741"><ele>189.0</ele><time>2026-03-29T09:55:53.998Z</time></trkpt><trkpt lat="43.430462215583894" lon="6.226671108144033"><ele>189.0</ele><time>2026-03-29T09:55:54.998Z</time></trkpt><trkpt lat="43.4303940532633" lon="6.226523491439982"><ele>189.0</ele><time>2026-03-29T09:55:55.998Z</time></trkpt><trkpt lat="43.43031047685996" lon="6.226364789281832"><ele>189.25</ele><time>2026-03-29T09:55:56.998Z</time></trkpt><trkpt lat="43.43021915442788" lon="6.226212632658562"><ele>189.5</ele><time>2026-03-29T09:55:57.998Z</time></trkpt><trkpt lat="43.43011886598975" lon="6.226050426383677"><ele>189.75</ele><time>2026-03-29T09:55:58.998Z</time></trkpt><trkpt lat="43.43001573705399" lon="6.225898174534012"><ele>190.0</ele><time>2026-03-29T09:55:59.998Z</time></trkpt><trkpt lat="43.429913597412614" lon="6.225757104438735"><ele>190.5</ele><time>2026-03-29T09:56:00.998Z</time></trkpt><trkpt lat="43.429819773465496" lon="6.225624302941228"><ele>191.0</ele><time>2026-03-29T09:56:01.998Z</time></trkpt><trkpt lat="43.42973397228152" lon="6.225477734314681"><ele>191.5</ele><time>2026-03-29T09:56:02.998Z</time></trkpt><trkpt lat="43.42965970137186" lon="6.22534997702291"><ele>192.0</ele><time>2026-03-29T09:56:03.998Z</time></trkpt><trkpt lat="43.42959677862388" lon="6.225230732319355"><ele>192.16666666666666</ele><time>2026-03-29T09:56:04.998Z</time></trkpt><trkpt lat="43.42953727354789" lon="6.225134013914122"><ele>192.33333333333331</ele><time>2026-03-29T09:56:05.998Z</time></trkpt><trkpt lat="43.42947182055807" lon="6.225073580291862"><ele>192.5</ele><time>2026-03-29T09:56:06.998Z</time></trkpt><trkpt lat="43.42940391091149" lon="6.2250569992048055"><ele>192.66666666666666</ele><time>2026-03-29T09:56:07.998Z</time></trkpt><trkpt lat="43.42931965454896" lon="6.225074078431669"><ele>192.83333333333331</ele><time>2026-03-29T09:56:08.998Z</time></trkpt><trkpt lat="43.42925068386787" lon="6.225103358182783"><ele>193.0</ele><time>2026-03-29T09:56:09.998Z</time></trkpt><trkpt lat="43.42916083867753" lon="6.225031786033321"><ele>192.99999999999997</ele><time>2026-03-29T09:56:11.998Z</time></trkpt><trkpt lat="43.42911287739571" lon="6.22494570002586"><ele>193.0</ele><time>2026-03-29T09:56:12.998Z</time></trkpt><trkpt lat="43.42907383115576" lon="6.224839556174537"><ele>193.0</ele><time>2026-03-29T09:56:13.998Z</time></trkpt><trkpt lat="43.42903369415443" lon="6.224737262926084"><ele>193.0</ele><time>2026-03-29T09:56:14.998Z</time></trkpt><trkpt lat="43.42897706429837" lon="6.224639206859343"><ele>192.99999999999997</ele><time>2026-03-29T09:56:15.998Z</time></trkpt><trkpt lat="43.42891307605487" lon="6.224570674134904"><ele>193.0</ele><time>2026-03-29T09:56:16.998Z</time></trkpt><trkpt lat="43.42883316809061" lon="6.224525514340794"><ele>194.2</ele><time>2026-03-29T09:56:17.998Z</time></trkpt><trkpt lat="43.42873547211554" lon="6.224505970073782"><ele>195.4</ele><time>2026-03-29T09:56:18.998Z</time></trkpt><trkpt lat="43.42863087919973" lon="6.224479106067283"><ele>196.6</ele><time>2026-03-29T09:56:19.998Z</time></trkpt><trkpt lat="43.42854431050399" lon="6.224455395933777"><ele>197.79999999999998</ele><time>2026-03-29T09:56:20.998Z</time></trkpt><trkpt lat="43.428462877019626" lon="6.22447589755837"><ele>199.0</ele><time>2026-03-29T09:56:21.998Z</time></trkpt><trkpt lat="43.42837351670718" lon="6.224522777742415"><ele>199.0</ele><time>2026-03-29T09:56:22.998Z</time></trkpt><trkpt lat="43.428283306443745" lon="6.224562340643596"><ele>199.0</ele><time>2026-03-29T09:56:23.998Z</time></trkpt><trkpt lat="43.42821683075535" lon="6.2245890626983496"><ele>199.0</ele><time>2026-03-29T09:56:24.998Z</time></trkpt><trkpt lat="43.428149934998714" lon="6.224613187544225"><ele>199.0</ele><time>2026-03-29T09:56:25.998Z</time></trkpt><trkpt lat="43.42805472404878" lon="6.224572420176197"><ele>199.0</ele><time>2026-03-29T09:56:27.998Z</time></trkpt><trkpt lat="43.42803132443462" lon="6.224372905482777"><ele>198.66666666666666</ele><time>2026-03-29T09:56:29.998Z</time></trkpt><trkpt lat="43.42794305923845" lon="6.224264216754989"><ele>198.33333333333331</ele><time>2026-03-29T09:56:31.998Z</time></trkpt><trkpt lat="43.42788265608639" lon="6.22418827652467"><ele>198.0</ele><time>2026-03-29T09:56:32.998Z</time></trkpt><trkpt lat="43.42781663136751" lon="6.224119733934686"><ele>197.66666666666669</ele><time>2026-03-29T09:56:33.998Z</time></trkpt><trkpt lat="43.42776113367356" lon="6.224056391700623"><ele>197.33333333333334</ele><time>2026-03-29T09:56:34.998Z</time></trkpt><trkpt lat="43.42770056090478" lon="6.224009210905057"><ele>197.0</ele><time>2026-03-29T09:56:36Z</time></trkpt><trkpt lat="43.42760106834607" lon="6.224054850296568"><ele>197.0</ele><time>2026-03-29T09:56:37Z</time></trkpt><trkpt lat="43.42753084182071" lon="6.224054282413914"><ele>197.0</ele><time>2026-03-29T09:56:38Z</time></trkpt><trkpt lat="43.427468292121596" lon="6.223959256679186"><ele>197.0</ele><time>2026-03-29T09:56:39Z</time></trkpt><trkpt lat="43.42739620235057" lon="6.223895127293636"><ele>197.0</ele><time>2026-03-29T09:56:40Z</time></trkpt><trkpt lat="43.42730615716402" lon="6.2238401064487086"><ele>197.0</ele><time>2026-03-29T09:56:41Z</time></trkpt><trkpt lat="43.42719566528989" lon="6.223810130308103"><ele>196.39999999999998</ele><time>2026-03-29T09:56:42Z</time></trkpt><trkpt lat="43.42709386138551" lon="6.223768996726917"><ele>195.79999999999998</ele><time>2026-03-29T09:56:43Z</time></trkpt><trkpt lat="43.42700149135432" lon="6.223733862777551"><ele>195.2</ele><time>2026-03-29T09:56:44Z</time></trkpt><trkpt lat="43.4269339596312" lon="6.223655835391193"><ele>194.6</ele><time>2026-03-29T09:56:45Z</time></trkpt><trkpt lat="43.42687381630621" lon="6.223608409375405"><ele>194.0</ele><time>2026-03-29T09:56:46Z</time></trkpt><trkpt lat="43.42686026119645" lon="6.223483552136112"><ele>194.00000000000003</ele><time>2026-03-29T09:56:52Z</time></trkpt><trkpt lat="43.426897075771315" lon="6.223387279276105"><ele>194.0</ele><time>2026-03-29T09:56:54Z</time></trkpt><trkpt lat="43.426931608265896" lon="6.223300541307096"><ele>194.0</ele><time>2026-03-29T09:56:55Z</time></trkpt><trkpt lat="43.42696989247117" lon="6.223203410286757"><ele>194.0</ele><time>2026-03-29T09:56:56Z</time></trkpt><trkpt lat="43.427027575069296" lon="6.2230737991183895"><ele>194.00000000000003</ele><time>2026-03-29T09:56:57Z</time></trkpt><trkpt lat="43.42707878704324" lon="6.222967478417563"><ele>194.0</ele><time>2026-03-29T09:56:58Z</time></trkpt><trkpt lat="43.42712271482797" lon="6.2228693807221225"><ele>194.33333333333334</ele><time>2026-03-29T09:56:59Z</time></trkpt><trkpt lat="43.427157689731686" lon="6.222787357807026"><ele>194.66666666666669</ele><time>2026-03-29T09:57:00Z</time></trkpt><trkpt lat="43.42721658473373" lon="6.2226783838016475"><ele>195.0</ele><time>2026-03-29T09:57:02Z</time></trkpt><trkpt lat="43.42729779758593" lon="6.2226544080298725"><ele>195.33333333333331</ele><time>2026-03-29T09:57:05Z</time></trkpt><trkpt lat="43.42736012231236" lon="6.222680421597674"><ele>195.66666666666666</ele><time>2026-03-29T09:57:15.999Z</time></trkpt><trkpt lat="43.42744102332369" lon="6.222657293973546"><ele>196.0</ele><time>2026-03-29T09:57:18.999Z</time></trkpt><trkpt lat="43.42750854907685" lon="6.222616794970994"><ele>195.99999999999997</ele><time>2026-03-29T09:57:21.999Z</time></trkpt><trkpt lat="43.42760075177218" lon="6.222574511382906"><ele>196.0</ele><time>2026-03-29T09:57:24.999Z</time></trkpt><trkpt lat="43.427671557763865" lon="6.222529961654672"><ele>196.0</ele><time>2026-03-29T09:57:26.999Z</time></trkpt><trkpt lat="43.42772929474313" lon="6.222488161807718"><ele>196.0</ele><time>2026-03-29T09:57:30.999Z</time></trkpt><trkpt lat="43.42763573467289" lon="6.222532306228683"><ele>195.99999999999997</ele><time>2026-03-29T09:57:33.999Z</time></trkpt><trkpt lat="43.42757046462461" lon="6.222578762038599"><ele>196.0</ele><time>2026-03-29T09:57:36.999Z</time></trkpt><trkpt lat="43.427548890018194" lon="6.222662304037858"><ele>196.0</ele><time>2026-03-29T09:59:23.999Z</time></trkpt></trkseg></trk></gpx>